<?xml version="1.0" encoding="UTF-8" standalone="no" ?><gpx xmlns="http://www.topografix.com/GPX/1/1" xmlns:gpxx="http://www.garmin.com/xmlschemas/GpxExtensions/v3" xmlns:wptx1="http://www.garmin.com/xmlschemas/WaypointExtension/v1" xmlns:gpxtpx="http://www.garmin.com/xmlschemas/TrackPointExtension/v1" creator="Dakota 20" version="1.1" xmlns:xsi="http://www.w3.org/2001/XMLSchema-instance" xsi:schemaLocation="http://www.topografix.com/GPX/1/1 http://www.topografix.com/GPX/1/1/gpx.xsd http://www.garmin.com/xmlschemas/GpxExtensions/v3 http://www8.garmin.com/xmlschemas/GpxExtensionsv3.xsd http://www.garmin.com/xmlschemas/WaypointExtension/v1 http://www8.garmin.com/xmlschemas/WaypointExtensionv1.xsd http://www.garmin.com/xmlschemas/TrackPointExtension/v1 http://www.garmin.com/xmlschemas/TrackPointExtensionv1.xsd"><metadata><link href="http://www.garmin.com"><text>Garmin International</text></link><time>2015-04-08T20:54:04Z</time></metadata><trk><name>Tracé actuel: 06 AVR 2015 10:10</name><extensions><gpxx:TrackExtension><gpxx:DisplayColor>Red</gpxx:DisplayColor></gpxx:TrackExtension></extensions><trkseg><trkpt lat="43.0881483201" lon="-0.0446295273"><ele>361.11</ele><time>2015-04-06T08:10:05Z</time></trkpt><trkpt lat="43.0879619066" lon="-0.0445647351"><ele>359.67</ele><time>2015-04-06T08:10:22Z</time></trkpt><trkpt lat="43.0877448153" lon="-0.0445281062"><ele>364.00</ele><time>2015-04-06T08:10:35Z</time></trkpt><trkpt lat="43.0877116229" lon="-0.0445208140"><ele>367.84</ele><time>2015-04-06T08:10:38Z</time></trkpt><trkpt lat="43.0876863934" lon="-0.0445154496"><ele>371.69</ele><time>2015-04-06T08:10:41Z</time></trkpt><trkpt lat="43.0876243673" lon="-0.0445070677"><ele>376.01</ele><time>2015-04-06T08:10:45Z</time></trkpt><trkpt lat="43.0876050889" lon="-0.0445052236"><ele>380.34</ele><time>2015-04-06T08:10:49Z</time></trkpt><trkpt lat="43.0876513571" lon="-0.0445221551"><ele>383.70</ele><time>2015-04-06T08:10:53Z</time></trkpt><trkpt lat="43.0876661930" lon="-0.0445262622"><ele>384.66</ele><time>2015-04-06T08:10:55Z</time></trkpt><trkpt lat="43.0876694620" lon="-0.0445300341"><ele>386.11</ele><time>2015-04-06T08:10:57Z</time></trkpt><trkpt lat="43.0876680370" lon="-0.0445271842"><ele>389.47</ele><time>2015-04-06T08:11:01Z</time></trkpt><trkpt lat="43.0876604095" lon="-0.0445228256"><ele>392.84</ele><time>2015-04-06T08:11:07Z</time></trkpt><trkpt lat="43.0876511056" lon="-0.0445283577"><ele>392.84</ele><time>2015-04-06T08:11:08Z</time></trkpt><trkpt lat="43.0875927676" lon="-0.0445253402"><ele>395.24</ele><time>2015-04-06T08:11:15Z</time></trkpt><trkpt lat="43.0875988863" lon="-0.0445156172"><ele>398.60</ele><time>2015-04-06T08:11:23Z</time></trkpt><trkpt lat="43.0876278877" lon="-0.0444943272"><ele>401.97</ele><time>2015-04-06T08:11:33Z</time></trkpt><trkpt lat="43.0876369402" lon="-0.0444799103"><ele>404.85</ele><time>2015-04-06T08:11:47Z</time></trkpt><trkpt lat="43.0876421370" lon="-0.0444859453"><ele>408.22</ele><time>2015-04-06T08:12:10Z</time></trkpt><trkpt lat="43.0876495130" lon="-0.0444851909"><ele>406.77</ele><time>2015-04-06T08:12:33Z</time></trkpt><trkpt lat="43.0876516923" lon="-0.0444758032"><ele>407.74</ele><time>2015-04-06T08:12:58Z</time></trkpt><trkpt lat="43.0876521114" lon="-0.0444756355"><ele>407.74</ele><time>2015-04-06T08:13:28Z</time></trkpt><trkpt lat="43.0876478367" lon="-0.0444815867"><ele>408.70</ele><time>2015-04-06T08:13:56Z</time></trkpt><trkpt lat="43.0876490101" lon="-0.0444859453"><ele>408.70</ele><time>2015-04-06T08:14:07Z</time></trkpt><trkpt lat="43.0876512732" lon="-0.0444795750"><ele>408.70</ele><time>2015-04-06T08:14:23Z</time></trkpt><trkpt lat="43.0876546260" lon="-0.0444675051"><ele>408.70</ele><time>2015-04-06T08:14:52Z</time></trkpt><trkpt lat="43.0876603257" lon="-0.0444696005"><ele>408.70</ele><time>2015-04-06T08:15:17Z</time></trkpt><trkpt lat="43.0876612477" lon="-0.0444634818"><ele>408.70</ele><time>2015-04-06T08:15:34Z</time></trkpt><trkpt lat="43.0876554642" lon="-0.0444480591"><ele>408.22</ele><time>2015-04-06T08:15:52Z</time></trkpt><trkpt lat="43.0876645166" lon="-0.0444561057"><ele>408.22</ele><time>2015-04-06T08:16:02Z</time></trkpt><trkpt lat="43.0876623373" lon="-0.0444670022"><ele>408.70</ele><time>2015-04-06T08:16:14Z</time></trkpt><trkpt lat="43.0876608286" lon="-0.0444785692"><ele>408.22</ele><time>2015-04-06T08:16:30Z</time></trkpt><trkpt lat="43.0876657739" lon="-0.0444884598"><ele>408.70</ele><time>2015-04-06T08:16:57Z</time></trkpt><trkpt lat="43.0876595713" lon="-0.0444898009"><ele>408.22</ele><time>2015-04-06T08:17:27Z</time></trkpt><trkpt lat="43.0876589008" lon="-0.0444914773"><ele>408.70</ele><time>2015-04-06T08:17:56Z</time></trkpt><trkpt lat="43.0876592360" lon="-0.0444898847"><ele>408.22</ele><time>2015-04-06T08:18:16Z</time></trkpt><trkpt lat="43.0876502674" lon="-0.0444934890"><ele>408.22</ele><time>2015-04-06T08:18:20Z</time></trkpt><trkpt lat="43.0876055919" lon="-0.0445089117"><ele>408.22</ele><time>2015-04-06T08:18:33Z</time></trkpt><trkpt lat="43.0875969585" lon="-0.0445028767"><ele>408.70</ele><time>2015-04-06T08:18:55Z</time></trkpt><trkpt lat="43.0875952821" lon="-0.0445006974"><ele>408.22</ele><time>2015-04-06T08:19:16Z</time></trkpt><trkpt lat="43.0876122974" lon="-0.0444933213"><ele>408.70</ele><time>2015-04-06T08:19:27Z</time></trkpt><trkpt lat="43.0876668636" lon="-0.0444908906"><ele>408.22</ele><time>2015-04-06T08:19:40Z</time></trkpt><trkpt lat="43.0876687076" lon="-0.0444929022"><ele>408.70</ele><time>2015-04-06T08:19:55Z</time></trkpt><trkpt lat="43.0876685400" lon="-0.0444978476"><ele>408.22</ele><time>2015-04-06T08:20:19Z</time></trkpt><trkpt lat="43.0876617506" lon="-0.0445005298"><ele>408.22</ele><time>2015-04-06T08:20:44Z</time></trkpt><trkpt lat="43.0876672827" lon="-0.0444991887"><ele>408.22</ele><time>2015-04-06T08:21:11Z</time></trkpt><trkpt lat="43.0876709707" lon="-0.0444879569"><ele>408.22</ele><time>2015-04-06T08:21:29Z</time></trkpt><trkpt lat="43.0876694620" lon="-0.0444852747"><ele>407.74</ele><time>2015-04-06T08:21:40Z</time></trkpt><trkpt lat="43.0878129601" lon="-0.0445064809"><ele>407.74</ele><time>2015-04-06T08:21:48Z</time></trkpt><trkpt lat="43.0878188275" lon="-0.0445061456"><ele>407.74</ele><time>2015-04-06T08:21:50Z</time></trkpt><trkpt lat="43.0878894031" lon="-0.0445376616"><ele>407.74</ele><time>2015-04-06T08:21:56Z</time></trkpt><trkpt lat="43.0878868047" lon="-0.0446318742"><ele>408.22</ele><time>2015-04-06T08:21:58Z</time></trkpt><trkpt lat="43.0878876429" lon="-0.0446905475"><ele>408.22</ele><time>2015-04-06T08:21:59Z</time></trkpt><trkpt lat="43.0878951028" lon="-0.0448759552"><ele>408.22</ele><time>2015-04-06T08:22:02Z</time></trkpt><trkpt lat="43.0879110284" lon="-0.0456351880"><ele>408.22</ele><time>2015-04-06T08:22:17Z</time></trkpt><trkpt lat="43.0879235175" lon="-0.0460072607"><ele>407.74</ele><time>2015-04-06T08:22:29Z</time></trkpt><trkpt lat="43.0879300553" lon="-0.0460284669"><ele>407.74</ele><time>2015-04-06T08:22:30Z</time></trkpt><trkpt lat="43.0879567098" lon="-0.0460734777"><ele>408.22</ele><time>2015-04-06T08:22:32Z</time></trkpt><trkpt lat="43.0879816040" lon="-0.0460836198"><ele>407.74</ele><time>2015-04-06T08:22:33Z</time></trkpt><trkpt lat="43.0884557683" lon="-0.0460943487"><ele>407.74</ele><time>2015-04-06T08:22:45Z</time></trkpt><trkpt lat="43.0891966447" lon="-0.0461098552"><ele>405.81</ele><time>2015-04-06T08:23:00Z</time></trkpt><trkpt lat="43.0893995706" lon="-0.0460832007"><ele>405.81</ele><time>2015-04-06T08:23:07Z</time></trkpt><trkpt lat="43.0894240458" lon="-0.0460650958"><ele>405.81</ele><time>2015-04-06T08:23:08Z</time></trkpt><trkpt lat="43.0894454196" lon="-0.0460396986"><ele>405.81</ele><time>2015-04-06T08:23:09Z</time></trkpt><trkpt lat="43.0894643627" lon="-0.0460090209"><ele>405.33</ele><time>2015-04-06T08:23:10Z</time></trkpt><trkpt lat="43.0894832220" lon="-0.0459769182"><ele>405.81</ele><time>2015-04-06T08:23:11Z</time></trkpt><trkpt lat="43.0895055179" lon="-0.0459460728"><ele>405.33</ele><time>2015-04-06T08:23:12Z</time></trkpt><trkpt lat="43.0899435561" lon="-0.0453051087"><ele>404.85</ele><time>2015-04-06T08:23:28Z</time></trkpt><trkpt lat="43.0903396849" lon="-0.0445179641"><ele>404.37</ele><time>2015-04-06T08:23:43Z</time></trkpt><trkpt lat="43.0908027012" lon="-0.0434968807"><ele>402.93</ele><time>2015-04-06T08:24:02Z</time></trkpt><trkpt lat="43.0913451780" lon="-0.0423488114"><ele>403.41</ele><time>2015-04-06T08:24:23Z</time></trkpt><trkpt lat="43.0918199290" lon="-0.0416057557"><ele>402.93</ele><time>2015-04-06T08:24:40Z</time></trkpt><trkpt lat="43.0918791052" lon="-0.0415142253"><ele>403.41</ele><time>2015-04-06T08:24:42Z</time></trkpt><trkpt lat="43.0923870485" lon="-0.0409027655"><ele>403.89</ele><time>2015-04-06T08:24:55Z</time></trkpt><trkpt lat="43.0925447959" lon="-0.0407288410"><ele>404.37</ele><time>2015-04-06T08:24:59Z</time></trkpt><trkpt lat="43.0933053698" lon="-0.0398068316"><ele>404.85</ele><time>2015-04-06T08:25:19Z</time></trkpt><trkpt lat="43.0937658716" lon="-0.0390521251"><ele>404.85</ele><time>2015-04-06T08:25:35Z</time></trkpt><trkpt lat="43.0940563884" lon="-0.0382949878"><ele>405.81</ele><time>2015-04-06T08:25:52Z</time></trkpt><trkpt lat="43.0942516867" lon="-0.0374300592"><ele>405.81</ele><time>2015-04-06T08:26:08Z</time></trkpt><trkpt lat="43.0943038221" lon="-0.0370143168"><ele>406.29</ele><time>2015-04-06T08:26:15Z</time></trkpt><trkpt lat="43.0943903234" lon="-0.0361508969"><ele>406.29</ele><time>2015-04-06T08:26:31Z</time></trkpt><trkpt lat="43.0945132021" lon="-0.0350039173"><ele>407.26</ele><time>2015-04-06T08:26:51Z</time></trkpt><trkpt lat="43.0946209095" lon="-0.0339781400"><ele>407.74</ele><time>2015-04-06T08:27:09Z</time></trkpt><trkpt lat="43.0948720314" lon="-0.0329327490"><ele>408.22</ele><time>2015-04-06T08:27:29Z</time></trkpt><trkpt lat="43.0950625520" lon="-0.0324978959"><ele>408.70</ele><time>2015-04-06T08:27:43Z</time></trkpt><trkpt lat="43.0950859375" lon="-0.0324553996"><ele>408.22</ele><time>2015-04-06T08:27:45Z</time></trkpt><trkpt lat="43.0950894579" lon="-0.0324300863"><ele>408.22</ele><time>2015-04-06T08:27:46Z</time></trkpt><trkpt lat="43.0950836744" lon="-0.0324070361"><ele>408.70</ele><time>2015-04-06T08:27:47Z</time></trkpt><trkpt lat="43.0950703472" lon="-0.0323858298"><ele>408.22</ele><time>2015-04-06T08:27:48Z</time></trkpt><trkpt lat="43.0950534996" lon="-0.0323681440"><ele>408.22</ele><time>2015-04-06T08:27:49Z</time></trkpt><trkpt lat="43.0950338021" lon="-0.0323549844"><ele>408.70</ele><time>2015-04-06T08:27:50Z</time></trkpt><trkpt lat="43.0950129312" lon="-0.0323435850"><ele>409.18</ele><time>2015-04-06T08:27:51Z</time></trkpt><trkpt lat="43.0949929822" lon="-0.0323303416"><ele>408.70</ele><time>2015-04-06T08:27:52Z</time></trkpt><trkpt lat="43.0948444549" lon="-0.0322422478"><ele>409.18</ele><time>2015-04-06T08:28:02Z</time></trkpt><trkpt lat="43.0948409345" lon="-0.0322226342"><ele>409.18</ele><time>2015-04-06T08:28:03Z</time></trkpt><trkpt lat="43.0948431976" lon="-0.0322031882"><ele>409.18</ele><time>2015-04-06T08:28:04Z</time></trkpt><trkpt lat="43.0948499031" lon="-0.0321818143"><ele>409.18</ele><time>2015-04-06T08:28:05Z</time></trkpt><trkpt lat="43.0948555190" lon="-0.0321616139"><ele>409.66</ele><time>2015-04-06T08:28:06Z</time></trkpt><trkpt lat="43.0948525853" lon="-0.0321399886"><ele>409.66</ele><time>2015-04-06T08:28:07Z</time></trkpt><trkpt lat="43.0948436167" lon="-0.0321106520"><ele>409.66</ele><time>2015-04-06T08:28:08Z</time></trkpt><trkpt lat="43.0948336422" lon="-0.0320774596"><ele>410.14</ele><time>2015-04-06T08:28:09Z</time></trkpt><trkpt lat="43.0948203988" lon="-0.0320347119"><ele>410.14</ele><time>2015-04-06T08:28:10Z</time></trkpt><trkpt lat="43.0948006175" lon="-0.0319903716"><ele>410.62</ele><time>2015-04-06T08:28:11Z</time></trkpt><trkpt lat="43.0947818421" lon="-0.0319569279"><ele>410.62</ele><time>2015-04-06T08:28:12Z</time></trkpt><trkpt lat="43.0947685149" lon="-0.0319297705"><ele>410.62</ele><time>2015-04-06T08:28:13Z</time></trkpt><trkpt lat="43.0947566126" lon="-0.0319073908"><ele>410.62</ele><time>2015-04-06T08:28:14Z</time></trkpt><trkpt lat="43.0947439559" lon="-0.0318896212"><ele>410.62</ele><time>2015-04-06T08:28:15Z</time></trkpt><trkpt lat="43.0947010405" lon="-0.0318036228"><ele>411.10</ele><time>2015-04-06T08:28:18Z</time></trkpt><trkpt lat="43.0947043095" lon="-0.0317738671"><ele>411.10</ele><time>2015-04-06T08:28:19Z</time></trkpt><trkpt lat="43.0947085842" lon="-0.0317460392"><ele>411.58</ele><time>2015-04-06T08:28:20Z</time></trkpt><trkpt lat="43.0947083328" lon="-0.0317167863"><ele>411.10</ele><time>2015-04-06T08:28:21Z</time></trkpt><trkpt lat="43.0947043095" lon="-0.0316859409"><ele>411.58</ele><time>2015-04-06T08:28:22Z</time></trkpt><trkpt lat="43.0947037227" lon="-0.0316544250"><ele>411.58</ele><time>2015-04-06T08:28:23Z</time></trkpt><trkpt lat="43.0947064050" lon="-0.0316219032"><ele>412.06</ele><time>2015-04-06T08:28:24Z</time></trkpt><trkpt lat="43.0947046448" lon="-0.0311707053"><ele>415.43</ele><time>2015-04-06T08:28:39Z</time></trkpt><trkpt lat="43.0945137888" lon="-0.0307243690"><ele>417.83</ele><time>2015-04-06T08:28:54Z</time></trkpt><trkpt lat="43.0945885554" lon="-0.0301712472"><ele>417.83</ele><time>2015-04-06T08:29:07Z</time></trkpt><trkpt lat="43.0946566164" lon="-0.0295664929"><ele>416.87</ele><time>2015-04-06T08:29:19Z</time></trkpt><trkpt lat="43.0946610589" lon="-0.0291232578"><ele>416.39</ele><time>2015-04-06T08:29:26Z</time></trkpt><trkpt lat="43.0946535151" lon="-0.0290613994"><ele>415.91</ele><time>2015-04-06T08:29:27Z</time></trkpt><trkpt lat="43.0946509168" lon="-0.0289994571"><ele>416.39</ele><time>2015-04-06T08:29:28Z</time></trkpt><trkpt lat="43.0946328118" lon="-0.0280886795"><ele>415.91</ele><time>2015-04-06T08:29:43Z</time></trkpt><trkpt lat="43.0944061652" lon="-0.0273022894"><ele>416.87</ele><time>2015-04-06T08:29:59Z</time></trkpt><trkpt lat="43.0942526925" lon="-0.0270815101"><ele>419.27</ele><time>2015-04-06T08:30:08Z</time></trkpt><trkpt lat="43.0942186620" lon="-0.0270060729"><ele>420.71</ele><time>2015-04-06T08:30:11Z</time></trkpt><trkpt lat="43.0941545404" lon="-0.0267997943"><ele>423.60</ele><time>2015-04-06T08:30:19Z</time></trkpt><trkpt lat="43.0941370223" lon="-0.0266659353"><ele>425.04</ele><time>2015-04-06T08:30:24Z</time></trkpt><trkpt lat="43.0941279698" lon="-0.0266464893"><ele>426.00</ele><time>2015-04-06T08:30:25Z</time></trkpt><trkpt lat="43.0941223539" lon="-0.0266262051"><ele>426.00</ele><time>2015-04-06T08:30:26Z</time></trkpt><trkpt lat="43.0940329190" lon="-0.0264636800"><ele>427.92</ele><time>2015-04-06T08:30:36Z</time></trkpt><trkpt lat="43.0940215196" lon="-0.0264574774"><ele>427.92</ele><time>2015-04-06T08:30:37Z</time></trkpt><trkpt lat="43.0939996429" lon="-0.0264577288"><ele>427.92</ele><time>2015-04-06T08:30:42Z</time></trkpt><trkpt lat="43.0939647742" lon="-0.0265946891"><ele>428.89</ele><time>2015-04-06T08:30:53Z</time></trkpt><trkpt lat="43.0939661991" lon="-0.0266919192"><ele>430.33</ele><time>2015-04-06T08:30:58Z</time></trkpt><trkpt lat="43.0939627625" lon="-0.0268269517"><ele>431.77</ele><time>2015-04-06T08:31:06Z</time></trkpt><trkpt lat="43.0939807836" lon="-0.0269272830"><ele>433.69</ele><time>2015-04-06T08:31:13Z</time></trkpt><trkpt lat="43.0939852260" lon="-0.0270423666"><ele>436.58</ele><time>2015-04-06T08:31:22Z</time></trkpt><trkpt lat="43.0939825438" lon="-0.0272216555"><ele>439.94</ele><time>2015-04-06T08:31:34Z</time></trkpt><trkpt lat="43.0939810351" lon="-0.0273340568"><ele>442.34</ele><time>2015-04-06T08:31:42Z</time></trkpt><trkpt lat="43.0939656124" lon="-0.0275135133"><ele>445.23</ele><time>2015-04-06T08:31:55Z</time></trkpt><trkpt lat="43.0939571466" lon="-0.0275542494"><ele>446.67</ele><time>2015-04-06T08:31:58Z</time></trkpt><trkpt lat="43.0939443223" lon="-0.0276439358"><ele>448.11</ele><time>2015-04-06T08:32:04Z</time></trkpt><trkpt lat="43.0939480104" lon="-0.0276776310"><ele>448.59</ele><time>2015-04-06T08:32:06Z</time></trkpt><trkpt lat="43.0939500220" lon="-0.0277713407"><ele>451.00</ele><time>2015-04-06T08:32:11Z</time></trkpt><trkpt lat="43.0939510278" lon="-0.0279947184"><ele>454.36</ele><time>2015-04-06T08:32:22Z</time></trkpt><trkpt lat="43.0939350184" lon="-0.0280881766"><ele>455.80</ele><time>2015-04-06T08:32:27Z</time></trkpt><trkpt lat="43.0939136446" lon="-0.0281163398"><ele>456.76</ele><time>2015-04-06T08:32:29Z</time></trkpt><trkpt lat="43.0938504450" lon="-0.0283185113"><ele>459.17</ele><time>2015-04-06T08:32:41Z</time></trkpt><trkpt lat="43.0938330106" lon="-0.0283753406"><ele>460.13</ele><time>2015-04-06T08:32:45Z</time></trkpt><trkpt lat="43.0938148219" lon="-0.0284571480"><ele>461.09</ele><time>2015-04-06T08:32:51Z</time></trkpt><trkpt lat="43.0937818810" lon="-0.0285739917"><ele>462.53</ele><time>2015-04-06T08:32:59Z</time></trkpt><trkpt lat="43.0937484372" lon="-0.0286387000"><ele>463.01</ele><time>2015-04-06T08:33:04Z</time></trkpt><trkpt lat="43.0937071145" lon="-0.0288557913"><ele>464.93</ele><time>2015-04-06T08:33:18Z</time></trkpt><trkpt lat="43.0936903507" lon="-0.0290288776"><ele>466.86</ele><time>2015-04-06T08:33:30Z</time></trkpt><trkpt lat="43.0936943740" lon="-0.0290386006"><ele>467.34</ele><time>2015-04-06T08:33:31Z</time></trkpt><trkpt lat="43.0936521292" lon="-0.0292455498"><ele>470.70</ele><time>2015-04-06T08:33:44Z</time></trkpt><trkpt lat="43.0936120637" lon="-0.0293158740"><ele>471.18</ele><time>2015-04-06T08:33:57Z</time></trkpt><trkpt lat="43.0935797095" lon="-0.0293658301"><ele>472.14</ele><time>2015-04-06T08:34:11Z</time></trkpt><trkpt lat="43.0935160071" lon="-0.0292698573"><ele>472.63</ele><time>2015-04-06T08:34:24Z</time></trkpt><trkpt lat="43.0935042724" lon="-0.0292369165"><ele>473.11</ele><time>2015-04-06T08:34:26Z</time></trkpt><trkpt lat="43.0934964772" lon="-0.0290845335"><ele>474.55</ele><time>2015-04-06T08:34:36Z</time></trkpt><trkpt lat="43.0935324356" lon="-0.0289484113"><ele>475.51</ele><time>2015-04-06T08:34:42Z</time></trkpt><trkpt lat="43.0935100559" lon="-0.0289095193"><ele>475.51</ele><time>2015-04-06T08:34:44Z</time></trkpt><trkpt lat="43.0935335252" lon="-0.0287321582"><ele>476.95</ele><time>2015-04-06T08:34:53Z</time></trkpt><trkpt lat="43.0935713276" lon="-0.0285354350"><ele>477.91</ele><time>2015-04-06T08:35:02Z</time></trkpt><trkpt lat="43.0935664661" lon="-0.0284724031"><ele>477.91</ele><time>2015-04-06T08:35:04Z</time></trkpt><trkpt lat="43.0934383068" lon="-0.0281438325"><ele>479.84</ele><time>2015-04-06T08:35:17Z</time></trkpt><trkpt lat="43.0932740215" lon="-0.0279458519"><ele>481.76</ele><time>2015-04-06T08:35:31Z</time></trkpt><trkpt lat="43.0932492949" lon="-0.0279008411"><ele>482.72</ele><time>2015-04-06T08:35:36Z</time></trkpt><trkpt lat="43.0932226405" lon="-0.0279064570"><ele>484.16</ele><time>2015-04-06T08:35:42Z</time></trkpt><trkpt lat="43.0931823235" lon="-0.0279942993"><ele>485.60</ele><time>2015-04-06T08:35:49Z</time></trkpt><trkpt lat="43.0931684934" lon="-0.0280438364"><ele>486.08</ele><time>2015-04-06T08:35:53Z</time></trkpt><trkpt lat="43.0931692477" lon="-0.0281778630"><ele>487.53</ele><time>2015-04-06T08:36:01Z</time></trkpt><trkpt lat="43.0931798089" lon="-0.0282200240"><ele>488.49</ele><time>2015-04-06T08:36:04Z</time></trkpt><trkpt lat="43.0931775458" lon="-0.0283648632"><ele>488.97</ele><time>2015-04-06T08:36:10Z</time></trkpt><trkpt lat="43.0929576047" lon="-0.0284076948"><ele>490.89</ele><time>2015-04-06T08:36:24Z</time></trkpt><trkpt lat="43.0929306149" lon="-0.0283719040"><ele>491.37</ele><time>2015-04-06T08:36:27Z</time></trkpt><trkpt lat="43.0928877834" lon="-0.0283197686"><ele>491.85</ele><time>2015-04-06T08:36:31Z</time></trkpt><trkpt lat="43.0928472988" lon="-0.0282737520"><ele>492.81</ele><time>2015-04-06T08:36:36Z</time></trkpt><trkpt lat="43.0927931517" lon="-0.0282137375"><ele>494.74</ele><time>2015-04-06T08:36:42Z</time></trkpt><trkpt lat="43.0927581992" lon="-0.0280392263"><ele>496.18</ele><time>2015-04-06T08:36:54Z</time></trkpt><trkpt lat="43.0927270185" lon="-0.0278998353"><ele>498.58</ele><time>2015-04-06T08:37:04Z</time></trkpt><trkpt lat="43.0926818401" lon="-0.0277787168"><ele>500.50</ele><time>2015-04-06T08:37:13Z</time></trkpt><trkpt lat="43.0925957579" lon="-0.0275502261"><ele>502.43</ele><time>2015-04-06T08:37:27Z</time></trkpt><trkpt lat="43.0925006233" lon="-0.0273304526"><ele>505.79</ele><time>2015-04-06T08:37:39Z</time></trkpt><trkpt lat="43.0924463086" lon="-0.0270804204"><ele>508.67</ele><time>2015-04-06T08:37:52Z</time></trkpt><trkpt lat="43.0923904013" lon="-0.0268854573"><ele>511.56</ele><time>2015-04-06T08:38:03Z</time></trkpt><trkpt lat="43.0922990385" lon="-0.0266531110"><ele>513.48</ele><time>2015-04-06T08:38:15Z</time></trkpt><trkpt lat="43.0922931712" lon="-0.0266133808"><ele>514.92</ele><time>2015-04-06T08:38:17Z</time></trkpt><trkpt lat="43.0922921654" lon="-0.0265781768"><ele>514.92</ele><time>2015-04-06T08:38:19Z</time></trkpt><trkpt lat="43.0922780838" lon="-0.0265467446"><ele>515.40</ele><time>2015-04-06T08:38:21Z</time></trkpt><trkpt lat="43.0921430513" lon="-0.0263322517"><ele>518.77</ele><time>2015-04-06T08:38:33Z</time></trkpt><trkpt lat="43.0920833722" lon="-0.0262797810"><ele>519.25</ele><time>2015-04-06T08:38:44Z</time></trkpt><trkpt lat="43.0920289736" lon="-0.0262547191"><ele>519.73</ele><time>2015-04-06T08:39:00Z</time></trkpt><trkpt lat="43.0919829570" lon="-0.0262696389"><ele>519.73</ele><time>2015-04-06T08:39:18Z</time></trkpt><trkpt lat="43.0919674505" lon="-0.0262817089"><ele>519.73</ele><time>2015-04-06T08:39:44Z</time></trkpt><trkpt lat="43.0919084419" lon="-0.0262560602"><ele>520.21</ele><time>2015-04-06T08:40:03Z</time></trkpt><trkpt lat="43.0917935260" lon="-0.0262429006"><ele>521.17</ele><time>2015-04-06T08:40:17Z</time></trkpt><trkpt lat="43.0917800311" lon="-0.0262474269"><ele>521.65</ele><time>2015-04-06T08:40:19Z</time></trkpt><trkpt lat="43.0917633511" lon="-0.0262587424"><ele>520.69</ele><time>2015-04-06T08:40:27Z</time></trkpt><trkpt lat="43.0917637702" lon="-0.0262655318"><ele>521.65</ele><time>2015-04-06T08:40:51Z</time></trkpt><trkpt lat="43.0917579867" lon="-0.0262816250"><ele>521.65</ele><time>2015-04-06T08:41:09Z</time></trkpt><trkpt lat="43.0917447433" lon="-0.0262921024"><ele>521.17</ele><time>2015-04-06T08:41:39Z</time></trkpt><trkpt lat="43.0917430669" lon="-0.0262872409"><ele>521.17</ele><time>2015-04-06T08:41:52Z</time></trkpt><trkpt lat="43.0917436536" lon="-0.0262691360"><ele>520.69</ele><time>2015-04-06T08:42:23Z</time></trkpt><trkpt lat="43.0917484313" lon="-0.0262679625"><ele>520.69</ele><time>2015-04-06T08:42:55Z</time></trkpt><trkpt lat="43.0917294882" lon="-0.0262880791"><ele>520.69</ele><time>2015-04-06T08:43:09Z</time></trkpt><trkpt lat="43.0916550569" lon="-0.0263383705"><ele>522.13</ele><time>2015-04-06T08:43:14Z</time></trkpt><trkpt lat="43.0915452540" lon="-0.0264072698"><ele>524.06</ele><time>2015-04-06T08:43:23Z</time></trkpt><trkpt lat="43.0913930386" lon="-0.0265284721"><ele>525.98</ele><time>2015-04-06T08:43:36Z</time></trkpt><trkpt lat="43.0913412385" lon="-0.0265495107"><ele>527.42</ele><time>2015-04-06T08:43:41Z</time></trkpt><trkpt lat="43.0911773723" lon="-0.0265732314"><ele>530.30</ele><time>2015-04-06T08:43:53Z</time></trkpt><trkpt lat="43.0911641289" lon="-0.0265745725"><ele>530.30</ele><time>2015-04-06T08:43:55Z</time></trkpt><trkpt lat="43.0911337025" lon="-0.0265685376"><ele>530.79</ele><time>2015-04-06T08:43:57Z</time></trkpt><trkpt lat="43.0909425952" lon="-0.0265615806"><ele>533.19</ele><time>2015-04-06T08:44:10Z</time></trkpt><trkpt lat="43.0909009371" lon="-0.0265657715"><ele>534.15</ele><time>2015-04-06T08:44:13Z</time></trkpt><trkpt lat="43.0908041261" lon="-0.0265615806"><ele>535.11</ele><time>2015-04-06T08:44:21Z</time></trkpt><trkpt lat="43.0907133501" lon="-0.0265247840"><ele>536.07</ele><time>2015-04-06T08:44:32Z</time></trkpt><trkpt lat="43.0906685069" lon="-0.0264982972"><ele>537.51</ele><time>2015-04-06T08:44:36Z</time></trkpt><trkpt lat="43.0906500667" lon="-0.0264868140"><ele>537.03</ele><time>2015-04-06T08:44:38Z</time></trkpt><trkpt lat="43.0905931536" lon="-0.0264568906"><ele>537.51</ele><time>2015-04-06T08:44:42Z</time></trkpt><trkpt lat="43.0905628949" lon="-0.0264060963"><ele>537.99</ele><time>2015-04-06T08:44:45Z</time></trkpt><trkpt lat="43.0905399285" lon="-0.0263663661"><ele>538.48</ele><time>2015-04-06T08:44:47Z</time></trkpt><trkpt lat="43.0904961750" lon="-0.0262562279"><ele>538.48</ele><time>2015-04-06T08:44:53Z</time></trkpt><trkpt lat="43.0904672574" lon="-0.0262159947"><ele>538.96</ele><time>2015-04-06T08:44:55Z</time></trkpt><trkpt lat="43.0903500784" lon="-0.0260786992"><ele>539.44</ele><time>2015-04-06T08:45:04Z</time></trkpt><trkpt lat="43.0902694445" lon="-0.0259723328"><ele>539.92</ele><time>2015-04-06T08:45:12Z</time></trkpt><trkpt lat="43.0902262777" lon="-0.0259460136"><ele>539.92</ele><time>2015-04-06T08:45:15Z</time></trkpt><trkpt lat="43.0900422949" lon="-0.0258661341"><ele>540.88</ele><time>2015-04-06T08:45:26Z</time></trkpt><trkpt lat="43.0898303166" lon="-0.0258739293"><ele>542.32</ele><time>2015-04-06T08:45:39Z</time></trkpt><trkpt lat="43.0896920990" lon="-0.0258769467"><ele>543.28</ele><time>2015-04-06T08:45:47Z</time></trkpt><trkpt lat="43.0895837210" lon="-0.0258970633"><ele>544.72</ele><time>2015-04-06T08:45:53Z</time></trkpt><trkpt lat="43.0895004887" lon="-0.0258840714"><ele>545.69</ele><time>2015-04-06T08:45:58Z</time></trkpt><trkpt lat="43.0893680546" lon="-0.0259383023"><ele>546.65</ele><time>2015-04-06T08:46:04Z</time></trkpt><trkpt lat="43.0890314374" lon="-0.0260237139"><ele>550.49</ele><time>2015-04-06T08:46:20Z</time></trkpt><trkpt lat="43.0888353009" lon="-0.0260935351"><ele>553.38</ele><time>2015-04-06T08:46:33Z</time></trkpt><trkpt lat="43.0887569301" lon="-0.0261199381"><ele>554.82</ele><time>2015-04-06T08:46:38Z</time></trkpt><trkpt lat="43.0885469634" lon="-0.0261689723"><ele>558.18</ele><time>2015-04-06T08:46:53Z</time></trkpt><trkpt lat="43.0883183889" lon="-0.0261798687"><ele>559.14</ele><time>2015-04-06T08:47:07Z</time></trkpt><trkpt lat="43.0882612243" lon="-0.0261626020"><ele>560.59</ele><time>2015-04-06T08:47:12Z</time></trkpt><trkpt lat="43.0882283673" lon="-0.0261516217"><ele>561.07</ele><time>2015-04-06T08:47:14Z</time></trkpt><trkpt lat="43.0881713703" lon="-0.0261145737"><ele>562.03</ele><time>2015-04-06T08:47:18Z</time></trkpt><trkpt lat="43.0880583823" lon="-0.0260389689"><ele>562.99</ele><time>2015-04-06T08:47:25Z</time></trkpt><trkpt lat="43.0879411194" lon="-0.0260248035"><ele>563.95</ele><time>2015-04-06T08:47:32Z</time></trkpt><trkpt lat="43.0879224278" lon="-0.0260378793"><ele>563.95</ele><time>2015-04-06T08:47:34Z</time></trkpt><trkpt lat="43.0878938455" lon="-0.0260646176"><ele>564.43</ele><time>2015-04-06T08:47:37Z</time></trkpt><trkpt lat="43.0878862180" lon="-0.0261314213"><ele>565.39</ele><time>2015-04-06T08:47:42Z</time></trkpt><trkpt lat="43.0879083462" lon="-0.0261972193"><ele>566.83</ele><time>2015-04-06T08:47:52Z</time></trkpt><trkpt lat="43.0880099349" lon="-0.0262716506"><ele>568.76</ele><time>2015-04-06T08:48:03Z</time></trkpt><trkpt lat="43.0880980287" lon="-0.0263614208"><ele>569.72</ele><time>2015-04-06T08:48:12Z</time></trkpt><trkpt lat="43.0881118588" lon="-0.0263794418"><ele>570.20</ele><time>2015-04-06T08:48:13Z</time></trkpt><trkpt lat="43.0881837755" lon="-0.0264447369"><ele>570.68</ele><time>2015-04-06T08:48:18Z</time></trkpt><trkpt lat="43.0882390961" lon="-0.0265004765"><ele>571.16</ele><time>2015-04-06T08:48:22Z</time></trkpt><trkpt lat="43.0883431155" lon="-0.0266668573"><ele>572.60</ele><time>2015-04-06T08:48:31Z</time></trkpt><trkpt lat="43.0883833487" lon="-0.0269080885"><ele>574.53</ele><time>2015-04-06T08:48:41Z</time></trkpt><trkpt lat="43.0884051416" lon="-0.0270048995"><ele>574.53</ele><time>2015-04-06T08:48:44Z</time></trkpt><trkpt lat="43.0885399226" lon="-0.0273600407"><ele>576.45</ele><time>2015-04-06T08:48:51Z</time></trkpt><trkpt lat="43.0884750467" lon="-0.0277135056"><ele>578.37</ele><time>2015-04-06T08:49:06Z</time></trkpt><trkpt lat="43.0884459615" lon="-0.0278645474"><ele>579.81</ele><time>2015-04-06T08:49:13Z</time></trkpt><trkpt lat="43.0884115119" lon="-0.0280395616"><ele>581.25</ele><time>2015-04-06T08:49:22Z</time></trkpt><trkpt lat="43.0884056445" lon="-0.0281428266"><ele>581.73</ele><time>2015-04-06T08:49:27Z</time></trkpt><trkpt lat="43.0884206481" lon="-0.0283176731"><ele>582.70</ele><time>2015-04-06T08:49:36Z</time></trkpt><trkpt lat="43.0884021241" lon="-0.0286319945"><ele>583.18</ele><time>2015-04-06T08:49:49Z</time></trkpt><trkpt lat="43.0883957539" lon="-0.0287190825"><ele>583.18</ele><time>2015-04-06T08:49:52Z</time></trkpt><trkpt lat="43.0883325543" lon="-0.0290861260"><ele>585.10</ele><time>2015-04-06T08:50:07Z</time></trkpt><trkpt lat="43.0883298721" lon="-0.0290936697"><ele>585.10</ele><time>2015-04-06T08:50:08Z</time></trkpt><trkpt lat="43.0882994458" lon="-0.0290799234"><ele>585.58</ele><time>2015-04-06T08:50:11Z</time></trkpt><trkpt lat="43.0882462207" lon="-0.0290394388"><ele>586.54</ele><time>2015-04-06T08:50:18Z</time></trkpt><trkpt lat="43.0882206559" lon="-0.0289268699"><ele>587.50</ele><time>2015-04-06T08:50:26Z</time></trkpt><trkpt lat="43.0881888047" lon="-0.0288225152"><ele>588.46</ele><time>2015-04-06T08:50:32Z</time></trkpt><trkpt lat="43.0881812610" lon="-0.0287522748"><ele>588.95</ele><time>2015-04-06T08:50:37Z</time></trkpt><trkpt lat="43.0881651677" lon="-0.0287262909"><ele>588.95</ele><time>2015-04-06T08:50:40Z</time></trkpt><trkpt lat="43.0881071649" lon="-0.0284563936"><ele>591.35</ele><time>2015-04-06T08:50:53Z</time></trkpt><trkpt lat="43.0880632438" lon="-0.0281243026"><ele>594.23</ele><time>2015-04-06T08:51:06Z</time></trkpt><trkpt lat="43.0880208313" lon="-0.0279402360"><ele>596.15</ele><time>2015-04-06T08:51:15Z</time></trkpt><trkpt lat="43.0878593121" lon="-0.0277148467"><ele>598.56</ele><time>2015-04-06T08:51:29Z</time></trkpt><trkpt lat="43.0878473260" lon="-0.0277095661"><ele>599.04</ele><time>2015-04-06T08:51:30Z</time></trkpt><trkpt lat="43.0878160615" lon="-0.0276677404"><ele>599.04</ele><time>2015-04-06T08:51:33Z</time></trkpt><trkpt lat="43.0877614953" lon="-0.0276157726"><ele>600.48</ele><time>2015-04-06T08:51:37Z</time></trkpt><trkpt lat="43.0877351761" lon="-0.0275840890"><ele>600.48</ele><time>2015-04-06T08:51:39Z</time></trkpt><trkpt lat="43.0877066776" lon="-0.0275574345"><ele>600.96</ele><time>2015-04-06T08:51:41Z</time></trkpt><trkpt lat="43.0876639299" lon="-0.0274747889"><ele>601.92</ele><time>2015-04-06T08:51:47Z</time></trkpt><trkpt lat="43.0875830445" lon="-0.0273946580"><ele>603.36</ele><time>2015-04-06T08:51:54Z</time></trkpt><trkpt lat="43.0875940248" lon="-0.0273985136"><ele>603.85</ele><time>2015-04-06T08:52:01Z</time></trkpt><trkpt lat="43.0875792727" lon="-0.0274368189"><ele>606.25</ele><time>2015-04-06T08:52:13Z</time></trkpt><trkpt lat="43.0875884090" lon="-0.0275576022"><ele>608.65</ele><time>2015-04-06T08:52:26Z</time></trkpt><trkpt lat="43.0875953659" lon="-0.0275912974"><ele>609.13</ele><time>2015-04-06T08:52:28Z</time></trkpt><trkpt lat="43.0876552127" lon="-0.0279534794"><ele>611.54</ele><time>2015-04-06T08:52:42Z</time></trkpt><trkpt lat="43.0876590684" lon="-0.0281492807"><ele>613.46</ele><time>2015-04-06T08:52:49Z</time></trkpt><trkpt lat="43.0876255408" lon="-0.0284938607"><ele>616.34</ele><time>2015-04-06T08:53:01Z</time></trkpt><trkpt lat="43.0875909235" lon="-0.0286359340"><ele>617.30</ele><time>2015-04-06T08:53:07Z</time></trkpt><trkpt lat="43.0875889119" lon="-0.0287855510"><ele>619.23</ele><time>2015-04-06T08:53:16Z</time></trkpt><trkpt lat="43.0875826254" lon="-0.0288371835"><ele>619.71</ele><time>2015-04-06T08:53:19Z</time></trkpt><trkpt lat="43.0875903368" lon="-0.0290458091"><ele>622.11</ele><time>2015-04-06T08:53:30Z</time></trkpt><trkpt lat="43.0875858944" lon="-0.0291257724"><ele>623.07</ele><time>2015-04-06T08:53:35Z</time></trkpt><trkpt lat="43.0875759199" lon="-0.0291681010"><ele>623.55</ele><time>2015-04-06T08:53:38Z</time></trkpt><trkpt lat="43.0875629280" lon="-0.0292971823"><ele>624.99</ele><time>2015-04-06T08:53:46Z</time></trkpt><trkpt lat="43.0875791050" lon="-0.0294739567"><ele>627.88</ele><time>2015-04-06T08:53:56Z</time></trkpt><trkpt lat="43.0876473337" lon="-0.0296793971"><ele>629.32</ele><time>2015-04-06T08:54:07Z</time></trkpt><trkpt lat="43.0877659377" lon="-0.0299306866"><ele>632.68</ele><time>2015-04-06T08:54:20Z</time></trkpt><trkpt lat="43.0877733137" lon="-0.0299531501"><ele>633.17</ele><time>2015-04-06T08:54:21Z</time></trkpt><trkpt lat="43.0877835397" lon="-0.0301259011"><ele>634.13</ele><time>2015-04-06T08:54:28Z</time></trkpt><trkpt lat="43.0877958611" lon="-0.0303926133"><ele>637.01</ele><time>2015-04-06T08:54:41Z</time></trkpt><trkpt lat="43.0878127087" lon="-0.0306288153"><ele>638.93</ele><time>2015-04-06T08:54:54Z</time></trkpt><trkpt lat="43.0878224317" lon="-0.0306704734"><ele>640.38</ele><time>2015-04-06T08:54:58Z</time></trkpt><trkpt lat="43.0878787581" lon="-0.0306993071"><ele>641.82</ele><time>2015-04-06T08:55:06Z</time></trkpt><trkpt lat="43.0880836118" lon="-0.0306673720"><ele>644.70</ele><time>2015-04-06T08:55:20Z</time></trkpt><trkpt lat="43.0883820076" lon="-0.0307973754"><ele>647.10</ele><time>2015-04-06T08:55:37Z</time></trkpt><trkpt lat="43.0885814968" lon="-0.0309153926"><ele>649.99</ele><time>2015-04-06T08:55:51Z</time></trkpt><trkpt lat="43.0886321235" lon="-0.0310989562"><ele>652.39</ele><time>2015-04-06T08:56:04Z</time></trkpt><trkpt lat="43.0886306148" lon="-0.0312091783"><ele>653.83</ele><time>2015-04-06T08:56:13Z</time></trkpt><trkpt lat="43.0886302795" lon="-0.0312848669"><ele>654.80</ele><time>2015-04-06T08:56:17Z</time></trkpt><trkpt lat="43.0886338837" lon="-0.0314193126"><ele>656.24</ele><time>2015-04-06T08:56:24Z</time></trkpt><trkpt lat="43.0886467081" lon="-0.0316799898"><ele>659.12</ele><time>2015-04-06T08:56:37Z</time></trkpt><trkpt lat="43.0886454508" lon="-0.0318017788"><ele>660.08</ele><time>2015-04-06T08:56:44Z</time></trkpt><trkpt lat="43.0886355601" lon="-0.0318348035"><ele>660.56</ele><time>2015-04-06T08:56:46Z</time></trkpt><trkpt lat="43.0886256695" lon="-0.0321127474"><ele>663.45</ele><time>2015-04-06T08:56:59Z</time></trkpt><trkpt lat="43.0886153597" lon="-0.0321912020"><ele>664.41</ele><time>2015-04-06T08:57:04Z</time></trkpt><trkpt lat="43.0885888729" lon="-0.0323548168"><ele>666.33</ele><time>2015-04-06T08:57:12Z</time></trkpt><trkpt lat="43.0885623861" lon="-0.0325628556"><ele>668.73</ele><time>2015-04-06T08:57:23Z</time></trkpt><trkpt lat="43.0885380786" lon="-0.0326729100"><ele>669.70</ele><time>2015-04-06T08:57:28Z</time></trkpt><trkpt lat="43.0885141063" lon="-0.0328806136"><ele>672.58</ele><time>2015-04-06T08:57:38Z</time></trkpt><trkpt lat="43.0884964205" lon="-0.0329496805"><ele>673.06</ele><time>2015-04-06T08:57:42Z</time></trkpt><trkpt lat="43.0884193070" lon="-0.0330858026"><ele>674.50</ele><time>2015-04-06T08:57:53Z</time></trkpt><trkpt lat="43.0883884616" lon="-0.0331650954"><ele>674.98</ele><time>2015-04-06T08:58:01Z</time></trkpt><trkpt lat="43.0884050578" lon="-0.0331885647"><ele>674.50</ele><time>2015-04-06T08:58:04Z</time></trkpt><trkpt lat="43.0883578677" lon="-0.0332333241"><ele>674.50</ele><time>2015-04-06T08:58:18Z</time></trkpt><trkpt lat="43.0883458816" lon="-0.0332344137"><ele>675.46</ele><time>2015-04-06T08:58:43Z</time></trkpt><trkpt lat="43.0883307103" lon="-0.0332510099"><ele>674.98</ele><time>2015-04-06T08:59:08Z</time></trkpt><trkpt lat="43.0883224960" lon="-0.0332601462"><ele>674.98</ele><time>2015-04-06T08:59:33Z</time></trkpt><trkpt lat="43.0883229990" lon="-0.0332582183"><ele>674.50</ele><time>2015-04-06T08:59:52Z</time></trkpt><trkpt lat="43.0883261841" lon="-0.0332614034"><ele>674.50</ele><time>2015-04-06T09:00:13Z</time></trkpt><trkpt lat="43.0883247592" lon="-0.0332514290"><ele>674.02</ele><time>2015-04-06T09:00:32Z</time></trkpt><trkpt lat="43.0883183051" lon="-0.0332260318"><ele>674.02</ele><time>2015-04-06T09:00:34Z</time></trkpt><trkpt lat="43.0882820953" lon="-0.0331837870"><ele>674.02</ele><time>2015-04-06T09:00:38Z</time></trkpt><trkpt lat="43.0880757328" lon="-0.0330896582"><ele>676.42</ele><time>2015-04-06T09:00:52Z</time></trkpt><trkpt lat="43.0879479926" lon="-0.0330132991"><ele>678.35</ele><time>2015-04-06T09:01:03Z</time></trkpt><trkpt lat="43.0877875630" lon="-0.0329403765"><ele>680.75</ele><time>2015-04-06T09:01:15Z</time></trkpt><trkpt lat="43.0876689591" lon="-0.0328677893"><ele>682.67</ele><time>2015-04-06T09:01:26Z</time></trkpt><trkpt lat="43.0875922646" lon="-0.0328695495"><ele>684.12</ele><time>2015-04-06T09:01:33Z</time></trkpt><trkpt lat="43.0873936974" lon="-0.0328631792"><ele>686.04</ele><time>2015-04-06T09:01:46Z</time></trkpt><trkpt lat="43.0873420648" lon="-0.0328673702"><ele>687.00</ele><time>2015-04-06T09:01:50Z</time></trkpt><trkpt lat="43.0873088725" lon="-0.0328703038"><ele>687.48</ele><time>2015-04-06T09:01:52Z</time></trkpt><trkpt lat="43.0872441642" lon="-0.0328671187"><ele>688.92</ele><time>2015-04-06T09:02:00Z</time></trkpt><trkpt lat="43.0871944595" lon="-0.0328775961"><ele>689.40</ele><time>2015-04-06T09:02:03Z</time></trkpt><trkpt lat="43.0871298350" lon="-0.0329048373"><ele>690.84</ele><time>2015-04-06T09:02:09Z</time></trkpt><trkpt lat="43.0870685633" lon="-0.0329183321"><ele>691.81</ele><time>2015-04-06T09:02:15Z</time></trkpt><trkpt lat="43.0869391467" lon="-0.0329653546"><ele>693.73</ele><time>2015-04-06T09:02:27Z</time></trkpt><trkpt lat="43.0869096424" lon="-0.0329842139"><ele>695.17</ele><time>2015-04-06T09:02:30Z</time></trkpt><trkpt lat="43.0868601054" lon="-0.0330099463"><ele>695.65</ele><time>2015-04-06T09:02:33Z</time></trkpt><trkpt lat="43.0868121609" lon="-0.0330175739"><ele>695.65</ele><time>2015-04-06T09:02:37Z</time></trkpt><trkpt lat="43.0868213810" lon="-0.0328878220"><ele>697.57</ele><time>2015-04-06T09:02:49Z</time></trkpt><trkpt lat="43.0868341215" lon="-0.0328599941"><ele>698.05</ele><time>2015-04-06T09:02:53Z</time></trkpt><trkpt lat="43.0868543219" lon="-0.0327218603"><ele>699.98</ele><time>2015-04-06T09:03:03Z</time></trkpt><trkpt lat="43.0868587643" lon="-0.0325850677"><ele>701.90</ele><time>2015-04-06T09:03:10Z</time></trkpt><trkpt lat="43.0868622847" lon="-0.0323220436"><ele>703.82</ele><time>2015-04-06T09:03:23Z</time></trkpt><trkpt lat="43.0868544895" lon="-0.0322764460"><ele>704.30</ele><time>2015-04-06T09:03:26Z</time></trkpt><trkpt lat="43.0868492927" lon="-0.0322308484"><ele>704.30</ele><time>2015-04-06T09:03:29Z</time></trkpt><trkpt lat="43.0868440960" lon="-0.0320647191"><ele>706.23</ele><time>2015-04-06T09:03:38Z</time></trkpt><trkpt lat="43.0868332833" lon="-0.0320276711"><ele>707.19</ele><time>2015-04-06T09:03:40Z</time></trkpt><trkpt lat="43.0867725983" lon="-0.0318112504"><ele>709.11</ele><time>2015-04-06T09:03:52Z</time></trkpt><trkpt lat="43.0867756996" lon="-0.0317679998"><ele>709.11</ele><time>2015-04-06T09:03:54Z</time></trkpt><trkpt lat="43.0867667310" lon="-0.0317236595"><ele>710.07</ele><time>2015-04-06T09:03:56Z</time></trkpt><trkpt lat="43.0867563374" lon="-0.0316645671"><ele>710.55</ele><time>2015-04-06T09:03:59Z</time></trkpt><trkpt lat="43.0867541581" lon="-0.0315580331"><ele>711.51</ele><time>2015-04-06T09:04:04Z</time></trkpt><trkpt lat="43.0867507216" lon="-0.0315130223"><ele>711.51</ele><time>2015-04-06T09:04:06Z</time></trkpt><trkpt lat="43.0867254082" lon="-0.0314127747"><ele>712.47</ele><time>2015-04-06T09:04:12Z</time></trkpt><trkpt lat="43.0866824090" lon="-0.0312071666"><ele>714.40</ele><time>2015-04-06T09:04:23Z</time></trkpt><trkpt lat="43.0866531562" lon="-0.0311381835"><ele>715.36</ele><time>2015-04-06T09:04:27Z</time></trkpt><trkpt lat="43.0866307765" lon="-0.0310962740"><ele>715.84</ele><time>2015-04-06T09:04:30Z</time></trkpt><trkpt lat="43.0865791440" lon="-0.0309975352"><ele>717.28</ele><time>2015-04-06T09:04:37Z</time></trkpt><trkpt lat="43.0865065567" lon="-0.0308836251"><ele>718.72</ele><time>2015-04-06T09:04:45Z</time></trkpt><trkpt lat="43.0864298623" lon="-0.0307863113"><ele>719.68</ele><time>2015-04-06T09:04:53Z</time></trkpt><trkpt lat="43.0863772240" lon="-0.0306902546"><ele>721.13</ele><time>2015-04-06T09:05:00Z</time></trkpt><trkpt lat="43.0862539262" lon="-0.0304846466"><ele>724.01</ele><time>2015-04-06T09:05:14Z</time></trkpt><trkpt lat="43.0861531757" lon="-0.0303218700"><ele>726.41</ele><time>2015-04-06T09:05:26Z</time></trkpt><trkpt lat="43.0860962626" lon="-0.0302352011"><ele>727.37</ele><time>2015-04-06T09:05:32Z</time></trkpt><trkpt lat="43.0860497430" lon="-0.0301653799"><ele>728.82</ele><time>2015-04-06T09:05:39Z</time></trkpt><trkpt lat="43.0858610664" lon="-0.0300215464"><ele>730.74</ele><time>2015-04-06T09:05:52Z</time></trkpt><trkpt lat="43.0858494993" lon="-0.0300024357"><ele>731.22</ele><time>2015-04-06T09:05:53Z</time></trkpt><trkpt lat="43.0857291352" lon="-0.0298324507"><ele>732.18</ele><time>2015-04-06T09:06:07Z</time></trkpt><trkpt lat="43.0855830386" lon="-0.0296170358"><ele>733.62</ele><time>2015-04-06T09:06:19Z</time></trkpt><trkpt lat="43.0856002215" lon="-0.0295976736"><ele>734.10</ele><time>2015-04-06T09:06:23Z</time></trkpt><trkpt lat="43.0856221821" lon="-0.0295891240"><ele>734.10</ele><time>2015-04-06T09:06:25Z</time></trkpt><trkpt lat="43.0856925901" lon="-0.0297670718"><ele>736.99</ele><time>2015-04-06T09:06:39Z</time></trkpt><trkpt lat="43.0856954399" lon="-0.0297731068"><ele>736.51</ele><time>2015-04-06T09:06:40Z</time></trkpt><trkpt lat="43.0857108627" lon="-0.0298031978"><ele>736.99</ele><time>2015-04-06T09:06:42Z</time></trkpt><trkpt lat="43.0857998785" lon="-0.0300188642"><ele>739.39</ele><time>2015-04-06T09:06:56Z</time></trkpt><trkpt lat="43.0858034827" lon="-0.0300238095"><ele>739.39</ele><time>2015-04-06T09:06:57Z</time></trkpt><trkpt lat="43.0858626589" lon="-0.0301441737"><ele>740.35</ele><time>2015-04-06T09:07:04Z</time></trkpt><trkpt lat="43.0858776625" lon="-0.0302589219"><ele>741.79</ele><time>2015-04-06T09:07:10Z</time></trkpt><trkpt lat="43.0858713761" lon="-0.0302859955"><ele>742.28</ele><time>2015-04-06T09:07:12Z</time></trkpt><trkpt lat="43.0858836975" lon="-0.0303274021"><ele>743.24</ele><time>2015-04-06T09:07:15Z</time></trkpt><trkpt lat="43.0858852901" lon="-0.0304330979"><ele>744.68</ele><time>2015-04-06T09:07:20Z</time></trkpt><trkpt lat="43.0858769920" lon="-0.0305427331"><ele>746.12</ele><time>2015-04-06T09:07:29Z</time></trkpt><trkpt lat="43.0858800933" lon="-0.0307149813"><ele>747.56</ele><time>2015-04-06T09:07:37Z</time></trkpt><trkpt lat="43.0858725496" lon="-0.0310077611"><ele>750.45</ele><time>2015-04-06T09:07:52Z</time></trkpt><trkpt lat="43.0858684424" lon="-0.0311027281"><ele>750.93</ele><time>2015-04-06T09:07:57Z</time></trkpt><trkpt lat="43.0858682748" lon="-0.0311354175"><ele>751.41</ele><time>2015-04-06T09:07:59Z</time></trkpt><trkpt lat="43.0858489964" lon="-0.0313128624"><ele>753.81</ele><time>2015-04-06T09:08:08Z</time></trkpt><trkpt lat="43.0858199112" lon="-0.0315282773"><ele>755.25</ele><time>2015-04-06T09:08:18Z</time></trkpt><trkpt lat="43.0857361760" lon="-0.0317369029"><ele>757.66</ele><time>2015-04-06T09:08:31Z</time></trkpt><trkpt lat="43.0857057497" lon="-0.0317867752"><ele>758.62</ele><time>2015-04-06T09:08:35Z</time></trkpt><trkpt lat="43.0856915843" lon="-0.0318453647"><ele>759.58</ele><time>2015-04-06T09:08:38Z</time></trkpt><trkpt lat="43.0855940189" lon="-0.0319938920"><ele>761.50</ele><time>2015-04-06T09:08:49Z</time></trkpt><trkpt lat="43.0855514389" lon="-0.0320668984"><ele>761.98</ele><time>2015-04-06T09:08:53Z</time></trkpt><trkpt lat="43.0855253711" lon="-0.0320895296"><ele>762.46</ele><time>2015-04-06T09:08:55Z</time></trkpt><trkpt lat="43.0854573101" lon="-0.0321573392"><ele>763.42</ele><time>2015-04-06T09:09:01Z</time></trkpt><trkpt lat="43.0854147300" lon="-0.0322104804"><ele>764.39</ele><time>2015-04-06T09:09:05Z</time></trkpt><trkpt lat="43.0853741616" lon="-0.0322426669"><ele>764.87</ele><time>2015-04-06T09:09:08Z</time></trkpt><trkpt lat="43.0853032507" lon="-0.0323690660"><ele>766.31</ele><time>2015-04-06T09:09:17Z</time></trkpt><trkpt lat="43.0852445774" lon="-0.0324303377"><ele>767.27</ele><time>2015-04-06T09:09:22Z</time></trkpt><trkpt lat="43.0850476027" lon="-0.0326159969"><ele>770.15</ele><time>2015-04-06T09:09:38Z</time></trkpt><trkpt lat="43.0849818885" lon="-0.0326699764"><ele>772.08</ele><time>2015-04-06T09:09:44Z</time></trkpt><trkpt lat="43.0849243887" lon="-0.0327100419"><ele>772.56</ele><time>2015-04-06T09:09:48Z</time></trkpt><trkpt lat="43.0847728439" lon="-0.0328430627"><ele>774.96</ele><time>2015-04-06T09:09:59Z</time></trkpt><trkpt lat="43.0846185330" lon="-0.0329853036"><ele>776.88</ele><time>2015-04-06T09:10:11Z</time></trkpt><trkpt lat="43.0844646413" lon="-0.0330952741"><ele>778.32</ele><time>2015-04-06T09:10:21Z</time></trkpt><trkpt lat="43.0842855200" lon="-0.0332629122"><ele>780.73</ele><time>2015-04-06T09:10:35Z</time></trkpt><trkpt lat="43.0842489749" lon="-0.0332983676"><ele>781.21</ele><time>2015-04-06T09:10:38Z</time></trkpt><trkpt lat="43.0840959214" lon="-0.0334292091"><ele>783.13</ele><time>2015-04-06T09:10:51Z</time></trkpt><trkpt lat="43.0840815883" lon="-0.0334354118"><ele>783.61</ele><time>2015-04-06T09:10:52Z</time></trkpt><trkpt lat="43.0840243399" lon="-0.0334852003"><ele>784.09</ele><time>2015-04-06T09:10:57Z</time></trkpt><trkpt lat="43.0838351604" lon="-0.0336330570"><ele>787.46</ele><time>2015-04-06T09:11:12Z</time></trkpt><trkpt lat="43.0837489944" lon="-0.0337050576"><ele>788.42</ele><time>2015-04-06T09:11:19Z</time></trkpt><trkpt lat="43.0835653469" lon="-0.0338351447"><ele>790.34</ele><time>2015-04-06T09:11:33Z</time></trkpt><trkpt lat="43.0835368484" lon="-0.0338267628"><ele>790.34</ele><time>2015-04-06T09:11:36Z</time></trkpt><trkpt lat="43.0835194141" lon="-0.0337825902"><ele>790.82</ele><time>2015-04-06T09:11:40Z</time></trkpt><trkpt lat="43.0835269578" lon="-0.0337291136"><ele>790.82</ele><time>2015-04-06T09:11:45Z</time></trkpt><trkpt lat="43.0835577194" lon="-0.0336932391"><ele>790.82</ele><time>2015-04-06T09:12:00Z</time></trkpt><trkpt lat="43.0835762434" lon="-0.0337139424"><ele>790.34</ele><time>2015-04-06T09:12:13Z</time></trkpt><trkpt lat="43.0836060829" lon="-0.0336895511"><ele>790.82</ele><time>2015-04-06T09:12:25Z</time></trkpt><trkpt lat="43.0837145448" lon="-0.0335277803"><ele>793.22</ele><time>2015-04-06T09:12:38Z</time></trkpt><trkpt lat="43.0837229267" lon="-0.0335151237"><ele>793.71</ele><time>2015-04-06T09:12:39Z</time></trkpt><trkpt lat="43.0838137865" lon="-0.0333068334"><ele>795.15</ele><time>2015-04-06T09:12:52Z</time></trkpt><trkpt lat="43.0838899780" lon="-0.0331742316"><ele>797.07</ele><time>2015-04-06T09:13:01Z</time></trkpt><trkpt lat="43.0839516688" lon="-0.0330384448"><ele>798.03</ele><time>2015-04-06T09:13:09Z</time></trkpt><trkpt lat="43.0840437859" lon="-0.0328505225"><ele>799.95</ele><time>2015-04-06T09:13:21Z</time></trkpt><trkpt lat="43.0841663294" lon="-0.0325795356"><ele>802.36</ele><time>2015-04-06T09:13:37Z</time></trkpt><trkpt lat="43.0842467956" lon="-0.0323551521"><ele>804.76</ele><time>2015-04-06T09:13:51Z</time></trkpt><trkpt lat="43.0842927285" lon="-0.0322072115"><ele>806.20</ele><time>2015-04-06T09:13:59Z</time></trkpt><trkpt lat="43.0843614601" lon="-0.0319821574"><ele>808.61</ele><time>2015-04-06T09:14:12Z</time></trkpt><trkpt lat="43.0844013579" lon="-0.0317311194"><ele>810.53</ele><time>2015-04-06T09:14:25Z</time></trkpt><trkpt lat="43.0844246596" lon="-0.0316579454"><ele>811.49</ele><time>2015-04-06T09:14:29Z</time></trkpt><trkpt lat="43.0844702572" lon="-0.0313796662"><ele>813.41</ele><time>2015-04-06T09:14:42Z</time></trkpt><trkpt lat="43.0845168605" lon="-0.0311159715"><ele>814.37</ele><time>2015-04-06T09:14:55Z</time></trkpt><trkpt lat="43.0845467001" lon="-0.0310265366"><ele>814.37</ele><time>2015-04-06T09:15:00Z</time></trkpt><trkpt lat="43.0845271703" lon="-0.0309333298"><ele>815.34</ele><time>2015-04-06T09:15:06Z</time></trkpt><trkpt lat="43.0844269227" lon="-0.0310407020"><ele>816.30</ele><time>2015-04-06T09:15:15Z</time></trkpt><trkpt lat="43.0843519885" lon="-0.0313401036"><ele>818.70</ele><time>2015-04-06T09:15:31Z</time></trkpt><trkpt lat="43.0842241645" lon="-0.0315385032"><ele>821.58</ele><time>2015-04-06T09:15:44Z</time></trkpt><trkpt lat="43.0841939058" lon="-0.0315868668"><ele>821.58</ele><time>2015-04-06T09:15:47Z</time></trkpt><trkpt lat="43.0841762200" lon="-0.0316062290"><ele>821.58</ele><time>2015-04-06T09:15:49Z</time></trkpt><trkpt lat="43.0840200651" lon="-0.0318134297"><ele>824.47</ele><time>2015-04-06T09:16:04Z</time></trkpt><trkpt lat="43.0839001201" lon="-0.0319815706"><ele>826.87</ele><time>2015-04-06T09:16:17Z</time></trkpt><trkpt lat="43.0837601423" lon="-0.0321348757"><ele>829.27</ele><time>2015-04-06T09:16:30Z</time></trkpt><trkpt lat="43.0836294685" lon="-0.0322788768"><ele>831.68</ele><time>2015-04-06T09:16:41Z</time></trkpt><trkpt lat="43.0835138820" lon="-0.0324390549"><ele>834.08</ele><time>2015-04-06T09:16:54Z</time></trkpt><trkpt lat="43.0833512731" lon="-0.0325581618"><ele>837.93</ele><time>2015-04-06T09:17:06Z</time></trkpt><trkpt lat="43.0831774324" lon="-0.0326828845"><ele>839.85</ele><time>2015-04-06T09:17:21Z</time></trkpt><trkpt lat="43.0830688030" lon="-0.0327496044"><ele>841.29</ele><time>2015-04-06T09:17:30Z</time></trkpt><trkpt lat="43.0828967225" lon="-0.0328400452"><ele>843.69</ele><time>2015-04-06T09:17:44Z</time></trkpt><trkpt lat="43.0827471055" lon="-0.0328776799"><ele>845.14</ele><time>2015-04-06T09:17:57Z</time></trkpt><trkpt lat="43.0825710017" lon="-0.0328713097"><ele>847.54</ele><time>2015-04-06T09:18:11Z</time></trkpt><trkpt lat="43.0824408308" lon="-0.0328870676"><ele>849.94</ele><time>2015-04-06T09:18:23Z</time></trkpt><trkpt lat="43.0823754519" lon="-0.0328708068"><ele>849.94</ele><time>2015-04-06T09:18:27Z</time></trkpt><trkpt lat="43.0821574386" lon="-0.0329019036"><ele>852.83</ele><time>2015-04-06T09:18:40Z</time></trkpt><trkpt lat="43.0819690973" lon="-0.0329796039"><ele>855.23</ele><time>2015-04-06T09:18:55Z</time></trkpt><trkpt lat="43.0818828475" lon="-0.0329881534"><ele>855.71</ele><time>2015-04-06T09:19:02Z</time></trkpt><trkpt lat="43.0819070712" lon="-0.0329016522"><ele>856.19</ele><time>2015-04-06T09:19:09Z</time></trkpt><trkpt lat="43.0820533354" lon="-0.0327763427"><ele>858.11</ele><time>2015-04-06T09:19:22Z</time></trkpt><trkpt lat="43.0820782296" lon="-0.0327064376"><ele>859.56</ele><time>2015-04-06T09:19:26Z</time></trkpt><trkpt lat="43.0822030362" lon="-0.0325079542"><ele>861.96</ele><time>2015-04-06T09:19:39Z</time></trkpt><trkpt lat="43.0822627991" lon="-0.0323888473"><ele>863.40</ele><time>2015-04-06T09:19:47Z</time></trkpt><trkpt lat="43.0822969973" lon="-0.0323348679"><ele>863.88</ele><time>2015-04-06T09:19:51Z</time></trkpt><trkpt lat="43.0824122485" lon="-0.0321358815"><ele>866.77</ele><time>2015-04-06T09:20:04Z</time></trkpt><trkpt lat="43.0825187825" lon="-0.0319363084"><ele>869.65</ele><time>2015-04-06T09:20:16Z</time></trkpt><trkpt lat="43.0826439243" lon="-0.0317593664"><ele>872.05</ele><time>2015-04-06T09:20:30Z</time></trkpt><trkpt lat="43.0827794597" lon="-0.0316180475"><ele>873.98</ele><time>2015-04-06T09:20:44Z</time></trkpt><trkpt lat="43.0827881768" lon="-0.0316125154"><ele>874.46</ele><time>2015-04-06T09:20:45Z</time></trkpt><trkpt lat="43.0828208663" lon="-0.0315740425"><ele>874.46</ele><time>2015-04-06T09:20:49Z</time></trkpt><trkpt lat="43.0828414019" lon="-0.0315608829"><ele>874.94</ele><time>2015-04-06T09:20:51Z</time></trkpt><trkpt lat="43.0828906037" lon="-0.0315454602"><ele>875.90</ele><time>2015-04-06T09:20:56Z</time></trkpt><trkpt lat="43.0829697289" lon="-0.0314250961"><ele>876.38</ele><time>2015-04-06T09:21:07Z</time></trkpt><trkpt lat="43.0828099698" lon="-0.0314478949"><ele>877.82</ele><time>2015-04-06T09:21:21Z</time></trkpt><trkpt lat="43.0827346165" lon="-0.0314444583"><ele>878.30</ele><time>2015-04-06T09:21:27Z</time></trkpt><trkpt lat="43.0825300980" lon="-0.0313706975"><ele>881.19</ele><time>2015-04-06T09:21:43Z</time></trkpt><trkpt lat="43.0824753642" lon="-0.0313779898"><ele>882.63</ele><time>2015-04-06T09:21:47Z</time></trkpt><trkpt lat="43.0824194569" lon="-0.0314080808"><ele>883.59</ele><time>2015-04-06T09:21:51Z</time></trkpt><trkpt lat="43.0823495518" lon="-0.0314363278"><ele>884.55</ele><time>2015-04-06T09:21:56Z</time></trkpt><trkpt lat="43.0822434369" lon="-0.0315078255"><ele>885.99</ele><time>2015-04-06T09:22:05Z</time></trkpt><trkpt lat="43.0820902996" lon="-0.0316127669"><ele>888.88</ele><time>2015-04-06T09:22:18Z</time></trkpt><trkpt lat="43.0819416884" lon="-0.0316290278"><ele>890.80</ele><time>2015-04-06T09:22:30Z</time></trkpt><trkpt lat="43.0818842724" lon="-0.0316593703"><ele>891.28</ele><time>2015-04-06T09:22:35Z</time></trkpt><trkpt lat="43.0818584561" lon="-0.0316872820"><ele>891.76</ele><time>2015-04-06T09:22:38Z</time></trkpt><trkpt lat="43.0818209890" lon="-0.0317046326"><ele>892.24</ele><time>2015-04-06T09:22:42Z</time></trkpt><trkpt lat="43.0817538500" lon="-0.0317488890"><ele>894.16</ele><time>2015-04-06T09:22:49Z</time></trkpt><trkpt lat="43.0815976113" lon="-0.0318106636"><ele>895.12</ele><time>2015-04-06T09:23:02Z</time></trkpt><trkpt lat="43.0815846194" lon="-0.0318076462"><ele>895.61</ele><time>2015-04-06T09:23:03Z</time></trkpt><trkpt lat="43.0814136285" lon="-0.0318602845"><ele>898.01</ele><time>2015-04-06T09:23:17Z</time></trkpt><trkpt lat="43.0813697074" lon="-0.0318778027"><ele>898.01</ele><time>2015-04-06T09:23:21Z</time></trkpt><trkpt lat="43.0813231040" lon="-0.0319125876"><ele>898.49</ele><time>2015-04-06T09:23:25Z</time></trkpt><trkpt lat="43.0811412167" lon="-0.0320174452"><ele>900.89</ele><time>2015-04-06T09:23:38Z</time></trkpt><trkpt lat="43.0809882469" lon="-0.0321613625"><ele>902.82</ele><time>2015-04-06T09:23:52Z</time></trkpt><trkpt lat="43.0809680466" lon="-0.0321798027"><ele>901.85</ele><time>2015-04-06T09:24:05Z</time></trkpt><trkpt lat="43.0809543841" lon="-0.0321844965"><ele>901.37</ele><time>2015-04-06T09:24:33Z</time></trkpt><trkpt lat="43.0809553899" lon="-0.0321872625"><ele>901.37</ele><time>2015-04-06T09:24:44Z</time></trkpt><trkpt lat="43.0809507798" lon="-0.0321947224"><ele>899.45</ele><time>2015-04-06T09:24:57Z</time></trkpt><trkpt lat="43.0809521209" lon="-0.0322253164"><ele>899.45</ele><time>2015-04-06T09:25:23Z</time></trkpt><trkpt lat="43.0809671246" lon="-0.0322336983"><ele>899.45</ele><time>2015-04-06T09:25:55Z</time></trkpt><trkpt lat="43.0809915159" lon="-0.0322176050"><ele>898.97</ele><time>2015-04-06T09:26:24Z</time></trkpt><trkpt lat="43.0809940305" lon="-0.0322166830"><ele>898.49</ele><time>2015-04-06T09:26:35Z</time></trkpt><trkpt lat="43.0809931085" lon="-0.0322030205"><ele>898.49</ele><time>2015-04-06T09:26:51Z</time></trkpt><trkpt lat="43.0809894204" lon="-0.0322048645"><ele>898.97</ele><time>2015-04-06T09:27:16Z</time></trkpt><trkpt lat="43.0809852295" lon="-0.0322107319"><ele>899.93</ele><time>2015-04-06T09:27:32Z</time></trkpt><trkpt lat="43.0809798650" lon="-0.0322179403"><ele>900.41</ele><time>2015-04-06T09:27:41Z</time></trkpt><trkpt lat="43.0807781126" lon="-0.0324147474"><ele>898.97</ele><time>2015-04-06T09:27:51Z</time></trkpt><trkpt lat="43.0807197746" lon="-0.0324398093"><ele>899.45</ele><time>2015-04-06T09:27:53Z</time></trkpt><trkpt lat="43.0804158468" lon="-0.0325989816"><ele>899.45</ele><time>2015-04-06T09:28:05Z</time></trkpt><trkpt lat="43.0801178701" lon="-0.0326862372"><ele>900.89</ele><time>2015-04-06T09:28:19Z</time></trkpt><trkpt lat="43.0799369887" lon="-0.0327005703"><ele>904.26</ele><time>2015-04-06T09:28:31Z</time></trkpt><trkpt lat="43.0797589570" lon="-0.0326379575"><ele>907.14</ele><time>2015-04-06T09:28:44Z</time></trkpt><trkpt lat="43.0797358230" lon="-0.0326138176"><ele>907.62</ele><time>2015-04-06T09:28:46Z</time></trkpt><trkpt lat="43.0797616392" lon="-0.0325787812"><ele>908.10</ele><time>2015-04-06T09:28:50Z</time></trkpt><trkpt lat="43.0799301993" lon="-0.0325766020"><ele>909.54</ele><time>2015-04-06T09:29:02Z</time></trkpt><trkpt lat="43.0799175426" lon="-0.0325621851"><ele>909.54</ele><time>2015-04-06T09:29:04Z</time></trkpt><trkpt lat="43.0798769742" lon="-0.0325441640"><ele>910.03</ele><time>2015-04-06T09:29:09Z</time></trkpt><trkpt lat="43.0799267627" lon="-0.0324994046"><ele>910.99</ele><time>2015-04-06T09:29:14Z</time></trkpt><trkpt lat="43.0801350530" lon="-0.0323438365"><ele>913.39</ele><time>2015-04-06T09:29:28Z</time></trkpt><trkpt lat="43.0802299362" lon="-0.0322668068"><ele>914.83</ele><time>2015-04-06T09:29:35Z</time></trkpt><trkpt lat="43.0802857596" lon="-0.0322115701"><ele>915.31</ele><time>2015-04-06T09:29:39Z</time></trkpt><trkpt lat="43.0803832412" lon="-0.0321344566"><ele>916.27</ele><time>2015-04-06T09:29:45Z</time></trkpt><trkpt lat="43.0806043558" lon="-0.0318534113"><ele>918.20</ele><time>2015-04-06T09:30:01Z</time></trkpt><trkpt lat="43.0808338523" lon="-0.0316018704"><ele>920.12</ele><time>2015-04-06T09:30:16Z</time></trkpt><trkpt lat="43.0809289031" lon="-0.0315217394"><ele>920.12</ele><time>2015-04-06T09:30:26Z</time></trkpt><trkpt lat="43.0809688848" lon="-0.0313774031"><ele>922.52</ele><time>2015-04-06T09:30:37Z</time></trkpt><trkpt lat="43.0808199383" lon="-0.0315000303"><ele>923.48</ele><time>2015-04-06T09:30:49Z</time></trkpt><trkpt lat="43.0805804674" lon="-0.0317404233"><ele>925.41</ele><time>2015-04-06T09:31:04Z</time></trkpt><trkpt lat="43.0803855881" lon="-0.0318676606"><ele>926.85</ele><time>2015-04-06T09:31:17Z</time></trkpt><trkpt lat="43.0801446922" lon="-0.0319255795"><ele>929.25</ele><time>2015-04-06T09:31:31Z</time></trkpt><trkpt lat="43.0798964202" lon="-0.0319414213"><ele>932.14</ele><time>2015-04-06T09:31:44Z</time></trkpt><trkpt lat="43.0796786584" lon="-0.0318844244"><ele>934.54</ele><time>2015-04-06T09:31:58Z</time></trkpt><trkpt lat="43.0794728827" lon="-0.0317911338"><ele>937.42</ele><time>2015-04-06T09:32:11Z</time></trkpt><trkpt lat="43.0792793445" lon="-0.0316430256"><ele>940.31</ele><time>2015-04-06T09:32:25Z</time></trkpt><trkpt lat="43.0791284703" lon="-0.0314404350"><ele>943.67</ele><time>2015-04-06T09:32:38Z</time></trkpt><trkpt lat="43.0791261233" lon="-0.0314155407"><ele>943.67</ele><time>2015-04-06T09:32:40Z</time></trkpt><trkpt lat="43.0791694578" lon="-0.0313447975"><ele>943.67</ele><time>2015-04-06T09:32:45Z</time></trkpt><trkpt lat="43.0791901611" lon="-0.0311830267"><ele>942.23</ele><time>2015-04-06T09:32:57Z</time></trkpt><trkpt lat="43.0791956931" lon="-0.0311494153"><ele>941.75</ele><time>2015-04-06T09:33:07Z</time></trkpt><trkpt lat="43.0791982077" lon="-0.0311472360"><ele>942.23</ele><time>2015-04-06T09:33:24Z</time></trkpt><trkpt lat="43.0792035721" lon="-0.0311538577"><ele>941.75</ele><time>2015-04-06T09:33:36Z</time></trkpt><trkpt lat="43.0792055838" lon="-0.0311562046"><ele>941.75</ele><time>2015-04-06T09:33:47Z</time></trkpt><trkpt lat="43.0792512652" lon="-0.0312602241"><ele>945.11</ele><time>2015-04-06T09:33:54Z</time></trkpt><trkpt lat="43.0792435538" lon="-0.0313049834"><ele>946.07</ele><time>2015-04-06T09:33:57Z</time></trkpt><trkpt lat="43.0792886484" lon="-0.0313847791"><ele>947.52</ele><time>2015-04-06T09:34:10Z</time></trkpt><trkpt lat="43.0794044863" lon="-0.0314204022"><ele>948.96</ele><time>2015-04-06T09:34:24Z</time></trkpt><trkpt lat="43.0794937536" lon="-0.0314148702"><ele>951.84</ele><time>2015-04-06T09:34:38Z</time></trkpt><trkpt lat="43.0795948394" lon="-0.0314043090"><ele>953.28</ele><time>2015-04-06T09:34:51Z</time></trkpt><trkpt lat="43.0796694383" lon="-0.0313282851"><ele>955.21</ele><time>2015-04-06T09:35:03Z</time></trkpt><trkpt lat="43.0797211546" lon="-0.0312681030"><ele>956.65</ele><time>2015-04-06T09:35:10Z</time></trkpt><trkpt lat="43.0797178019" lon="-0.0312437117"><ele>956.65</ele><time>2015-04-06T09:35:12Z</time></trkpt><trkpt lat="43.0797505751" lon="-0.0312596373"><ele>957.13</ele><time>2015-04-06T09:35:25Z</time></trkpt><trkpt lat="43.0797588732" lon="-0.0312717073"><ele>956.65</ele><time>2015-04-06T09:35:54Z</time></trkpt><trkpt lat="43.0797640700" lon="-0.0312560331"><ele>956.65</ele><time>2015-04-06T09:36:06Z</time></trkpt><trkpt lat="43.0797561072" lon="-0.0312595535"><ele>955.69</ele><time>2015-04-06T09:36:34Z</time></trkpt><trkpt lat="43.0797594599" lon="-0.0312605593"><ele>955.21</ele><time>2015-04-06T09:37:07Z</time></trkpt><trkpt lat="43.0797556881" lon="-0.0312608108"><ele>954.73</ele><time>2015-04-06T09:37:39Z</time></trkpt><trkpt lat="43.0797560234" lon="-0.0312627386"><ele>954.73</ele><time>2015-04-06T09:38:00Z</time></trkpt><trkpt lat="43.0797538441" lon="-0.0312791672"><ele>954.73</ele><time>2015-04-06T09:38:27Z</time></trkpt><trkpt lat="43.0797520000" lon="-0.0312865432"><ele>954.73</ele><time>2015-04-06T09:38:55Z</time></trkpt><trkpt lat="43.0797573645" lon="-0.0312778261"><ele>954.25</ele><time>2015-04-06T09:39:26Z</time></trkpt><trkpt lat="43.0797632318" lon="-0.0312714558"><ele>954.73</ele><time>2015-04-06T09:39:55Z</time></trkpt><trkpt lat="43.0797644053" lon="-0.0312678516"><ele>954.25</ele><time>2015-04-06T09:40:25Z</time></trkpt><trkpt lat="43.0797586218" lon="-0.0312681869"><ele>954.25</ele><time>2015-04-06T09:41:01Z</time></trkpt><trkpt lat="43.0797556881" lon="-0.0312592182"><ele>953.77</ele><time>2015-04-06T09:41:36Z</time></trkpt><trkpt lat="43.0797613878" lon="-0.0312510878"><ele>953.77</ele><time>2015-04-06T09:42:16Z</time></trkpt><trkpt lat="43.0797597114" lon="-0.0312495790"><ele>953.77</ele><time>2015-04-06T09:42:48Z</time></trkpt><trkpt lat="43.0797622260" lon="-0.0312539376"><ele>952.80</ele><time>2015-04-06T09:43:21Z</time></trkpt><trkpt lat="43.0797489826" lon="-0.0312602241"><ele>953.28</ele><time>2015-04-06T09:44:01Z</time></trkpt><trkpt lat="43.0797542632" lon="-0.0312671810"><ele>953.28</ele><time>2015-04-06T09:44:42Z</time></trkpt><trkpt lat="43.0797510780" lon="-0.0312717911"><ele>953.28</ele><time>2015-04-06T09:45:16Z</time></trkpt><trkpt lat="43.0797506589" lon="-0.0312691089"><ele>952.80</ele><time>2015-04-06T09:45:53Z</time></trkpt><trkpt lat="43.0797479767" lon="-0.0312661752"><ele>952.80</ele><time>2015-04-06T09:46:34Z</time></trkpt><trkpt lat="43.0797457974" lon="-0.0312746409"><ele>952.32</ele><time>2015-04-06T09:47:07Z</time></trkpt><trkpt lat="43.0797431991" lon="-0.0312739704"><ele>952.80</ele><time>2015-04-06T09:47:44Z</time></trkpt><trkpt lat="43.0797446240" lon="-0.0312691089"><ele>952.80</ele><time>2015-04-06T09:48:13Z</time></trkpt><trkpt lat="43.0797485635" lon="-0.0312704500"><ele>952.80</ele><time>2015-04-06T09:48:49Z</time></trkpt><trkpt lat="43.0797437858" lon="-0.0312764011"><ele>952.80</ele><time>2015-04-06T09:49:24Z</time></trkpt><trkpt lat="43.0797454622" lon="-0.0312840287"><ele>952.80</ele><time>2015-04-06T09:49:58Z</time></trkpt><trkpt lat="43.0797482282" lon="-0.0312827714"><ele>953.28</ele><time>2015-04-06T09:50:28Z</time></trkpt><trkpt lat="43.0797474738" lon="-0.0312846154"><ele>952.80</ele><time>2015-04-06T09:51:00Z</time></trkpt><trkpt lat="43.0797491502" lon="-0.0312861241"><ele>952.80</ele><time>2015-04-06T09:51:31Z</time></trkpt><trkpt lat="43.0797531735" lon="-0.0312845316"><ele>952.80</ele><time>2015-04-06T09:52:02Z</time></trkpt><trkpt lat="43.0797518324" lon="-0.0312808435"><ele>952.80</ele><time>2015-04-06T09:52:23Z</time></trkpt><trkpt lat="43.0797519162" lon="-0.0312804244"><ele>952.32</ele><time>2015-04-06T09:52:53Z</time></trkpt><trkpt lat="43.0797578674" lon="-0.0312779099"><ele>951.84</ele><time>2015-04-06T09:53:30Z</time></trkpt><trkpt lat="43.0797605496" lon="-0.0312805921"><ele>951.84</ele><time>2015-04-06T09:54:06Z</time></trkpt><trkpt lat="43.0797562748" lon="-0.0312815979"><ele>953.28</ele><time>2015-04-06T09:54:08Z</time></trkpt><trkpt lat="43.0797616392" lon="-0.0312681869"><ele>952.32</ele><time>2015-04-06T09:54:18Z</time></trkpt><trkpt lat="43.0797614716" lon="-0.0312639121"><ele>952.80</ele><time>2015-04-06T09:54:33Z</time></trkpt><trkpt lat="43.0797633156" lon="-0.0312708691"><ele>953.28</ele><time>2015-04-06T09:54:49Z</time></trkpt><trkpt lat="43.0797602143" lon="-0.0312570389"><ele>952.80</ele><time>2015-04-06T09:55:03Z</time></trkpt><trkpt lat="43.0797547661" lon="-0.0312602241"><ele>952.80</ele><time>2015-04-06T09:55:16Z</time></trkpt><trkpt lat="43.0797567777" lon="-0.0312603917"><ele>952.32</ele><time>2015-04-06T09:55:32Z</time></trkpt><trkpt lat="43.0797507428" lon="-0.0312666781"><ele>952.80</ele><time>2015-04-06T09:55:51Z</time></trkpt><trkpt lat="43.0797539279" lon="-0.0312700309"><ele>952.32</ele><time>2015-04-06T09:56:13Z</time></trkpt><trkpt lat="43.0797536764" lon="-0.0312846992"><ele>952.80</ele><time>2015-04-06T09:56:35Z</time></trkpt><trkpt lat="43.0797606334" lon="-0.0312933326"><ele>952.80</ele><time>2015-04-06T09:57:08Z</time></trkpt><trkpt lat="43.0797580350" lon="-0.0312958471"><ele>952.80</ele><time>2015-04-06T09:57:33Z</time></trkpt><trkpt lat="43.0797561072" lon="-0.0312931649"><ele>952.32</ele><time>2015-04-06T09:57:55Z</time></trkpt><trkpt lat="43.0797616392" lon="-0.0312873814"><ele>952.32</ele><time>2015-04-06T09:58:23Z</time></trkpt><trkpt lat="43.0797587056" lon="-0.0312872138"><ele>952.32</ele><time>2015-04-06T09:58:51Z</time></trkpt><trkpt lat="43.0797385890" lon="-0.0312408619"><ele>952.80</ele><time>2015-04-06T09:59:01Z</time></trkpt><trkpt lat="43.0796078313" lon="-0.0313962623"><ele>949.44</ele><time>2015-04-06T09:59:11Z</time></trkpt><trkpt lat="43.0795103498" lon="-0.0314172171"><ele>947.04</ele><time>2015-04-06T09:59:14Z</time></trkpt><trkpt lat="43.0794625729" lon="-0.0314355735"><ele>947.04</ele><time>2015-04-06T09:59:15Z</time></trkpt><trkpt lat="43.0794115271" lon="-0.0314452127"><ele>945.59</ele><time>2015-04-06T09:59:16Z</time></trkpt><trkpt lat="43.0793681089" lon="-0.0314458832"><ele>944.15</ele><time>2015-04-06T09:59:17Z</time></trkpt><trkpt lat="43.0793360062" lon="-0.0314408541"><ele>943.67</ele><time>2015-04-06T09:59:18Z</time></trkpt><trkpt lat="43.0793110281" lon="-0.0314312149"><ele>943.19</ele><time>2015-04-06T09:59:19Z</time></trkpt><trkpt lat="43.0792689510" lon="-0.0313967653"><ele>941.75</ele><time>2015-04-06T09:59:21Z</time></trkpt><trkpt lat="43.0792612396" lon="-0.0313768163"><ele>942.23</ele><time>2015-04-06T09:59:22Z</time></trkpt><trkpt lat="43.0792571325" lon="-0.0313504972"><ele>941.75</ele><time>2015-04-06T09:59:23Z</time></trkpt><trkpt lat="43.0792528577" lon="-0.0313176401"><ele>940.31</ele><time>2015-04-06T09:59:24Z</time></trkpt><trkpt lat="43.0792499240" lon="-0.0312792510"><ele>940.31</ele><time>2015-04-06T09:59:25Z</time></trkpt><trkpt lat="43.0792424642" lon="-0.0312334858"><ele>939.35</ele><time>2015-04-06T09:59:26Z</time></trkpt><trkpt lat="43.0792273767" lon="-0.0311940908"><ele>938.38</ele><time>2015-04-06T09:59:27Z</time></trkpt><trkpt lat="43.0792094395" lon="-0.0311733037"><ele>937.42</ele><time>2015-04-06T09:59:28Z</time></trkpt><trkpt lat="43.0791914184" lon="-0.0311695319"><ele>936.94</ele><time>2015-04-06T09:59:37Z</time></trkpt><trkpt lat="43.0791952740" lon="-0.0311645027"><ele>936.46</ele><time>2015-04-06T09:59:41Z</time></trkpt><trkpt lat="43.0791998003" lon="-0.0311375130"><ele>936.94</ele><time>2015-04-06T09:59:50Z</time></trkpt><trkpt lat="43.0792158097" lon="-0.0311508402"><ele>936.94</ele><time>2015-04-06T10:00:17Z</time></trkpt><trkpt lat="43.0792143848" lon="-0.0311689451"><ele>936.94</ele><time>2015-04-06T10:00:18Z</time></trkpt><trkpt lat="43.0792126246" lon="-0.0311867986"><ele>937.90</ele><time>2015-04-06T10:00:19Z</time></trkpt><trkpt lat="43.0792130437" lon="-0.0312028918"><ele>937.42</ele><time>2015-04-06T10:00:20Z</time></trkpt><trkpt lat="43.0792124569" lon="-0.0312209968"><ele>937.90</ele><time>2015-04-06T10:00:21Z</time></trkpt><trkpt lat="43.0791805219" lon="-0.0313333143"><ele>938.38</ele><time>2015-04-06T10:00:28Z</time></trkpt><trkpt lat="43.0791716371" lon="-0.0313484017"><ele>938.38</ele><time>2015-04-06T10:00:29Z</time></trkpt><trkpt lat="43.0791690387" lon="-0.0315326359"><ele>936.46</ele><time>2015-04-06T10:00:35Z</time></trkpt><trkpt lat="43.0792008061" lon="-0.0315701868"><ele>936.46</ele><time>2015-04-06T10:00:36Z</time></trkpt><trkpt lat="43.0792432185" lon="-0.0316058937"><ele>935.98</ele><time>2015-04-06T10:00:37Z</time></trkpt><trkpt lat="43.0792929232" lon="-0.0316452887"><ele>935.02</ele><time>2015-04-06T10:00:38Z</time></trkpt><trkpt lat="43.0793460645" lon="-0.0316932332"><ele>934.54</ele><time>2015-04-06T10:00:39Z</time></trkpt><trkpt lat="43.0795385968" lon="-0.0318230689"><ele>930.69</ele><time>2015-04-06T10:00:43Z</time></trkpt><trkpt lat="43.0796691868" lon="-0.0318810716"><ele>928.77</ele><time>2015-04-06T10:00:46Z</time></trkpt><trkpt lat="43.0797489826" lon="-0.0319221430"><ele>927.81</ele><time>2015-04-06T10:00:48Z</time></trkpt><trkpt lat="43.0797985196" lon="-0.0319364760"><ele>927.33</ele><time>2015-04-06T10:00:49Z</time></trkpt><trkpt lat="43.0798532534" lon="-0.0319436844"><ele>926.85</ele><time>2015-04-06T10:00:50Z</time></trkpt><trkpt lat="43.0799085740" lon="-0.0319411699"><ele>926.37</ele><time>2015-04-06T10:00:51Z</time></trkpt><trkpt lat="43.0799669959" lon="-0.0319374818"><ele>925.89</ele><time>2015-04-06T10:00:52Z</time></trkpt><trkpt lat="43.0800270941" lon="-0.0319345482"><ele>925.41</ele><time>2015-04-06T10:00:53Z</time></trkpt><trkpt lat="43.0803053733" lon="-0.0318963267"><ele>922.04</ele><time>2015-04-06T10:00:58Z</time></trkpt><trkpt lat="43.0805605184" lon="-0.0317466259"><ele>918.68</ele><time>2015-04-06T10:01:07Z</time></trkpt><trkpt lat="43.0807819683" lon="-0.0315564405"><ele>917.72</ele><time>2015-04-06T10:01:13Z</time></trkpt><trkpt lat="43.0808270629" lon="-0.0315241702"><ele>915.79</ele><time>2015-04-06T10:01:14Z</time></trkpt><trkpt lat="43.0809796136" lon="-0.0314296223"><ele>915.31</ele><time>2015-04-06T10:01:19Z</time></trkpt><trkpt lat="43.0809164140" lon="-0.0315769762"><ele>913.87</ele><time>2015-04-06T10:01:23Z</time></trkpt><trkpt lat="43.0805826467" lon="-0.0319638010"><ele>911.95</ele><time>2015-04-06T10:01:34Z</time></trkpt><trkpt lat="43.0803985801" lon="-0.0321811438"><ele>910.03</ele><time>2015-04-06T10:01:40Z</time></trkpt><trkpt lat="43.0800598674" lon="-0.0324335229"><ele>906.18</ele><time>2015-04-06T10:01:47Z</time></trkpt><trkpt lat="43.0799446162" lon="-0.0325002428"><ele>904.26</ele><time>2015-04-06T10:01:51Z</time></trkpt><trkpt lat="43.0799081549" lon="-0.0325256400"><ele>904.26</ele><time>2015-04-06T10:01:53Z</time></trkpt><trkpt lat="43.0799051374" lon="-0.0325498637"><ele>903.78</ele><time>2015-04-06T10:01:54Z</time></trkpt><trkpt lat="43.0799120106" lon="-0.0325630233"><ele>903.30</ele><time>2015-04-06T10:01:55Z</time></trkpt><trkpt lat="43.0799498968" lon="-0.0325613469"><ele>902.82</ele><time>2015-04-06T10:02:00Z</time></trkpt><trkpt lat="43.0799505673" lon="-0.0325780269"><ele>902.33</ele><time>2015-04-06T10:02:01Z</time></trkpt><trkpt lat="43.0799317081" lon="-0.0325948745"><ele>901.85</ele><time>2015-04-06T10:02:02Z</time></trkpt><trkpt lat="43.0798921455" lon="-0.0326026697"><ele>902.33</ele><time>2015-04-06T10:02:03Z</time></trkpt><trkpt lat="43.0798474699" lon="-0.0325937849"><ele>901.85</ele><time>2015-04-06T10:02:04Z</time></trkpt><trkpt lat="43.0798063148" lon="-0.0325828884"><ele>901.85</ele><time>2015-04-06T10:02:05Z</time></trkpt><trkpt lat="43.0797563586" lon="-0.0325853191"><ele>901.85</ele><time>2015-04-06T10:02:07Z</time></trkpt><trkpt lat="43.0797566101" lon="-0.0325999036"><ele>900.89</ele><time>2015-04-06T10:02:08Z</time></trkpt><trkpt lat="43.0798113439" lon="-0.0326465070"><ele>900.41</ele><time>2015-04-06T10:02:10Z</time></trkpt><trkpt lat="43.0798524991" lon="-0.0326698087"><ele>898.97</ele><time>2015-04-06T10:02:11Z</time></trkpt><trkpt lat="43.0798918940" lon="-0.0326847285"><ele>898.49</ele><time>2015-04-06T10:02:12Z</time></trkpt><trkpt lat="43.0799216498" lon="-0.0326876622"><ele>897.53</ele><time>2015-04-06T10:02:13Z</time></trkpt><trkpt lat="43.0800769664" lon="-0.0326936971"><ele>894.64</ele><time>2015-04-06T10:02:19Z</time></trkpt><trkpt lat="43.0802156869" lon="-0.0326432381"><ele>892.24</ele><time>2015-04-06T10:02:28Z</time></trkpt><trkpt lat="43.0802262481" lon="-0.0326581579"><ele>892.24</ele><time>2015-04-06T10:02:29Z</time></trkpt><trkpt lat="43.0802134238" lon="-0.0327200163"><ele>891.76</ele><time>2015-04-06T10:02:32Z</time></trkpt><trkpt lat="43.0801285990" lon="-0.0327776000"><ele>891.76</ele><time>2015-04-06T10:02:44Z</time></trkpt><trkpt lat="43.0801356398" lon="-0.0328151509"><ele>891.28</ele><time>2015-04-06T10:02:47Z</time></trkpt><trkpt lat="43.0801434349" lon="-0.0328201801"><ele>890.80</ele><time>2015-04-06T10:03:01Z</time></trkpt><trkpt lat="43.0801390763" lon="-0.0328243710"><ele>891.28</ele><time>2015-04-06T10:03:20Z</time></trkpt><trkpt lat="43.0801385734" lon="-0.0328246225"><ele>890.80</ele><time>2015-04-06T10:03:30Z</time></trkpt><trkpt lat="43.0801283475" lon="-0.0328122173"><ele>890.80</ele><time>2015-04-06T10:03:42Z</time></trkpt><trkpt lat="43.0801268388" lon="-0.0327861495"><ele>890.32</ele><time>2015-04-06T10:04:13Z</time></trkpt><trkpt lat="43.0801342148" lon="-0.0327999797"><ele>890.32</ele><time>2015-04-06T10:04:37Z</time></trkpt><trkpt lat="43.0801270064" lon="-0.0327915139"><ele>890.80</ele><time>2015-04-06T10:05:05Z</time></trkpt><trkpt lat="43.0801349692" lon="-0.0328066014"><ele>890.80</ele><time>2015-04-06T10:05:29Z</time></trkpt><trkpt lat="43.0801317841" lon="-0.0328136422"><ele>891.28</ele><time>2015-04-06T10:06:02Z</time></trkpt><trkpt lat="43.0801327899" lon="-0.0328148995"><ele>891.28</ele><time>2015-04-06T10:06:13Z</time></trkpt><trkpt lat="43.0803424213" lon="-0.0327967945"><ele>885.99</ele><time>2015-04-06T10:06:21Z</time></trkpt><trkpt lat="43.0803655554" lon="-0.0328043383"><ele>885.51</ele><time>2015-04-06T10:06:22Z</time></trkpt><trkpt lat="43.0804299284" lon="-0.0327875745"><ele>884.55</ele><time>2015-04-06T10:06:25Z</time></trkpt><trkpt lat="43.0804678984" lon="-0.0327752531"><ele>884.55</ele><time>2015-04-06T10:06:27Z</time></trkpt><trkpt lat="43.0805261526" lon="-0.0326796994"><ele>884.55</ele><time>2015-04-06T10:06:32Z</time></trkpt><trkpt lat="43.0805337802" lon="-0.0328318309"><ele>880.71</ele><time>2015-04-06T10:06:37Z</time></trkpt><trkpt lat="43.0804229714" lon="-0.0329516921"><ele>877.34</ele><time>2015-04-06T10:06:43Z</time></trkpt><trkpt lat="43.0804326944" lon="-0.0330453180"><ele>874.46</ele><time>2015-04-06T10:06:47Z</time></trkpt><trkpt lat="43.0804791301" lon="-0.0330497604"><ele>873.50</ele><time>2015-04-06T10:06:48Z</time></trkpt><trkpt lat="43.0805179384" lon="-0.0330434740"><ele>873.01</ele><time>2015-04-06T10:06:49Z</time></trkpt><trkpt lat="43.0805459339" lon="-0.0330309849"><ele>872.53</ele><time>2015-04-06T10:06:50Z</time></trkpt><trkpt lat="43.0805643741" lon="-0.0330226868"><ele>872.05</ele><time>2015-04-06T10:06:52Z</time></trkpt><trkpt lat="43.0806104746" lon="-0.0330564659"><ele>870.13</ele><time>2015-04-06T10:06:55Z</time></trkpt><trkpt lat="43.0807217862" lon="-0.0331218448"><ele>866.77</ele><time>2015-04-06T10:06:59Z</time></trkpt><trkpt lat="43.0808496941" lon="-0.0331511814"><ele>863.40</ele><time>2015-04-06T10:07:04Z</time></trkpt><trkpt lat="43.0809133966" lon="-0.0331581384"><ele>861.96</ele><time>2015-04-06T10:07:07Z</time></trkpt><trkpt lat="43.0809484329" lon="-0.0331578869"><ele>860.04</ele><time>2015-04-06T10:07:10Z</time></trkpt><trkpt lat="43.0809638556" lon="-0.0331697892"><ele>859.08</ele><time>2015-04-06T10:07:12Z</time></trkpt><trkpt lat="43.0809832178" lon="-0.0331961084"><ele>858.59</ele><time>2015-04-06T10:07:31Z</time></trkpt><trkpt lat="43.0809940305" lon="-0.0331997965"><ele>858.59</ele><time>2015-04-06T10:07:53Z</time></trkpt><trkpt lat="43.0809946172" lon="-0.0331998803"><ele>858.59</ele><time>2015-04-06T10:08:19Z</time></trkpt><trkpt lat="43.0809921864" lon="-0.0332090165"><ele>859.08</ele><time>2015-04-06T10:08:29Z</time></trkpt><trkpt lat="43.0809609219" lon="-0.0332793407"><ele>857.63</ele><time>2015-04-06T10:08:33Z</time></trkpt><trkpt lat="43.0809522048" lon="-0.0332832802"><ele>857.63</ele><time>2015-04-06T10:08:41Z</time></trkpt><trkpt lat="43.0809866544" lon="-0.0332359225"><ele>858.11</ele><time>2015-04-06T10:08:46Z</time></trkpt><trkpt lat="43.0809916835" lon="-0.0331815239"><ele>858.59</ele><time>2015-04-06T10:08:56Z</time></trkpt><trkpt lat="43.0810028315" lon="-0.0331667718"><ele>858.59</ele><time>2015-04-06T10:09:17Z</time></trkpt><trkpt lat="43.0809962936" lon="-0.0331702083"><ele>858.11</ele><time>2015-04-06T10:09:27Z</time></trkpt><trkpt lat="43.0810192600" lon="-0.0331938453"><ele>857.15</ele><time>2015-04-06T10:09:39Z</time></trkpt><trkpt lat="43.0810082797" lon="-0.0331993774"><ele>857.15</ele><time>2015-04-06T10:09:42Z</time></trkpt><trkpt lat="43.0809849780" lon="-0.0331626646"><ele>859.08</ele><time>2015-04-06T10:09:52Z</time></trkpt><trkpt lat="43.0809824634" lon="-0.0331771653"><ele>858.59</ele><time>2015-04-06T10:10:07Z</time></trkpt><trkpt lat="43.0809897557" lon="-0.0331986230"><ele>858.11</ele><time>2015-04-06T10:10:22Z</time></trkpt><trkpt lat="43.0809883308" lon="-0.0332154706"><ele>858.59</ele><time>2015-04-06T10:10:48Z</time></trkpt><trkpt lat="43.0809927732" lon="-0.0332194101"><ele>857.63</ele><time>2015-04-06T10:11:14Z</time></trkpt><trkpt lat="43.0809864867" lon="-0.0332215894"><ele>857.63</ele><time>2015-04-06T10:11:26Z</time></trkpt><trkpt lat="43.0809918512" lon="-0.0331939291"><ele>858.59</ele><time>2015-04-06T10:11:43Z</time></trkpt><trkpt lat="43.0809930246" lon="-0.0332031492"><ele>857.63</ele><time>2015-04-06T10:11:53Z</time></trkpt><trkpt lat="43.0809716508" lon="-0.0332324021"><ele>856.67</ele><time>2015-04-06T10:12:04Z</time></trkpt><trkpt lat="43.0809655320" lon="-0.0332496688"><ele>857.15</ele><time>2015-04-06T10:12:14Z</time></trkpt><trkpt lat="43.0809601676" lon="-0.0332609843"><ele>857.15</ele><time>2015-04-06T10:12:32Z</time></trkpt><trkpt lat="43.0809661187" lon="-0.0332686119"><ele>857.15</ele><time>2015-04-06T10:12:44Z</time></trkpt><trkpt lat="43.0809432361" lon="-0.0332968589"><ele>856.67</ele><time>2015-04-06T10:12:51Z</time></trkpt><trkpt lat="43.0809260532" lon="-0.0333148800"><ele>856.67</ele><time>2015-04-06T10:12:53Z</time></trkpt><trkpt lat="43.0809352733" lon="-0.0333528500"><ele>855.23</ele><time>2015-04-06T10:12:56Z</time></trkpt><trkpt lat="43.0809794459" lon="-0.0333447196"><ele>853.31</ele><time>2015-04-06T10:13:02Z</time></trkpt><trkpt lat="43.0808945373" lon="-0.0335029699"><ele>850.42</ele><time>2015-04-06T10:13:09Z</time></trkpt><trkpt lat="43.0808900110" lon="-0.0335746352"><ele>848.98</ele><time>2015-04-06T10:13:12Z</time></trkpt><trkpt lat="43.0809123069" lon="-0.0335991103"><ele>847.54</ele><time>2015-04-06T10:13:14Z</time></trkpt><trkpt lat="43.0810175836" lon="-0.0335941650"><ele>844.66</ele><time>2015-04-06T10:13:20Z</time></trkpt><trkpt lat="43.0811528675" lon="-0.0336005352"><ele>842.25</ele><time>2015-04-06T10:13:23Z</time></trkpt><trkpt lat="43.0813112017" lon="-0.0336090010"><ele>839.37</ele><time>2015-04-06T10:13:26Z</time></trkpt><trkpt lat="43.0813969485" lon="-0.0335740484"><ele>837.93</ele><time>2015-04-06T10:13:28Z</time></trkpt><trkpt lat="43.0816604756" lon="-0.0334700290"><ele>834.08</ele><time>2015-04-06T10:13:34Z</time></trkpt><trkpt lat="43.0818369985" lon="-0.0334182288"><ele>833.60</ele><time>2015-04-06T10:13:37Z</time></trkpt><trkpt lat="43.0818893854" lon="-0.0333955139"><ele>832.64</ele><time>2015-04-06T10:13:38Z</time></trkpt><trkpt lat="43.0819872022" lon="-0.0333450548"><ele>832.64</ele><time>2015-04-06T10:13:40Z</time></trkpt><trkpt lat="43.0820277706" lon="-0.0333165564"><ele>832.16</ele><time>2015-04-06T10:13:41Z</time></trkpt><trkpt lat="43.0820690934" lon="-0.0333013013"><ele>831.68</ele><time>2015-04-06T10:13:42Z</time></trkpt><trkpt lat="43.0821554270" lon="-0.0332971103"><ele>831.20</ele><time>2015-04-06T10:13:44Z</time></trkpt><trkpt lat="43.0821988452" lon="-0.0332879741"><ele>830.72</ele><time>2015-04-06T10:13:45Z</time></trkpt><trkpt lat="43.0822436046" lon="-0.0332741439"><ele>830.24</ele><time>2015-04-06T10:13:46Z</time></trkpt><trkpt lat="43.0822861847" lon="-0.0332622416"><ele>833.12</ele><time>2015-04-06T10:13:47Z</time></trkpt><trkpt lat="43.0823164433" lon="-0.0332512613"><ele>829.27</ele><time>2015-04-06T10:13:48Z</time></trkpt><trkpt lat="43.0823322851" lon="-0.0332386047"><ele>828.79</ele><time>2015-04-06T10:13:49Z</time></trkpt><trkpt lat="43.0825093947" lon="-0.0331562106"><ele>827.83</ele><time>2015-04-06T10:13:59Z</time></trkpt><trkpt lat="43.0825533997" lon="-0.0331640057"><ele>827.83</ele><time>2015-04-06T10:14:06Z</time></trkpt><trkpt lat="43.0825445987" lon="-0.0331695378"><ele>827.83</ele><time>2015-04-06T10:14:07Z</time></trkpt><trkpt lat="43.0825296789" lon="-0.0331738964"><ele>826.87</ele><time>2015-04-06T10:14:08Z</time></trkpt><trkpt lat="43.0825116578" lon="-0.0331766624"><ele>827.83</ele><time>2015-04-06T10:14:09Z</time></trkpt><trkpt lat="43.0824986659" lon="-0.0331825297"><ele>828.79</ele><time>2015-04-06T10:14:10Z</time></trkpt><trkpt lat="43.0824831594" lon="-0.0331955217"><ele>830.24</ele><time>2015-04-06T10:14:14Z</time></trkpt><trkpt lat="43.0824747775" lon="-0.0331914145"><ele>830.24</ele><time>2015-04-06T10:14:15Z</time></trkpt><trkpt lat="43.0824570078" lon="-0.0331806019"><ele>830.72</ele><time>2015-04-06T10:14:19Z</time></trkpt><trkpt lat="43.0824387353" lon="-0.0331649277"><ele>830.72</ele><time>2015-04-06T10:14:27Z</time></trkpt><trkpt lat="43.0824367236" lon="-0.0331546180"><ele>831.68</ele><time>2015-04-06T10:14:29Z</time></trkpt><trkpt lat="43.0824306887" lon="-0.0331300590"><ele>831.68</ele><time>2015-04-06T10:14:41Z</time></trkpt><trkpt lat="43.0824425910" lon="-0.0331130438"><ele>830.24</ele><time>2015-04-06T10:14:43Z</time></trkpt><trkpt lat="43.0824168585" lon="-0.0331192464"><ele>830.72</ele><time>2015-04-06T10:14:54Z</time></trkpt><trkpt lat="43.0824074708" lon="-0.0331256166"><ele>830.24</ele><time>2015-04-06T10:15:13Z</time></trkpt><trkpt lat="43.0823750328" lon="-0.0331157260"><ele>831.20</ele><time>2015-04-06T10:15:27Z</time></trkpt><trkpt lat="43.0823765416" lon="-0.0331174862"><ele>831.20</ele><time>2015-04-06T10:15:30Z</time></trkpt><trkpt lat="43.0824031122" lon="-0.0331180729"><ele>830.72</ele><time>2015-04-06T10:15:33Z</time></trkpt><trkpt lat="43.0824423395" lon="-0.0331242755"><ele>829.76</ele><time>2015-04-06T10:15:38Z</time></trkpt><trkpt lat="43.0824538227" lon="-0.0331243593"><ele>829.27</ele><time>2015-04-06T10:15:39Z</time></trkpt><trkpt lat="43.0825424194" lon="-0.0331742316"><ele>827.83</ele><time>2015-04-06T10:15:50Z</time></trkpt><trkpt lat="43.0825666431" lon="-0.0331771653"><ele>827.83</ele><time>2015-04-06T10:16:04Z</time></trkpt><trkpt lat="43.0825891905" lon="-0.0331645925"><ele>827.35</ele><time>2015-04-06T10:16:20Z</time></trkpt><trkpt lat="43.0825893581" lon="-0.0331618264"><ele>827.35</ele><time>2015-04-06T10:16:35Z</time></trkpt><trkpt lat="43.0825872626" lon="-0.0331681967"><ele>827.35</ele><time>2015-04-06T10:16:49Z</time></trkpt><trkpt lat="43.0826065410" lon="-0.0331681129"><ele>827.35</ele><time>2015-04-06T10:16:51Z</time></trkpt><trkpt lat="43.0827651266" lon="-0.0331291370"><ele>827.83</ele><time>2015-04-06T10:16:58Z</time></trkpt><trkpt lat="43.0828807130" lon="-0.0331488345"><ele>823.99</ele><time>2015-04-06T10:17:02Z</time></trkpt><trkpt lat="43.0829714052" lon="-0.0331780873"><ele>820.14</ele><time>2015-04-06T10:17:09Z</time></trkpt><trkpt lat="43.0830447469" lon="-0.0331104454"><ele>817.26</ele><time>2015-04-06T10:17:12Z</time></trkpt><trkpt lat="43.0831267219" lon="-0.0331400335"><ele>814.37</ele><time>2015-04-06T10:17:17Z</time></trkpt><trkpt lat="43.0831975490" lon="-0.0330875628"><ele>811.97</ele><time>2015-04-06T10:17:20Z</time></trkpt><trkpt lat="43.0832703877" lon="-0.0330485031"><ele>808.61</ele><time>2015-04-06T10:17:23Z</time></trkpt><trkpt lat="43.0832924321" lon="-0.0330440607"><ele>808.13</ele><time>2015-04-06T10:17:24Z</time></trkpt><trkpt lat="43.0834340025" lon="-0.0329417177"><ele>804.28</ele><time>2015-04-06T10:17:30Z</time></trkpt><trkpt lat="43.0834702961" lon="-0.0329053402"><ele>805.72</ele><time>2015-04-06T10:17:31Z</time></trkpt><trkpt lat="43.0835122056" lon="-0.0328698847"><ele>801.88</ele><time>2015-04-06T10:17:32Z</time></trkpt><trkpt lat="43.0836016405" lon="-0.0328192580"><ele>798.99</ele><time>2015-04-06T10:17:35Z</time></trkpt><trkpt lat="43.0836430471" lon="-0.0328003149"><ele>797.55</ele><time>2015-04-06T10:17:37Z</time></trkpt><trkpt lat="43.0837391876" lon="-0.0327775162"><ele>794.67</ele><time>2015-04-06T10:17:41Z</time></trkpt><trkpt lat="43.0838302150" lon="-0.0327432342"><ele>793.22</ele><time>2015-04-06T10:17:44Z</time></trkpt><trkpt lat="43.0840248428" lon="-0.0325770210"><ele>789.38</ele><time>2015-04-06T10:17:52Z</time></trkpt><trkpt lat="43.0840535928" lon="-0.0325536355"><ele>789.38</ele><time>2015-04-06T10:17:53Z</time></trkpt><trkpt lat="43.0840756372" lon="-0.0325220358"><ele>788.90</ele><time>2015-04-06T10:17:54Z</time></trkpt><trkpt lat="43.0840934068" lon="-0.0324911904"><ele>788.90</ele><time>2015-04-06T10:17:55Z</time></trkpt><trkpt lat="43.0841124337" lon="-0.0324688945"><ele>787.94</ele><time>2015-04-06T10:17:56Z</time></trkpt><trkpt lat="43.0841291975" lon="-0.0324562378"><ele>787.94</ele><time>2015-04-06T10:17:57Z</time></trkpt><trkpt lat="43.0841540080" lon="-0.0324491970"><ele>787.46</ele><time>2015-04-06T10:18:06Z</time></trkpt><trkpt lat="43.0841481406" lon="-0.0324657094"><ele>787.46</ele><time>2015-04-06T10:18:07Z</time></trkpt><trkpt lat="43.0841591209" lon="-0.0325126480"><ele>786.98</ele><time>2015-04-06T10:18:18Z</time></trkpt><trkpt lat="43.0841621384" lon="-0.0325240474"><ele>786.98</ele><time>2015-04-06T10:18:37Z</time></trkpt><trkpt lat="43.0841578636" lon="-0.0325315073"><ele>786.50</ele><time>2015-04-06T10:19:07Z</time></trkpt><trkpt lat="43.0841416866" lon="-0.0325268973"><ele>786.50</ele><time>2015-04-06T10:19:41Z</time></trkpt><trkpt lat="43.0841556843" lon="-0.0325286575"><ele>786.50</ele><time>2015-04-06T10:19:56Z</time></trkpt><trkpt lat="43.0841799919" lon="-0.0325324293"><ele>786.98</ele><time>2015-04-06T10:20:21Z</time></trkpt><trkpt lat="43.0841828417" lon="-0.0325132348"><ele>786.50</ele><time>2015-04-06T10:20:31Z</time></trkpt><trkpt lat="43.0842156988" lon="-0.0324891787"><ele>786.50</ele><time>2015-04-06T10:20:34Z</time></trkpt><trkpt lat="43.0843705125" lon="-0.0323900208"><ele>783.13</ele><time>2015-04-06T10:20:38Z</time></trkpt><trkpt lat="43.0844213068" lon="-0.0323436689"><ele>781.69</ele><time>2015-04-06T10:20:39Z</time></trkpt><trkpt lat="43.0844656471" lon="-0.0322937127"><ele>781.21</ele><time>2015-04-06T10:20:40Z</time></trkpt><trkpt lat="43.0845121667" lon="-0.0322509650"><ele>781.69</ele><time>2015-04-06T10:20:41Z</time></trkpt><trkpt lat="43.0845615361" lon="-0.0322123244"><ele>779.77</ele><time>2015-04-06T10:20:42Z</time></trkpt><trkpt lat="43.0846118275" lon="-0.0321691576"><ele>779.77</ele><time>2015-04-06T10:20:43Z</time></trkpt><trkpt lat="43.0847208761" lon="-0.0320766214"><ele>775.92</ele><time>2015-04-06T10:20:45Z</time></trkpt><trkpt lat="43.0847723410" lon="-0.0320193730"><ele>774.96</ele><time>2015-04-06T10:20:46Z</time></trkpt><trkpt lat="43.0848134123" lon="-0.0319526531"><ele>773.52</ele><time>2015-04-06T10:20:47Z</time></trkpt><trkpt lat="43.0848430842" lon="-0.0318929739"><ele>773.04</ele><time>2015-04-06T10:20:48Z</time></trkpt><trkpt lat="43.0848683976" lon="-0.0318346359"><ele>772.56</ele><time>2015-04-06T10:20:49Z</time></trkpt><trkpt lat="43.0848921183" lon="-0.0317854341"><ele>772.56</ele><time>2015-04-06T10:20:50Z</time></trkpt><trkpt lat="43.0849179346" lon="-0.0317452010"><ele>771.60</ele><time>2015-04-06T10:20:51Z</time></trkpt><trkpt lat="43.0850067828" lon="-0.0316288602"><ele>768.23</ele><time>2015-04-06T10:20:56Z</time></trkpt><trkpt lat="43.0850244686" lon="-0.0316239987"><ele>767.27</ele><time>2015-04-06T10:20:57Z</time></trkpt><trkpt lat="43.0850403104" lon="-0.0316445343"><ele>766.79</ele><time>2015-04-06T10:20:58Z</time></trkpt><trkpt lat="43.0850593373" lon="-0.0316865277"><ele>765.83</ele><time>2015-04-06T10:20:59Z</time></trkpt><trkpt lat="43.0850804597" lon="-0.0317306165"><ele>764.87</ele><time>2015-04-06T10:21:00Z</time></trkpt><trkpt lat="43.0851053540" lon="-0.0317630544"><ele>763.42</ele><time>2015-04-06T10:21:01Z</time></trkpt><trkpt lat="43.0851239618" lon="-0.0318006892"><ele>762.46</ele><time>2015-04-06T10:21:02Z</time></trkpt><trkpt lat="43.0851308350" lon="-0.0318353064"><ele>761.50</ele><time>2015-04-06T10:21:03Z</time></trkpt><trkpt lat="43.0851308350" lon="-0.0318668224"><ele>761.02</ele><time>2015-04-06T10:21:04Z</time></trkpt><trkpt lat="43.0851228721" lon="-0.0318974163"><ele>761.02</ele><time>2015-04-06T10:21:05Z</time></trkpt><trkpt lat="43.0851100478" lon="-0.0319204666"><ele>760.54</ele><time>2015-04-06T10:21:06Z</time></trkpt><trkpt lat="43.0850967206" lon="-0.0319405831"><ele>760.54</ele><time>2015-04-06T10:21:07Z</time></trkpt><trkpt lat="43.0850872491" lon="-0.0319662318"><ele>760.54</ele><time>2015-04-06T10:21:08Z</time></trkpt><trkpt lat="43.0850636959" lon="-0.0320446026"><ele>760.54</ele><time>2015-04-06T10:21:12Z</time></trkpt><trkpt lat="43.0851089582" lon="-0.0321117416"><ele>757.66</ele><time>2015-04-06T10:21:16Z</time></trkpt><trkpt lat="43.0851980578" lon="-0.0320730172"><ele>755.25</ele><time>2015-04-06T10:21:20Z</time></trkpt><trkpt lat="43.0852242094" lon="-0.0320538227"><ele>754.77</ele><time>2015-04-06T10:21:21Z</time></trkpt><trkpt lat="43.0852647778" lon="-0.0320781302"><ele>752.85</ele><time>2015-04-06T10:21:24Z</time></trkpt><trkpt lat="43.0852591619" lon="-0.0321081374"><ele>751.89</ele><time>2015-04-06T10:21:26Z</time></trkpt><trkpt lat="43.0852848105" lon="-0.0320851710"><ele>750.45</ele><time>2015-04-06T10:21:28Z</time></trkpt><trkpt lat="43.0853746645" lon="-0.0319954846"><ele>748.52</ele><time>2015-04-06T10:21:32Z</time></trkpt><trkpt lat="43.0854067672" lon="-0.0321207941"><ele>746.60</ele><time>2015-04-06T10:21:39Z</time></trkpt><trkpt lat="43.0853959545" lon="-0.0321546569"><ele>746.12</ele><time>2015-04-06T10:21:46Z</time></trkpt><trkpt lat="43.0853870697" lon="-0.0321834907"><ele>746.60</ele><time>2015-04-06T10:22:07Z</time></trkpt><trkpt lat="43.0853750836" lon="-0.0321953092"><ele>747.56</ele><time>2015-04-06T10:22:34Z</time></trkpt><trkpt lat="43.0853892490" lon="-0.0321975723"><ele>747.08</ele><time>2015-04-06T10:23:03Z</time></trkpt><trkpt lat="43.0853893328" lon="-0.0322005898"><ele>747.56</ele><time>2015-04-06T10:23:36Z</time></trkpt><trkpt lat="43.0853899196" lon="-0.0322071277"><ele>747.56</ele><time>2015-04-06T10:24:06Z</time></trkpt><trkpt lat="43.0853803642" lon="-0.0322037749"><ele>747.56</ele><time>2015-04-06T10:24:32Z</time></trkpt><trkpt lat="43.0853788555" lon="-0.0322095584"><ele>748.04</ele><time>2015-04-06T10:24:49Z</time></trkpt><trkpt lat="43.0853958707" lon="-0.0321944710"><ele>747.56</ele><time>2015-04-06T10:24:52Z</time></trkpt><trkpt lat="43.0854754150" lon="-0.0321684871"><ele>745.16</ele><time>2015-04-06T10:24:55Z</time></trkpt><trkpt lat="43.0855130497" lon="-0.0321819820"><ele>743.72</ele><time>2015-04-06T10:24:57Z</time></trkpt><trkpt lat="43.0855292268" lon="-0.0322324410"><ele>741.31</ele><time>2015-04-06T10:25:01Z</time></trkpt><trkpt lat="43.0856029037" lon="-0.0321317744"><ele>739.87</ele><time>2015-04-06T10:25:04Z</time></trkpt><trkpt lat="43.0856440589" lon="-0.0320814829"><ele>737.47</ele><time>2015-04-06T10:25:05Z</time></trkpt><trkpt lat="43.0856816098" lon="-0.0320196245"><ele>736.99</ele><time>2015-04-06T10:25:06Z</time></trkpt><trkpt lat="43.0857112817" lon="-0.0319617055"><ele>736.99</ele><time>2015-04-06T10:25:07Z</time></trkpt><trkpt lat="43.0857652612" lon="-0.0318824966"><ele>736.03</ele><time>2015-04-06T10:25:09Z</time></trkpt><trkpt lat="43.0857849587" lon="-0.0318539143"><ele>735.55</ele><time>2015-04-06T10:25:10Z</time></trkpt><trkpt lat="43.0857980344" lon="-0.0318228174"><ele>735.55</ele><time>2015-04-06T10:25:11Z</time></trkpt><trkpt lat="43.0858243536" lon="-0.0317659881"><ele>734.10</ele><time>2015-04-06T10:25:13Z</time></trkpt><trkpt lat="43.0858492479" lon="-0.0317384116"><ele>734.10</ele><time>2015-04-06T10:25:14Z</time></trkpt><trkpt lat="43.0859048199" lon="-0.0316973403"><ele>731.70</ele><time>2015-04-06T10:25:17Z</time></trkpt><trkpt lat="43.0859134533" lon="-0.0317136012"><ele>729.78</ele><time>2015-04-06T10:25:18Z</time></trkpt><trkpt lat="43.0859194044" lon="-0.0317302812"><ele>729.78</ele><time>2015-04-06T10:25:19Z</time></trkpt><trkpt lat="43.0859275348" lon="-0.0317351427"><ele>728.82</ele><time>2015-04-06T10:25:21Z</time></trkpt><trkpt lat="43.0859494954" lon="-0.0317154452"><ele>728.34</ele><time>2015-04-06T10:25:22Z</time></trkpt><trkpt lat="43.0859784968" lon="-0.0317011960"><ele>727.37</ele><time>2015-04-06T10:25:23Z</time></trkpt><trkpt lat="43.0860063247" lon="-0.0317043811"><ele>726.89</ele><time>2015-04-06T10:25:24Z</time></trkpt><trkpt lat="43.0861022975" lon="-0.0316689257"><ele>724.01</ele><time>2015-04-06T10:25:27Z</time></trkpt><trkpt lat="43.0861349031" lon="-0.0316286087"><ele>722.57</ele><time>2015-04-06T10:25:28Z</time></trkpt><trkpt lat="43.0861581210" lon="-0.0315842684"><ele>721.61</ele><time>2015-04-06T10:25:29Z</time></trkpt><trkpt lat="43.0861796625" lon="-0.0315469690"><ele>721.13</ele><time>2015-04-06T10:25:30Z</time></trkpt><trkpt lat="43.0862020422" lon="-0.0315247569"><ele>720.65</ele><time>2015-04-06T10:25:31Z</time></trkpt><trkpt lat="43.0862260144" lon="-0.0315136928"><ele>719.68</ele><time>2015-04-06T10:25:32Z</time></trkpt><trkpt lat="43.0862449575" lon="-0.0314970966"><ele>719.68</ele><time>2015-04-06T10:25:33Z</time></trkpt><trkpt lat="43.0862572789" lon="-0.0314663351"><ele>718.72</ele><time>2015-04-06T10:25:34Z</time></trkpt><trkpt lat="43.0862690136" lon="-0.0314199831"><ele>718.72</ele><time>2015-04-06T10:25:35Z</time></trkpt><trkpt lat="43.0862992723" lon="-0.0313173886"><ele>715.84</ele><time>2015-04-06T10:25:37Z</time></trkpt><trkpt lat="43.0863053910" lon="-0.0312613137"><ele>716.32</ele><time>2015-04-06T10:25:38Z</time></trkpt><trkpt lat="43.0863067321" lon="-0.0312207453"><ele>716.32</ele><time>2015-04-06T10:25:39Z</time></trkpt><trkpt lat="43.0863084085" lon="-0.0311813504"><ele>715.36</ele><time>2015-04-06T10:25:40Z</time></trkpt><trkpt lat="43.0863805767" lon="-0.0311619882"><ele>712.47</ele><time>2015-04-06T10:25:44Z</time></trkpt><trkpt lat="43.0864286050" lon="-0.0311862119"><ele>711.51</ele><time>2015-04-06T10:25:46Z</time></trkpt><trkpt lat="43.0864951573" lon="-0.0312638283"><ele>710.07</ele><time>2015-04-06T10:25:49Z</time></trkpt><trkpt lat="43.0865730252" lon="-0.0314069912"><ele>707.19</ele><time>2015-04-06T10:25:51Z</time></trkpt><trkpt lat="43.0865862686" lon="-0.0314895529"><ele>706.23</ele><time>2015-04-06T10:25:52Z</time></trkpt><trkpt lat="43.0865876935" lon="-0.0316535030"><ele>705.75</ele><time>2015-04-06T10:25:54Z</time></trkpt><trkpt lat="43.0865746178" lon="-0.0317970850"><ele>704.30</ele><time>2015-04-06T10:25:56Z</time></trkpt><trkpt lat="43.0865612067" lon="-0.0318574347"><ele>703.82</ele><time>2015-04-06T10:25:57Z</time></trkpt><trkpt lat="43.0865503941" lon="-0.0319177844"><ele>702.86</ele><time>2015-04-06T10:25:58Z</time></trkpt><trkpt lat="43.0865407549" lon="-0.0319669023"><ele>701.42</ele><time>2015-04-06T10:25:59Z</time></trkpt><trkpt lat="43.0865339655" lon="-0.0320011843"><ele>702.38</ele><time>2015-04-06T10:26:00Z</time></trkpt><trkpt lat="43.0865307804" lon="-0.0320363883"><ele>702.38</ele><time>2015-04-06T10:26:01Z</time></trkpt><trkpt lat="43.0865255836" lon="-0.0320797227"><ele>701.90</ele><time>2015-04-06T10:26:02Z</time></trkpt><trkpt lat="43.0865012761" lon="-0.0323398970"><ele>698.53</ele><time>2015-04-06T10:26:07Z</time></trkpt><trkpt lat="43.0865182076" lon="-0.0323602650"><ele>698.53</ele><time>2015-04-06T10:26:08Z</time></trkpt><trkpt lat="43.0866104923" lon="-0.0323523022"><ele>697.09</ele><time>2015-04-06T10:26:11Z</time></trkpt><trkpt lat="43.0866572633" lon="-0.0323449261"><ele>696.13</ele><time>2015-04-06T10:26:12Z</time></trkpt><trkpt lat="43.0867026933" lon="-0.0323352870"><ele>693.73</ele><time>2015-04-06T10:26:13Z</time></trkpt><trkpt lat="43.0867355503" lon="-0.0323580019"><ele>693.73</ele><time>2015-04-06T10:26:14Z</time></trkpt><trkpt lat="43.0867487099" lon="-0.0324077904"><ele>692.77</ele><time>2015-04-06T10:26:15Z</time></trkpt><trkpt lat="43.0867518112" lon="-0.0324756000"><ele>691.81</ele><time>2015-04-06T10:26:16Z</time></trkpt><trkpt lat="43.0867386516" lon="-0.0325625204"><ele>690.84</ele><time>2015-04-06T10:26:17Z</time></trkpt><trkpt lat="43.0867171939" lon="-0.0326321740"><ele>689.88</ele><time>2015-04-06T10:26:18Z</time></trkpt><trkpt lat="43.0866985023" lon="-0.0326841418"><ele>690.84</ele><time>2015-04-06T10:26:19Z</time></trkpt><trkpt lat="43.0866820738" lon="-0.0327413902"><ele>688.44</ele><time>2015-04-06T10:26:20Z</time></trkpt><trkpt lat="43.0866623763" lon="-0.0328147318"><ele>687.00</ele><time>2015-04-06T10:26:21Z</time></trkpt><trkpt lat="43.0866431817" lon="-0.0328836311"><ele>685.08</ele><time>2015-04-06T10:26:22Z</time></trkpt><trkpt lat="43.0866296869" lon="-0.0329169910"><ele>684.60</ele><time>2015-04-06T10:26:23Z</time></trkpt><trkpt lat="43.0866281781" lon="-0.0329327490"><ele>684.60</ele><time>2015-04-06T10:26:24Z</time></trkpt><trkpt lat="43.0866390746" lon="-0.0329701323"><ele>683.63</ele><time>2015-04-06T10:26:34Z</time></trkpt><trkpt lat="43.0866424274" lon="-0.0330333319"><ele>683.63</ele><time>2015-04-06T10:26:58Z</time></trkpt><trkpt lat="43.0866259988" lon="-0.0330351759"><ele>684.12</ele><time>2015-04-06T10:27:22Z</time></trkpt><trkpt lat="43.0866324529" lon="-0.0330251176"><ele>683.63</ele><time>2015-04-06T10:27:23Z</time></trkpt><trkpt lat="43.0866259988" lon="-0.0330325775"><ele>684.12</ele><time>2015-04-06T10:27:28Z</time></trkpt><trkpt lat="43.0866246577" lon="-0.0330640934"><ele>683.63</ele><time>2015-04-06T10:27:40Z</time></trkpt><trkpt lat="43.0866083968" lon="-0.0330570526"><ele>683.63</ele><time>2015-04-06T10:28:03Z</time></trkpt><trkpt lat="43.0866152700" lon="-0.0330371875"><ele>683.63</ele><time>2015-04-06T10:28:14Z</time></trkpt><trkpt lat="43.0866373982" lon="-0.0329899974"><ele>684.12</ele><time>2015-04-06T10:28:27Z</time></trkpt><trkpt lat="43.0866258312" lon="-0.0330351759"><ele>683.63</ele><time>2015-04-06T10:28:39Z</time></trkpt><trkpt lat="43.0866229814" lon="-0.0330575556"><ele>684.12</ele><time>2015-04-06T10:28:40Z</time></trkpt><trkpt lat="43.0866279267" lon="-0.0330904964"><ele>683.63</ele><time>2015-04-06T10:28:41Z</time></trkpt><trkpt lat="43.0867016874" lon="-0.0331349205"><ele>680.75</ele><time>2015-04-06T10:28:43Z</time></trkpt><trkpt lat="43.0868813954" lon="-0.0331136305"><ele>676.91</ele><time>2015-04-06T10:28:46Z</time></trkpt><trkpt lat="43.0869305972" lon="-0.0331079308"><ele>676.42</ele><time>2015-04-06T10:28:47Z</time></trkpt><trkpt lat="43.0869829841" lon="-0.0331080984"><ele>674.98</ele><time>2015-04-06T10:28:48Z</time></trkpt><trkpt lat="43.0870383047" lon="-0.0331171509"><ele>672.58</ele><time>2015-04-06T10:28:49Z</time></trkpt><trkpt lat="43.0870904401" lon="-0.0331153069"><ele>671.62</ele><time>2015-04-06T10:28:50Z</time></trkpt><trkpt lat="43.0871260632" lon="-0.0331095234"><ele>671.14</ele><time>2015-04-06T10:28:51Z</time></trkpt><trkpt lat="43.0871471018" lon="-0.0331220962"><ele>670.66</ele><time>2015-04-06T10:28:52Z</time></trkpt><trkpt lat="43.0871703196" lon="-0.0331429671"><ele>669.70</ele><time>2015-04-06T10:28:53Z</time></trkpt><trkpt lat="43.0872095469" lon="-0.0331755728"><ele>668.73</ele><time>2015-04-06T10:28:54Z</time></trkpt><trkpt lat="43.0872574076" lon="-0.0332028139"><ele>666.81</ele><time>2015-04-06T10:28:55Z</time></trkpt><trkpt lat="43.0873017479" lon="-0.0332296360"><ele>665.37</ele><time>2015-04-06T10:28:56Z</time></trkpt><trkpt lat="43.0873517040" lon="-0.0332512613"><ele>663.93</ele><time>2015-04-06T10:28:57Z</time></trkpt><trkpt lat="43.0874076113" lon="-0.0332669355"><ele>662.97</ele><time>2015-04-06T10:28:58Z</time></trkpt><trkpt lat="43.0874754209" lon="-0.0332664326"><ele>662.01</ele><time>2015-04-06T10:28:59Z</time></trkpt><trkpt lat="43.0875460804" lon="-0.0332494173"><ele>661.52</ele><time>2015-04-06T10:29:00Z</time></trkpt><trkpt lat="43.0876203440" lon="-0.0332343299"><ele>661.52</ele><time>2015-04-06T10:29:01Z</time></trkpt><trkpt lat="43.0876852199" lon="-0.0332232658"><ele>661.04</ele><time>2015-04-06T10:29:02Z</time></trkpt><trkpt lat="43.0877370201" lon="-0.0332232658"><ele>661.52</ele><time>2015-04-06T10:29:03Z</time></trkpt><trkpt lat="43.0878960248" lon="-0.0332182366"><ele>659.60</ele><time>2015-04-06T10:29:07Z</time></trkpt><trkpt lat="43.0879838672" lon="-0.0332415383"><ele>658.64</ele><time>2015-04-06T10:29:20Z</time></trkpt><trkpt lat="43.0880055763" lon="-0.0332551170"><ele>659.12</ele><time>2015-04-06T10:29:51Z</time></trkpt><trkpt lat="43.0880189035" lon="-0.0332603138"><ele>659.12</ele><time>2015-04-06T10:30:15Z</time></trkpt><trkpt lat="43.0880126171" lon="-0.0332937576"><ele>659.12</ele><time>2015-04-06T10:30:24Z</time></trkpt><trkpt lat="43.0880274531" lon="-0.0333171431"><ele>658.64</ele><time>2015-04-06T10:30:25Z</time></trkpt><trkpt lat="43.0880540237" lon="-0.0333637465"><ele>658.64</ele><time>2015-04-06T10:30:26Z</time></trkpt><trkpt lat="43.0880759843" lon="-0.0334261078"><ele>657.68</ele><time>2015-04-06T10:30:27Z</time></trkpt><trkpt lat="43.0880915746" lon="-0.0335011259"><ele>657.68</ele><time>2015-04-06T10:30:28Z</time></trkpt><trkpt lat="43.0881007947" lon="-0.0335836876"><ele>657.68</ele><time>2015-04-06T10:30:29Z</time></trkpt><trkpt lat="43.0881066620" lon="-0.0336598791"><ele>658.16</ele><time>2015-04-06T10:30:30Z</time></trkpt><trkpt lat="43.0881142057" lon="-0.0337276887"><ele>657.20</ele><time>2015-04-06T10:30:31Z</time></trkpt><trkpt lat="43.0881289579" lon="-0.0338494778"><ele>656.72</ele><time>2015-04-06T10:30:33Z</time></trkpt><trkpt lat="43.0881365016" lon="-0.0339229871"><ele>657.68</ele><time>2015-04-06T10:30:34Z</time></trkpt><trkpt lat="43.0881463923" lon="-0.0340446085"><ele>654.31</ele><time>2015-04-06T10:30:36Z</time></trkpt><trkpt lat="43.0881382618" lon="-0.0340914633"><ele>653.83</ele><time>2015-04-06T10:30:37Z</time></trkpt><trkpt lat="43.0881193187" lon="-0.0341275055"><ele>653.83</ele><time>2015-04-06T10:30:38Z</time></trkpt><trkpt lat="43.0880912393" lon="-0.0341731869"><ele>652.39</ele><time>2015-04-06T10:30:39Z</time></trkpt><trkpt lat="43.0880681053" lon="-0.0342390686"><ele>651.91</ele><time>2015-04-06T10:30:40Z</time></trkpt><trkpt lat="43.0880404450" lon="-0.0342892762"><ele>650.95</ele><time>2015-04-06T10:30:41Z</time></trkpt><trkpt lat="43.0880061630" lon="-0.0343362987"><ele>649.99</ele><time>2015-04-06T10:30:42Z</time></trkpt><trkpt lat="43.0879680254" lon="-0.0344022643"><ele>649.99</ele><time>2015-04-06T10:30:43Z</time></trkpt><trkpt lat="43.0879351683" lon="-0.0344787072"><ele>649.03</ele><time>2015-04-06T10:30:44Z</time></trkpt><trkpt lat="43.0879098549" lon="-0.0345503725"><ele>648.55</ele><time>2015-04-06T10:30:45Z</time></trkpt><trkpt lat="43.0878848769" lon="-0.0346219540"><ele>648.07</ele><time>2015-04-06T10:30:46Z</time></trkpt><trkpt lat="43.0878552049" lon="-0.0346901827"><ele>647.59</ele><time>2015-04-06T10:30:47Z</time></trkpt><trkpt lat="43.0878288858" lon="-0.0347532146"><ele>646.62</ele><time>2015-04-06T10:30:48Z</time></trkpt><trkpt lat="43.0877736490" lon="-0.0349478424"><ele>643.26</ele><time>2015-04-06T10:30:51Z</time></trkpt><trkpt lat="43.0877451506" lon="-0.0349604990"><ele>643.26</ele><time>2015-04-06T10:30:52Z</time></trkpt><trkpt lat="43.0877180770" lon="-0.0349551346"><ele>643.26</ele><time>2015-04-06T10:30:53Z</time></trkpt><trkpt lat="43.0876820348" lon="-0.0349832140"><ele>642.78</ele><time>2015-04-06T10:30:55Z</time></trkpt><trkpt lat="43.0876690429" lon="-0.0350221060"><ele>641.82</ele><time>2015-04-06T10:30:56Z</time></trkpt><trkpt lat="43.0876454897" lon="-0.0350516103"><ele>641.82</ele><time>2015-04-06T10:30:57Z</time></trkpt><trkpt lat="43.0876122136" lon="-0.0350661948"><ele>641.82</ele><time>2015-04-06T10:30:58Z</time></trkpt><trkpt lat="43.0875796080" lon="-0.0350678712"><ele>640.86</ele><time>2015-04-06T10:30:59Z</time></trkpt><trkpt lat="43.0875300709" lon="-0.0350621715"><ele>640.38</ele><time>2015-04-06T10:31:00Z</time></trkpt><trkpt lat="43.0874945316" lon="-0.0350670330"><ele>638.93</ele><time>2015-04-06T10:31:01Z</time></trkpt><trkpt lat="43.0874742474" lon="-0.0350842159"><ele>638.93</ele><time>2015-04-06T10:31:02Z</time></trkpt><trkpt lat="43.0874585733" lon="-0.0351137202"><ele>639.41</ele><time>2015-04-06T10:31:03Z</time></trkpt><trkpt lat="43.0874464195" lon="-0.0351519417"><ele>638.45</ele><time>2015-04-06T10:31:04Z</time></trkpt><trkpt lat="43.0874227826" lon="-0.0351845473"><ele>638.45</ele><time>2015-04-06T10:31:05Z</time></trkpt><trkpt lat="43.0873781908" lon="-0.0351868104"><ele>638.45</ele><time>2015-04-06T10:31:06Z</time></trkpt><trkpt lat="43.0873424001" lon="-0.0351723097"><ele>638.45</ele><time>2015-04-06T10:31:07Z</time></trkpt><trkpt lat="43.0873081181" lon="-0.0351507682"><ele>638.45</ele><time>2015-04-06T10:31:08Z</time></trkpt><trkpt lat="43.0872766022" lon="-0.0351253711"><ele>637.97</ele><time>2015-04-06T10:31:09Z</time></trkpt><trkpt lat="43.0872515403" lon="-0.0351027399"><ele>637.49</ele><time>2015-04-06T10:31:10Z</time></trkpt><trkpt lat="43.0872281548" lon="-0.0350851379"><ele>637.01</ele><time>2015-04-06T10:31:11Z</time></trkpt><trkpt lat="43.0872074515" lon="-0.0350780133"><ele>637.01</ele><time>2015-04-06T10:31:12Z</time></trkpt><trkpt lat="43.0871677212" lon="-0.0351112895"><ele>636.53</ele><time>2015-04-06T10:31:23Z</time></trkpt><trkpt lat="43.0871550646" lon="-0.0351210125"><ele>636.53</ele><time>2015-04-06T10:31:40Z</time></trkpt><trkpt lat="43.0871459283" lon="-0.0351018179"><ele>637.01</ele><time>2015-04-06T10:32:03Z</time></trkpt><trkpt lat="43.0871242192" lon="-0.0350822043"><ele>637.97</ele><time>2015-04-06T10:32:20Z</time></trkpt><trkpt lat="43.0871277396" lon="-0.0350550469"><ele>637.49</ele><time>2015-04-06T10:32:47Z</time></trkpt><trkpt lat="43.0871172622" lon="-0.0350393727"><ele>637.97</ele><time>2015-04-06T10:33:18Z</time></trkpt><trkpt lat="43.0871422403" lon="-0.0350888260"><ele>637.49</ele><time>2015-04-06T10:33:24Z</time></trkpt><trkpt lat="43.0871555675" lon="-0.0351523608"><ele>637.97</ele><time>2015-04-06T10:33:25Z</time></trkpt><trkpt lat="43.0871654581" lon="-0.0352191646"><ele>637.49</ele><time>2015-04-06T10:33:26Z</time></trkpt><trkpt lat="43.0871612672" lon="-0.0352728926"><ele>637.01</ele><time>2015-04-06T10:33:27Z</time></trkpt><trkpt lat="43.0871389713" lon="-0.0353137963"><ele>636.53</ele><time>2015-04-06T10:33:28Z</time></trkpt><trkpt lat="43.0870984029" lon="-0.0353360921"><ele>634.61</ele><time>2015-04-06T10:33:29Z</time></trkpt><trkpt lat="43.0870497040" lon="-0.0353315659"><ele>633.17</ele><time>2015-04-06T10:33:30Z</time></trkpt><trkpt lat="43.0869932938" lon="-0.0353161432"><ele>630.76</ele><time>2015-04-06T10:33:31Z</time></trkpt><trkpt lat="43.0869378056" lon="-0.0353113655"><ele>632.20</ele><time>2015-04-06T10:33:32Z</time></trkpt><trkpt lat="43.0868937168" lon="-0.0353082642"><ele>631.72</ele><time>2015-04-06T10:33:33Z</time></trkpt><trkpt lat="43.0868561659" lon="-0.0353329070"><ele>631.24</ele><time>2015-04-06T10:33:34Z</time></trkpt><trkpt lat="43.0868200399" lon="-0.0353796780"><ele>630.28</ele><time>2015-04-06T10:33:35Z</time></trkpt><trkpt lat="43.0867836624" lon="-0.0354224257"><ele>629.32</ele><time>2015-04-06T10:33:36Z</time></trkpt><trkpt lat="43.0867496319" lon="-0.0354568753"><ele>628.84</ele><time>2015-04-06T10:33:37Z</time></trkpt><trkpt lat="43.0867274199" lon="-0.0354999583"><ele>627.88</ele><time>2015-04-06T10:33:38Z</time></trkpt><trkpt lat="43.0867158528" lon="-0.0355445500"><ele>626.92</ele><time>2015-04-06T10:33:39Z</time></trkpt><trkpt lat="43.0867068842" lon="-0.0355814304"><ele>626.44</ele><time>2015-04-06T10:33:40Z</time></trkpt><trkpt lat="43.0866970774" lon="-0.0356203225"><ele>625.47</ele><time>2015-04-06T10:33:41Z</time></trkpt><trkpt lat="43.0866912100" lon="-0.0356613938"><ele>624.03</ele><time>2015-04-06T10:33:42Z</time></trkpt><trkpt lat="43.0866894498" lon="-0.0357083324"><ele>624.03</ele><time>2015-04-06T10:33:43Z</time></trkpt><trkpt lat="43.0866715964" lon="-0.0357595459"><ele>622.59</ele><time>2015-04-06T10:33:45Z</time></trkpt><trkpt lat="43.0866351351" lon="-0.0357996114"><ele>621.63</ele><time>2015-04-06T10:33:48Z</time></trkpt><trkpt lat="43.0865415093" lon="-0.0358428620"><ele>617.78</ele><time>2015-04-06T10:33:52Z</time></trkpt><trkpt lat="43.0865182076" lon="-0.0358607993"><ele>617.78</ele><time>2015-04-06T10:33:53Z</time></trkpt><trkpt lat="43.0865089875" lon="-0.0359219033"><ele>616.82</ele><time>2015-04-06T10:33:55Z</time></trkpt><trkpt lat="43.0865713488" lon="-0.0361468736"><ele>615.38</ele><time>2015-04-06T10:34:02Z</time></trkpt><trkpt lat="43.0864695087" lon="-0.0361964107"><ele>609.61</ele><time>2015-04-06T10:34:06Z</time></trkpt><trkpt lat="43.0864321254" lon="-0.0362176169"><ele>610.09</ele><time>2015-04-06T10:34:07Z</time></trkpt><trkpt lat="43.0863858573" lon="-0.0362449419"><ele>607.69</ele><time>2015-04-06T10:34:10Z</time></trkpt><trkpt lat="43.0864297785" lon="-0.0364475325"><ele>604.81</ele><time>2015-04-06T10:34:17Z</time></trkpt><trkpt lat="43.0864376575" lon="-0.0365006737"><ele>603.85</ele><time>2015-04-06T10:34:19Z</time></trkpt><trkpt lat="43.0864244141" lon="-0.0365559105"><ele>602.88</ele><time>2015-04-06T10:34:21Z</time></trkpt><trkpt lat="43.0863124318" lon="-0.0365758594"><ele>600.00</ele><time>2015-04-06T10:34:24Z</time></trkpt><trkpt lat="43.0862566084" lon="-0.0365668070"><ele>600.96</ele><time>2015-04-06T10:34:25Z</time></trkpt><trkpt lat="43.0861996114" lon="-0.0365535636"><ele>600.48</ele><time>2015-04-06T10:34:26Z</time></trkpt><trkpt lat="43.0861463863" lon="-0.0365359616"><ele>600.00</ele><time>2015-04-06T10:34:27Z</time></trkpt><trkpt lat="43.0860976037" lon="-0.0365236402"><ele>599.04</ele><time>2015-04-06T10:34:28Z</time></trkpt><trkpt lat="43.0860357452" lon="-0.0365251489"><ele>598.08</ele><time>2015-04-06T10:34:29Z</time></trkpt><trkpt lat="43.0859857891" lon="-0.0365127437"><ele>598.56</ele><time>2015-04-06T10:34:30Z</time></trkpt><trkpt lat="43.0859513395" lon="-0.0364835747"><ele>598.08</ele><time>2015-04-06T10:34:31Z</time></trkpt><trkpt lat="43.0859184824" lon="-0.0364532322"><ele>598.08</ele><time>2015-04-06T10:34:32Z</time></trkpt><trkpt lat="43.0858921632" lon="-0.0364385638"><ele>598.08</ele><time>2015-04-06T10:34:33Z</time></trkpt><trkpt lat="43.0858618207" lon="-0.0364338700"><ele>597.60</ele><time>2015-04-06T10:34:34Z</time></trkpt><trkpt lat="43.0858299695" lon="-0.0364489574"><ele>597.12</ele><time>2015-04-06T10:34:35Z</time></trkpt><trkpt lat="43.0857980344" lon="-0.0364825688"><ele>595.67</ele><time>2015-04-06T10:34:36Z</time></trkpt><trkpt lat="43.0857608188" lon="-0.0365203712"><ele>595.19</ele><time>2015-04-06T10:34:37Z</time></trkpt><trkpt lat="43.0857323203" lon="-0.0365484506"><ele>593.75</ele><time>2015-04-06T10:34:38Z</time></trkpt><trkpt lat="43.0857263692" lon="-0.0365941320"><ele>591.83</ele><time>2015-04-06T10:34:40Z</time></trkpt><trkpt lat="43.0857427977" lon="-0.0366195291"><ele>590.87</ele><time>2015-04-06T10:34:42Z</time></trkpt><trkpt lat="43.0857433844" lon="-0.0366308447"><ele>590.39</ele><time>2015-04-06T10:34:52Z</time></trkpt><trkpt lat="43.0857199989" lon="-0.0366541464"><ele>590.87</ele><time>2015-04-06T10:34:57Z</time></trkpt><trkpt lat="43.0856527761" lon="-0.0367069524"><ele>591.35</ele><time>2015-04-06T10:35:10Z</time></trkpt><trkpt lat="43.0856394488" lon="-0.0367175136"><ele>591.83</ele><time>2015-04-06T10:35:24Z</time></trkpt><trkpt lat="43.0856127944" lon="-0.0367088802"><ele>591.83</ele><time>2015-04-06T10:35:38Z</time></trkpt><trkpt lat="43.0855752435" lon="-0.0366626121"><ele>591.35</ele><time>2015-04-06T10:35:59Z</time></trkpt><trkpt lat="43.0855903309" lon="-0.0366265699"><ele>591.35</ele><time>2015-04-06T10:36:25Z</time></trkpt><trkpt lat="43.0855630059" lon="-0.0366008375"><ele>592.31</ele><time>2015-04-06T10:36:44Z</time></trkpt><trkpt lat="43.0855612457" lon="-0.0366321858"><ele>591.83</ele><time>2015-04-06T10:37:07Z</time></trkpt><trkpt lat="43.0855599884" lon="-0.0366293360"><ele>592.31</ele><time>2015-04-06T10:37:24Z</time></trkpt><trkpt lat="43.0855622515" lon="-0.0366228819"><ele>592.31</ele><time>2015-04-06T10:37:58Z</time></trkpt><trkpt lat="43.0855692923" lon="-0.0366040226"><ele>591.83</ele><time>2015-04-06T10:38:31Z</time></trkpt><trkpt lat="43.0855540372" lon="-0.0366058666"><ele>592.31</ele><time>2015-04-06T10:39:02Z</time></trkpt><trkpt lat="43.0855449848" lon="-0.0366012566"><ele>592.79</ele><time>2015-04-06T10:39:37Z</time></trkpt><trkpt lat="43.0855422188" lon="-0.0365984067"><ele>592.79</ele><time>2015-04-06T10:40:01Z</time></trkpt><trkpt lat="43.0855588987" lon="-0.0365694053"><ele>592.79</ele><time>2015-04-06T10:40:23Z</time></trkpt><trkpt lat="43.0855960306" lon="-0.0365836546"><ele>591.83</ele><time>2015-04-06T10:40:37Z</time></trkpt><trkpt lat="43.0856283009" lon="-0.0366100576"><ele>592.31</ele><time>2015-04-06T10:40:57Z</time></trkpt><trkpt lat="43.0856430531" lon="-0.0366227981"><ele>591.83</ele><time>2015-04-06T10:40:59Z</time></trkpt><trkpt lat="43.0856682826" lon="-0.0366331916"><ele>591.83</ele><time>2015-04-06T10:41:01Z</time></trkpt><trkpt lat="43.0859976076" lon="-0.0368477684"><ele>587.98</ele><time>2015-04-06T10:41:11Z</time></trkpt><trkpt lat="43.0860883836" lon="-0.0369485188"><ele>589.43</ele><time>2015-04-06T10:41:13Z</time></trkpt><trkpt lat="43.0861342326" lon="-0.0370004866"><ele>588.95</ele><time>2015-04-06T10:41:14Z</time></trkpt><trkpt lat="43.0862276070" lon="-0.0371109601"><ele>588.95</ele><time>2015-04-06T10:41:16Z</time></trkpt><trkpt lat="43.0862652417" lon="-0.0371760875"><ele>587.50</ele><time>2015-04-06T10:41:17Z</time></trkpt><trkpt lat="43.0863554310" lon="-0.0373127963"><ele>587.02</ele><time>2015-04-06T10:41:19Z</time></trkpt><trkpt lat="43.0864424352" lon="-0.0374412071"><ele>586.06</ele><time>2015-04-06T10:41:21Z</time></trkpt><trkpt lat="43.0864897091" lon="-0.0374888163"><ele>585.58</ele><time>2015-04-06T10:41:22Z</time></trkpt><trkpt lat="43.0865235720" lon="-0.0375351682"><ele>587.98</ele><time>2015-04-06T10:41:23Z</time></trkpt><trkpt lat="43.0865497235" lon="-0.0375936739"><ele>585.58</ele><time>2015-04-06T10:41:24Z</time></trkpt><trkpt lat="43.0865836702" lon="-0.0376568735"><ele>585.58</ele><time>2015-04-06T10:41:25Z</time></trkpt><trkpt lat="43.0866208021" lon="-0.0377182290"><ele>584.62</ele><time>2015-04-06T10:41:26Z</time></trkpt><trkpt lat="43.0867292639" lon="-0.0379087497"><ele>584.62</ele><time>2015-04-06T10:41:29Z</time></trkpt><trkpt lat="43.0867628753" lon="-0.0379664171"><ele>584.14</ele><time>2015-04-06T10:41:30Z</time></trkpt><trkpt lat="43.0867906194" lon="-0.0380214863"><ele>583.66</ele><time>2015-04-06T10:41:31Z</time></trkpt><trkpt lat="43.0868138373" lon="-0.0380729511"><ele>583.66</ele><time>2015-04-06T10:41:32Z</time></trkpt><trkpt lat="43.0868363008" lon="-0.0381187163"><ele>583.18</ele><time>2015-04-06T10:41:33Z</time></trkpt><trkpt lat="43.0868523940" lon="-0.0381587818"><ele>583.18</ele><time>2015-04-06T10:41:34Z</time></trkpt><trkpt lat="43.0868627876" lon="-0.0381979253"><ele>583.18</ele><time>2015-04-06T10:41:35Z</time></trkpt><trkpt lat="43.0868706666" lon="-0.0382338837"><ele>583.66</ele><time>2015-04-06T10:41:36Z</time></trkpt><trkpt lat="43.0869024340" lon="-0.0383289345"><ele>582.22</ele><time>2015-04-06T10:41:45Z</time></trkpt><trkpt lat="43.0869028531" lon="-0.0383555889"><ele>582.22</ele><time>2015-04-06T10:42:11Z</time></trkpt><trkpt lat="43.0869106483" lon="-0.0383633003"><ele>582.22</ele><time>2015-04-06T10:42:30Z</time></trkpt><trkpt lat="43.0871676374" lon="-0.0386535656"><ele>579.81</ele><time>2015-04-06T10:42:42Z</time></trkpt><trkpt lat="43.0873087887" lon="-0.0387208723"><ele>578.85</ele><time>2015-04-06T10:42:46Z</time></trkpt><trkpt lat="43.0873461720" lon="-0.0387388933"><ele>576.93</ele><time>2015-04-06T10:42:47Z</time></trkpt><trkpt lat="43.0873760954" lon="-0.0387677271"><ele>576.45</ele><time>2015-04-06T10:42:48Z</time></trkpt><trkpt lat="43.0874921009" lon="-0.0388772786"><ele>573.08</ele><time>2015-04-06T10:42:52Z</time></trkpt><trkpt lat="43.0875053443" lon="-0.0389025919"><ele>571.64</ele><time>2015-04-06T10:42:54Z</time></trkpt><trkpt lat="43.0874909274" lon="-0.0389255583"><ele>570.20</ele><time>2015-04-06T10:42:55Z</time></trkpt><trkpt lat="43.0874729902" lon="-0.0389886741"><ele>570.20</ele><time>2015-04-06T10:42:56Z</time></trkpt><trkpt lat="43.0874569807" lon="-0.0390351936"><ele>569.24</ele><time>2015-04-06T10:42:57Z</time></trkpt><trkpt lat="43.0874512810" lon="-0.0390804559"><ele>568.76</ele><time>2015-04-06T10:42:58Z</time></trkpt><trkpt lat="43.0874664523" lon="-0.0391061883"><ele>567.32</ele><time>2015-04-06T10:42:59Z</time></trkpt><trkpt lat="43.0874937773" lon="-0.0391255505"><ele>566.35</ele><time>2015-04-06T10:43:00Z</time></trkpt><trkpt lat="43.0875170790" lon="-0.0391479302"><ele>565.87</ele><time>2015-04-06T10:43:01Z</time></trkpt><trkpt lat="43.0875416379" lon="-0.0391636044"><ele>564.91</ele><time>2015-04-06T10:43:02Z</time></trkpt><trkpt lat="43.0875657778" lon="-0.0391667895"><ele>564.43</ele><time>2015-04-06T10:43:03Z</time></trkpt><trkpt lat="43.0875887442" lon="-0.0391642749"><ele>562.99</ele><time>2015-04-06T10:43:04Z</time></trkpt><trkpt lat="43.0876099505" lon="-0.0391662028"><ele>562.51</ele><time>2015-04-06T10:43:05Z</time></trkpt><trkpt lat="43.0876319110" lon="-0.0391732436"><ele>561.07</ele><time>2015-04-06T10:43:06Z</time></trkpt><trkpt lat="43.0876562186" lon="-0.0391798653"><ele>560.11</ele><time>2015-04-06T10:43:07Z</time></trkpt><trkpt lat="43.0876822025" lon="-0.0391900912"><ele>559.14</ele><time>2015-04-06T10:43:08Z</time></trkpt><trkpt lat="43.0877060071" lon="-0.0392079446"><ele>557.70</ele><time>2015-04-06T10:43:09Z</time></trkpt><trkpt lat="43.0877809413" lon="-0.0392562244"><ele>554.34</ele><time>2015-04-06T10:43:13Z</time></trkpt><trkpt lat="43.0878044106" lon="-0.0392636843"><ele>553.38</ele><time>2015-04-06T10:43:14Z</time></trkpt><trkpt lat="43.0878266227" lon="-0.0392660312"><ele>552.90</ele><time>2015-04-06T10:43:15Z</time></trkpt><trkpt lat="43.0878463201" lon="-0.0392672047"><ele>552.41</ele><time>2015-04-06T10:43:16Z</time></trkpt><trkpt lat="43.0878661852" lon="-0.0392667018"><ele>551.45</ele><time>2015-04-06T10:43:17Z</time></trkpt><trkpt lat="43.0878863856" lon="-0.0392746646"><ele>550.49</ele><time>2015-04-06T10:43:18Z</time></trkpt><trkpt lat="43.0879039876" lon="-0.0392908417"><ele>550.01</ele><time>2015-04-06T10:43:19Z</time></trkpt><trkpt lat="43.0879328214" lon="-0.0393469166"><ele>549.05</ele><time>2015-04-06T10:43:30Z</time></trkpt><trkpt lat="43.0879271217" lon="-0.0393480062"><ele>549.05</ele><time>2015-04-06T10:43:31Z</time></trkpt><trkpt lat="43.0879180692" lon="-0.0393606629"><ele>548.57</ele><time>2015-04-06T10:43:32Z</time></trkpt><trkpt lat="43.0879096035" lon="-0.0393852219"><ele>548.09</ele><time>2015-04-06T10:43:33Z</time></trkpt><trkpt lat="43.0878978688" lon="-0.0394236110"><ele>547.13</ele><time>2015-04-06T10:43:34Z</time></trkpt><trkpt lat="43.0878746510" lon="-0.0394593179"><ele>545.69</ele><time>2015-04-06T10:43:35Z</time></trkpt><trkpt lat="43.0878422968" lon="-0.0394834578"><ele>544.72</ele><time>2015-04-06T10:43:36Z</time></trkpt><trkpt lat="43.0877994653" lon="-0.0395043287"><ele>544.72</ele><time>2015-04-06T10:43:37Z</time></trkpt><trkpt lat="43.0877499282" lon="-0.0395191647"><ele>543.28</ele><time>2015-04-06T10:43:38Z</time></trkpt><trkpt lat="43.0877012294" lon="-0.0395361800"><ele>542.32</ele><time>2015-04-06T10:43:39Z</time></trkpt><trkpt lat="43.0876525305" lon="-0.0395518541"><ele>541.36</ele><time>2015-04-06T10:43:40Z</time></trkpt><trkpt lat="43.0876076873" lon="-0.0395618286"><ele>541.36</ele><time>2015-04-06T10:43:41Z</time></trkpt><trkpt lat="43.0875643529" lon="-0.0395808555"><ele>540.88</ele><time>2015-04-06T10:43:42Z</time></trkpt><trkpt lat="43.0875164084" lon="-0.0396034867"><ele>538.96</ele><time>2015-04-06T10:43:43Z</time></trkpt><trkpt lat="43.0874636024" lon="-0.0396079291"><ele>538.48</ele><time>2015-04-06T10:43:44Z</time></trkpt><trkpt lat="43.0874167476" lon="-0.0396016426"><ele>537.51</ele><time>2015-04-06T10:43:45Z</time></trkpt><trkpt lat="43.0873869080" lon="-0.0396045763"><ele>536.55</ele><time>2015-04-06T10:43:46Z</time></trkpt><trkpt lat="43.0873812083" lon="-0.0396160595"><ele>536.55</ele><time>2015-04-06T10:43:47Z</time></trkpt><trkpt lat="43.0873827171" lon="-0.0396371819"><ele>535.11</ele><time>2015-04-06T10:43:48Z</time></trkpt><trkpt lat="43.0873883329" lon="-0.0396220945"><ele>535.11</ele><time>2015-04-06T10:44:02Z</time></trkpt><trkpt lat="43.0873741675" lon="-0.0396271236"><ele>535.11</ele><time>2015-04-06T10:44:23Z</time></trkpt><trkpt lat="43.0873782746" lon="-0.0396054145"><ele>534.63</ele><time>2015-04-06T10:44:51Z</time></trkpt><trkpt lat="43.0873748381" lon="-0.0396070071"><ele>535.11</ele><time>2015-04-06T10:45:15Z</time></trkpt><trkpt lat="43.0873820465" lon="-0.0396177359"><ele>535.11</ele><time>2015-04-06T10:45:20Z</time></trkpt><trkpt lat="43.0873931106" lon="-0.0396293867"><ele>535.11</ele><time>2015-04-06T10:45:21Z</time></trkpt><trkpt lat="43.0874025822" lon="-0.0396479946"><ele>534.63</ele><time>2015-04-06T10:45:22Z</time></trkpt><trkpt lat="43.0874081980" lon="-0.0396857969"><ele>534.15</ele><time>2015-04-06T10:45:23Z</time></trkpt><trkpt lat="43.0874081980" lon="-0.0397374295"><ele>532.71</ele><time>2015-04-06T10:45:24Z</time></trkpt><trkpt lat="43.0873893388" lon="-0.0397878047"><ele>530.79</ele><time>2015-04-06T10:45:25Z</time></trkpt><trkpt lat="43.0873521231" lon="-0.0398287922"><ele>529.34</ele><time>2015-04-06T10:45:26Z</time></trkpt><trkpt lat="43.0873024184" lon="-0.0398359168"><ele>528.86</ele><time>2015-04-06T10:45:27Z</time></trkpt><trkpt lat="43.0872422364" lon="-0.0398283731"><ele>528.38</ele><time>2015-04-06T10:45:28Z</time></trkpt><trkpt lat="43.0871098023" lon="-0.0398059096"><ele>525.50</ele><time>2015-04-06T10:45:30Z</time></trkpt><trkpt lat="43.0869727582" lon="-0.0397923309"><ele>522.13</ele><time>2015-04-06T10:45:32Z</time></trkpt><trkpt lat="43.0869177729" lon="-0.0397854578"><ele>520.21</ele><time>2015-04-06T10:45:33Z</time></trkpt><trkpt lat="43.0868641287" lon="-0.0397779141"><ele>519.25</ele><time>2015-04-06T10:45:34Z</time></trkpt><trkpt lat="43.0868111551" lon="-0.0397685263"><ele>517.33</ele><time>2015-04-06T10:45:35Z</time></trkpt><trkpt lat="43.0867599417" lon="-0.0397573784"><ele>515.88</ele><time>2015-04-06T10:45:36Z</time></trkpt><trkpt lat="43.0867109075" lon="-0.0397489965"><ele>514.44</ele><time>2015-04-06T10:45:37Z</time></trkpt><trkpt lat="43.0866590235" lon="-0.0397452246"><ele>514.44</ele><time>2015-04-06T10:45:38Z</time></trkpt><trkpt lat="43.0866040383" lon="-0.0397388544"><ele>512.04</ele><time>2015-04-06T10:45:39Z</time></trkpt><trkpt lat="43.0865518190" lon="-0.0397206657"><ele>510.60</ele><time>2015-04-06T10:45:40Z</time></trkpt><trkpt lat="43.0864679161" lon="-0.0396852940"><ele>509.16</ele><time>2015-04-06T10:45:42Z</time></trkpt><trkpt lat="43.0863885395" lon="-0.0396431331"><ele>507.71</ele><time>2015-04-06T10:45:44Z</time></trkpt><trkpt lat="43.0863620527" lon="-0.0396158081"><ele>506.75</ele><time>2015-04-06T10:45:45Z</time></trkpt><trkpt lat="43.0863182154" lon="-0.0395675283"><ele>506.75</ele><time>2015-04-06T10:45:47Z</time></trkpt><trkpt lat="43.0862791557" lon="-0.0395428017"><ele>504.83</ele><time>2015-04-06T10:45:48Z</time></trkpt><trkpt lat="43.0862431135" lon="-0.0395204220"><ele>503.87</ele><time>2015-04-06T10:45:49Z</time></trkpt><trkpt lat="43.0862152856" lon="-0.0395003892"><ele>503.39</ele><time>2015-04-06T10:45:50Z</time></trkpt><trkpt lat="43.0861868709" lon="-0.0394805241"><ele>502.91</ele><time>2015-04-06T10:45:51Z</time></trkpt><trkpt lat="43.0861620605" lon="-0.0394590665"><ele>501.95</ele><time>2015-04-06T10:45:52Z</time></trkpt><trkpt lat="43.0861457158" lon="-0.0394572224"><ele>501.46</ele><time>2015-04-06T10:45:53Z</time></trkpt><trkpt lat="43.0861401837" lon="-0.0394811947"><ele>500.98</ele><time>2015-04-06T10:45:54Z</time></trkpt><trkpt lat="43.0861480627" lon="-0.0395226013"><ele>500.50</ele><time>2015-04-06T10:45:55Z</time></trkpt><trkpt lat="43.0861771479" lon="-0.0395567995"><ele>500.02</ele><time>2015-04-06T10:45:56Z</time></trkpt><trkpt lat="43.0862065684" lon="-0.0396015588"><ele>499.54</ele><time>2015-04-06T10:45:57Z</time></trkpt><trkpt lat="43.0862364080" lon="-0.0396581367"><ele>499.54</ele><time>2015-04-06T10:45:58Z</time></trkpt><trkpt lat="43.0863796547" lon="-0.0398997869"><ele>497.14</ele><time>2015-04-06T10:46:02Z</time></trkpt><trkpt lat="43.0864230730" lon="-0.0399670936"><ele>496.66</ele><time>2015-04-06T10:46:03Z</time></trkpt><trkpt lat="43.0864631385" lon="-0.0400110148"><ele>495.70</ele><time>2015-04-06T10:46:04Z</time></trkpt><trkpt lat="43.0864827521" lon="-0.0400347356"><ele>494.74</ele><time>2015-04-06T10:46:05Z</time></trkpt><trkpt lat="43.0864860211" lon="-0.0400494877"><ele>493.29</ele><time>2015-04-06T10:46:06Z</time></trkpt><trkpt lat="43.0863780621" lon="-0.0400271919"><ele>488.97</ele><time>2015-04-06T10:46:10Z</time></trkpt><trkpt lat="43.0863027927" lon="-0.0400237553"><ele>487.05</ele><time>2015-04-06T10:46:12Z</time></trkpt><trkpt lat="43.0862644035" lon="-0.0400123559"><ele>485.60</ele><time>2015-04-06T10:46:13Z</time></trkpt><trkpt lat="43.0862375814" lon="-0.0399975199"><ele>485.60</ele><time>2015-04-06T10:46:14Z</time></trkpt><trkpt lat="43.0861830153" lon="-0.0399621483"><ele>483.20</ele><time>2015-04-06T10:46:18Z</time></trkpt><trkpt lat="43.0861503258" lon="-0.0399356615"><ele>481.76</ele><time>2015-04-06T10:46:21Z</time></trkpt><trkpt lat="43.0861260183" lon="-0.0399314705"><ele>481.28</ele><time>2015-04-06T10:46:22Z</time></trkpt><trkpt lat="43.0860902276" lon="-0.0399340689"><ele>480.32</ele><time>2015-04-06T10:46:23Z</time></trkpt><trkpt lat="43.0860536825" lon="-0.0399441272"><ele>478.87</ele><time>2015-04-06T10:46:24Z</time></trkpt><trkpt lat="43.0860204902" lon="-0.0399497431"><ele>478.39</ele><time>2015-04-06T10:46:25Z</time></trkpt><trkpt lat="43.0859966017" lon="-0.0399542693"><ele>477.91</ele><time>2015-04-06T10:46:26Z</time></trkpt><trkpt lat="43.0859846156" lon="-0.0399698596"><ele>477.43</ele><time>2015-04-06T10:46:27Z</time></trkpt><trkpt lat="43.0859765690" lon="-0.0399943348"><ele>475.99</ele><time>2015-04-06T10:46:28Z</time></trkpt><trkpt lat="43.0859743897" lon="-0.0400149543"><ele>475.03</ele><time>2015-04-06T10:46:29Z</time></trkpt><trkpt lat="43.0859681871" lon="-0.0400237553"><ele>473.59</ele><time>2015-04-06T10:46:30Z</time></trkpt><trkpt lat="43.0859426223" lon="-0.0400306284"><ele>472.63</ele><time>2015-04-06T10:46:31Z</time></trkpt><trkpt lat="43.0859012157" lon="-0.0400463864"><ele>472.14</ele><time>2015-04-06T10:46:32Z</time></trkpt><trkpt lat="43.0858585518" lon="-0.0400733761"><ele>471.18</ele><time>2015-04-06T10:46:33Z</time></trkpt><trkpt lat="43.0858121999" lon="-0.0401029643"><ele>470.70</ele><time>2015-04-06T10:46:34Z</time></trkpt><trkpt lat="43.0857744813" lon="-0.0401269365"><ele>470.70</ele><time>2015-04-06T10:46:35Z</time></trkpt><trkpt lat="43.0857449770" lon="-0.0401572790"><ele>469.74</ele><time>2015-04-06T10:46:36Z</time></trkpt><trkpt lat="43.0857164785" lon="-0.0402047206"><ele>469.26</ele><time>2015-04-06T10:46:37Z</time></trkpt><trkpt lat="43.0856837891" lon="-0.0402520783"><ele>468.30</ele><time>2015-04-06T10:46:38Z</time></trkpt><trkpt lat="43.0856461544" lon="-0.0402877852"><ele>467.34</ele><time>2015-04-06T10:46:39Z</time></trkpt><trkpt lat="43.0856056698" lon="-0.0403228216"><ele>466.86</ele><time>2015-04-06T10:46:40Z</time></trkpt><trkpt lat="43.0855542049" lon="-0.0403685868"><ele>465.90</ele><time>2015-04-06T10:46:41Z</time></trkpt><trkpt lat="43.0854905862" lon="-0.0404193811"><ele>464.93</ele><time>2015-04-06T10:46:42Z</time></trkpt><trkpt lat="43.0852856487" lon="-0.0405580178"><ele>462.53</ele><time>2015-04-06T10:46:45Z</time></trkpt><trkpt lat="43.0849989876" lon="-0.0406855065"><ele>459.65</ele><time>2015-04-06T10:46:49Z</time></trkpt><trkpt lat="43.0848786235" lon="-0.0407692418"><ele>458.69</ele><time>2015-04-06T10:46:51Z</time></trkpt><trkpt lat="43.0846912041" lon="-0.0408777874"><ele>455.80</ele><time>2015-04-06T10:46:54Z</time></trkpt><trkpt lat="43.0846547429" lon="-0.0408958085"><ele>455.80</ele><time>2015-04-06T10:46:55Z</time></trkpt><trkpt lat="43.0846152641" lon="-0.0409151707"><ele>455.32</ele><time>2015-04-06T10:46:56Z</time></trkpt><trkpt lat="43.0845809821" lon="-0.0409455132"><ele>455.32</ele><time>2015-04-06T10:46:57Z</time></trkpt><trkpt lat="43.0845494661" lon="-0.0409855787"><ele>455.32</ele><time>2015-04-06T10:46:58Z</time></trkpt><trkpt lat="43.0845103227" lon="-0.0410325173"><ele>454.84</ele><time>2015-04-06T10:46:59Z</time></trkpt><trkpt lat="43.0844625458" lon="-0.0410792883"><ele>453.40</ele><time>2015-04-06T10:47:00Z</time></trkpt><trkpt lat="43.0844074767" lon="-0.0411156658"><ele>451.96</ele><time>2015-04-06T10:47:01Z</time></trkpt><trkpt lat="43.0843598675" lon="-0.0411386322"><ele>451.48</ele><time>2015-04-06T10:47:02Z</time></trkpt><trkpt lat="43.0843122583" lon="-0.0411721598"><ele>450.52</ele><time>2015-04-06T10:47:03Z</time></trkpt><trkpt lat="43.0842579436" lon="-0.0412099622"><ele>449.07</ele><time>2015-04-06T10:47:04Z</time></trkpt><trkpt lat="43.0842053890" lon="-0.0412449986"><ele>447.15</ele><time>2015-04-06T10:47:05Z</time></trkpt><trkpt lat="43.0841638986" lon="-0.0412751734"><ele>446.67</ele><time>2015-04-06T10:47:06Z</time></trkpt><trkpt lat="43.0840294529" lon="-0.0413331762"><ele>443.79</ele><time>2015-04-06T10:47:10Z</time></trkpt><trkpt lat="43.0840059835" lon="-0.0413449947"><ele>443.31</ele><time>2015-04-06T10:47:11Z</time></trkpt><trkpt lat="43.0839905608" lon="-0.0413575675"><ele>443.31</ele><time>2015-04-06T10:47:12Z</time></trkpt><trkpt lat="43.0839793291" lon="-0.0413741637"><ele>443.31</ele><time>2015-04-06T10:47:13Z</time></trkpt><trkpt lat="43.0839666724" lon="-0.0413872395"><ele>442.82</ele><time>2015-04-06T10:47:15Z</time></trkpt><trkpt lat="43.0839823466" lon="-0.0414370280"><ele>442.34</ele><time>2015-04-06T10:47:24Z</time></trkpt><trkpt lat="43.0840028822" lon="-0.0414309092"><ele>442.34</ele><time>2015-04-06T10:47:42Z</time></trkpt><trkpt lat="43.0839782394" lon="-0.0414533727"><ele>441.86</ele><time>2015-04-06T10:47:55Z</time></trkpt><trkpt lat="43.0839751381" lon="-0.0414530374"><ele>441.86</ele><time>2015-04-06T10:47:57Z</time></trkpt><trkpt lat="43.0839682650" lon="-0.0414470863"><ele>441.86</ele><time>2015-04-06T10:48:00Z</time></trkpt><trkpt lat="43.0839582905" lon="-0.0414579827"><ele>442.34</ele><time>2015-04-06T10:48:08Z</time></trkpt><trkpt lat="43.0839504953" lon="-0.0414820388"><ele>441.86</ele><time>2015-04-06T10:48:22Z</time></trkpt><trkpt lat="43.0839437898" lon="-0.0414957013"><ele>441.86</ele><time>2015-04-06T10:48:44Z</time></trkpt><trkpt lat="43.0839215778" lon="-0.0414749980"><ele>442.34</ele><time>2015-04-06T10:48:57Z</time></trkpt><trkpt lat="43.0839120224" lon="-0.0414479245"><ele>443.79</ele><time>2015-04-06T10:49:04Z</time></trkpt><trkpt lat="43.0838985275" lon="-0.0414374471"><ele>444.27</ele><time>2015-04-06T10:49:06Z</time></trkpt><trkpt lat="43.0839075800" lon="-0.0414113794"><ele>447.63</ele><time>2015-04-06T10:49:11Z</time></trkpt><trkpt lat="43.0839113519" lon="-0.0414091162"><ele>447.63</ele><time>2015-04-06T10:49:12Z</time></trkpt><trkpt lat="43.0839140341" lon="-0.0414061826"><ele>448.11</ele><time>2015-04-06T10:49:18Z</time></trkpt><trkpt lat="43.0839123577" lon="-0.0414055958"><ele>447.63</ele><time>2015-04-06T10:49:22Z</time></trkpt><trkpt lat="43.0839137826" lon="-0.0414149836"><ele>447.63</ele><time>2015-04-06T10:49:23Z</time></trkpt><trkpt lat="43.0839175545" lon="-0.0414253771"><ele>448.11</ele><time>2015-04-06T10:49:24Z</time></trkpt><trkpt lat="43.0839092564" lon="-0.0414340105"><ele>447.63</ele><time>2015-04-06T10:49:35Z</time></trkpt><trkpt lat="43.0838803388" lon="-0.0414086133"><ele>447.63</ele><time>2015-04-06T10:49:49Z</time></trkpt><trkpt lat="43.0838685203" lon="-0.0413642731"><ele>448.11</ele><time>2015-04-06T10:50:06Z</time></trkpt><trkpt lat="43.0838652514" lon="-0.0413729902"><ele>447.63</ele><time>2015-04-06T10:50:34Z</time></trkpt><trkpt lat="43.0838717055" lon="-0.0413762592"><ele>447.63</ele><time>2015-04-06T10:50:40Z</time></trkpt><trkpt lat="43.0838644132" lon="-0.0413680449"><ele>449.07</ele><time>2015-04-06T10:50:43Z</time></trkpt><trkpt lat="43.0838731304" lon="-0.0413599983"><ele>447.63</ele><time>2015-04-06T10:50:58Z</time></trkpt><trkpt lat="43.0838678498" lon="-0.0413546339"><ele>448.11</ele><time>2015-04-06T10:51:12Z</time></trkpt><trkpt lat="43.0838663410" lon="-0.0413609203"><ele>447.15</ele><time>2015-04-06T10:51:21Z</time></trkpt><trkpt lat="43.0838494096" lon="-0.0413893349"><ele>446.19</ele><time>2015-04-06T10:51:32Z</time></trkpt><trkpt lat="43.0838597193" lon="-0.0414362736"><ele>446.19</ele><time>2015-04-06T10:51:44Z</time></trkpt><trkpt lat="43.0838562828" lon="-0.0414476730"><ele>444.75</ele><time>2015-04-06T10:51:57Z</time></trkpt><trkpt lat="43.0838695262" lon="-0.0414851401"><ele>443.31</ele><time>2015-04-06T10:52:08Z</time></trkpt><trkpt lat="43.0838841107" lon="-0.0414891634"><ele>443.79</ele><time>2015-04-06T10:52:21Z</time></trkpt><trkpt lat="43.0838831887" lon="-0.0414641015"><ele>444.75</ele><time>2015-04-06T10:52:33Z</time></trkpt><trkpt lat="43.0838776566" lon="-0.0414394587"><ele>446.67</ele><time>2015-04-06T10:52:45Z</time></trkpt><trkpt lat="43.0838632397" lon="-0.0414025784"><ele>447.63</ele><time>2015-04-06T10:52:51Z</time></trkpt><trkpt lat="43.0838698614" lon="-0.0413927715"><ele>447.15</ele><time>2015-04-06T10:52:52Z</time></trkpt><trkpt lat="43.0838713702" lon="-0.0413875747"><ele>447.63</ele><time>2015-04-06T10:52:54Z</time></trkpt><trkpt lat="43.0839144532" lon="-0.0413480960"><ele>447.63</ele><time>2015-04-06T10:53:05Z</time></trkpt><trkpt lat="43.0839608051" lon="-0.0413460843"><ele>445.71</ele><time>2015-04-06T10:53:15Z</time></trkpt><trkpt lat="43.0839578714" lon="-0.0413527898"><ele>444.75</ele><time>2015-04-06T10:53:25Z</time></trkpt><trkpt lat="43.0839250144" lon="-0.0414122175"><ele>442.82</ele><time>2015-04-06T10:53:34Z</time></trkpt><trkpt lat="43.0839203205" lon="-0.0414226111"><ele>442.34</ele><time>2015-04-06T10:53:35Z</time></trkpt><trkpt lat="43.0838950071" lon="-0.0414506905"><ele>440.90</ele><time>2015-04-06T10:53:47Z</time></trkpt><trkpt lat="43.0838843621" lon="-0.0414759200"><ele>441.38</ele><time>2015-04-06T10:53:59Z</time></trkpt><trkpt lat="43.0838724598" lon="-0.0414754171"><ele>441.86</ele><time>2015-04-06T10:54:00Z</time></trkpt><trkpt lat="43.0838606413" lon="-0.0414750818"><ele>441.86</ele><time>2015-04-06T10:54:01Z</time></trkpt><trkpt lat="43.0838505831" lon="-0.0414815359"><ele>441.86</ele><time>2015-04-06T10:54:02Z</time></trkpt><trkpt lat="43.0838417821" lon="-0.0414942764"><ele>441.86</ele><time>2015-04-06T10:54:03Z</time></trkpt><trkpt lat="43.0838357471" lon="-0.0415154826"><ele>441.38</ele><time>2015-04-06T10:54:04Z</time></trkpt><trkpt lat="43.0838323943" lon="-0.0415402930"><ele>441.86</ele><time>2015-04-06T10:54:05Z</time></trkpt><trkpt lat="43.0837712903" lon="-0.0418882258"><ele>438.50</ele><time>2015-04-06T10:54:13Z</time></trkpt><trkpt lat="43.0837593880" lon="-0.0420038961"><ele>438.50</ele><time>2015-04-06T10:54:15Z</time></trkpt><trkpt lat="43.0837598909" lon="-0.0422050618"><ele>437.06</ele><time>2015-04-06T10:54:18Z</time></trkpt><trkpt lat="43.0837565381" lon="-0.0422778167"><ele>436.58</ele><time>2015-04-06T10:54:19Z</time></trkpt><trkpt lat="43.0837501679" lon="-0.0424343068"><ele>436.10</ele><time>2015-04-06T10:54:21Z</time></trkpt><trkpt lat="43.0837349128" lon="-0.0430375524"><ele>432.73</ele><time>2015-04-06T10:54:28Z</time></trkpt><trkpt lat="43.0837343261" lon="-0.0433284044"><ele>428.40</ele><time>2015-04-06T10:54:32Z</time></trkpt><trkpt lat="43.0837344937" lon="-0.0436550472"><ele>425.52</ele><time>2015-04-06T10:54:37Z</time></trkpt><trkpt lat="43.0837401934" lon="-0.0438376889"><ele>423.12</ele><time>2015-04-06T10:54:42Z</time></trkpt><trkpt lat="43.0837446358" lon="-0.0439065881"><ele>422.64</ele><time>2015-04-06T10:54:45Z</time></trkpt><trkpt lat="43.0837576278" lon="-0.0439337455"><ele>422.64</ele><time>2015-04-06T10:54:46Z</time></trkpt><trkpt lat="43.0838530138" lon="-0.0442274474"><ele>420.71</ele><time>2015-04-06T10:54:55Z</time></trkpt><trkpt lat="43.0837815162" lon="-0.0443370827"><ele>421.19</ele><time>2015-04-06T10:55:00Z</time></trkpt><trkpt lat="43.0837650038" lon="-0.0443376694"><ele>421.19</ele><time>2015-04-06T10:55:01Z</time></trkpt><trkpt lat="43.0837517604" lon="-0.0443381723"><ele>420.71</ele><time>2015-04-06T10:55:02Z</time></trkpt><trkpt lat="43.0837382656" lon="-0.0443369988"><ele>421.19</ele><time>2015-04-06T10:55:03Z</time></trkpt><trkpt lat="43.0837252736" lon="-0.0443333946"><ele>421.19</ele><time>2015-04-06T10:55:04Z</time></trkpt><trkpt lat="43.0837129522" lon="-0.0443341490"><ele>421.19</ele><time>2015-04-06T10:55:05Z</time></trkpt><trkpt lat="43.0837011337" lon="-0.0443369150"><ele>421.19</ele><time>2015-04-06T10:55:06Z</time></trkpt><trkpt lat="43.0836894829" lon="-0.0443431176"><ele>421.19</ele><time>2015-04-06T10:55:07Z</time></trkpt><trkpt lat="43.0836915784" lon="-0.0443585403"><ele>421.19</ele><time>2015-04-06T10:55:09Z</time></trkpt><trkpt lat="43.0837056600" lon="-0.0443631504"><ele>421.19</ele><time>2015-04-06T10:55:10Z</time></trkpt><trkpt lat="43.0837424565" lon="-0.0443646591"><ele>421.68</ele><time>2015-04-06T10:55:12Z</time></trkpt><trkpt lat="43.0837470666" lon="-0.0443540141"><ele>421.19</ele><time>2015-04-06T10:55:21Z</time></trkpt><trkpt lat="43.0837510061" lon="-0.0443603843"><ele>422.16</ele><time>2015-04-06T10:55:22Z</time></trkpt><trkpt lat="43.0837619025" lon="-0.0443701074"><ele>421.19</ele><time>2015-04-06T10:55:23Z</time></trkpt><trkpt lat="43.0837733857" lon="-0.0443823449"><ele>421.19</ele><time>2015-04-06T10:55:24Z</time></trkpt><trkpt lat="43.0837895628" lon="-0.0443813391"><ele>421.68</ele><time>2015-04-06T10:55:25Z</time></trkpt><trkpt lat="43.0838020518" lon="-0.0443678442"><ele>421.19</ele><time>2015-04-06T10:55:26Z</time></trkpt><trkpt lat="43.0838061590" lon="-0.0443453807"><ele>421.19</ele><time>2015-04-06T10:55:27Z</time></trkpt><trkpt lat="43.0837956816" lon="-0.0443319697"><ele>421.19</ele><time>2015-04-06T10:55:28Z</time></trkpt><trkpt lat="43.0837805942" lon="-0.0443456322"><ele>421.19</ele><time>2015-04-06T10:55:29Z</time></trkpt><trkpt lat="43.0837737210" lon="-0.0443675090"><ele>421.19</ele><time>2015-04-06T10:55:30Z</time></trkpt><trkpt lat="43.0837741401" lon="-0.0443870388"><ele>421.19</ele><time>2015-04-06T10:55:31Z</time></trkpt><trkpt lat="43.0837900657" lon="-0.0444126874"><ele>421.19</ele><time>2015-04-06T10:55:40Z</time></trkpt><trkpt lat="43.0837992020" lon="-0.0444242544"><ele>421.19</ele><time>2015-04-06T10:55:41Z</time></trkpt><trkpt lat="43.0838157982" lon="-0.0444457959"><ele>421.68</ele><time>2015-04-06T10:55:42Z</time></trkpt><trkpt lat="43.0838308856" lon="-0.0444809999"><ele>421.19</ele><time>2015-04-06T10:55:43Z</time></trkpt><trkpt lat="43.0838424526" lon="-0.0445199758"><ele>421.19</ele><time>2015-04-06T10:55:44Z</time></trkpt><trkpt lat="43.0838485714" lon="-0.0445568562"><ele>420.71</ele><time>2015-04-06T10:55:45Z</time></trkpt><trkpt lat="43.0838516727" lon="-0.0445876177"><ele>421.19</ele><time>2015-04-06T10:55:46Z</time></trkpt><trkpt lat="43.0838598870" lon="-0.0446172059"><ele>420.71</ele><time>2015-04-06T10:55:47Z</time></trkpt><trkpt lat="43.0838858709" lon="-0.0446527451"><ele>421.19</ele><time>2015-04-06T10:55:48Z</time></trkpt><trkpt lat="43.0839184765" lon="-0.0446905475"><ele>421.68</ele><time>2015-04-06T10:55:49Z</time></trkpt><trkpt lat="43.0839411076" lon="-0.0447367318"><ele>421.68</ele><time>2015-04-06T10:55:50Z</time></trkpt><trkpt lat="43.0839608889" lon="-0.0447918847"><ele>422.64</ele><time>2015-04-06T10:55:51Z</time></trkpt><trkpt lat="43.0839782394" lon="-0.0448472891"><ele>422.64</ele><time>2015-04-06T10:55:52Z</time></trkpt><trkpt lat="43.0839859508" lon="-0.0449002627"><ele>422.64</ele><time>2015-04-06T10:55:53Z</time></trkpt><trkpt lat="43.0839885492" lon="-0.0449513923"><ele>422.64</ele><time>2015-04-06T10:55:54Z</time></trkpt><trkpt lat="43.0839924049" lon="-0.0449995045"><ele>422.64</ele><time>2015-04-06T10:55:55Z</time></trkpt><trkpt lat="43.0839987751" lon="-0.0450371392"><ele>422.16</ele><time>2015-04-06T10:55:56Z</time></trkpt><trkpt lat="43.0840068217" lon="-0.0450679846"><ele>422.16</ele><time>2015-04-06T10:55:57Z</time></trkpt><trkpt lat="43.0840189755" lon="-0.0450875983"><ele>422.16</ele><time>2015-04-06T10:55:58Z</time></trkpt><trkpt lat="43.0840314645" lon="-0.0451046973"><ele>422.16</ele><time>2015-04-06T10:55:59Z</time></trkpt><trkpt lat="43.0840425286" lon="-0.0451268256"><ele>422.16</ele><time>2015-04-06T10:56:02Z</time></trkpt><trkpt lat="43.0840474740" lon="-0.0451636221"><ele>421.68</ele><time>2015-04-06T10:56:03Z</time></trkpt><trkpt lat="43.0840512458" lon="-0.0452080462"><ele>421.19</ele><time>2015-04-06T10:56:04Z</time></trkpt><trkpt lat="43.0840559397" lon="-0.0452438369"><ele>420.23</ele><time>2015-04-06T10:56:05Z</time></trkpt><trkpt lat="43.0840579513" lon="-0.0452732574"><ele>419.75</ele><time>2015-04-06T10:56:06Z</time></trkpt><trkpt lat="43.0840604659" lon="-0.0453098863"><ele>416.87</ele><time>2015-04-06T10:56:07Z</time></trkpt><trkpt lat="43.0840658303" lon="-0.0453580823"><ele>416.39</ele><time>2015-04-06T10:56:08Z</time></trkpt><trkpt lat="43.0840955023" lon="-0.0454520434"><ele>413.02</ele><time>2015-04-06T10:56:11Z</time></trkpt><trkpt lat="43.0841100868" lon="-0.0454616826"><ele>413.02</ele><time>2015-04-06T10:56:12Z</time></trkpt><trkpt lat="43.0841268506" lon="-0.0454640295"><ele>413.02</ele><time>2015-04-06T10:56:13Z</time></trkpt><trkpt lat="43.0841427762" lon="-0.0454651192"><ele>413.02</ele><time>2015-04-06T10:56:14Z</time></trkpt><trkpt lat="43.0841562711" lon="-0.0454661250"><ele>412.54</ele><time>2015-04-06T10:56:15Z</time></trkpt><trkpt lat="43.0841766391" lon="-0.0454496965"><ele>412.06</ele><time>2015-04-06T10:56:28Z</time></trkpt><trkpt lat="43.0841927323" lon="-0.0454636104"><ele>412.54</ele><time>2015-04-06T10:56:32Z</time></trkpt><trkpt lat="43.0842042156" lon="-0.0454740878"><ele>412.54</ele><time>2015-04-06T10:56:33Z</time></trkpt><trkpt lat="43.0842168722" lon="-0.0454802904"><ele>411.58</ele><time>2015-04-06T10:56:34Z</time></trkpt><trkpt lat="43.0842512380" lon="-0.0454797875"><ele>411.58</ele><time>2015-04-06T10:56:37Z</time></trkpt><trkpt lat="43.0842669122" lon="-0.0454869960"><ele>411.58</ele><time>2015-04-06T10:56:38Z</time></trkpt><trkpt lat="43.0842815805" lon="-0.0454984792"><ele>412.06</ele><time>2015-04-06T10:56:39Z</time></trkpt><trkpt lat="43.0842900462" lon="-0.0455135666"><ele>411.58</ele><time>2015-04-06T10:56:40Z</time></trkpt><trkpt lat="43.0842932314" lon="-0.0455281511"><ele>411.58</ele><time>2015-04-06T10:56:41Z</time></trkpt><trkpt lat="43.0843039602" lon="-0.0455802865"><ele>411.10</ele><time>2015-04-06T10:56:44Z</time></trkpt><trkpt lat="43.0842913035" lon="-0.0456040911"><ele>411.10</ele><time>2015-04-06T10:56:45Z</time></trkpt><trkpt lat="43.0842717737" lon="-0.0456162449"><ele>411.10</ele><time>2015-04-06T10:56:46Z</time></trkpt><trkpt lat="43.0842499807" lon="-0.0456195138"><ele>411.10</ele><time>2015-04-06T10:56:47Z</time></trkpt><trkpt lat="43.0842262600" lon="-0.0456265546"><ele>411.58</ele><time>2015-04-06T10:56:48Z</time></trkpt><trkpt lat="43.0842027906" lon="-0.0456389599"><ele>411.58</ele><time>2015-04-06T10:56:49Z</time></trkpt><trkpt lat="43.0841768906" lon="-0.0456520356"><ele>411.58</ele><time>2015-04-06T10:56:50Z</time></trkpt><trkpt lat="43.0841492303" lon="-0.0456618425"><ele>412.06</ele><time>2015-04-06T10:56:51Z</time></trkpt><trkpt lat="43.0841196422" lon="-0.0456714816"><ele>411.58</ele><time>2015-04-06T10:56:52Z</time></trkpt><trkpt lat="43.0838447157" lon="-0.0458479207"><ele>413.02</ele><time>2015-04-06T10:57:03Z</time></trkpt><trkpt lat="43.0835404526" lon="-0.0459030736"><ele>412.54</ele><time>2015-04-06T10:57:14Z</time></trkpt><trkpt lat="43.0834769178" lon="-0.0459072646"><ele>411.10</ele><time>2015-04-06T10:57:15Z</time></trkpt><trkpt lat="43.0834089406" lon="-0.0458901655"><ele>410.14</ele><time>2015-04-06T10:57:16Z</time></trkpt><trkpt lat="43.0833392870" lon="-0.0458405446"><ele>409.18</ele><time>2015-04-06T10:57:17Z</time></trkpt><trkpt lat="43.0832744949" lon="-0.0457708072"><ele>408.22</ele><time>2015-04-06T10:57:18Z</time></trkpt><trkpt lat="43.0832133908" lon="-0.0456892513"><ele>407.74</ele><time>2015-04-06T10:57:19Z</time></trkpt><trkpt lat="43.0831541307" lon="-0.0456001516"><ele>407.26</ele><time>2015-04-06T10:57:20Z</time></trkpt><trkpt lat="43.0831019115" lon="-0.0455075316"><ele>407.74</ele><time>2015-04-06T10:57:21Z</time></trkpt><trkpt lat="43.0828667991" lon="-0.0450528972"><ele>405.81</ele><time>2015-04-06T10:57:26Z</time></trkpt><trkpt lat="43.0828137416" lon="-0.0449851714"><ele>405.81</ele><time>2015-04-06T10:57:27Z</time></trkpt><trkpt lat="43.0827640370" lon="-0.0449318625"><ele>404.85</ele><time>2015-04-06T10:57:28Z</time></trkpt><trkpt lat="43.0827133264" lon="-0.0448863488"><ele>404.37</ele><time>2015-04-06T10:57:29Z</time></trkpt><trkpt lat="43.0826574191" lon="-0.0448345486"><ele>403.89</ele><time>2015-04-06T10:57:30Z</time></trkpt><trkpt lat="43.0826007575" lon="-0.0447736960"><ele>403.89</ele><time>2015-04-06T10:57:31Z</time></trkpt><trkpt lat="43.0825480353" lon="-0.0447130110"><ele>403.41</ele><time>2015-04-06T10:57:32Z</time></trkpt><trkpt lat="43.0825003423" lon="-0.0446484704"><ele>403.41</ele><time>2015-04-06T10:57:33Z</time></trkpt><trkpt lat="43.0824619532" lon="-0.0445783976"><ele>403.41</ele><time>2015-04-06T10:57:34Z</time></trkpt><trkpt lat="43.0824281741" lon="-0.0445110910"><ele>403.41</ele><time>2015-04-06T10:57:35Z</time></trkpt><trkpt lat="43.0823966581" lon="-0.0444452092"><ele>403.41</ele><time>2015-04-06T10:57:36Z</time></trkpt><trkpt lat="43.0823654775" lon="-0.0443776511"><ele>403.41</ele><time>2015-04-06T10:57:37Z</time></trkpt><trkpt lat="43.0819489807" lon="-0.0435472559"><ele>402.45</ele><time>2015-04-06T10:57:49Z</time></trkpt><trkpt lat="43.0816834420" lon="-0.0431138277"><ele>401.97</ele><time>2015-04-06T10:57:56Z</time></trkpt><trkpt lat="43.0816474836" lon="-0.0430585910"><ele>401.97</ele><time>2015-04-06T10:57:57Z</time></trkpt><trkpt lat="43.0816073343" lon="-0.0430021808"><ele>401.97</ele><time>2015-04-06T10:57:58Z</time></trkpt><trkpt lat="43.0811862275" lon="-0.0423531700"><ele>400.53</ele><time>2015-04-06T10:58:09Z</time></trkpt><trkpt lat="43.0806313455" lon="-0.0418256968"><ele>399.08</ele><time>2015-04-06T10:58:21Z</time></trkpt><trkpt lat="43.0800971668" lon="-0.0415317435"><ele>398.60</ele><time>2015-04-06T10:58:31Z</time></trkpt><trkpt lat="43.0800338835" lon="-0.0415242836"><ele>398.60</ele><time>2015-04-06T10:58:32Z</time></trkpt><trkpt lat="43.0797680095" lon="-0.0414931867"><ele>398.60</ele><time>2015-04-06T10:58:36Z</time></trkpt><trkpt lat="43.0789238680" lon="-0.0413892511"><ele>398.60</ele><time>2015-04-06T10:58:46Z</time></trkpt><trkpt lat="43.0780767929" lon="-0.0412229542"><ele>397.64</ele><time>2015-04-06T10:58:58Z</time></trkpt><trkpt lat="43.0771500058" lon="-0.0412099622"><ele>397.16</ele><time>2015-04-06T10:59:11Z</time></trkpt><trkpt lat="43.0765383784" lon="-0.0412405562"><ele>396.68</ele><time>2015-04-06T10:59:20Z</time></trkpt><trkpt lat="43.0764125660" lon="-0.0412265584"><ele>396.20</ele><time>2015-04-06T10:59:22Z</time></trkpt><trkpt lat="43.0763451755" lon="-0.0412237085"><ele>395.72</ele><time>2015-04-06T10:59:23Z</time></trkpt><trkpt lat="43.0755234975" lon="-0.0410039350"><ele>394.28</ele><time>2015-04-06T10:59:36Z</time></trkpt><trkpt lat="43.0746101215" lon="-0.0405787211"><ele>392.84</ele><time>2015-04-06T10:59:50Z</time></trkpt><trkpt lat="43.0741505418" lon="-0.0403584447"><ele>391.87</ele><time>2015-04-06T10:59:57Z</time></trkpt><trkpt lat="43.0732335616" lon="-0.0401207339"><ele>391.39</ele><time>2015-04-06T11:00:09Z</time></trkpt><trkpt lat="43.0724672042" lon="-0.0401739590"><ele>391.39</ele><time>2015-04-06T11:00:22Z</time></trkpt><trkpt lat="43.0724190082" lon="-0.0401861966"><ele>390.91</ele><time>2015-04-06T11:00:23Z</time></trkpt><trkpt lat="43.0723736621" lon="-0.0401986856"><ele>390.91</ele><time>2015-04-06T11:00:24Z</time></trkpt><trkpt lat="43.0719533097" lon="-0.0403022021"><ele>391.39</ele><time>2015-04-06T11:00:35Z</time></trkpt><trkpt lat="43.0718221329" lon="-0.0403322931"><ele>391.39</ele><time>2015-04-06T11:00:38Z</time></trkpt><trkpt lat="43.0717300158" lon="-0.0403569359"><ele>391.87</ele><time>2015-04-06T11:00:40Z</time></trkpt><trkpt lat="43.0716438498" lon="-0.0403743703"><ele>391.39</ele><time>2015-04-06T11:00:42Z</time></trkpt><trkpt lat="43.0716052093" lon="-0.0403926428"><ele>391.39</ele><time>2015-04-06T11:00:43Z</time></trkpt><trkpt lat="43.0715671554" lon="-0.0404089876"><ele>391.87</ele><time>2015-04-06T11:00:44Z</time></trkpt><trkpt lat="43.0711954180" lon="-0.0405357219"><ele>392.36</ele><time>2015-04-06T11:00:53Z</time></trkpt><trkpt lat="43.0710717011" lon="-0.0405762903"><ele>392.36</ele><time>2015-04-06T11:00:56Z</time></trkpt><trkpt lat="43.0710307974" lon="-0.0405907910"><ele>392.36</ele><time>2015-04-06T11:00:57Z</time></trkpt><trkpt lat="43.0709909834" lon="-0.0406055432"><ele>392.36</ele><time>2015-04-06T11:00:58Z</time></trkpt><trkpt lat="43.0709536839" lon="-0.0406178646"><ele>392.84</ele><time>2015-04-06T11:00:59Z</time></trkpt><trkpt lat="43.0709161330" lon="-0.0406275876"><ele>392.36</ele><time>2015-04-06T11:01:00Z</time></trkpt><trkpt lat="43.0705870595" lon="-0.0407261588"><ele>392.36</ele><time>2015-04-06T11:01:12Z</time></trkpt><trkpt lat="43.0705676973" lon="-0.0407192856"><ele>391.87</ele><time>2015-04-06T11:01:13Z</time></trkpt><trkpt lat="43.0706033204" lon="-0.0405705906"><ele>392.84</ele><time>2015-04-06T11:01:17Z</time></trkpt><trkpt lat="43.0708835274" lon="-0.0404427666"><ele>393.80</ele><time>2015-04-06T11:01:27Z</time></trkpt><trkpt lat="43.0707871355" lon="-0.0404180400"><ele>394.28</ele><time>2015-04-06T11:01:36Z</time></trkpt><trkpt lat="43.0707443878" lon="-0.0404270925"><ele>394.28</ele><time>2015-04-06T11:01:38Z</time></trkpt><trkpt lat="43.0704109557" lon="-0.0405547488"><ele>395.72</ele><time>2015-04-06T11:01:52Z</time></trkpt><trkpt lat="43.0699651223" lon="-0.0407583453"><ele>397.64</ele><time>2015-04-06T11:02:07Z</time></trkpt><trkpt lat="43.0694402475" lon="-0.0407532323"><ele>399.57</ele><time>2015-04-06T11:02:22Z</time></trkpt><trkpt lat="43.0689691007" lon="-0.0406416692"><ele>400.53</ele><time>2015-04-06T11:02:35Z</time></trkpt><trkpt lat="43.0689273588" lon="-0.0406408310"><ele>400.53</ele><time>2015-04-06T11:02:36Z</time></trkpt><trkpt lat="43.0688850302" lon="-0.0406602770"><ele>401.01</ele><time>2015-04-06T11:02:37Z</time></trkpt><trkpt lat="43.0688484851" lon="-0.0406964868"><ele>401.01</ele><time>2015-04-06T11:02:38Z</time></trkpt><trkpt lat="43.0688158795" lon="-0.0407419167"><ele>401.01</ele><time>2015-04-06T11:02:39Z</time></trkpt><trkpt lat="43.0687841121" lon="-0.0407901127"><ele>401.01</ele><time>2015-04-06T11:02:40Z</time></trkpt><trkpt lat="43.0683022365" lon="-0.0415400416"><ele>399.08</ele><time>2015-04-06T11:02:53Z</time></trkpt><trkpt lat="43.0682613328" lon="-0.0416782591"><ele>399.57</ele><time>2015-04-06T11:02:55Z</time></trkpt><trkpt lat="43.0680828821" lon="-0.0423967559"><ele>401.01</ele><time>2015-04-06T11:03:07Z</time></trkpt><trkpt lat="43.0680418108" lon="-0.0425655674"><ele>401.97</ele><time>2015-04-06T11:03:10Z</time></trkpt><trkpt lat="43.0680446606" lon="-0.0426195469"><ele>401.97</ele><time>2015-04-06T11:03:11Z</time></trkpt><trkpt lat="43.0680615921" lon="-0.0426653959"><ele>401.97</ele><time>2015-04-06T11:03:12Z</time></trkpt><trkpt lat="43.0680849776" lon="-0.0426991750"><ele>401.97</ele><time>2015-04-06T11:03:13Z</time></trkpt><trkpt lat="43.0681062676" lon="-0.0427251589"><ele>402.45</ele><time>2015-04-06T11:03:14Z</time></trkpt><trkpt lat="43.0681230314" lon="-0.0427457783"><ele>401.97</ele><time>2015-04-06T11:03:15Z</time></trkpt><trkpt lat="43.0681340117" lon="-0.0427600276"><ele>401.97</ele><time>2015-04-06T11:03:16Z</time></trkpt><trkpt lat="43.0681439023" lon="-0.0427687448"><ele>402.45</ele><time>2015-04-06T11:03:17Z</time></trkpt><trkpt lat="43.0681693833" lon="-0.0427921303"><ele>402.45</ele><time>2015-04-06T11:03:20Z</time></trkpt><trkpt lat="43.0681795254" lon="-0.0427961536"><ele>402.93</ele><time>2015-04-06T11:03:21Z</time></trkpt><trkpt lat="43.0681894999" lon="-0.0428058766"><ele>402.93</ele><time>2015-04-06T11:03:22Z</time></trkpt><trkpt lat="43.0682007316" lon="-0.0428155158"><ele>402.45</ele><time>2015-04-06T11:03:23Z</time></trkpt><trkpt lat="43.0682165734" lon="-0.0428184494"><ele>402.93</ele><time>2015-04-06T11:03:24Z</time></trkpt><trkpt lat="43.0682287272" lon="-0.0428233109"><ele>402.93</ele><time>2015-04-06T11:03:25Z</time></trkpt><trkpt lat="43.0682401266" lon="-0.0428330339"><ele>403.41</ele><time>2015-04-06T11:03:26Z</time></trkpt><trkpt lat="43.0684090219" lon="-0.0429875962"><ele>404.85</ele><time>2015-04-06T11:03:39Z</time></trkpt><trkpt lat="43.0685578007" lon="-0.0431019254"><ele>405.81</ele><time>2015-04-06T11:03:51Z</time></trkpt><trkpt lat="43.0685736425" lon="-0.0431127381"><ele>405.81</ele><time>2015-04-06T11:03:52Z</time></trkpt><trkpt lat="43.0685870536" lon="-0.0431296695"><ele>406.29</ele><time>2015-04-06T11:03:53Z</time></trkpt><trkpt lat="43.0687955953" lon="-0.0434176717"><ele>408.70</ele><time>2015-04-06T11:04:07Z</time></trkpt><trkpt lat="43.0689530075" lon="-0.0438544527"><ele>410.62</ele><time>2015-04-06T11:04:22Z</time></trkpt><trkpt lat="43.0691677518" lon="-0.0442427862"><ele>413.02</ele><time>2015-04-06T11:04:37Z</time></trkpt><trkpt lat="43.0692900438" lon="-0.0444503222"><ele>414.47</ele><time>2015-04-06T11:04:46Z</time></trkpt><trkpt lat="43.0693027843" lon="-0.0444707740"><ele>414.47</ele><time>2015-04-06T11:04:47Z</time></trkpt><trkpt lat="43.0693161953" lon="-0.0444908068"><ele>414.47</ele><time>2015-04-06T11:04:48Z</time></trkpt><trkpt lat="43.0693318695" lon="-0.0445067324"><ele>414.47</ele><time>2015-04-06T11:04:49Z</time></trkpt><trkpt lat="43.0693465378" lon="-0.0445226580"><ele>414.95</ele><time>2015-04-06T11:04:50Z</time></trkpt><trkpt lat="43.0695920438" lon="-0.0447981711"><ele>416.39</ele><time>2015-04-06T11:05:05Z</time></trkpt><trkpt lat="43.0698863324" lon="-0.0450259075"><ele>418.79</ele><time>2015-04-06T11:05:19Z</time></trkpt><trkpt lat="43.0701959599" lon="-0.0449829921"><ele>420.23</ele><time>2015-04-06T11:05:32Z</time></trkpt><trkpt lat="43.0704977922" lon="-0.0447625481"><ele>423.12</ele><time>2015-04-06T11:05:45Z</time></trkpt><trkpt lat="43.0709169712" lon="-0.0444977637"><ele>425.52</ele><time>2015-04-06T11:06:03Z</time></trkpt><trkpt lat="43.0712442007" lon="-0.0443581212"><ele>426.96</ele><time>2015-04-06T11:06:16Z</time></trkpt><trkpt lat="43.0716098193" lon="-0.0445794873"><ele>429.37</ele><time>2015-04-06T11:06:31Z</time></trkpt><trkpt lat="43.0719611049" lon="-0.0448062178"><ele>431.77</ele><time>2015-04-06T11:06:45Z</time></trkpt><trkpt lat="43.0723182578" lon="-0.0450363010"><ele>434.17</ele><time>2015-04-06T11:07:00Z</time></trkpt><trkpt lat="43.0726823676" lon="-0.0452453457"><ele>437.06</ele><time>2015-04-06T11:07:15Z</time></trkpt><trkpt lat="43.0729945097" lon="-0.0456780195"><ele>438.98</ele><time>2015-04-06T11:07:33Z</time></trkpt><trkpt lat="43.0731064919" lon="-0.0458345097"><ele>439.46</ele><time>2015-04-06T11:07:41Z</time></trkpt><trkpt lat="43.0731044803" lon="-0.0458593201"><ele>439.46</ele><time>2015-04-06T11:07:42Z</time></trkpt><trkpt lat="43.0730064958" lon="-0.0458992179"><ele>439.94</ele><time>2015-04-06T11:07:49Z</time></trkpt><trkpt lat="43.0727640074" lon="-0.0456448272"><ele>440.42</ele><time>2015-04-06T11:08:04Z</time></trkpt><trkpt lat="43.0727456510" lon="-0.0456201844"><ele>440.42</ele><time>2015-04-06T11:08:06Z</time></trkpt><trkpt lat="43.0726896599" lon="-0.0455713179"><ele>441.38</ele><time>2015-04-06T11:08:10Z</time></trkpt><trkpt lat="43.0726117920" lon="-0.0454909354"><ele>441.86</ele><time>2015-04-06T11:08:15Z</time></trkpt><trkpt lat="43.0723625980" lon="-0.0453220401"><ele>443.79</ele><time>2015-04-06T11:08:30Z</time></trkpt><trkpt lat="43.0723329261" lon="-0.0453072879"><ele>443.79</ele><time>2015-04-06T11:08:32Z</time></trkpt><trkpt lat="43.0720595922" lon="-0.0451772008"><ele>445.71</ele><time>2015-04-06T11:08:45Z</time></trkpt><trkpt lat="43.0719661340" lon="-0.0451494567"><ele>446.67</ele><time>2015-04-06T11:08:49Z</time></trkpt><trkpt lat="43.0718293414" lon="-0.0452102255"><ele>448.59</ele><time>2015-04-06T11:08:55Z</time></trkpt><trkpt lat="43.0715217255" lon="-0.0452712458"><ele>451.00</ele><time>2015-04-06T11:09:10Z</time></trkpt><trkpt lat="43.0712849367" lon="-0.0452982355"><ele>453.40</ele><time>2015-04-06T11:09:23Z</time></trkpt><trkpt lat="43.0710696895" lon="-0.0453738403"><ele>456.28</ele><time>2015-04-06T11:09:35Z</time></trkpt><trkpt lat="43.0709337350" lon="-0.0454185158"><ele>456.76</ele><time>2015-04-06T11:09:42Z</time></trkpt><trkpt lat="43.0706419609" lon="-0.0456341822"><ele>458.69</ele><time>2015-04-06T11:09:58Z</time></trkpt><trkpt lat="43.0703641847" lon="-0.0458164047"><ele>461.57</ele><time>2015-04-06T11:10:14Z</time></trkpt><trkpt lat="43.0702243745" lon="-0.0459132157"><ele>463.01</ele><time>2015-04-06T11:10:23Z</time></trkpt><trkpt lat="43.0700850673" lon="-0.0461135432"><ele>466.86</ele><time>2015-04-06T11:10:34Z</time></trkpt><trkpt lat="43.0700165872" lon="-0.0464155432"><ele>470.22</ele><time>2015-04-06T11:10:46Z</time></trkpt><trkpt lat="43.0699835625" lon="-0.0465705246"><ele>471.18</ele><time>2015-04-06T11:10:53Z</time></trkpt><trkpt lat="43.0698619410" lon="-0.0470065512"><ele>472.14</ele><time>2015-04-06T11:11:10Z</time></trkpt><trkpt lat="43.0697383080" lon="-0.0473247282"><ele>474.55</ele><time>2015-04-06T11:11:24Z</time></trkpt><trkpt lat="43.0695878528" lon="-0.0475722458"><ele>476.95</ele><time>2015-04-06T11:11:37Z</time></trkpt><trkpt lat="43.0694992561" lon="-0.0476714876"><ele>477.43</ele><time>2015-04-06T11:11:44Z</time></trkpt><trkpt lat="43.0694436003" lon="-0.0477376208"><ele>477.43</ele><time>2015-04-06T11:11:58Z</time></trkpt><trkpt lat="43.0694370624" lon="-0.0477419794"><ele>476.95</ele><time>2015-04-06T11:12:07Z</time></trkpt><trkpt lat="43.0693665706" lon="-0.0478154887"><ele>476.95</ele><time>2015-04-06T11:12:12Z</time></trkpt><trkpt lat="43.0692174565" lon="-0.0481158122"><ele>475.03</ele><time>2015-04-06T11:12:24Z</time></trkpt><trkpt lat="43.0691721104" lon="-0.0484464783"><ele>472.63</ele><time>2015-04-06T11:12:32Z</time></trkpt><trkpt lat="43.0691848509" lon="-0.0486005377"><ele>472.14</ele><time>2015-04-06T11:12:35Z</time></trkpt><trkpt lat="43.0692924745" lon="-0.0487918127"><ele>475.03</ele><time>2015-04-06T11:12:41Z</time></trkpt><trkpt lat="43.0694730207" lon="-0.0489508174"><ele>476.95</ele><time>2015-04-06T11:12:53Z</time></trkpt><trkpt lat="43.0696306843" lon="-0.0492959004"><ele>476.47</ele><time>2015-04-06T11:13:05Z</time></trkpt><trkpt lat="43.0697371345" lon="-0.0498176739"><ele>475.03</ele><time>2015-04-06T11:13:15Z</time></trkpt><trkpt lat="43.0698643718" lon="-0.0505033135"><ele>475.03</ele><time>2015-04-06T11:13:29Z</time></trkpt><trkpt lat="43.0700060260" lon="-0.0510047190"><ele>477.43</ele><time>2015-04-06T11:13:42Z</time></trkpt><trkpt lat="43.0700933654" lon="-0.0513249077"><ele>480.80</ele><time>2015-04-06T11:13:53Z</time></trkpt><trkpt lat="43.0701719038" lon="-0.0516542327"><ele>483.20</ele><time>2015-04-06T11:14:06Z</time></trkpt><trkpt lat="43.0702529568" lon="-0.0519817136"><ele>486.08</ele><time>2015-04-06T11:14:19Z</time></trkpt><trkpt lat="43.0703403801" lon="-0.0522219390"><ele>488.01</ele><time>2015-04-06T11:14:31Z</time></trkpt><trkpt lat="43.0704919249" lon="-0.0524029881"><ele>489.93</ele><time>2015-04-06T11:14:43Z</time></trkpt><trkpt lat="43.0705652665" lon="-0.0524866395"><ele>491.85</ele><time>2015-04-06T11:14:49Z</time></trkpt><trkpt lat="43.0705807731" lon="-0.0525020622"><ele>492.33</ele><time>2015-04-06T11:14:50Z</time></trkpt><trkpt lat="43.0706303101" lon="-0.0525674410"><ele>494.26</ele><time>2015-04-06T11:14:54Z</time></trkpt><trkpt lat="43.0706377700" lon="-0.0525789242"><ele>494.74</ele><time>2015-04-06T11:14:55Z</time></trkpt><trkpt lat="43.0706492532" lon="-0.0525833666"><ele>494.74</ele><time>2015-04-06T11:14:56Z</time></trkpt><trkpt lat="43.0706622452" lon="-0.0525915809"><ele>495.70</ele><time>2015-04-06T11:14:57Z</time></trkpt><trkpt lat="43.0706761591" lon="-0.0525987893"><ele>495.70</ele><time>2015-04-06T11:14:58Z</time></trkpt><trkpt lat="43.0706922524" lon="-0.0526059140"><ele>495.70</ele><time>2015-04-06T11:14:59Z</time></trkpt><trkpt lat="43.0709146243" lon="-0.0527185667"><ele>495.70</ele><time>2015-04-06T11:15:13Z</time></trkpt><trkpt lat="43.0711223278" lon="-0.0530178007"><ele>495.22</ele><time>2015-04-06T11:15:26Z</time></trkpt><trkpt lat="43.0713538360" lon="-0.0533629674"><ele>493.77</ele><time>2015-04-06T11:15:38Z</time></trkpt><trkpt lat="43.0717145093" lon="-0.0539268181"><ele>492.81</ele><time>2015-04-06T11:15:52Z</time></trkpt><trkpt lat="43.0718275812" lon="-0.0541251339"><ele>494.26</ele><time>2015-04-06T11:15:55Z</time></trkpt><trkpt lat="43.0719005875" lon="-0.0542540476"><ele>492.33</ele><time>2015-04-06T11:15:57Z</time></trkpt><trkpt lat="43.0721952114" lon="-0.0546118710"><ele>489.93</ele><time>2015-04-06T11:16:07Z</time></trkpt><trkpt lat="43.0723676272" lon="-0.0548204966"><ele>487.05</ele><time>2015-04-06T11:16:13Z</time></trkpt><trkpt lat="43.0724674556" lon="-0.0549231749"><ele>485.60</ele><time>2015-04-06T11:16:16Z</time></trkpt><trkpt lat="43.0724926852" lon="-0.0549981091"><ele>484.64</ele><time>2015-04-06T11:16:17Z</time></trkpt><trkpt lat="43.0724936910" lon="-0.0550898910"><ele>483.68</ele><time>2015-04-06T11:16:18Z</time></trkpt><trkpt lat="43.0724776816" lon="-0.0551817566"><ele>483.20</ele><time>2015-04-06T11:16:19Z</time></trkpt><trkpt lat="43.0724694673" lon="-0.0552675035"><ele>481.76</ele><time>2015-04-06T11:16:20Z</time></trkpt><trkpt lat="43.0724863149" lon="-0.0553405099"><ele>481.28</ele><time>2015-04-06T11:16:21Z</time></trkpt><trkpt lat="43.0725221895" lon="-0.0553985965"><ele>480.80</ele><time>2015-04-06T11:16:22Z</time></trkpt><trkpt lat="43.0725693796" lon="-0.0554478820"><ele>479.84</ele><time>2015-04-06T11:16:23Z</time></trkpt><trkpt lat="43.0726210959" lon="-0.0555026159"><ele>479.84</ele><time>2015-04-06T11:16:24Z</time></trkpt><trkpt lat="43.0726690404" lon="-0.0555658154"><ele>479.35</ele><time>2015-04-06T11:16:25Z</time></trkpt><trkpt lat="43.0727131292" lon="-0.0556329545"><ele>479.35</ele><time>2015-04-06T11:16:26Z</time></trkpt><trkpt lat="43.0728572141" lon="-0.0558959786"><ele>478.87</ele><time>2015-04-06T11:16:30Z</time></trkpt><trkpt lat="43.0728866346" lon="-0.0559502933"><ele>478.39</ele><time>2015-04-06T11:16:31Z</time></trkpt><trkpt lat="43.0729175638" lon="-0.0559995789"><ele>478.39</ele><time>2015-04-06T11:16:32Z</time></trkpt><trkpt lat="43.0731857847" lon="-0.0564969610"><ele>475.51</ele><time>2015-04-06T11:16:43Z</time></trkpt><trkpt lat="43.0732409377" lon="-0.0565886591"><ele>475.03</ele><time>2015-04-06T11:16:47Z</time></trkpt><trkpt lat="43.0732760578" lon="-0.0565721467"><ele>474.07</ele><time>2015-04-06T11:16:50Z</time></trkpt><trkpt lat="43.0732870381" lon="-0.0565476716"><ele>474.07</ele><time>2015-04-06T11:16:51Z</time></trkpt><trkpt lat="43.0732858647" lon="-0.0565215200"><ele>474.07</ele><time>2015-04-06T11:16:52Z</time></trkpt><trkpt lat="43.0732801650" lon="-0.0564945303"><ele>474.07</ele><time>2015-04-06T11:16:53Z</time></trkpt><trkpt lat="43.0732740462" lon="-0.0564667862"><ele>474.07</ele><time>2015-04-06T11:16:54Z</time></trkpt><trkpt lat="43.0732701905" lon="-0.0564359408"><ele>473.59</ele><time>2015-04-06T11:16:55Z</time></trkpt><trkpt lat="43.0732711125" lon="-0.0564029161"><ele>474.07</ele><time>2015-04-06T11:16:56Z</time></trkpt><trkpt lat="43.0732779857" lon="-0.0563698914"><ele>474.07</ele><time>2015-04-06T11:16:57Z</time></trkpt><trkpt lat="43.0732896365" lon="-0.0563390460"><ele>473.59</ele><time>2015-04-06T11:16:58Z</time></trkpt><trkpt lat="43.0733034667" lon="-0.0563096255"><ele>473.59</ele><time>2015-04-06T11:16:59Z</time></trkpt><trkpt lat="43.0734395888" lon="-0.0560561568"><ele>474.07</ele><time>2015-04-06T11:17:10Z</time></trkpt><trkpt lat="43.0736109149" lon="-0.0560198631"><ele>472.63</ele><time>2015-04-06T11:17:17Z</time></trkpt><trkpt lat="43.0738629587" lon="-0.0559768640"><ele>469.26</ele><time>2015-04-06T11:17:24Z</time></trkpt><trkpt lat="43.0741284974" lon="-0.0559160113"><ele>465.42</ele><time>2015-04-06T11:17:29Z</time></trkpt><trkpt lat="43.0741752684" lon="-0.0559264887"><ele>465.42</ele><time>2015-04-06T11:17:30Z</time></trkpt><trkpt lat="43.0742236320" lon="-0.0559562445"><ele>464.93</ele><time>2015-04-06T11:17:31Z</time></trkpt><trkpt lat="43.0742714927" lon="-0.0560026802"><ele>463.97</ele><time>2015-04-06T11:17:32Z</time></trkpt><trkpt lat="43.0743117258" lon="-0.0560630299"><ele>463.49</ele><time>2015-04-06T11:17:33Z</time></trkpt><trkpt lat="43.0743469298" lon="-0.0561326835"><ele>462.53</ele><time>2015-04-06T11:17:34Z</time></trkpt><trkpt lat="43.0743740033" lon="-0.0561968051"><ele>461.57</ele><time>2015-04-06T11:17:35Z</time></trkpt><trkpt lat="43.0743937846" lon="-0.0562571548"><ele>461.09</ele><time>2015-04-06T11:17:36Z</time></trkpt><trkpt lat="43.0744076148" lon="-0.0563178398"><ele>460.61</ele><time>2015-04-06T11:17:37Z</time></trkpt><trkpt lat="43.0744128115" lon="-0.0563755911"><ele>459.65</ele><time>2015-04-06T11:17:38Z</time></trkpt><trkpt lat="43.0744034238" lon="-0.0564322527"><ele>459.17</ele><time>2015-04-06T11:17:39Z</time></trkpt><trkpt lat="43.0743756797" lon="-0.0564890821"><ele>458.21</ele><time>2015-04-06T11:17:40Z</time></trkpt><trkpt lat="43.0743308365" lon="-0.0565378647"><ele>457.72</ele><time>2015-04-06T11:17:41Z</time></trkpt><trkpt lat="43.0742753483" lon="-0.0565855578"><ele>457.72</ele><time>2015-04-06T11:17:42Z</time></trkpt><trkpt lat="43.0742162559" lon="-0.0566358492"><ele>456.76</ele><time>2015-04-06T11:17:43Z</time></trkpt><trkpt lat="43.0739841610" lon="-0.0568702072"><ele>454.84</ele><time>2015-04-06T11:17:47Z</time></trkpt><trkpt lat="43.0739386473" lon="-0.0569491647"><ele>454.84</ele><time>2015-04-06T11:17:48Z</time></trkpt><trkpt lat="43.0739022698" lon="-0.0570315588"><ele>454.36</ele><time>2015-04-06T11:17:49Z</time></trkpt><trkpt lat="43.0738722626" lon="-0.0571137015"><ele>454.84</ele><time>2015-04-06T11:17:50Z</time></trkpt><trkpt lat="43.0738503020" lon="-0.0571904797"><ele>454.84</ele><time>2015-04-06T11:17:51Z</time></trkpt><trkpt lat="43.0738332868" lon="-0.0572628994"><ele>454.84</ele><time>2015-04-06T11:17:52Z</time></trkpt><trkpt lat="43.0738198757" lon="-0.0573297869"><ele>454.84</ele><time>2015-04-06T11:17:53Z</time></trkpt><trkpt lat="43.0737876054" lon="-0.0579762831"><ele>456.28</ele><time>2015-04-06T11:18:05Z</time></trkpt><trkpt lat="43.0738170259" lon="-0.0580336992"><ele>454.84</ele><time>2015-04-06T11:18:06Z</time></trkpt><trkpt lat="43.0738570075" lon="-0.0580849126"><ele>454.84</ele><time>2015-04-06T11:18:07Z</time></trkpt><trkpt lat="43.0739064608" lon="-0.0581229664"><ele>454.84</ele><time>2015-04-06T11:18:08Z</time></trkpt><trkpt lat="43.0739598535" lon="-0.0581501238"><ele>454.36</ele><time>2015-04-06T11:18:09Z</time></trkpt><trkpt lat="43.0740129948" lon="-0.0581622776"><ele>453.88</ele><time>2015-04-06T11:18:10Z</time></trkpt><trkpt lat="43.0740600172" lon="-0.0581584219"><ele>454.84</ele><time>2015-04-06T11:18:11Z</time></trkpt><trkpt lat="43.0741031840" lon="-0.0581490342"><ele>454.84</ele><time>2015-04-06T11:18:12Z</time></trkpt><trkpt lat="43.0745791923" lon="-0.0580804702"><ele>455.32</ele><time>2015-04-06T11:18:25Z</time></trkpt><trkpt lat="43.0750259478" lon="-0.0579630397"><ele>456.28</ele><time>2015-04-06T11:18:40Z</time></trkpt><trkpt lat="43.0753432028" lon="-0.0579212140"><ele>453.40</ele><time>2015-04-06T11:18:52Z</time></trkpt><trkpt lat="43.0754461326" lon="-0.0579850841"><ele>453.40</ele><time>2015-04-06T11:18:55Z</time></trkpt><trkpt lat="43.0754691828" lon="-0.0581332762"><ele>456.76</ele><time>2015-04-06T11:19:01Z</time></trkpt><trkpt lat="43.0753525905" lon="-0.0583160017"><ele>460.13</ele><time>2015-04-06T11:19:11Z</time></trkpt><trkpt lat="43.0753285345" lon="-0.0583750941"><ele>460.61</ele><time>2015-04-06T11:19:14Z</time></trkpt><trkpt lat="43.0752872117" lon="-0.0585631002"><ele>463.01</ele><time>2015-04-06T11:19:23Z</time></trkpt><trkpt lat="43.0750856269" lon="-0.0587822869"><ele>465.42</ele><time>2015-04-06T11:19:40Z</time></trkpt><trkpt lat="43.0748723913" lon="-0.0589369331"><ele>467.82</ele><time>2015-04-06T11:19:56Z</time></trkpt><trkpt lat="43.0746871512" lon="-0.0590939261"><ele>470.70</ele><time>2015-04-06T11:20:10Z</time></trkpt><trkpt lat="43.0744539667" lon="-0.0592391845"><ele>472.63</ele><time>2015-04-06T11:20:25Z</time></trkpt><trkpt lat="43.0742708221" lon="-0.0593945850"><ele>475.51</ele><time>2015-04-06T11:20:38Z</time></trkpt><trkpt lat="43.0741423275" lon="-0.0595602952"><ele>477.91</ele><time>2015-04-06T11:20:49Z</time></trkpt><trkpt lat="43.0740154255" lon="-0.0597060565"><ele>480.80</ele><time>2015-04-06T11:21:00Z</time></trkpt><trkpt lat="43.0738154333" lon="-0.0599776302"><ele>479.35</ele><time>2015-04-06T11:21:12Z</time></trkpt><trkpt lat="43.0737231486" lon="-0.0601989124"><ele>478.87</ele><time>2015-04-06T11:21:16Z</time></trkpt><trkpt lat="43.0736898724" lon="-0.0602576695"><ele>478.39</ele><time>2015-04-06T11:21:17Z</time></trkpt><trkpt lat="43.0736553390" lon="-0.0603198633"><ele>478.39</ele><time>2015-04-06T11:21:18Z</time></trkpt><trkpt lat="43.0735206418" lon="-0.0605425704"><ele>477.43</ele><time>2015-04-06T11:21:22Z</time></trkpt><trkpt lat="43.0732954200" lon="-0.0610697083"><ele>477.91</ele><time>2015-04-06T11:21:32Z</time></trkpt><trkpt lat="43.0732797459" lon="-0.0611206703"><ele>478.87</ele><time>2015-04-06T11:21:33Z</time></trkpt><trkpt lat="43.0731344875" lon="-0.0617069006"><ele>479.84</ele><time>2015-04-06T11:21:46Z</time></trkpt><trkpt lat="43.0730463937" lon="-0.0624451786"><ele>479.84</ele><time>2015-04-06T11:22:02Z</time></trkpt><trkpt lat="43.0729770754" lon="-0.0630832091"><ele>480.32</ele><time>2015-04-06T11:22:17Z</time></trkpt><trkpt lat="43.0729909055" lon="-0.0637232512"><ele>480.80</ele><time>2015-04-06T11:22:31Z</time></trkpt><trkpt lat="43.0729409494" lon="-0.0642172806"><ele>479.84</ele><time>2015-04-06T11:22:42Z</time></trkpt><trkpt lat="43.0728909094" lon="-0.0647843163"><ele>479.84</ele><time>2015-04-06T11:22:57Z</time></trkpt><trkpt lat="43.0728730559" lon="-0.0648678839"><ele>480.32</ele><time>2015-04-06T11:23:01Z</time></trkpt><trkpt lat="43.0728601478" lon="-0.0648848992"><ele>480.32</ele><time>2015-04-06T11:23:02Z</time></trkpt><trkpt lat="43.0728461500" lon="-0.0648953766"><ele>480.80</ele><time>2015-04-06T11:23:03Z</time></trkpt><trkpt lat="43.0728296377" lon="-0.0648991484"><ele>480.80</ele><time>2015-04-06T11:23:04Z</time></trkpt><trkpt lat="43.0728134606" lon="-0.0649004895"><ele>480.80</ele><time>2015-04-06T11:23:05Z</time></trkpt><trkpt lat="43.0728006363" lon="-0.0649047643"><ele>481.28</ele><time>2015-04-06T11:23:06Z</time></trkpt><trkpt lat="43.0727899075" lon="-0.0649152417"><ele>481.28</ele><time>2015-04-06T11:23:07Z</time></trkpt><trkpt lat="43.0727810226" lon="-0.0649253838"><ele>481.28</ele><time>2015-04-06T11:23:11Z</time></trkpt><trkpt lat="43.0727697909" lon="-0.0649095420"><ele>480.32</ele><time>2015-04-06T11:23:21Z</time></trkpt><trkpt lat="43.0727688689" lon="-0.0649053510"><ele>480.32</ele><time>2015-04-06T11:23:37Z</time></trkpt><trkpt lat="43.0727694556" lon="-0.0649149902"><ele>481.28</ele><time>2015-04-06T11:23:54Z</time></trkpt><trkpt lat="43.0727692880" lon="-0.0649291556"><ele>480.80</ele><time>2015-04-06T11:24:10Z</time></trkpt><trkpt lat="43.0727544520" lon="-0.0649267249"><ele>481.28</ele><time>2015-04-06T11:24:14Z</time></trkpt><trkpt lat="43.0727448128" lon="-0.0649219472"><ele>480.80</ele><time>2015-04-06T11:24:15Z</time></trkpt><trkpt lat="43.0727334134" lon="-0.0649151579"><ele>482.24</ele><time>2015-04-06T11:24:16Z</time></trkpt><trkpt lat="43.0727201700" lon="-0.0649068598"><ele>481.76</ele><time>2015-04-06T11:24:17Z</time></trkpt><trkpt lat="43.0727046635" lon="-0.0649022497"><ele>481.76</ele><time>2015-04-06T11:24:18Z</time></trkpt><trkpt lat="43.0726832058" lon="-0.0649010763"><ele>481.76</ele><time>2015-04-06T11:24:19Z</time></trkpt><trkpt lat="43.0726574734" lon="-0.0649003219"><ele>482.24</ele><time>2015-04-06T11:24:20Z</time></trkpt><trkpt lat="43.0726281367" lon="-0.0648962986"><ele>481.76</ele><time>2015-04-06T11:24:21Z</time></trkpt><trkpt lat="43.0724019092" lon="-0.0648159161"><ele>484.64</ele><time>2015-04-06T11:24:30Z</time></trkpt><trkpt lat="43.0720942933" lon="-0.0646712445"><ele>488.01</ele><time>2015-04-06T11:24:43Z</time></trkpt><trkpt lat="43.0718178581" lon="-0.0645959750"><ele>490.89</ele><time>2015-04-06T11:24:56Z</time></trkpt><trkpt lat="43.0715974979" lon="-0.0645881798"><ele>492.81</ele><time>2015-04-06T11:25:07Z</time></trkpt><trkpt lat="43.0712695140" lon="-0.0645616092"><ele>495.22</ele><time>2015-04-06T11:25:21Z</time></trkpt><trkpt lat="43.0709497444" lon="-0.0648159999"><ele>496.18</ele><time>2015-04-06T11:25:35Z</time></trkpt><trkpt lat="43.0707005505" lon="-0.0650641043"><ele>497.62</ele><time>2015-04-06T11:25:47Z</time></trkpt><trkpt lat="43.0704973731" lon="-0.0652552117"><ele>500.98</ele><time>2015-04-06T11:25:58Z</time></trkpt><trkpt lat="43.0703469180" lon="-0.0653790962"><ele>503.39</ele><time>2015-04-06T11:26:06Z</time></trkpt><trkpt lat="43.0701350234" lon="-0.0656014681"><ele>506.27</ele><time>2015-04-06T11:26:19Z</time></trkpt><trkpt lat="43.0701090395" lon="-0.0656452216"><ele>506.27</ele><time>2015-04-06T11:26:21Z</time></trkpt><trkpt lat="43.0700440798" lon="-0.0657110196"><ele>508.19</ele><time>2015-04-06T11:26:25Z</time></trkpt><trkpt lat="43.0700355303" lon="-0.0657284539"><ele>508.19</ele><time>2015-04-06T11:26:26Z</time></trkpt><trkpt lat="43.0700576585" lon="-0.0659566931"><ele>511.08</ele><time>2015-04-06T11:26:37Z</time></trkpt><trkpt lat="43.0700810440" lon="-0.0661454536"><ele>512.52</ele><time>2015-04-06T11:26:45Z</time></trkpt><trkpt lat="43.0700794514" lon="-0.0661673304"><ele>513.00</ele><time>2015-04-06T11:26:46Z</time></trkpt><trkpt lat="43.0700125638" lon="-0.0664716773"><ele>514.44</ele><time>2015-04-06T11:26:59Z</time></trkpt><trkpt lat="43.0700251367" lon="-0.0668346137"><ele>515.40</ele><time>2015-04-06T11:27:12Z</time></trkpt><trkpt lat="43.0700378772" lon="-0.0668604299"><ele>515.88</ele><time>2015-04-06T11:27:13Z</time></trkpt><trkpt lat="43.0700434931" lon="-0.0668886770"><ele>515.40</ele><time>2015-04-06T11:27:14Z</time></trkpt><trkpt lat="43.0700489413" lon="-0.0669186842"><ele>515.88</ele><time>2015-04-06T11:27:15Z</time></trkpt><trkpt lat="43.0700605083" lon="-0.0669496134"><ele>515.40</ele><time>2015-04-06T11:27:16Z</time></trkpt><trkpt lat="43.0700745061" lon="-0.0669795368"><ele>515.40</ele><time>2015-04-06T11:27:17Z</time></trkpt><trkpt lat="43.0703162402" lon="-0.0671662018"><ele>516.85</ele><time>2015-04-06T11:27:27Z</time></trkpt><trkpt lat="43.0707153864" lon="-0.0672554690"><ele>516.37</ele><time>2015-04-06T11:27:39Z</time></trkpt><trkpt lat="43.0711008701" lon="-0.0674456544"><ele>515.40</ele><time>2015-04-06T11:27:51Z</time></trkpt><trkpt lat="43.0711380020" lon="-0.0674872287"><ele>514.92</ele><time>2015-04-06T11:27:52Z</time></trkpt><trkpt lat="43.0711712781" lon="-0.0675358437"><ele>515.40</ele><time>2015-04-06T11:27:53Z</time></trkpt><trkpt lat="43.0712012853" lon="-0.0675917510"><ele>514.92</ele><time>2015-04-06T11:27:54Z</time></trkpt><trkpt lat="43.0713470466" lon="-0.0678879675"><ele>514.92</ele><time>2015-04-06T11:27:59Z</time></trkpt><trkpt lat="43.0713807419" lon="-0.0679393485"><ele>515.40</ele><time>2015-04-06T11:28:00Z</time></trkpt><trkpt lat="43.0714591127" lon="-0.0680344831"><ele>515.40</ele><time>2015-04-06T11:28:02Z</time></trkpt><trkpt lat="43.0715054646" lon="-0.0680727884"><ele>516.37</ele><time>2015-04-06T11:28:03Z</time></trkpt><trkpt lat="43.0715556722" lon="-0.0680995267"><ele>516.37</ele><time>2015-04-06T11:28:04Z</time></trkpt><trkpt lat="43.0716080591" lon="-0.0681170449"><ele>517.33</ele><time>2015-04-06T11:28:05Z</time></trkpt><trkpt lat="43.0716595240" lon="-0.0681349821"><ele>517.81</ele><time>2015-04-06T11:28:06Z</time></trkpt><trkpt lat="43.0720787868" lon="-0.0682583638"><ele>519.73</ele><time>2015-04-06T11:28:17Z</time></trkpt><trkpt lat="43.0724919308" lon="-0.0683990121"><ele>521.17</ele><time>2015-04-06T11:28:31Z</time></trkpt><trkpt lat="43.0727475788" lon="-0.0682167057"><ele>519.73</ele><time>2015-04-06T11:28:41Z</time></trkpt><trkpt lat="43.0728660151" lon="-0.0681255944"><ele>518.77</ele><time>2015-04-06T11:28:45Z</time></trkpt><trkpt lat="43.0729112774" lon="-0.0681254268"><ele>518.29</ele><time>2015-04-06T11:28:46Z</time></trkpt><trkpt lat="43.0729593895" lon="-0.0681321323"><ele>518.29</ele><time>2015-04-06T11:28:47Z</time></trkpt><trkpt lat="43.0730062444" lon="-0.0681430288"><ele>518.29</ele><time>2015-04-06T11:28:48Z</time></trkpt><trkpt lat="43.0730513390" lon="-0.0681581162"><ele>518.29</ele><time>2015-04-06T11:28:49Z</time></trkpt><trkpt lat="43.0730960146" lon="-0.0681766402"><ele>518.29</ele><time>2015-04-06T11:28:50Z</time></trkpt><trkpt lat="43.0731389299" lon="-0.0681992713"><ele>517.81</ele><time>2015-04-06T11:28:51Z</time></trkpt><trkpt lat="43.0731787439" lon="-0.0682255067"><ele>517.33</ele><time>2015-04-06T11:28:52Z</time></trkpt><trkpt lat="43.0732173845" lon="-0.0682559330"><ele>517.81</ele><time>2015-04-06T11:28:53Z</time></trkpt><trkpt lat="43.0732899718" lon="-0.0683228206"><ele>516.85</ele><time>2015-04-06T11:28:55Z</time></trkpt><trkpt lat="43.0733197276" lon="-0.0683579408"><ele>516.85</ele><time>2015-04-06T11:28:56Z</time></trkpt><trkpt lat="43.0736917164" lon="-0.0689194445"><ele>514.44</ele><time>2015-04-06T11:29:10Z</time></trkpt><trkpt lat="43.0737144314" lon="-0.0689761061"><ele>513.96</ele><time>2015-04-06T11:29:11Z</time></trkpt><trkpt lat="43.0738234799" lon="-0.0692735799"><ele>511.08</ele><time>2015-04-06T11:29:16Z</time></trkpt><trkpt lat="43.0738576781" lon="-0.0693283975"><ele>510.60</ele><time>2015-04-06T11:29:17Z</time></trkpt><trkpt lat="43.0738979951" lon="-0.0693791918"><ele>510.12</ele><time>2015-04-06T11:29:18Z</time></trkpt><trkpt lat="43.0740791280" lon="-0.0696049165"><ele>506.27</ele><time>2015-04-06T11:29:22Z</time></trkpt><trkpt lat="43.0743522942" lon="-0.0699437968"><ele>503.39</ele><time>2015-04-06T11:29:27Z</time></trkpt><trkpt lat="43.0746048409" lon="-0.0702369120"><ele>500.50</ele><time>2015-04-06T11:29:31Z</time></trkpt><trkpt lat="43.0746766739" lon="-0.0702861976"><ele>500.50</ele><time>2015-04-06T11:29:32Z</time></trkpt><trkpt lat="43.0751354992" lon="-0.0704876147"><ele>502.43</ele><time>2015-04-06T11:29:41Z</time></trkpt><trkpt lat="43.0753703602" lon="-0.0706288498"><ele>505.79</ele><time>2015-04-06T11:29:53Z</time></trkpt><trkpt lat="43.0754479766" lon="-0.0706794765"><ele>505.79</ele><time>2015-04-06T11:29:58Z</time></trkpt><trkpt lat="43.0754478928" lon="-0.0706937257"><ele>505.79</ele><time>2015-04-06T11:29:59Z</time></trkpt><trkpt lat="43.0754385050" lon="-0.0707040355"><ele>506.27</ele><time>2015-04-06T11:30:00Z</time></trkpt><trkpt lat="43.0754221603" lon="-0.0707087293"><ele>506.27</ele><time>2015-04-06T11:30:01Z</time></trkpt><trkpt lat="43.0754021276" lon="-0.0707093999"><ele>506.27</ele><time>2015-04-06T11:30:02Z</time></trkpt><trkpt lat="43.0753776524" lon="-0.0707088970"><ele>506.75</ele><time>2015-04-06T11:30:03Z</time></trkpt><trkpt lat="43.0753515009" lon="-0.0707124174"><ele>507.23</ele><time>2015-04-06T11:30:04Z</time></trkpt><trkpt lat="43.0753287859" lon="-0.0707258284"><ele>507.23</ele><time>2015-04-06T11:30:05Z</time></trkpt><trkpt lat="43.0753116868" lon="-0.0707470346"><ele>508.19</ele><time>2015-04-06T11:30:06Z</time></trkpt><trkpt lat="43.0753085017" lon="-0.0707689952"><ele>508.19</ele><time>2015-04-06T11:30:07Z</time></trkpt><trkpt lat="43.0753139500" lon="-0.0707896985"><ele>508.67</ele><time>2015-04-06T11:30:08Z</time></trkpt><trkpt lat="43.0753088370" lon="-0.0708135869"><ele>508.67</ele><time>2015-04-06T11:30:09Z</time></trkpt><trkpt lat="43.0753031373" lon="-0.0708369724"><ele>509.16</ele><time>2015-04-06T11:30:10Z</time></trkpt><trkpt lat="43.0753021315" lon="-0.0708575919"><ele>509.16</ele><time>2015-04-06T11:30:11Z</time></trkpt><trkpt lat="43.0753039755" lon="-0.0708787981"><ele>509.16</ele><time>2015-04-06T11:30:12Z</time></trkpt><trkpt lat="43.0753008742" lon="-0.0709026866"><ele>509.64</ele><time>2015-04-06T11:30:13Z</time></trkpt><trkpt lat="43.0752980243" lon="-0.0709230546"><ele>509.64</ele><time>2015-04-06T11:30:14Z</time></trkpt><trkpt lat="43.0752955098" lon="-0.0709437579"><ele>510.12</ele><time>2015-04-06T11:30:15Z</time></trkpt><trkpt lat="43.0752913188" lon="-0.0709692389"><ele>510.12</ele><time>2015-04-06T11:30:16Z</time></trkpt><trkpt lat="43.0752826016" lon="-0.0710984040"><ele>512.52</ele><time>2015-04-06T11:30:22Z</time></trkpt><trkpt lat="43.0752798356" lon="-0.0711193588"><ele>513.00</ele><time>2015-04-06T11:30:23Z</time></trkpt><trkpt lat="43.0752774049" lon="-0.0711373799"><ele>513.00</ele><time>2015-04-06T11:30:24Z</time></trkpt><trkpt lat="43.0752753094" lon="-0.0711574964"><ele>513.48</ele><time>2015-04-06T11:30:25Z</time></trkpt><trkpt lat="43.0752716213" lon="-0.0711807143"><ele>513.48</ele><time>2015-04-06T11:30:26Z</time></trkpt><trkpt lat="43.0752672628" lon="-0.0711993221"><ele>513.96</ele><time>2015-04-06T11:30:27Z</time></trkpt><trkpt lat="43.0752297118" lon="-0.0712624379"><ele>514.92</ele><time>2015-04-06T11:30:31Z</time></trkpt><trkpt lat="43.0752145406" lon="-0.0712762680"><ele>514.44</ele><time>2015-04-06T11:30:32Z</time></trkpt><trkpt lat="43.0752034765" lon="-0.0712942053"><ele>514.44</ele><time>2015-04-06T11:30:33Z</time></trkpt><trkpt lat="43.0751941726" lon="-0.0713154953"><ele>514.44</ele><time>2015-04-06T11:30:34Z</time></trkpt><trkpt lat="43.0751830246" lon="-0.0713401381"><ele>514.44</ele><time>2015-04-06T11:30:35Z</time></trkpt><trkpt lat="43.0751682725" lon="-0.0713660382"><ele>514.44</ele><time>2015-04-06T11:30:36Z</time></trkpt><trkpt lat="43.0751555320" lon="-0.0713874120"><ele>514.44</ele><time>2015-04-06T11:30:37Z</time></trkpt><trkpt lat="43.0751422886" lon="-0.0714076124"><ele>514.44</ele><time>2015-04-06T11:30:38Z</time></trkpt><trkpt lat="43.0751289614" lon="-0.0714315008"><ele>514.44</ele><time>2015-04-06T11:30:39Z</time></trkpt><trkpt lat="43.0751149636" lon="-0.0714636873"><ele>514.44</ele><time>2015-04-06T11:30:40Z</time></trkpt><trkpt lat="43.0751049891" lon="-0.0714931078"><ele>514.44</ele><time>2015-04-06T11:30:41Z</time></trkpt><trkpt lat="43.0749586411" lon="-0.0717814453"><ele>516.37</ele><time>2015-04-06T11:30:52Z</time></trkpt><trkpt lat="43.0749117862" lon="-0.0721962657"><ele>517.81</ele><time>2015-04-06T11:31:05Z</time></trkpt><trkpt lat="43.0748642609" lon="-0.0724996068"><ele>519.73</ele><time>2015-04-06T11:31:16Z</time></trkpt><trkpt lat="43.0748248659" lon="-0.0726026203"><ele>521.65</ele><time>2015-04-06T11:31:21Z</time></trkpt><trkpt lat="43.0748132151" lon="-0.0726244971"><ele>521.17</ele><time>2015-04-06T11:31:27Z</time></trkpt><trkpt lat="43.0747221038" lon="-0.0726441946"><ele>521.65</ele><time>2015-04-06T11:31:39Z</time></trkpt><trkpt lat="43.0746414699" lon="-0.0726575218"><ele>522.61</ele><time>2015-04-06T11:31:49Z</time></trkpt><trkpt lat="43.0746297352" lon="-0.0726550072"><ele>522.61</ele><time>2015-04-06T11:31:50Z</time></trkpt><trkpt lat="43.0746160727" lon="-0.0726523250"><ele>522.61</ele><time>2015-04-06T11:31:51Z</time></trkpt><trkpt lat="43.0746026617" lon="-0.0726526603"><ele>522.61</ele><time>2015-04-06T11:31:52Z</time></trkpt><trkpt lat="43.0745888315" lon="-0.0726521574"><ele>522.61</ele><time>2015-04-06T11:31:53Z</time></trkpt><trkpt lat="43.0745729059" lon="-0.0726538338"><ele>523.09</ele><time>2015-04-06T11:31:54Z</time></trkpt><trkpt lat="43.0745565612" lon="-0.0726567674"><ele>523.09</ele><time>2015-04-06T11:31:55Z</time></trkpt><trkpt lat="43.0744182598" lon="-0.0726697594"><ele>523.58</ele><time>2015-04-06T11:32:03Z</time></trkpt><trkpt lat="43.0744015798" lon="-0.0726789795"><ele>523.58</ele><time>2015-04-06T11:32:04Z</time></trkpt><trkpt lat="43.0743862409" lon="-0.0726814102"><ele>524.06</ele><time>2015-04-06T11:32:05Z</time></trkpt><trkpt lat="43.0743250530" lon="-0.0727313664"><ele>524.54</ele><time>2015-04-06T11:32:11Z</time></trkpt><trkpt lat="43.0743110552" lon="-0.0727550033"><ele>525.02</ele><time>2015-04-06T11:32:13Z</time></trkpt><trkpt lat="43.0742730852" lon="-0.0728039537"><ele>525.98</ele><time>2015-04-06T11:32:17Z</time></trkpt><trkpt lat="43.0742250569" lon="-0.0728719309"><ele>526.46</ele><time>2015-04-06T11:32:23Z</time></trkpt><trkpt lat="43.0742084607" lon="-0.0728998426"><ele>526.94</ele><time>2015-04-06T11:32:25Z</time></trkpt><trkpt lat="43.0742008332" lon="-0.0729161873"><ele>526.94</ele><time>2015-04-06T11:32:26Z</time></trkpt><trkpt lat="43.0741925351" lon="-0.0729341246"><ele>526.94</ele><time>2015-04-06T11:32:27Z</time></trkpt><trkpt lat="43.0741789564" lon="-0.0729547441"><ele>526.94</ele><time>2015-04-06T11:32:28Z</time></trkpt><trkpt lat="43.0741694011" lon="-0.0729736034"><ele>527.42</ele><time>2015-04-06T11:32:29Z</time></trkpt><trkpt lat="43.0740625318" lon="-0.0733306725"><ele>527.42</ele><time>2015-04-06T11:32:42Z</time></trkpt><trkpt lat="43.0737793911" lon="-0.0737415534"><ele>525.50</ele><time>2015-04-06T11:32:53Z</time></trkpt><trkpt lat="43.0734721944" lon="-0.0739086047"><ele>526.46</ele><time>2015-04-06T11:33:04Z</time></trkpt><trkpt lat="43.0732062366" lon="-0.0742738042"><ele>529.82</ele><time>2015-04-06T11:33:18Z</time></trkpt><trkpt lat="43.0729938392" lon="-0.0746442843"><ele>532.23</ele><time>2015-04-06T11:33:32Z</time></trkpt><trkpt lat="43.0725935195" lon="-0.0748728588"><ele>533.19</ele><time>2015-04-06T11:33:48Z</time></trkpt><trkpt lat="43.0722376239" lon="-0.0750309415"><ele>534.63</ele><time>2015-04-06T11:34:03Z</time></trkpt><trkpt lat="43.0720051937" lon="-0.0751355477"><ele>537.51</ele><time>2015-04-06T11:34:18Z</time></trkpt><trkpt lat="43.0718207918" lon="-0.0752100628"><ele>537.99</ele><time>2015-04-06T11:34:32Z</time></trkpt><trkpt lat="43.0715928040" lon="-0.0752580073"><ele>540.40</ele><time>2015-04-06T11:34:45Z</time></trkpt><trkpt lat="43.0715783034" lon="-0.0752671435"><ele>540.40</ele><time>2015-04-06T11:34:46Z</time></trkpt><trkpt lat="43.0715617072" lon="-0.0752709992"><ele>540.40</ele><time>2015-04-06T11:34:47Z</time></trkpt><trkpt lat="43.0715431832" lon="-0.0752725080"><ele>540.40</ele><time>2015-04-06T11:34:48Z</time></trkpt><trkpt lat="43.0715276767" lon="-0.0752696581"><ele>540.88</ele><time>2015-04-06T11:34:49Z</time></trkpt><trkpt lat="43.0715108290" lon="-0.0752698258"><ele>541.36</ele><time>2015-04-06T11:34:50Z</time></trkpt><trkpt lat="43.0714906286" lon="-0.0752684008"><ele>541.36</ele><time>2015-04-06T11:34:51Z</time></trkpt><trkpt lat="43.0712903012" lon="-0.0752615277"><ele>544.24</ele><time>2015-04-06T11:35:04Z</time></trkpt><trkpt lat="43.0711378343" lon="-0.0752457697"><ele>547.13</ele><time>2015-04-06T11:35:16Z</time></trkpt><trkpt lat="43.0710886326" lon="-0.0752476137"><ele>548.09</ele><time>2015-04-06T11:35:20Z</time></trkpt><trkpt lat="43.0710755568" lon="-0.0752404053"><ele>548.09</ele><time>2015-04-06T11:35:21Z</time></trkpt><trkpt lat="43.0710605532" lon="-0.0752378907"><ele>549.05</ele><time>2015-04-06T11:35:22Z</time></trkpt><trkpt lat="43.0710468069" lon="-0.0752352923"><ele>549.05</ele><time>2015-04-06T11:35:23Z</time></trkpt><trkpt lat="43.0710317194" lon="-0.0752362981"><ele>549.53</ele><time>2015-04-06T11:35:24Z</time></trkpt><trkpt lat="43.0709419493" lon="-0.0752327777"><ele>550.97</ele><time>2015-04-06T11:35:30Z</time></trkpt><trkpt lat="43.0708893947" lon="-0.0752444286"><ele>551.93</ele><time>2015-04-06T11:35:34Z</time></trkpt><trkpt lat="43.0708327331" lon="-0.0752352085"><ele>552.41</ele><time>2015-04-06T11:35:38Z</time></trkpt><trkpt lat="43.0708190706" lon="-0.0752443448"><ele>552.41</ele><time>2015-04-06T11:35:39Z</time></trkpt><trkpt lat="43.0708049051" lon="-0.0752528943"><ele>552.90</ele><time>2015-04-06T11:35:40Z</time></trkpt><trkpt lat="43.0706649274" lon="-0.0753135793"><ele>555.78</ele><time>2015-04-06T11:35:52Z</time></trkpt><trkpt lat="43.0705242790" lon="-0.0755173434"><ele>559.14</ele><time>2015-04-06T11:36:07Z</time></trkpt><trkpt lat="43.0704485904" lon="-0.0758013222"><ele>561.55</ele><time>2015-04-06T11:36:22Z</time></trkpt><trkpt lat="43.0704836268" lon="-0.0761174876"><ele>562.99</ele><time>2015-04-06T11:36:35Z</time></trkpt><trkpt lat="43.0705790967" lon="-0.0763789192"><ele>564.43</ele><time>2015-04-06T11:36:47Z</time></trkpt><trkpt lat="43.0705977045" lon="-0.0764195714"><ele>564.43</ele><time>2015-04-06T11:36:49Z</time></trkpt><trkpt lat="43.0706029013" lon="-0.0764433760"><ele>564.43</ele><time>2015-04-06T11:36:50Z</time></trkpt><trkpt lat="43.0706066731" lon="-0.0764676835"><ele>564.91</ele><time>2015-04-06T11:36:51Z</time></trkpt><trkpt lat="43.0706118699" lon="-0.0764916558"><ele>565.39</ele><time>2015-04-06T11:36:52Z</time></trkpt><trkpt lat="43.0706161447" lon="-0.0765194837"><ele>565.39</ele><time>2015-04-06T11:36:53Z</time></trkpt><trkpt lat="43.0706178211" lon="-0.0765472278"><ele>565.39</ele><time>2015-04-06T11:36:54Z</time></trkpt><trkpt lat="43.0706209224" lon="-0.0765732955"><ele>565.39</ele><time>2015-04-06T11:36:55Z</time></trkpt><trkpt lat="43.0707452260" lon="-0.0769239105"><ele>567.32</ele><time>2015-04-06T11:37:07Z</time></trkpt><trkpt lat="43.0709261075" lon="-0.0772021059"><ele>565.87</ele><time>2015-04-06T11:37:16Z</time></trkpt><trkpt lat="43.0709359981" lon="-0.0772570074"><ele>565.39</ele><time>2015-04-06T11:37:17Z</time></trkpt><trkpt lat="43.0709422845" lon="-0.0773201231"><ele>565.39</ele><time>2015-04-06T11:37:18Z</time></trkpt><trkpt lat="43.0709458049" lon="-0.0773902796"><ele>564.91</ele><time>2015-04-06T11:37:19Z</time></trkpt><trkpt lat="43.0709464755" lon="-0.0774632860"><ele>563.95</ele><time>2015-04-06T11:37:20Z</time></trkpt><trkpt lat="43.0709447991" lon="-0.0775336102"><ele>563.95</ele><time>2015-04-06T11:37:21Z</time></trkpt><trkpt lat="43.0709460564" lon="-0.0776522979"><ele>562.51</ele><time>2015-04-06T11:37:23Z</time></trkpt><trkpt lat="43.0709536001" lon="-0.0777032599"><ele>562.51</ele><time>2015-04-06T11:37:24Z</time></trkpt><trkpt lat="43.0709629040" lon="-0.0777522940"><ele>562.51</ele><time>2015-04-06T11:37:25Z</time></trkpt><trkpt lat="43.0709770694" lon="-0.0777922757"><ele>562.03</ele><time>2015-04-06T11:37:26Z</time></trkpt><trkpt lat="43.0709961802" lon="-0.0778305810"><ele>562.03</ele><time>2015-04-06T11:37:27Z</time></trkpt><trkpt lat="43.0710143689" lon="-0.0778711494"><ele>561.07</ele><time>2015-04-06T11:37:28Z</time></trkpt><trkpt lat="43.0712207314" lon="-0.0780396257"><ele>559.14</ele><time>2015-04-06T11:37:38Z</time></trkpt><trkpt lat="43.0716173630" lon="-0.0781437289"><ele>557.70</ele><time>2015-04-06T11:37:52Z</time></trkpt><trkpt lat="43.0719076283" lon="-0.0784457289"><ele>556.74</ele><time>2015-04-06T11:38:03Z</time></trkpt><trkpt lat="43.0721501168" lon="-0.0786140375"><ele>555.30</ele><time>2015-04-06T11:38:10Z</time></trkpt><trkpt lat="43.0721954629" lon="-0.0786305498"><ele>554.82</ele><time>2015-04-06T11:38:11Z</time></trkpt><trkpt lat="43.0724725686" lon="-0.0787037238"><ele>553.86</ele><time>2015-04-06T11:38:17Z</time></trkpt><trkpt lat="43.0732047278" lon="-0.0787454657"><ele>550.49</ele><time>2015-04-06T11:38:32Z</time></trkpt><trkpt lat="43.0737465341" lon="-0.0787963439"><ele>549.53</ele><time>2015-04-06T11:38:45Z</time></trkpt><trkpt lat="43.0738050397" lon="-0.0790538359"><ele>549.53</ele><time>2015-04-06T11:38:53Z</time></trkpt><trkpt lat="43.0736863520" lon="-0.0795831531"><ele>550.97</ele><time>2015-04-06T11:39:07Z</time></trkpt><trkpt lat="43.0738627072" lon="-0.0799088739"><ele>551.93</ele><time>2015-04-06T11:39:17Z</time></trkpt><trkpt lat="43.0742102209" lon="-0.0802071858"><ele>553.38</ele><time>2015-04-06T11:39:30Z</time></trkpt><trkpt lat="43.0745122209" lon="-0.0805727206"><ele>556.26</ele><time>2015-04-06T11:39:45Z</time></trkpt><trkpt lat="43.0746105406" lon="-0.0806848705"><ele>556.26</ele><time>2015-04-06T11:39:57Z</time></trkpt><trkpt lat="43.0747414660" lon="-0.0810413528"><ele>556.26</ele><time>2015-04-06T11:40:12Z</time></trkpt><trkpt lat="43.0748039950" lon="-0.0813242421"><ele>559.62</ele><time>2015-04-06T11:40:22Z</time></trkpt><trkpt lat="43.0748526938" lon="-0.0816446822"><ele>562.99</ele><time>2015-04-06T11:40:36Z</time></trkpt><trkpt lat="43.0748701282" lon="-0.0819354504"><ele>564.91</ele><time>2015-04-06T11:40:49Z</time></trkpt><trkpt lat="43.0749079306" lon="-0.0822690502"><ele>567.80</ele><time>2015-04-06T11:41:04Z</time></trkpt><trkpt lat="43.0750008859" lon="-0.0825335830"><ele>570.68</ele><time>2015-04-06T11:41:16Z</time></trkpt><trkpt lat="43.0750443041" lon="-0.0827676896"><ele>573.56</ele><time>2015-04-06T11:41:28Z</time></trkpt><trkpt lat="43.0749593955" lon="-0.0829734653"><ele>575.97</ele><time>2015-04-06T11:41:39Z</time></trkpt><trkpt lat="43.0750454776" lon="-0.0833696779"><ele>576.45</ele><time>2015-04-06T11:41:54Z</time></trkpt><trkpt lat="43.0751452222" lon="-0.0838433392"><ele>576.45</ele><time>2015-04-06T11:42:10Z</time></trkpt><trkpt lat="43.0752157979" lon="-0.0843615923"><ele>576.93</ele><time>2015-04-06T11:42:24Z</time></trkpt><trkpt lat="43.0753279477" lon="-0.0848980341"><ele>578.37</ele><time>2015-04-06T11:42:38Z</time></trkpt><trkpt lat="43.0755167920" lon="-0.0855314545"><ele>578.85</ele><time>2015-04-06T11:42:55Z</time></trkpt><trkpt lat="43.0757457856" lon="-0.0861481111"><ele>579.81</ele><time>2015-04-06T11:43:12Z</time></trkpt><trkpt lat="43.0759446882" lon="-0.0865398813"><ele>581.73</ele><time>2015-04-06T11:43:26Z</time></trkpt><trkpt lat="43.0760717578" lon="-0.0866555516"><ele>583.18</ele><time>2015-04-06T11:43:33Z</time></trkpt><trkpt lat="43.0761113204" lon="-0.0867212657"><ele>584.14</ele><time>2015-04-06T11:43:37Z</time></trkpt><trkpt lat="43.0761183612" lon="-0.0867391191"><ele>584.14</ele><time>2015-04-06T11:43:38Z</time></trkpt><trkpt lat="43.0761522241" lon="-0.0867915060"><ele>585.10</ele><time>2015-04-06T11:43:41Z</time></trkpt><trkpt lat="43.0761715025" lon="-0.0868105330"><ele>585.58</ele><time>2015-04-06T11:43:42Z</time></trkpt><trkpt lat="43.0764101353" lon="-0.0869413745"><ele>587.50</ele><time>2015-04-06T11:43:55Z</time></trkpt><trkpt lat="43.0766082834" lon="-0.0870420411"><ele>588.46</ele><time>2015-04-06T11:44:07Z</time></trkpt><trkpt lat="43.0769572221" lon="-0.0872693583"><ele>587.50</ele><time>2015-04-06T11:44:18Z</time></trkpt><trkpt lat="43.0773266125" lon="-0.0872855354"><ele>588.95</ele><time>2015-04-06T11:44:32Z</time></trkpt><trkpt lat="43.0775742140" lon="-0.0872635748"><ele>591.83</ele><time>2015-04-06T11:44:43Z</time></trkpt><trkpt lat="43.0776123516" lon="-0.0872477330"><ele>592.31</ele><time>2015-04-06T11:44:45Z</time></trkpt><trkpt lat="43.0777911376" lon="-0.0870008022"><ele>594.23</ele><time>2015-04-06T11:44:57Z</time></trkpt><trkpt lat="43.0778341368" lon="-0.0869517680"><ele>594.71</ele><time>2015-04-06T11:45:00Z</time></trkpt><trkpt lat="43.0778486375" lon="-0.0869341660"><ele>594.71</ele><time>2015-04-06T11:45:01Z</time></trkpt><trkpt lat="43.0778638087" lon="-0.0869152229"><ele>595.19</ele><time>2015-04-06T11:45:02Z</time></trkpt><trkpt lat="43.0778796505" lon="-0.0868935138"><ele>595.67</ele><time>2015-04-06T11:45:03Z</time></trkpt><trkpt lat="43.0778979231" lon="-0.0868736487"><ele>595.19</ele><time>2015-04-06T11:45:04Z</time></trkpt><trkpt lat="43.0779156089" lon="-0.0868565496"><ele>595.67</ele><time>2015-04-06T11:45:05Z</time></trkpt><trkpt lat="43.0782704987" lon="-0.0867428910"><ele>595.67</ele><time>2015-04-06T11:45:19Z</time></trkpt><trkpt lat="43.0784237199" lon="-0.0864350237"><ele>596.15</ele><time>2015-04-06T11:45:29Z</time></trkpt><trkpt lat="43.0786521267" lon="-0.0860233884"><ele>598.08</ele><time>2015-04-06T11:45:44Z</time></trkpt><trkpt lat="43.0789035838" lon="-0.0858053751"><ele>599.52</ele><time>2015-04-06T11:45:56Z</time></trkpt><trkpt lat="43.0792240240" lon="-0.0857315306"><ele>601.92</ele><time>2015-04-06T11:46:10Z</time></trkpt><trkpt lat="43.0793540273" lon="-0.0857373979"><ele>603.85</ele><time>2015-04-06T11:46:17Z</time></trkpt><trkpt lat="43.0793704558" lon="-0.0857378170"><ele>604.33</ele><time>2015-04-06T11:46:18Z</time></trkpt><trkpt lat="43.0793888122" lon="-0.0857399125"><ele>604.81</ele><time>2015-04-06T11:46:19Z</time></trkpt><trkpt lat="43.0796405207" lon="-0.0857632980"><ele>607.21</ele><time>2015-04-06T11:46:32Z</time></trkpt><trkpt lat="43.0798293650" lon="-0.0859304331"><ele>609.61</ele><time>2015-04-06T11:46:45Z</time></trkpt><trkpt lat="43.0798819195" lon="-0.0859930459"><ele>610.57</ele><time>2015-04-06T11:46:49Z</time></trkpt><trkpt lat="43.0798977613" lon="-0.0860031042"><ele>610.57</ele><time>2015-04-06T11:46:50Z</time></trkpt><trkpt lat="43.0799136870" lon="-0.0860086363"><ele>610.57</ele><time>2015-04-06T11:46:51Z</time></trkpt><trkpt lat="43.0799248349" lon="-0.0860227179"><ele>610.57</ele><time>2015-04-06T11:46:52Z</time></trkpt><trkpt lat="43.0799342226" lon="-0.0860404875"><ele>611.06</ele><time>2015-04-06T11:46:53Z</time></trkpt><trkpt lat="43.0799982604" lon="-0.0862031803"><ele>613.46</ele><time>2015-04-06T11:47:04Z</time></trkpt><trkpt lat="43.0800034571" lon="-0.0862233806"><ele>613.46</ele><time>2015-04-06T11:47:05Z</time></trkpt><trkpt lat="43.0800356437" lon="-0.0862749293"><ele>614.42</ele><time>2015-04-06T11:47:08Z</time></trkpt><trkpt lat="43.0800612923" lon="-0.0862903520"><ele>614.42</ele><time>2015-04-06T11:47:10Z</time></trkpt><trkpt lat="43.0800810736" lon="-0.0862937886"><ele>614.90</ele><time>2015-04-06T11:47:11Z</time></trkpt><trkpt lat="43.0801926367" lon="-0.0862422399"><ele>616.34</ele><time>2015-04-06T11:47:22Z</time></trkpt><trkpt lat="43.0803552456" lon="-0.0860005897"><ele>617.30</ele><time>2015-04-06T11:47:35Z</time></trkpt><trkpt lat="43.0804266594" lon="-0.0859690737"><ele>617.78</ele><time>2015-04-06T11:47:39Z</time></trkpt><trkpt lat="43.0806983169" lon="-0.0859778747"><ele>621.15</ele><time>2015-04-06T11:47:54Z</time></trkpt><trkpt lat="43.0809405539" lon="-0.0859306008"><ele>623.07</ele><time>2015-04-06T11:48:08Z</time></trkpt><trkpt lat="43.0811612494" lon="-0.0857949816"><ele>623.55</ele><time>2015-04-06T11:48:21Z</time></trkpt><trkpt lat="43.0813702103" lon="-0.0856286846"><ele>624.99</ele><time>2015-04-06T11:48:34Z</time></trkpt><trkpt lat="43.0816143751" lon="-0.0856202189"><ele>627.88</ele><time>2015-04-06T11:48:47Z</time></trkpt><trkpt lat="43.0817827675" lon="-0.0855161995"><ele>630.28</ele><time>2015-04-06T11:49:00Z</time></trkpt><trkpt lat="43.0819153693" lon="-0.0854093302"><ele>631.24</ele><time>2015-04-06T11:49:08Z</time></trkpt><trkpt lat="43.0819996074" lon="-0.0853701029"><ele>631.72</ele><time>2015-04-06T11:49:13Z</time></trkpt><trkpt lat="43.0820472166" lon="-0.0853952486"><ele>632.20</ele><time>2015-04-06T11:49:17Z</time></trkpt><trkpt lat="43.0820628069" lon="-0.0855065603"><ele>633.17</ele><time>2015-04-06T11:49:24Z</time></trkpt><trkpt lat="43.0820932332" lon="-0.0855528284"><ele>633.65</ele><time>2015-04-06T11:49:27Z</time></trkpt><trkpt lat="43.0821051355" lon="-0.0856212247"><ele>634.61</ele><time>2015-04-06T11:49:31Z</time></trkpt><trkpt lat="43.0821177084" lon="-0.0856937282"><ele>635.57</ele><time>2015-04-06T11:49:35Z</time></trkpt><trkpt lat="43.0821216479" lon="-0.0857270043"><ele>635.57</ele><time>2015-04-06T11:49:37Z</time></trkpt><trkpt lat="43.0821436085" lon="-0.0859259907"><ele>637.97</ele><time>2015-04-06T11:49:50Z</time></trkpt><trkpt lat="43.0821540020" lon="-0.0861058664"><ele>639.89</ele><time>2015-04-06T11:49:59Z</time></trkpt><trkpt lat="43.0821120087" lon="-0.0863367040"><ele>641.82</ele><time>2015-04-06T11:50:13Z</time></trkpt><trkpt lat="43.0820906349" lon="-0.0864781067"><ele>642.78</ele><time>2015-04-06T11:50:22Z</time></trkpt><trkpt lat="43.0820900481" lon="-0.0865406357"><ele>643.26</ele><time>2015-04-06T11:50:26Z</time></trkpt><trkpt lat="43.0820627231" lon="-0.0865996443"><ele>643.74</ele><time>2015-04-06T11:50:29Z</time></trkpt><trkpt lat="43.0820359848" lon="-0.0868018996"><ele>646.62</ele><time>2015-04-06T11:50:42Z</time></trkpt><trkpt lat="43.0820223223" lon="-0.0868719723"><ele>647.59</ele><time>2015-04-06T11:50:46Z</time></trkpt><trkpt lat="43.0820412654" lon="-0.0869516004"><ele>648.55</ele><time>2015-04-06T11:50:52Z</time></trkpt><trkpt lat="43.0820659082" lon="-0.0869759917"><ele>649.03</ele><time>2015-04-06T11:50:55Z</time></trkpt><trkpt lat="43.0820979271" lon="-0.0870436337"><ele>650.47</ele><time>2015-04-06T11:50:59Z</time></trkpt><trkpt lat="43.0821867753" lon="-0.0871319789"><ele>652.87</ele><time>2015-04-06T11:51:09Z</time></trkpt><trkpt lat="43.0822497234" lon="-0.0871566217"><ele>654.31</ele><time>2015-04-06T11:51:14Z</time></trkpt><trkpt lat="43.0823099893" lon="-0.0871311408"><ele>655.28</ele><time>2015-04-06T11:51:27Z</time></trkpt><trkpt lat="43.0823425110" lon="-0.0871013012"><ele>657.20</ele><time>2015-04-06T11:51:45Z</time></trkpt><trkpt lat="43.0823667347" lon="-0.0870937575"><ele>657.20</ele><time>2015-04-06T11:51:58Z</time></trkpt><trkpt lat="43.0823469535" lon="-0.0871353317"><ele>656.72</ele><time>2015-04-06T11:52:11Z</time></trkpt><trkpt lat="43.0823579337" lon="-0.0871710386"><ele>655.76</ele><time>2015-04-06T11:52:27Z</time></trkpt><trkpt lat="43.0823624600" lon="-0.0871959329"><ele>656.24</ele><time>2015-04-06T11:52:55Z</time></trkpt><trkpt lat="43.0823555868" lon="-0.0871888082"><ele>656.72</ele><time>2015-04-06T11:53:26Z</time></trkpt><trkpt lat="43.0823539104" lon="-0.0872045662"><ele>657.20</ele><time>2015-04-06T11:53:42Z</time></trkpt><trkpt lat="43.0823577661" lon="-0.0872062426"><ele>657.20</ele><time>2015-04-06T11:54:00Z</time></trkpt><trkpt lat="43.0823604483" lon="-0.0872085895"><ele>657.68</ele><time>2015-04-06T11:54:32Z</time></trkpt><trkpt lat="43.0823711772" lon="-0.0872012135"><ele>657.68</ele><time>2015-04-06T11:54:43Z</time></trkpt><trkpt lat="43.0824161042" lon="-0.0872053206"><ele>658.16</ele><time>2015-04-06T11:54:54Z</time></trkpt><trkpt lat="43.0824130028" lon="-0.0871806778"><ele>657.68</ele><time>2015-04-06T11:55:07Z</time></trkpt><trkpt lat="43.0824135058" lon="-0.0871417020"><ele>658.16</ele><time>2015-04-06T11:55:18Z</time></trkpt><trkpt lat="43.0824215524" lon="-0.0871359184"><ele>658.64</ele><time>2015-04-06T11:55:41Z</time></trkpt><trkpt lat="43.0824338738" lon="-0.0871437136"><ele>659.12</ele><time>2015-04-06T11:55:44Z</time></trkpt><trkpt lat="43.0825690739" lon="-0.0870400295"><ele>662.49</ele><time>2015-04-06T11:55:55Z</time></trkpt><trkpt lat="43.0825737678" lon="-0.0870276242"><ele>662.49</ele><time>2015-04-06T11:55:56Z</time></trkpt><trkpt lat="43.0826599337" lon="-0.0869332440"><ele>665.37</ele><time>2015-04-06T11:56:04Z</time></trkpt><trkpt lat="43.0827882607" lon="-0.0867971219"><ele>667.77</ele><time>2015-04-06T11:56:15Z</time></trkpt><trkpt lat="43.0828811321" lon="-0.0867277198"><ele>670.66</ele><time>2015-04-06T11:56:25Z</time></trkpt><trkpt lat="43.0829185992" lon="-0.0867205113"><ele>670.66</ele><time>2015-04-06T11:56:27Z</time></trkpt><trkpt lat="43.0829534680" lon="-0.0867293961"><ele>671.14</ele><time>2015-04-06T11:56:29Z</time></trkpt><trkpt lat="43.0829737522" lon="-0.0867609121"><ele>671.62</ele><time>2015-04-06T11:56:32Z</time></trkpt><trkpt lat="43.0828792881" lon="-0.0869864691"><ele>673.06</ele><time>2015-04-06T11:56:47Z</time></trkpt><trkpt lat="43.0827815551" lon="-0.0872899778"><ele>674.02</ele><time>2015-04-06T11:57:02Z</time></trkpt><trkpt lat="43.0827440042" lon="-0.0874178857"><ele>674.02</ele><time>2015-04-06T11:57:06Z</time></trkpt><trkpt lat="43.0827408191" lon="-0.0875000283"><ele>674.50</ele><time>2015-04-06T11:57:10Z</time></trkpt><trkpt lat="43.0827109795" lon="-0.0877924729"><ele>676.91</ele><time>2015-04-06T11:57:24Z</time></trkpt><trkpt lat="43.0826319382" lon="-0.0880556647"><ele>679.31</ele><time>2015-04-06T11:57:39Z</time></trkpt><trkpt lat="43.0825586803" lon="-0.0882727560"><ele>681.71</ele><time>2015-04-06T11:57:52Z</time></trkpt><trkpt lat="43.0825512204" lon="-0.0882939622"><ele>681.71</ele><time>2015-04-06T11:57:53Z</time></trkpt><trkpt lat="43.0824660603" lon="-0.0884898473"><ele>683.63</ele><time>2015-04-06T11:58:05Z</time></trkpt><trkpt lat="43.0824032798" lon="-0.0886884145"><ele>686.52</ele><time>2015-04-06T11:58:19Z</time></trkpt><trkpt lat="43.0823852587" lon="-0.0887448248"><ele>687.00</ele><time>2015-04-06T11:58:23Z</time></trkpt><trkpt lat="43.0822762940" lon="-0.0890775025"><ele>689.40</ele><time>2015-04-06T11:58:40Z</time></trkpt><trkpt lat="43.0821926426" lon="-0.0892873015"><ele>691.33</ele><time>2015-04-06T11:58:54Z</time></trkpt><trkpt lat="43.0821628869" lon="-0.0893332344"><ele>691.81</ele><time>2015-04-06T11:58:57Z</time></trkpt><trkpt lat="43.0821340531" lon="-0.0894094259"><ele>693.25</ele><time>2015-04-06T11:59:02Z</time></trkpt><trkpt lat="43.0820414331" lon="-0.0895794109"><ele>696.13</ele><time>2015-04-06T11:59:15Z</time></trkpt><trkpt lat="43.0820371583" lon="-0.0895928219"><ele>696.13</ele><time>2015-04-06T11:59:16Z</time></trkpt><trkpt lat="43.0819819216" lon="-0.0897830073"><ele>698.05</ele><time>2015-04-06T11:59:28Z</time></trkpt><trkpt lat="43.0819150340" lon="-0.0900194608"><ele>700.46</ele><time>2015-04-06T11:59:43Z</time></trkpt><trkpt lat="43.0818808358" lon="-0.0901925471"><ele>702.38</ele><time>2015-04-06T11:59:54Z</time></trkpt><trkpt lat="43.0818658322" lon="-0.0902353786"><ele>702.86</ele><time>2015-04-06T11:59:57Z</time></trkpt><trkpt lat="43.0818716995" lon="-0.0903915334"><ele>704.30</ele><time>2015-04-06T12:00:08Z</time></trkpt><trkpt lat="43.0818875413" lon="-0.0904593430"><ele>704.78</ele><time>2015-04-06T12:00:12Z</time></trkpt><trkpt lat="43.0819079932" lon="-0.0905140769"><ele>705.26</ele><time>2015-04-06T12:00:16Z</time></trkpt><trkpt lat="43.0819266010" lon="-0.0905445870"><ele>705.26</ele><time>2015-04-06T12:00:18Z</time></trkpt><trkpt lat="43.0820153654" lon="-0.0907351915"><ele>707.19</ele><time>2015-04-06T12:00:29Z</time></trkpt><trkpt lat="43.0820364878" lon="-0.0907828007"><ele>707.19</ele><time>2015-04-06T12:00:32Z</time></trkpt><trkpt lat="43.0820829235" lon="-0.0909299031"><ele>707.67</ele><time>2015-04-06T12:00:45Z</time></trkpt><trkpt lat="43.0820886232" lon="-0.0909321662"><ele>707.19</ele><time>2015-04-06T12:01:01Z</time></trkpt><trkpt lat="43.0820858572" lon="-0.0909538753"><ele>706.71</ele><time>2015-04-06T12:01:14Z</time></trkpt><trkpt lat="43.0820907187" lon="-0.0909661129"><ele>706.23</ele><time>2015-04-06T12:01:40Z</time></trkpt><trkpt lat="43.0821186304" lon="-0.0909702200"><ele>707.19</ele><time>2015-04-06T12:02:13Z</time></trkpt><trkpt lat="43.0821166188" lon="-0.0909789372"><ele>706.71</ele><time>2015-04-06T12:02:36Z</time></trkpt><trkpt lat="43.0821254198" lon="-0.0909915939"><ele>707.19</ele><time>2015-04-06T12:03:11Z</time></trkpt><trkpt lat="43.0821192171" lon="-0.0909934379"><ele>706.71</ele><time>2015-04-06T12:03:42Z</time></trkpt><trkpt lat="43.0821148586" lon="-0.0909969583"><ele>707.19</ele><time>2015-04-06T12:04:17Z</time></trkpt><trkpt lat="43.0820915569" lon="-0.0909733213"><ele>707.67</ele><time>2015-04-06T12:04:31Z</time></trkpt><trkpt lat="43.0820877850" lon="-0.0909581501"><ele>707.67</ele><time>2015-04-06T12:04:46Z</time></trkpt><trkpt lat="43.0820811633" lon="-0.0909629278"><ele>707.67</ele><time>2015-04-06T12:04:49Z</time></trkpt><trkpt lat="43.0820633937" lon="-0.0909613352"><ele>707.67</ele><time>2015-04-06T12:04:51Z</time></trkpt><trkpt lat="43.0819597933" lon="-0.0910312403"><ele>708.63</ele><time>2015-04-06T12:04:59Z</time></trkpt><trkpt lat="43.0819237512" lon="-0.0910212658"><ele>708.63</ele><time>2015-04-06T12:05:01Z</time></trkpt><trkpt lat="43.0818357412" lon="-0.0910537876"><ele>709.11</ele><time>2015-04-06T12:05:07Z</time></trkpt><trkpt lat="43.0817693565" lon="-0.0911218487"><ele>709.59</ele><time>2015-04-06T12:05:12Z</time></trkpt><trkpt lat="43.0816347431" lon="-0.0913465675"><ele>711.03</ele><time>2015-04-06T12:05:23Z</time></trkpt><trkpt lat="43.0814491678" lon="-0.0916381739"><ele>711.99</ele><time>2015-04-06T12:05:36Z</time></trkpt><trkpt lat="43.0812895764" lon="-0.0919511542"><ele>714.40</ele><time>2015-04-06T12:05:48Z</time></trkpt><trkpt lat="43.0812432244" lon="-0.0920683332"><ele>714.88</ele><time>2015-04-06T12:05:52Z</time></trkpt><trkpt lat="43.0811259616" lon="-0.0922664814"><ele>716.32</ele><time>2015-04-06T12:06:03Z</time></trkpt><trkpt lat="43.0809739139" lon="-0.0925112329"><ele>718.24</ele><time>2015-04-06T12:06:15Z</time></trkpt><trkpt lat="43.0809537135" lon="-0.0926396437"><ele>718.72</ele><time>2015-04-06T12:06:22Z</time></trkpt><trkpt lat="43.0808862392" lon="-0.0926698186"><ele>719.20</ele><time>2015-04-06T12:06:27Z</time></trkpt><trkpt lat="43.0808206927" lon="-0.0926154200"><ele>719.68</ele><time>2015-04-06T12:06:32Z</time></trkpt><trkpt lat="43.0807797052" lon="-0.0926394761"><ele>720.16</ele><time>2015-04-06T12:06:34Z</time></trkpt><trkpt lat="43.0807440821" lon="-0.0926695671"><ele>720.16</ele><time>2015-04-06T12:06:37Z</time></trkpt><trkpt lat="43.0806708243" lon="-0.0927481055"><ele>720.16</ele><time>2015-04-06T12:06:42Z</time></trkpt><trkpt lat="43.0806522164" lon="-0.0927592535"><ele>720.16</ele><time>2015-04-06T12:06:44Z</time></trkpt><trkpt lat="43.0803813133" lon="-0.0928106345"><ele>720.16</ele><time>2015-04-06T12:06:54Z</time></trkpt><trkpt lat="43.0802425928" lon="-0.0928491913"><ele>721.13</ele><time>2015-04-06T12:07:00Z</time></trkpt><trkpt lat="43.0798898824" lon="-0.0928772707"><ele>720.65</ele><time>2015-04-06T12:07:10Z</time></trkpt><trkpt lat="43.0796354916" lon="-0.0928845629"><ele>720.16</ele><time>2015-04-06T12:07:19Z</time></trkpt><trkpt lat="43.0793702882" lon="-0.0929290708"><ele>722.09</ele><time>2015-04-06T12:07:30Z</time></trkpt><trkpt lat="43.0793290492" lon="-0.0929445773"><ele>722.09</ele><time>2015-04-06T12:07:46Z</time></trkpt><trkpt lat="43.0793070886" lon="-0.0929424819"><ele>722.09</ele><time>2015-04-06T12:07:56Z</time></trkpt><trkpt lat="43.0792295560" lon="-0.0929287355"><ele>722.09</ele><time>2015-04-06T12:08:00Z</time></trkpt><trkpt lat="43.0790500157" lon="-0.0929362793"><ele>723.05</ele><time>2015-04-06T12:08:10Z</time></trkpt><trkpt lat="43.0788527895" lon="-0.0929001532"><ele>724.01</ele><time>2015-04-06T12:08:21Z</time></trkpt><trkpt lat="43.0787714850" lon="-0.0929058529"><ele>724.49</ele><time>2015-04-06T12:08:29Z</time></trkpt><trkpt lat="43.0786972214" lon="-0.0929303281"><ele>724.49</ele><time>2015-04-06T12:08:31Z</time></trkpt><trkpt lat="43.0784552358" lon="-0.0930537935"><ele>726.89</ele><time>2015-04-06T12:08:40Z</time></trkpt><trkpt lat="43.0784359574" lon="-0.0931164064"><ele>727.37</ele><time>2015-04-06T12:08:44Z</time></trkpt><trkpt lat="43.0784149189" lon="-0.0931713916"><ele>726.89</ele><time>2015-04-06T12:08:47Z</time></trkpt><trkpt lat="43.0783971492" lon="-0.0931842159"><ele>727.37</ele><time>2015-04-06T12:08:48Z</time></trkpt><trkpt lat="43.0783914495" lon="-0.0932077691"><ele>727.37</ele><time>2015-04-06T12:08:49Z</time></trkpt><trkpt lat="43.0783421639" lon="-0.0932637602"><ele>727.86</ele><time>2015-04-06T12:08:52Z</time></trkpt><trkpt lat="43.0783117376" lon="-0.0933516864"><ele>729.78</ele><time>2015-04-06T12:09:03Z</time></trkpt><trkpt lat="43.0783050321" lon="-0.0933710486"><ele>729.78</ele><time>2015-04-06T12:09:04Z</time></trkpt><trkpt lat="43.0783194490" lon="-0.0934398640"><ele>730.74</ele><time>2015-04-06T12:09:07Z</time></trkpt><trkpt lat="43.0783094745" lon="-0.0935541932"><ele>731.22</ele><time>2015-04-06T12:09:21Z</time></trkpt><trkpt lat="43.0782845803" lon="-0.0936410297"><ele>732.66</ele><time>2015-04-06T12:09:38Z</time></trkpt><trkpt lat="43.0782916211" lon="-0.0936417002"><ele>733.14</ele><time>2015-04-06T12:09:50Z</time></trkpt><trkpt lat="43.0783077981" lon="-0.0936496630"><ele>732.66</ele><time>2015-04-06T12:10:04Z</time></trkpt><trkpt lat="43.0783112347" lon="-0.0936637446"><ele>733.14</ele><time>2015-04-06T12:10:26Z</time></trkpt><trkpt lat="43.0783131626" lon="-0.0936891418"><ele>733.14</ele><time>2015-04-06T12:10:42Z</time></trkpt><trkpt lat="43.0782879330" lon="-0.0937263574"><ele>733.14</ele><time>2015-04-06T12:10:53Z</time></trkpt><trkpt lat="43.0782555789" lon="-0.0937334821"><ele>733.62</ele><time>2015-04-06T12:11:11Z</time></trkpt><trkpt lat="43.0782375578" lon="-0.0937421154"><ele>733.14</ele><time>2015-04-06T12:11:40Z</time></trkpt><trkpt lat="43.0782458559" lon="-0.0937207416"><ele>731.22</ele><time>2015-04-06T12:12:07Z</time></trkpt><trkpt lat="43.0782432575" lon="-0.0937312189"><ele>732.18</ele><time>2015-04-06T12:12:19Z</time></trkpt><trkpt lat="43.0782408267" lon="-0.0937466417"><ele>733.14</ele><time>2015-04-06T12:12:33Z</time></trkpt><trkpt lat="43.0782469455" lon="-0.0937712006"><ele>733.14</ele><time>2015-04-06T12:13:02Z</time></trkpt><trkpt lat="43.0782459397" lon="-0.0937668420"><ele>733.14</ele><time>2015-04-06T12:13:30Z</time></trkpt><trkpt lat="43.0782403238" lon="-0.0937582925"><ele>732.66</ele><time>2015-04-06T12:13:47Z</time></trkpt><trkpt lat="43.0782420002" lon="-0.0937436242"><ele>732.66</ele><time>2015-04-06T12:14:13Z</time></trkpt><trkpt lat="43.0782458559" lon="-0.0937571190"><ele>732.66</ele><time>2015-04-06T12:14:26Z</time></trkpt><trkpt lat="43.0782621168" lon="-0.0937676802"><ele>732.18</ele><time>2015-04-06T12:14:37Z</time></trkpt><trkpt lat="43.0782757793" lon="-0.0937665906"><ele>732.66</ele><time>2015-04-06T12:14:52Z</time></trkpt><trkpt lat="43.0782539025" lon="-0.0937951729"><ele>733.14</ele><time>2015-04-06T12:15:00Z</time></trkpt><trkpt lat="43.0782722589" lon="-0.0938136131"><ele>733.62</ele><time>2015-04-06T12:15:03Z</time></trkpt><trkpt lat="43.0783561617" lon="-0.0938957557"><ele>736.03</ele><time>2015-04-06T12:15:15Z</time></trkpt><trkpt lat="43.0783999991" lon="-0.0939204823"><ele>737.47</ele><time>2015-04-06T12:15:21Z</time></trkpt><trkpt lat="43.0784238037" lon="-0.0939209852"><ele>737.95</ele><time>2015-04-06T12:15:24Z</time></trkpt><trkpt lat="43.0784835666" lon="-0.0939590391"><ele>739.39</ele><time>2015-04-06T12:15:31Z</time></trkpt><trkpt lat="43.0785083771" lon="-0.0939657446"><ele>739.87</ele><time>2015-04-06T12:15:33Z</time></trkpt><trkpt lat="43.0785491969" lon="-0.0939892139"><ele>740.35</ele><time>2015-04-06T12:15:38Z</time></trkpt><trkpt lat="43.0786087923" lon="-0.0940149464"><ele>741.79</ele><time>2015-04-06T12:15:44Z</time></trkpt><trkpt lat="43.0786998197" lon="-0.0941015314"><ele>743.72</ele><time>2015-04-06T12:15:53Z</time></trkpt><trkpt lat="43.0787911825" lon="-0.0941390824"><ele>745.16</ele><time>2015-04-06T12:16:04Z</time></trkpt><trkpt lat="43.0789092835" lon="-0.0941762980"><ele>747.08</ele><time>2015-04-06T12:16:18Z</time></trkpt><trkpt lat="43.0789670348" lon="-0.0942047127"><ele>747.56</ele><time>2015-04-06T12:16:30Z</time></trkpt><trkpt lat="43.0789891630" lon="-0.0942327082"><ele>748.04</ele><time>2015-04-06T12:16:54Z</time></trkpt><trkpt lat="43.0791724753" lon="-0.0943622086"><ele>750.93</ele><time>2015-04-06T12:17:07Z</time></trkpt><trkpt lat="43.0792800989" lon="-0.0944432616"><ele>752.37</ele><time>2015-04-06T12:17:15Z</time></trkpt><trkpt lat="43.0793049093" lon="-0.0944668986"><ele>752.85</ele><time>2015-04-06T12:17:18Z</time></trkpt><trkpt lat="43.0793140456" lon="-0.0944919605"><ele>753.33</ele><time>2015-04-06T12:17:20Z</time></trkpt><trkpt lat="43.0792428833" lon="-0.0945414137"><ele>753.81</ele><time>2015-04-06T12:17:26Z</time></trkpt><trkpt lat="43.0791868083" lon="-0.0945382286"><ele>754.29</ele><time>2015-04-06T12:17:32Z</time></trkpt><trkpt lat="43.0791099463" lon="-0.0945350435"><ele>755.25</ele><time>2015-04-06T12:17:38Z</time></trkpt><trkpt lat="43.0789116304" lon="-0.0945091434"><ele>757.18</ele><time>2015-04-06T12:17:53Z</time></trkpt><trkpt lat="43.0788378697" lon="-0.0945017673"><ele>758.14</ele><time>2015-04-06T12:17:59Z</time></trkpt><trkpt lat="43.0787761789" lon="-0.0944912899"><ele>759.10</ele><time>2015-04-06T12:18:04Z</time></trkpt><trkpt lat="43.0785385519" lon="-0.0945100654"><ele>760.54</ele><time>2015-04-06T12:18:21Z</time></trkpt><trkpt lat="43.0785151664" lon="-0.0945210457"><ele>761.02</ele><time>2015-04-06T12:18:23Z</time></trkpt><trkpt lat="43.0784271564" lon="-0.0945387315"><ele>761.98</ele><time>2015-04-06T12:18:30Z</time></trkpt><trkpt lat="43.0782659724" lon="-0.0945854187"><ele>762.94</ele><time>2015-04-06T12:18:42Z</time></trkpt><trkpt lat="43.0780691653" lon="-0.0946774520"><ele>764.87</ele><time>2015-04-06T12:18:56Z</time></trkpt><trkpt lat="43.0780436844" lon="-0.0946906116"><ele>764.87</ele><time>2015-04-06T12:18:58Z</time></trkpt><trkpt lat="43.0779688340" lon="-0.0947331917"><ele>765.35</ele><time>2015-04-06T12:19:04Z</time></trkpt><trkpt lat="43.0779462028" lon="-0.0947549846"><ele>766.31</ele><time>2015-04-06T12:19:06Z</time></trkpt><trkpt lat="43.0778621323" lon="-0.0948360376"><ele>765.83</ele><time>2015-04-06T12:19:13Z</time></trkpt><trkpt lat="43.0778208096" lon="-0.0948903523"><ele>766.31</ele><time>2015-04-06T12:19:17Z</time></trkpt><trkpt lat="43.0777227413" lon="-0.0950325094"><ele>767.75</ele><time>2015-04-06T12:19:27Z</time></trkpt><trkpt lat="43.0776959192" lon="-0.0950823817"><ele>767.75</ele><time>2015-04-06T12:19:30Z</time></trkpt><trkpt lat="43.0775601324" lon="-0.0953160692"><ele>768.23</ele><time>2015-04-06T12:19:42Z</time></trkpt><trkpt lat="43.0773955118" lon="-0.0955753215"><ele>769.67</ele><time>2015-04-06T12:19:56Z</time></trkpt><trkpt lat="43.0772938393" lon="-0.0956922490"><ele>770.63</ele><time>2015-04-06T12:20:04Z</time></trkpt><trkpt lat="43.0772242695" lon="-0.0957516767"><ele>771.11</ele><time>2015-04-06T12:20:09Z</time></trkpt><trkpt lat="43.0769807752" lon="-0.0958798360"><ele>771.60</ele><time>2015-04-06T12:20:24Z</time></trkpt><trkpt lat="43.0767127220" lon="-0.0960148685"><ele>769.67</ele><time>2015-04-06T12:20:35Z</time></trkpt><trkpt lat="43.0764655396" lon="-0.0961080752"><ele>769.67</ele><time>2015-04-06T12:20:45Z</time></trkpt><trkpt lat="43.0763823912" lon="-0.0961095002"><ele>769.67</ele><time>2015-04-06T12:20:47Z</time></trkpt><trkpt lat="43.0763408169" lon="-0.0961089134"><ele>769.67</ele><time>2015-04-06T12:20:48Z</time></trkpt><trkpt lat="43.0760187004" lon="-0.0961841829"><ele>767.75</ele><time>2015-04-06T12:20:59Z</time></trkpt><trkpt lat="43.0757783912" lon="-0.0963341352"><ele>765.35</ele><time>2015-04-06T12:21:08Z</time></trkpt><trkpt lat="43.0754338112" lon="-0.0966062956"><ele>762.46</ele><time>2015-04-06T12:21:21Z</time></trkpt><trkpt lat="43.0753656663" lon="-0.0966807269"><ele>761.50</ele><time>2015-04-06T12:21:31Z</time></trkpt><trkpt lat="43.0753652472" lon="-0.0966887735"><ele>761.50</ele><time>2015-04-06T12:22:02Z</time></trkpt><trkpt lat="43.0753570329" lon="-0.0966963172"><ele>761.50</ele><time>2015-04-06T12:22:03Z</time></trkpt><trkpt lat="43.0753428675" lon="-0.0967083871"><ele>761.50</ele><time>2015-04-06T12:22:04Z</time></trkpt><trkpt lat="43.0752971862" lon="-0.0967362151"><ele>761.02</ele><time>2015-04-06T12:22:06Z</time></trkpt><trkpt lat="43.0752650835" lon="-0.0967644621"><ele>761.02</ele><time>2015-04-06T12:22:07Z</time></trkpt><trkpt lat="43.0752227549" lon="-0.0967988279"><ele>761.02</ele><time>2015-04-06T12:22:08Z</time></trkpt><trkpt lat="43.0750848725" lon="-0.0969328545"><ele>757.66</ele><time>2015-04-06T12:22:12Z</time></trkpt><trkpt lat="43.0750488304" lon="-0.0969678909"><ele>757.66</ele><time>2015-04-06T12:22:13Z</time></trkpt><trkpt lat="43.0748345889" lon="-0.0971373729"><ele>753.81</ele><time>2015-04-06T12:22:18Z</time></trkpt><trkpt lat="43.0747814476" lon="-0.0971653685"><ele>753.81</ele><time>2015-04-06T12:22:19Z</time></trkpt><trkpt lat="43.0747245345" lon="-0.0971801206"><ele>753.33</ele><time>2015-04-06T12:22:20Z</time></trkpt><trkpt lat="43.0746683758" lon="-0.0971879158"><ele>752.37</ele><time>2015-04-06T12:22:21Z</time></trkpt><trkpt lat="43.0746110436" lon="-0.0971892569"><ele>751.89</ele><time>2015-04-06T12:22:22Z</time></trkpt><trkpt lat="43.0745443236" lon="-0.0971746724"><ele>750.45</ele><time>2015-04-06T12:22:23Z</time></trkpt><trkpt lat="43.0744769331" lon="-0.0971644465"><ele>750.45</ele><time>2015-04-06T12:22:24Z</time></trkpt><trkpt lat="43.0743572395" lon="-0.0971698109"><ele>748.52</ele><time>2015-04-06T12:22:26Z</time></trkpt><trkpt lat="43.0742996559" lon="-0.0971919391"><ele>748.52</ele><time>2015-04-06T12:22:27Z</time></trkpt><trkpt lat="43.0742422398" lon="-0.0972153246"><ele>747.08</ele><time>2015-04-06T12:22:28Z</time></trkpt><trkpt lat="43.0741793755" lon="-0.0972206052"><ele>746.12</ele><time>2015-04-06T12:22:29Z</time></trkpt><trkpt lat="43.0741110630" lon="-0.0972123910"><ele>746.12</ele><time>2015-04-06T12:22:30Z</time></trkpt><trkpt lat="43.0739809759" lon="-0.0971885864"><ele>744.20</ele><time>2015-04-06T12:22:32Z</time></trkpt><trkpt lat="43.0739212967" lon="-0.0971851498"><ele>743.24</ele><time>2015-04-06T12:22:33Z</time></trkpt><trkpt lat="43.0737410858" lon="-0.0971503649"><ele>740.35</ele><time>2015-04-06T12:22:36Z</time></trkpt><trkpt lat="43.0736751202" lon="-0.0971512869"><ele>738.91</ele><time>2015-04-06T12:22:37Z</time></trkpt><trkpt lat="43.0736063048" lon="-0.0971501134"><ele>738.43</ele><time>2015-04-06T12:22:38Z</time></trkpt><trkpt lat="43.0735330470" lon="-0.0971395522"><ele>737.95</ele><time>2015-04-06T12:22:39Z</time></trkpt><trkpt lat="43.0734654050" lon="-0.0971279014"><ele>736.03</ele><time>2015-04-06T12:22:40Z</time></trkpt><trkpt lat="43.0734212324" lon="-0.0971187651"><ele>734.10</ele><time>2015-04-06T12:22:43Z</time></trkpt><trkpt lat="43.0734220706" lon="-0.0970903505"><ele>733.62</ele><time>2015-04-06T12:22:57Z</time></trkpt><trkpt lat="43.0734203942" lon="-0.0970676355"><ele>734.10</ele><time>2015-04-06T12:23:21Z</time></trkpt><trkpt lat="43.0734125990" lon="-0.0970625225"><ele>734.58</ele><time>2015-04-06T12:23:22Z</time></trkpt><trkpt lat="43.0733908899" lon="-0.0970750954"><ele>733.14</ele><time>2015-04-06T12:23:31Z</time></trkpt><trkpt lat="43.0733611342" lon="-0.0970584992"><ele>733.14</ele><time>2015-04-06T12:23:51Z</time></trkpt><trkpt lat="43.0733020417" lon="-0.0970243849"><ele>732.66</ele><time>2015-04-06T12:23:59Z</time></trkpt><trkpt lat="43.0732915644" lon="-0.0970232114"><ele>732.18</ele><time>2015-04-06T12:24:00Z</time></trkpt><trkpt lat="43.0732782371" lon="-0.0970227923"><ele>732.18</ele><time>2015-04-06T12:24:01Z</time></trkpt><trkpt lat="43.0730945058" lon="-0.0969442539"><ele>731.22</ele><time>2015-04-06T12:24:08Z</time></trkpt><trkpt lat="43.0730447173" lon="-0.0969447568"><ele>731.22</ele><time>2015-04-06T12:24:09Z</time></trkpt><trkpt lat="43.0729423743" lon="-0.0969362911"><ele>730.74</ele><time>2015-04-06T12:24:11Z</time></trkpt><trkpt lat="43.0728822760" lon="-0.0969179347"><ele>730.74</ele><time>2015-04-06T12:24:12Z</time></trkpt><trkpt lat="43.0728313141" lon="-0.0969141629"><ele>730.26</ele><time>2015-04-06T12:24:13Z</time></trkpt><trkpt lat="43.0727702100" lon="-0.0969132408"><ele>730.26</ele><time>2015-04-06T12:24:14Z</time></trkpt><trkpt lat="43.0727126263" lon="-0.0968996622"><ele>730.26</ele><time>2015-04-06T12:24:15Z</time></trkpt><trkpt lat="43.0726550426" lon="-0.0968857482"><ele>729.78</ele><time>2015-04-06T12:24:16Z</time></trkpt><trkpt lat="43.0726109538" lon="-0.0968671404"><ele>729.78</ele><time>2015-04-06T12:24:17Z</time></trkpt><trkpt lat="43.0721187685" lon="-0.0966871809"><ele>729.30</ele><time>2015-04-06T12:24:28Z</time></trkpt><trkpt lat="43.0717386492" lon="-0.0967173558"><ele>729.78</ele><time>2015-04-06T12:24:39Z</time></trkpt><trkpt lat="43.0713741202" lon="-0.0966702495"><ele>729.78</ele><time>2015-04-06T12:24:51Z</time></trkpt><trkpt lat="43.0713488907" lon="-0.0966657232"><ele>728.82</ele><time>2015-04-06T12:24:52Z</time></trkpt><trkpt lat="43.0712832604" lon="-0.0966244843"><ele>728.82</ele><time>2015-04-06T12:24:56Z</time></trkpt><trkpt lat="43.0711521674" lon="-0.0965966564"><ele>728.34</ele><time>2015-04-06T12:25:08Z</time></trkpt><trkpt lat="43.0711759720" lon="-0.0965634640"><ele>728.34</ele><time>2015-04-06T12:25:33Z</time></trkpt><trkpt lat="43.0711620580" lon="-0.0965820719"><ele>727.86</ele><time>2015-04-06T12:25:34Z</time></trkpt><trkpt lat="43.0711648241" lon="-0.0965718459"><ele>728.82</ele><time>2015-04-06T12:25:43Z</time></trkpt><trkpt lat="43.0711161252" lon="-0.0965506397"><ele>728.82</ele><time>2015-04-06T12:25:59Z</time></trkpt><trkpt lat="43.0711092521" lon="-0.0965152681"><ele>728.82</ele><time>2015-04-06T12:26:05Z</time></trkpt><trkpt lat="43.0710962601" lon="-0.0964981690"><ele>728.82</ele><time>2015-04-06T12:26:06Z</time></trkpt><trkpt lat="43.0710851122" lon="-0.0964788068"><ele>728.82</ele><time>2015-04-06T12:26:07Z</time></trkpt><trkpt lat="43.0710723717" lon="-0.0964624621"><ele>728.82</ele><time>2015-04-06T12:26:08Z</time></trkpt><trkpt lat="43.0710581224" lon="-0.0964511465"><ele>728.34</ele><time>2015-04-06T12:26:09Z</time></trkpt><trkpt lat="43.0710162967" lon="-0.0964087341"><ele>728.34</ele><time>2015-04-06T12:26:12Z</time></trkpt><trkpt lat="43.0710073281" lon="-0.0963938981"><ele>728.82</ele><time>2015-04-06T12:26:13Z</time></trkpt><trkpt lat="43.0709956773" lon="-0.0963815767"><ele>728.34</ele><time>2015-04-06T12:26:14Z</time></trkpt><trkpt lat="43.0709820986" lon="-0.0963677466"><ele>727.86</ele><time>2015-04-06T12:26:15Z</time></trkpt><trkpt lat="43.0709712021" lon="-0.0963536650"><ele>728.34</ele><time>2015-04-06T12:26:16Z</time></trkpt><trkpt lat="43.0709604733" lon="-0.0963394996"><ele>727.86</ele><time>2015-04-06T12:26:17Z</time></trkpt><trkpt lat="43.0709494930" lon="-0.0963295251"><ele>727.37</ele><time>2015-04-06T12:26:18Z</time></trkpt><trkpt lat="43.0709267780" lon="-0.0963067263"><ele>727.86</ele><time>2015-04-06T12:26:20Z</time></trkpt><trkpt lat="43.0708887242" lon="-0.0962368213"><ele>727.37</ele><time>2015-04-06T12:26:30Z</time></trkpt><trkpt lat="43.0709048174" lon="-0.0962435268"><ele>727.86</ele><time>2015-04-06T12:26:33Z</time></trkpt><trkpt lat="43.0709178932" lon="-0.0962604582"><ele>727.86</ele><time>2015-04-06T12:26:35Z</time></trkpt><trkpt lat="43.0709266942" lon="-0.0962690078"><ele>727.86</ele><time>2015-04-06T12:26:36Z</time></trkpt><trkpt lat="43.0709308013" lon="-0.0962788984"><ele>727.86</ele><time>2015-04-06T12:26:37Z</time></trkpt><trkpt lat="43.0709354952" lon="-0.0962887891"><ele>728.34</ele><time>2015-04-06T12:26:38Z</time></trkpt><trkpt lat="43.0709401052" lon="-0.0962951593"><ele>728.34</ele><time>2015-04-06T12:26:39Z</time></trkpt><trkpt lat="43.0709445477" lon="-0.0963010266"><ele>728.34</ele><time>2015-04-06T12:26:40Z</time></trkpt><trkpt lat="43.0709520075" lon="-0.0963088218"><ele>727.86</ele><time>2015-04-06T12:26:41Z</time></trkpt><trkpt lat="43.0710204039" lon="-0.0964018609"><ele>728.82</ele><time>2015-04-06T12:26:51Z</time></trkpt><trkpt lat="43.0710423645" lon="-0.0964252464"><ele>728.82</ele><time>2015-04-06T12:26:55Z</time></trkpt><trkpt lat="43.0710389279" lon="-0.0964203849"><ele>728.82</ele><time>2015-04-06T12:26:56Z</time></trkpt><trkpt lat="43.0710274447" lon="-0.0964037888"><ele>728.82</ele><time>2015-04-06T12:26:58Z</time></trkpt><trkpt lat="43.0709859543" lon="-0.0963918027"><ele>728.82</ele><time>2015-04-06T12:27:01Z</time></trkpt><trkpt lat="43.0709070805" lon="-0.0962885376"><ele>728.34</ele><time>2015-04-06T12:27:08Z</time></trkpt><trkpt lat="43.0708967708" lon="-0.0962704327"><ele>728.34</ele><time>2015-04-06T12:27:09Z</time></trkpt><trkpt lat="43.0708859582" lon="-0.0962499809"><ele>727.86</ele><time>2015-04-06T12:27:10Z</time></trkpt><trkpt lat="43.0708681885" lon="-0.0962306187"><ele>728.34</ele><time>2015-04-06T12:27:11Z</time></trkpt><trkpt lat="43.0708466470" lon="-0.0962094124"><ele>728.34</ele><time>2015-04-06T12:27:12Z</time></trkpt><trkpt lat="43.0708247703" lon="-0.0961830094"><ele>727.86</ele><time>2015-04-06T12:27:13Z</time></trkpt><trkpt lat="43.0706989579" lon="-0.0959540997"><ele>727.37</ele><time>2015-04-06T12:27:20Z</time></trkpt><trkpt lat="43.0706660170" lon="-0.0959173031"><ele>727.86</ele><time>2015-04-06T12:27:21Z</time></trkpt><trkpt lat="43.0705956090" lon="-0.0958105177"><ele>728.82</ele><time>2015-04-06T12:27:23Z</time></trkpt><trkpt lat="43.0704977084" lon="-0.0956113636"><ele>726.89</ele><time>2015-04-06T12:27:26Z</time></trkpt><trkpt lat="43.0703286454" lon="-0.0952452421"><ele>725.45</ele><time>2015-04-06T12:27:31Z</time></trkpt><trkpt lat="43.0702569801" lon="-0.0951055158"><ele>723.05</ele><time>2015-04-06T12:27:33Z</time></trkpt><trkpt lat="43.0702123884" lon="-0.0950429868"><ele>722.57</ele><time>2015-04-06T12:27:34Z</time></trkpt><trkpt lat="43.0700809602" lon="-0.0948284939"><ele>721.13</ele><time>2015-04-06T12:27:37Z</time></trkpt><trkpt lat="43.0700495280" lon="-0.0947600137"><ele>721.61</ele><time>2015-04-06T12:27:38Z</time></trkpt><trkpt lat="43.0700190179" lon="-0.0947016757"><ele>721.13</ele><time>2015-04-06T12:27:39Z</time></trkpt><trkpt lat="43.0698677246" lon="-0.0944389869"><ele>721.13</ele><time>2015-04-06T12:27:44Z</time></trkpt><trkpt lat="43.0698404834" lon="-0.0943914615"><ele>721.13</ele><time>2015-04-06T12:27:45Z</time></trkpt><trkpt lat="43.0698203668" lon="-0.0943538267"><ele>720.65</ele><time>2015-04-06T12:27:46Z</time></trkpt><trkpt lat="43.0698042735" lon="-0.0943255797"><ele>720.65</ele><time>2015-04-06T12:27:47Z</time></trkpt><trkpt lat="43.0697789602" lon="-0.0942995120"><ele>721.13</ele><time>2015-04-06T12:27:48Z</time></trkpt><trkpt lat="43.0697526410" lon="-0.0942752045"><ele>721.13</ele><time>2015-04-06T12:27:49Z</time></trkpt><trkpt lat="43.0696856696" lon="-0.0942029525"><ele>720.65</ele><time>2015-04-06T12:27:53Z</time></trkpt><trkpt lat="43.0696682353" lon="-0.0941942353"><ele>720.65</ele><time>2015-04-06T12:27:54Z</time></trkpt><trkpt lat="43.0696175247" lon="-0.0941585284"><ele>720.16</ele><time>2015-04-06T12:27:57Z</time></trkpt><trkpt lat="43.0696062930" lon="-0.0941457879"><ele>720.16</ele><time>2015-04-06T12:27:58Z</time></trkpt><trkpt lat="43.0695743579" lon="-0.0940720271"><ele>720.65</ele><time>2015-04-06T12:28:06Z</time></trkpt><trkpt lat="43.0695233122" lon="-0.0940487254"><ele>721.13</ele><time>2015-04-06T12:28:16Z</time></trkpt><trkpt lat="43.0695113260" lon="-0.0940475520"><ele>721.13</ele><time>2015-04-06T12:28:18Z</time></trkpt><trkpt lat="43.0695017707" lon="-0.0940492284"><ele>721.13</ele><time>2015-04-06T12:28:19Z</time></trkpt><trkpt lat="43.0694813188" lon="-0.0940519106"><ele>721.13</ele><time>2015-04-06T12:28:21Z</time></trkpt><trkpt lat="43.0692608748" lon="-0.0939452089"><ele>721.61</ele><time>2015-04-06T12:28:32Z</time></trkpt><trkpt lat="43.0690209009" lon="-0.0939229131"><ele>723.05</ele><time>2015-04-06T12:28:40Z</time></trkpt><trkpt lat="43.0686987843" lon="-0.0938886311"><ele>723.53</ele><time>2015-04-06T12:28:50Z</time></trkpt><trkpt lat="43.0684903264" lon="-0.0938763097"><ele>724.49</ele><time>2015-04-06T12:29:00Z</time></trkpt><trkpt lat="43.0684780050" lon="-0.0938637368"><ele>724.01</ele><time>2015-04-06T12:29:01Z</time></trkpt><trkpt lat="43.0684352573" lon="-0.0937743858"><ele>724.49</ele><time>2015-04-06T12:29:09Z</time></trkpt><trkpt lat="43.0684291385" lon="-0.0937629864"><ele>724.01</ele><time>2015-04-06T12:29:32Z</time></trkpt><trkpt lat="43.0684306473" lon="-0.0937535148"><ele>724.49</ele><time>2015-04-06T12:29:55Z</time></trkpt><trkpt lat="43.0684738979" lon="-0.0937428698"><ele>724.97</ele><time>2015-04-06T12:29:57Z</time></trkpt><trkpt lat="43.0689160433" lon="-0.0937119406"><ele>726.89</ele><time>2015-04-06T12:30:10Z</time></trkpt><trkpt lat="43.0690930691" lon="-0.0934441388"><ele>729.30</ele><time>2015-04-06T12:30:20Z</time></trkpt><trkpt lat="43.0689760577" lon="-0.0932232756"><ele>730.74</ele><time>2015-04-06T12:30:27Z</time></trkpt><trkpt lat="43.0688768160" lon="-0.0927374605"><ele>731.22</ele><time>2015-04-06T12:30:40Z</time></trkpt><trkpt lat="43.0688536819" lon="-0.0925231352"><ele>731.22</ele><time>2015-04-06T12:30:44Z</time></trkpt><trkpt lat="43.0688956752" lon="-0.0918528344"><ele>730.74</ele><time>2015-04-06T12:30:58Z</time></trkpt><trkpt lat="43.0691939034" lon="-0.0916232541"><ele>732.18</ele><time>2015-04-06T12:31:09Z</time></trkpt><trkpt lat="43.0692787282" lon="-0.0913951825"><ele>732.66</ele><time>2015-04-06T12:31:17Z</time></trkpt><trkpt lat="43.0691971723" lon="-0.0910480879"><ele>731.70</ele><time>2015-04-06T12:31:31Z</time></trkpt><trkpt lat="43.0692106672" lon="-0.0910485908"><ele>731.22</ele><time>2015-04-06T12:31:46Z</time></trkpt><trkpt lat="43.0692142714" lon="-0.0910401251"><ele>731.22</ele><time>2015-04-06T12:32:06Z</time></trkpt><trkpt lat="43.0692208931" lon="-0.0910355151"><ele>731.22</ele><time>2015-04-06T12:32:35Z</time></trkpt><trkpt lat="43.0692124274" lon="-0.0910290610"><ele>731.22</ele><time>2015-04-06T12:32:48Z</time></trkpt><trkpt lat="43.0692153610" lon="-0.0909969583"><ele>731.22</ele><time>2015-04-06T12:32:50Z</time></trkpt><trkpt lat="43.0691592861" lon="-0.0908125564"><ele>730.74</ele><time>2015-04-06T12:32:57Z</time></trkpt><trkpt lat="43.0688982736" lon="-0.0903291721"><ele>730.74</ele><time>2015-04-06T12:33:11Z</time></trkpt><trkpt lat="43.0686546955" lon="-0.0899494719"><ele>731.70</ele><time>2015-04-06T12:33:22Z</time></trkpt><trkpt lat="43.0684469081" lon="-0.0895322207"><ele>730.74</ele><time>2015-04-06T12:33:32Z</time></trkpt><trkpt lat="43.0683521926" lon="-0.0893453881"><ele>730.26</ele><time>2015-04-06T12:33:36Z</time></trkpt><trkpt lat="43.0683019012" lon="-0.0891935080"><ele>729.78</ele><time>2015-04-06T12:33:38Z</time></trkpt><trkpt lat="43.0682805274" lon="-0.0891191605"><ele>729.30</ele><time>2015-04-06T12:33:39Z</time></trkpt><trkpt lat="43.0680940300" lon="-0.0886066910"><ele>727.86</ele><time>2015-04-06T12:33:47Z</time></trkpt><trkpt lat="43.0680156592" lon="-0.0883300044"><ele>725.45</ele><time>2015-04-06T12:33:55Z</time></trkpt><trkpt lat="43.0680230353" lon="-0.0882856641"><ele>725.45</ele><time>2015-04-06T12:33:56Z</time></trkpt><trkpt lat="43.0680283159" lon="-0.0882399827"><ele>724.97</ele><time>2015-04-06T12:33:57Z</time></trkpt><trkpt lat="43.0680261366" lon="-0.0881900266"><ele>724.49</ele><time>2015-04-06T12:33:58Z</time></trkpt><trkpt lat="43.0680233706" lon="-0.0881311856"><ele>724.01</ele><time>2015-04-06T12:33:59Z</time></trkpt><trkpt lat="43.0680164136" lon="-0.0878412556"><ele>721.61</ele><time>2015-04-06T12:34:03Z</time></trkpt><trkpt lat="43.0680146534" lon="-0.0877686683"><ele>721.13</ele><time>2015-04-06T12:34:04Z</time></trkpt><trkpt lat="43.0680064391" lon="-0.0875545107"><ele>719.68</ele><time>2015-04-06T12:34:07Z</time></trkpt><trkpt lat="43.0680040922" lon="-0.0874803308"><ele>719.68</ele><time>2015-04-06T12:34:08Z</time></trkpt><trkpt lat="43.0679938663" lon="-0.0874016248"><ele>719.20</ele><time>2015-04-06T12:34:09Z</time></trkpt><trkpt lat="43.0679731630" lon="-0.0872472301"><ele>718.24</ele><time>2015-04-06T12:34:11Z</time></trkpt><trkpt lat="43.0679892562" lon="-0.0866922643"><ele>714.88</ele><time>2015-04-06T12:34:19Z</time></trkpt><trkpt lat="43.0679861549" lon="-0.0865439884"><ele>713.92</ele><time>2015-04-06T12:34:21Z</time></trkpt><trkpt lat="43.0679707322" lon="-0.0864014961"><ele>712.95</ele><time>2015-04-06T12:34:23Z</time></trkpt><trkpt lat="43.0679398868" lon="-0.0862731691"><ele>711.99</ele><time>2015-04-06T12:34:25Z</time></trkpt><trkpt lat="43.0679002404" lon="-0.0860918686"><ele>710.07</ele><time>2015-04-06T12:34:28Z</time></trkpt><trkpt lat="43.0678811297" lon="-0.0860309321"><ele>709.59</ele><time>2015-04-06T12:34:29Z</time></trkpt><trkpt lat="43.0678564869" lon="-0.0859710015"><ele>709.11</ele><time>2015-04-06T12:34:30Z</time></trkpt><trkpt lat="43.0678308383" lon="-0.0859158486"><ele>708.15</ele><time>2015-04-06T12:34:31Z</time></trkpt><trkpt lat="43.0678122304" lon="-0.0858611148"><ele>707.67</ele><time>2015-04-06T12:34:32Z</time></trkpt><trkpt lat="43.0677994061" lon="-0.0858110748"><ele>707.67</ele><time>2015-04-06T12:34:33Z</time></trkpt><trkpt lat="43.0677908566" lon="-0.0856725220"><ele>705.75</ele><time>2015-04-06T12:34:36Z</time></trkpt><trkpt lat="43.0677973107" lon="-0.0855316222"><ele>704.30</ele><time>2015-04-06T12:34:39Z</time></trkpt><trkpt lat="43.0677937903" lon="-0.0854986813"><ele>703.34</ele><time>2015-04-06T12:34:40Z</time></trkpt><trkpt lat="43.0677957181" lon="-0.0854614656"><ele>703.34</ele><time>2015-04-06T12:34:41Z</time></trkpt><trkpt lat="43.0677971430" lon="-0.0854260102"><ele>703.82</ele><time>2015-04-06T12:34:42Z</time></trkpt><trkpt lat="43.0678036809" lon="-0.0853856932"><ele>702.86</ele><time>2015-04-06T12:34:43Z</time></trkpt><trkpt lat="43.0678090453" lon="-0.0853612181"><ele>703.34</ele><time>2015-04-06T12:34:44Z</time></trkpt><trkpt lat="43.0678172596" lon="-0.0853457116"><ele>703.34</ele><time>2015-04-06T12:34:45Z</time></trkpt><trkpt lat="43.0678304192" lon="-0.0853362400"><ele>703.34</ele><time>2015-04-06T12:34:46Z</time></trkpt><trkpt lat="43.0678501166" lon="-0.0853225775"><ele>702.86</ele><time>2015-04-06T12:34:47Z</time></trkpt><trkpt lat="43.0678683892" lon="-0.0853042211"><ele>702.38</ele><time>2015-04-06T12:34:48Z</time></trkpt><trkpt lat="43.0678919423" lon="-0.0852773152"><ele>702.38</ele><time>2015-04-06T12:34:49Z</time></trkpt><trkpt lat="43.0679053534" lon="-0.0852545165"><ele>701.90</ele><time>2015-04-06T12:34:50Z</time></trkpt><trkpt lat="43.0679181777" lon="-0.0852254312"><ele>701.90</ele><time>2015-04-06T12:34:51Z</time></trkpt><trkpt lat="43.0679344386" lon="-0.0851857010"><ele>700.94</ele><time>2015-04-06T12:34:52Z</time></trkpt><trkpt lat="43.0679490231" lon="-0.0851447135"><ele>700.46</ele><time>2015-04-06T12:34:53Z</time></trkpt><trkpt lat="43.0679634400" lon="-0.0851088390"><ele>699.50</ele><time>2015-04-06T12:34:54Z</time></trkpt><trkpt lat="43.0679807067" lon="-0.0850728806"><ele>699.50</ele><time>2015-04-06T12:34:55Z</time></trkpt><trkpt lat="43.0679949559" lon="-0.0850410294"><ele>699.02</ele><time>2015-04-06T12:34:56Z</time></trkpt><trkpt lat="43.0680622626" lon="-0.0848759059"><ele>699.02</ele><time>2015-04-06T12:35:08Z</time></trkpt><trkpt lat="43.0680610891" lon="-0.0848124549"><ele>699.02</ele><time>2015-04-06T12:35:20Z</time></trkpt><trkpt lat="43.0680700578" lon="-0.0847869739"><ele>698.53</ele><time>2015-04-06T12:35:21Z</time></trkpt><trkpt lat="43.0680796131" lon="-0.0847504288"><ele>698.53</ele><time>2015-04-06T12:35:22Z</time></trkpt><trkpt lat="43.0680889171" lon="-0.0847019814"><ele>698.53</ele><time>2015-04-06T12:35:23Z</time></trkpt><trkpt lat="43.0681125540" lon="-0.0846205093"><ele>697.09</ele><time>2015-04-06T12:35:25Z</time></trkpt><trkpt lat="43.0681319162" lon="-0.0845001452"><ele>696.61</ele><time>2015-04-06T12:35:30Z</time></trkpt><trkpt lat="43.0681195948" lon="-0.0844636839"><ele>696.61</ele><time>2015-04-06T12:35:33Z</time></trkpt><trkpt lat="43.0681257974" lon="-0.0843338482"><ele>695.65</ele><time>2015-04-06T12:35:36Z</time></trkpt><trkpt lat="43.0681530386" lon="-0.0841062795"><ele>692.77</ele><time>2015-04-06T12:35:40Z</time></trkpt><trkpt lat="43.0681605823" lon="-0.0840464327"><ele>691.81</ele><time>2015-04-06T12:35:41Z</time></trkpt><trkpt lat="43.0682561360" lon="-0.0837037805"><ele>688.92</ele><time>2015-04-06T12:35:48Z</time></trkpt><trkpt lat="43.0683540367" lon="-0.0834431034"><ele>685.56</ele><time>2015-04-06T12:35:53Z</time></trkpt><trkpt lat="43.0684689526" lon="-0.0831259321"><ele>683.15</ele><time>2015-04-06T12:36:02Z</time></trkpt><trkpt lat="43.0684712995" lon="-0.0830800831"><ele>682.19</ele><time>2015-04-06T12:36:03Z</time></trkpt><trkpt lat="43.0685167294" lon="-0.0829912350"><ele>681.71</ele><time>2015-04-06T12:36:04Z</time></trkpt><trkpt lat="43.0685635842" lon="-0.0828665961"><ele>680.27</ele><time>2015-04-06T12:36:06Z</time></trkpt><trkpt lat="43.0686282925" lon="-0.0826977007"><ele>678.35</ele><time>2015-04-06T12:36:08Z</time></trkpt><trkpt lat="43.0686453078" lon="-0.0826231018"><ele>677.39</ele><time>2015-04-06T12:36:09Z</time></trkpt><trkpt lat="43.0686606467" lon="-0.0825495925"><ele>676.42</ele><time>2015-04-06T12:36:10Z</time></trkpt><trkpt lat="43.0686746445" lon="-0.0824832916"><ele>675.94</ele><time>2015-04-06T12:36:11Z</time></trkpt><trkpt lat="43.0686939228" lon="-0.0824221037"><ele>674.50</ele><time>2015-04-06T12:36:12Z</time></trkpt><trkpt lat="43.0687282048" lon="-0.0822156575"><ele>671.62</ele><time>2015-04-06T12:36:16Z</time></trkpt><trkpt lat="43.0687355809" lon="-0.0820188504"><ele>667.77</ele><time>2015-04-06T12:36:21Z</time></trkpt><trkpt lat="43.0687355809" lon="-0.0819809642"><ele>667.77</ele><time>2015-04-06T12:36:22Z</time></trkpt><trkpt lat="43.0687307194" lon="-0.0818338618"><ele>664.89</ele><time>2015-04-06T12:36:26Z</time></trkpt><trkpt lat="43.0687098484" lon="-0.0817755237"><ele>663.93</ele><time>2015-04-06T12:36:41Z</time></trkpt><trkpt lat="43.0687000416" lon="-0.0817760266"><ele>663.45</ele><time>2015-04-06T12:36:55Z</time></trkpt><trkpt lat="43.0686939228" lon="-0.0817414932"><ele>663.45</ele><time>2015-04-06T12:37:05Z</time></trkpt><trkpt lat="43.0686930846" lon="-0.0817179400"><ele>662.49</ele><time>2015-04-06T12:37:13Z</time></trkpt><trkpt lat="43.0686973594" lon="-0.0817004219"><ele>662.49</ele><time>2015-04-06T12:37:14Z</time></trkpt><trkpt lat="43.0686988682" lon="-0.0816866755"><ele>662.49</ele><time>2015-04-06T12:37:15Z</time></trkpt><trkpt lat="43.0687214993" lon="-0.0814669859"><ele>659.12</ele><time>2015-04-06T12:37:20Z</time></trkpt><trkpt lat="43.0687204096" lon="-0.0814140122"><ele>658.16</ele><time>2015-04-06T12:37:21Z</time></trkpt><trkpt lat="43.0687173922" lon="-0.0813594460"><ele>657.20</ele><time>2015-04-06T12:37:22Z</time></trkpt><trkpt lat="43.0687024724" lon="-0.0812060572"><ele>654.80</ele><time>2015-04-06T12:37:25Z</time></trkpt><trkpt lat="43.0686792545" lon="-0.0811577775"><ele>654.31</ele><time>2015-04-06T12:37:26Z</time></trkpt><trkpt lat="43.0686520133" lon="-0.0811082404"><ele>653.83</ele><time>2015-04-06T12:37:27Z</time></trkpt><trkpt lat="43.0686230119" lon="-0.0810630620"><ele>653.35</ele><time>2015-04-06T12:37:28Z</time></trkpt><trkpt lat="43.0686049070" lon="-0.0810262654"><ele>651.91</ele><time>2015-04-06T12:37:29Z</time></trkpt><trkpt lat="43.0685788393" lon="-0.0809913129"><ele>651.91</ele><time>2015-04-06T12:37:30Z</time></trkpt><trkpt lat="43.0685593095" lon="-0.0809566118"><ele>650.95</ele><time>2015-04-06T12:37:31Z</time></trkpt><trkpt lat="43.0685222615" lon="-0.0809262693"><ele>650.95</ele><time>2015-04-06T12:37:32Z</time></trkpt><trkpt lat="43.0684842914" lon="-0.0808977708"><ele>650.47</ele><time>2015-04-06T12:37:33Z</time></trkpt><trkpt lat="43.0684510153" lon="-0.0808680989"><ele>650.47</ele><time>2015-04-06T12:37:34Z</time></trkpt><trkpt lat="43.0684220139" lon="-0.0808375888"><ele>649.99</ele><time>2015-04-06T12:37:35Z</time></trkpt><trkpt lat="43.0683950242" lon="-0.0808095094"><ele>649.51</ele><time>2015-04-06T12:37:36Z</time></trkpt><trkpt lat="43.0683754943" lon="-0.0807844475"><ele>649.99</ele><time>2015-04-06T12:37:37Z</time></trkpt><trkpt lat="43.0683203414" lon="-0.0806930847"><ele>648.07</ele><time>2015-04-06T12:37:41Z</time></trkpt><trkpt lat="43.0682868138" lon="-0.0806560367"><ele>647.59</ele><time>2015-04-06T12:37:44Z</time></trkpt><trkpt lat="43.0682696309" lon="-0.0806459785"><ele>647.59</ele><time>2015-04-06T12:37:45Z</time></trkpt><trkpt lat="43.0682527833" lon="-0.0806291308"><ele>647.10</ele><time>2015-04-06T12:37:46Z</time></trkpt><trkpt lat="43.0681887455" lon="-0.0805656798"><ele>646.62</ele><time>2015-04-06T12:37:50Z</time></trkpt><trkpt lat="43.0680593289" lon="-0.0804023165"><ele>643.74</ele><time>2015-04-06T12:38:01Z</time></trkpt><trkpt lat="43.0680220295" lon="-0.0803632569"><ele>642.78</ele><time>2015-04-06T12:38:03Z</time></trkpt><trkpt lat="43.0679616798" lon="-0.0802616682"><ele>641.82</ele><time>2015-04-06T12:38:07Z</time></trkpt><trkpt lat="43.0679468438" lon="-0.0799268950"><ele>638.93</ele><time>2015-04-06T12:38:16Z</time></trkpt><trkpt lat="43.0679837242" lon="-0.0795174390"><ele>635.09</ele><time>2015-04-06T12:38:24Z</time></trkpt><trkpt lat="43.0679287389" lon="-0.0792233180"><ele>635.09</ele><time>2015-04-06T12:38:30Z</time></trkpt><trkpt lat="43.0679168366" lon="-0.0791714340"><ele>634.61</ele><time>2015-04-06T12:38:31Z</time></trkpt><trkpt lat="43.0679128971" lon="-0.0791229028"><ele>634.13</ele><time>2015-04-06T12:38:32Z</time></trkpt><trkpt lat="43.0679071974" lon="-0.0790819153"><ele>634.13</ele><time>2015-04-06T12:38:33Z</time></trkpt><trkpt lat="43.0678958818" lon="-0.0790509023"><ele>634.13</ele><time>2015-04-06T12:38:34Z</time></trkpt><trkpt lat="43.0678964686" lon="-0.0790177099"><ele>634.13</ele><time>2015-04-06T12:38:35Z</time></trkpt><trkpt lat="43.0679051019" lon="-0.0789609645"><ele>633.17</ele><time>2015-04-06T12:38:36Z</time></trkpt><trkpt lat="43.0679071136" lon="-0.0789091643"><ele>632.68</ele><time>2015-04-06T12:38:37Z</time></trkpt><trkpt lat="43.0678998213" lon="-0.0788770616"><ele>632.20</ele><time>2015-04-06T12:38:38Z</time></trkpt><trkpt lat="43.0678937864" lon="-0.0788550172"><ele>631.72</ele><time>2015-04-06T12:38:39Z</time></trkpt><trkpt lat="43.0678964686" lon="-0.0788341463"><ele>631.72</ele><time>2015-04-06T12:38:40Z</time></trkpt><trkpt lat="43.0679035094" lon="-0.0787869561"><ele>631.72</ele><time>2015-04-06T12:38:55Z</time></trkpt><trkpt lat="43.0678814650" lon="-0.0787831843"><ele>632.20</ele><time>2015-04-06T12:39:17Z</time></trkpt><trkpt lat="43.0678684730" lon="-0.0787717849"><ele>632.20</ele><time>2015-04-06T12:39:34Z</time></trkpt><trkpt lat="43.0678334367" lon="-0.0787738804"><ele>632.68</ele><time>2015-04-06T12:39:53Z</time></trkpt><trkpt lat="43.0677236337" lon="-0.0787376706"><ele>633.17</ele><time>2015-04-06T12:40:20Z</time></trkpt><trkpt lat="43.0677170120" lon="-0.0787354913"><ele>632.68</ele><time>2015-04-06T12:40:39Z</time></trkpt><trkpt lat="43.0677114800" lon="-0.0787212420"><ele>633.17</ele><time>2015-04-06T12:41:08Z</time></trkpt><trkpt lat="43.0677041039" lon="-0.0787263550"><ele>633.65</ele><time>2015-04-06T12:41:34Z</time></trkpt><trkpt lat="43.0676991586" lon="-0.0787341502"><ele>633.65</ele><time>2015-04-06T12:42:04Z</time></trkpt><trkpt lat="43.0676852446" lon="-0.0787304621"><ele>633.17</ele><time>2015-04-06T12:42:35Z</time></trkpt><trkpt lat="43.0676779523" lon="-0.0787244271"><ele>634.13</ele><time>2015-04-06T12:42:46Z</time></trkpt><trkpt lat="43.0676605180" lon="-0.0786790811"><ele>633.65</ele><time>2015-04-06T12:42:49Z</time></trkpt><trkpt lat="43.0676700734" lon="-0.0786507502"><ele>633.17</ele><time>2015-04-06T12:42:50Z</time></trkpt><trkpt lat="43.0676860828" lon="-0.0786152110"><ele>633.65</ele><time>2015-04-06T12:42:51Z</time></trkpt><trkpt lat="43.0677068699" lon="-0.0785769895"><ele>633.17</ele><time>2015-04-06T12:42:52Z</time></trkpt><trkpt lat="43.0677305069" lon="-0.0785355829"><ele>632.68</ele><time>2015-04-06T12:42:53Z</time></trkpt><trkpt lat="43.0677467678" lon="-0.0784933381"><ele>632.68</ele><time>2015-04-06T12:42:54Z</time></trkpt><trkpt lat="43.0677586701" lon="-0.0784504227"><ele>632.20</ele><time>2015-04-06T12:42:55Z</time></trkpt><trkpt lat="43.0677702371" lon="-0.0784091000"><ele>632.20</ele><time>2015-04-06T12:42:56Z</time></trkpt><trkpt lat="43.0677803792" lon="-0.0783734769"><ele>630.76</ele><time>2015-04-06T12:42:57Z</time></trkpt><trkpt lat="43.0677877553" lon="-0.0783427153"><ele>630.28</ele><time>2015-04-06T12:42:58Z</time></trkpt><trkpt lat="43.0677944608" lon="-0.0783154741"><ele>630.28</ele><time>2015-04-06T12:42:59Z</time></trkpt><trkpt lat="43.0678040162" lon="-0.0782902446"><ele>630.28</ele><time>2015-04-06T12:43:00Z</time></trkpt><trkpt lat="43.0678175110" lon="-0.0782645959"><ele>629.32</ele><time>2015-04-06T12:43:01Z</time></trkpt><trkpt lat="43.0678347778" lon="-0.0782376900"><ele>629.32</ele><time>2015-04-06T12:43:02Z</time></trkpt><trkpt lat="43.0679964647" lon="-0.0778662041"><ele>626.44</ele><time>2015-04-06T12:43:12Z</time></trkpt><trkpt lat="43.0681151524" lon="-0.0776216201"><ele>623.07</ele><time>2015-04-06T12:43:18Z</time></trkpt><trkpt lat="43.0681376997" lon="-0.0775725860"><ele>622.11</ele><time>2015-04-06T12:43:19Z</time></trkpt><trkpt lat="43.0681642704" lon="-0.0775196124"><ele>621.63</ele><time>2015-04-06T12:43:20Z</time></trkpt><trkpt lat="43.0681865662" lon="-0.0774668064"><ele>620.67</ele><time>2015-04-06T12:43:21Z</time></trkpt><trkpt lat="43.0682046711" lon="-0.0774134975"><ele>619.23</ele><time>2015-04-06T12:43:22Z</time></trkpt><trkpt lat="43.0682188366" lon="-0.0773606077"><ele>618.26</ele><time>2015-04-06T12:43:23Z</time></trkpt><trkpt lat="43.0682324152" lon="-0.0773060415"><ele>617.78</ele><time>2015-04-06T12:43:24Z</time></trkpt><trkpt lat="43.0682496820" lon="-0.0772412494"><ele>617.30</ele><time>2015-04-06T12:43:25Z</time></trkpt><trkpt lat="43.0682718102" lon="-0.0771657284"><ele>616.82</ele><time>2015-04-06T12:43:26Z</time></trkpt><trkpt lat="43.0683122948" lon="-0.0770139322"><ele>616.34</ele><time>2015-04-06T12:43:28Z</time></trkpt><trkpt lat="43.0683378596" lon="-0.0769597851"><ele>617.30</ele><time>2015-04-06T12:43:29Z</time></trkpt><trkpt lat="43.0683347583" lon="-0.0768463779"><ele>618.75</ele><time>2015-04-06T12:43:33Z</time></trkpt><trkpt lat="43.0683240294" lon="-0.0768250041"><ele>618.75</ele><time>2015-04-06T12:43:34Z</time></trkpt><trkpt lat="43.0683208443" lon="-0.0767993554"><ele>619.71</ele><time>2015-04-06T12:43:35Z</time></trkpt><trkpt lat="43.0683198385" lon="-0.0767758023"><ele>619.71</ele><time>2015-04-06T12:43:36Z</time></trkpt><trkpt lat="43.0683130492" lon="-0.0767525006"><ele>620.19</ele><time>2015-04-06T12:43:37Z</time></trkpt><trkpt lat="43.0683070980" lon="-0.0767298695"><ele>620.19</ele><time>2015-04-06T12:43:38Z</time></trkpt><trkpt lat="43.0683082715" lon="-0.0767084118"><ele>620.67</ele><time>2015-04-06T12:43:39Z</time></trkpt><trkpt lat="43.0683136359" lon="-0.0766848586"><ele>621.15</ele><time>2015-04-06T12:43:40Z</time></trkpt><trkpt lat="43.0682839639" lon="-0.0764839444"><ele>622.11</ele><time>2015-04-06T12:43:48Z</time></trkpt><trkpt lat="43.0682716426" lon="-0.0764575414"><ele>623.07</ele><time>2015-04-06T12:43:49Z</time></trkpt><trkpt lat="43.0682572257" lon="-0.0764375925"><ele>623.07</ele><time>2015-04-06T12:43:50Z</time></trkpt><trkpt lat="43.0682294816" lon="-0.0763765723"><ele>623.55</ele><time>2015-04-06T12:43:53Z</time></trkpt><trkpt lat="43.0682224408" lon="-0.0763512589"><ele>624.03</ele><time>2015-04-06T12:43:54Z</time></trkpt><trkpt lat="43.0682081077" lon="-0.0763318967"><ele>624.51</ele><time>2015-04-06T12:43:55Z</time></trkpt><trkpt lat="43.0680921022" lon="-0.0761622470"><ele>627.40</ele><time>2015-04-06T12:44:05Z</time></trkpt><trkpt lat="43.0680067744" lon="-0.0760759134"><ele>628.84</ele><time>2015-04-06T12:44:12Z</time></trkpt><trkpt lat="43.0679418985" lon="-0.0761070102"><ele>630.28</ele><time>2015-04-06T12:44:18Z</time></trkpt><trkpt lat="43.0677730031" lon="-0.0762009714"><ele>631.72</ele><time>2015-04-06T12:44:30Z</time></trkpt><trkpt lat="43.0676792935" lon="-0.0762666855"><ele>632.68</ele><time>2015-04-06T12:44:37Z</time></trkpt><trkpt lat="43.0676667206" lon="-0.0762790069"><ele>632.68</ele><time>2015-04-06T12:44:38Z</time></trkpt><trkpt lat="43.0676251464" lon="-0.0763171446"><ele>633.17</ele><time>2015-04-06T12:44:42Z</time></trkpt><trkpt lat="43.0675414950" lon="-0.0763481576"><ele>634.13</ele><time>2015-04-06T12:44:49Z</time></trkpt><trkpt lat="43.0674912874" lon="-0.0763718784"><ele>635.09</ele><time>2015-04-06T12:44:53Z</time></trkpt><trkpt lat="43.0673768744" lon="-0.0764402747"><ele>636.53</ele><time>2015-04-06T12:45:04Z</time></trkpt><trkpt lat="43.0673637148" lon="-0.0764369220"><ele>637.01</ele><time>2015-04-06T12:45:06Z</time></trkpt><trkpt lat="43.0672863498" lon="-0.0764084235"><ele>638.45</ele><time>2015-04-06T12:45:14Z</time></trkpt><trkpt lat="43.0672196299" lon="-0.0763748959"><ele>638.93</ele><time>2015-04-06T12:45:20Z</time></trkpt><trkpt lat="43.0671800673" lon="-0.0763717107"><ele>639.41</ele><time>2015-04-06T12:45:24Z</time></trkpt><trkpt lat="43.0671105813" lon="-0.0763755664"><ele>640.38</ele><time>2015-04-06T12:45:32Z</time></trkpt><trkpt lat="43.0669610482" lon="-0.0763110258"><ele>641.82</ele><time>2015-04-06T12:45:43Z</time></trkpt><trkpt lat="43.0668460485" lon="-0.0762119517"><ele>643.26</ele><time>2015-04-06T12:45:52Z</time></trkpt><trkpt lat="43.0667355750" lon="-0.0761289708"><ele>645.18</ele><time>2015-04-06T12:46:02Z</time></trkpt><trkpt lat="43.0667139497" lon="-0.0761228520"><ele>646.14</ele><time>2015-04-06T12:46:04Z</time></trkpt><trkpt lat="43.0666997004" lon="-0.0761174038"><ele>645.66</ele><time>2015-04-06T12:46:05Z</time></trkpt><trkpt lat="43.0666645803" lon="-0.0760900788"><ele>646.14</ele><time>2015-04-06T12:46:08Z</time></trkpt><trkpt lat="43.0666485708" lon="-0.0760651845"><ele>646.62</ele><time>2015-04-06T12:46:10Z</time></trkpt><trkpt lat="43.0666244309" lon="-0.0760135520"><ele>648.07</ele><time>2015-04-06T12:46:14Z</time></trkpt><trkpt lat="43.0665233452" lon="-0.0759462453"><ele>649.51</ele><time>2015-04-06T12:46:24Z</time></trkpt><trkpt lat="43.0663677771" lon="-0.0759132206"><ele>651.91</ele><time>2015-04-06T12:46:36Z</time></trkpt><trkpt lat="43.0662335828" lon="-0.0759444851"><ele>653.35</ele><time>2015-04-06T12:46:47Z</time></trkpt><trkpt lat="43.0662258714" lon="-0.0759474188"><ele>654.31</ele><time>2015-04-06T12:46:48Z</time></trkpt><trkpt lat="43.0661206786" lon="-0.0759945251"><ele>655.76</ele><time>2015-04-06T12:46:55Z</time></trkpt><trkpt lat="43.0660900008" lon="-0.0760092773"><ele>656.24</ele><time>2015-04-06T12:46:57Z</time></trkpt><trkpt lat="43.0658660363" lon="-0.0760598201"><ele>658.64</ele><time>2015-04-06T12:47:13Z</time></trkpt><trkpt lat="43.0656293314" lon="-0.0761516020"><ele>660.08</ele><time>2015-04-06T12:47:29Z</time></trkpt><trkpt lat="43.0655340292" lon="-0.0762521848"><ele>661.04</ele><time>2015-04-06T12:47:42Z</time></trkpt><trkpt lat="43.0655269045" lon="-0.0762638357"><ele>660.56</ele><time>2015-04-06T12:47:58Z</time></trkpt><trkpt lat="43.0655189417" lon="-0.0762683619"><ele>661.04</ele><time>2015-04-06T12:48:19Z</time></trkpt><trkpt lat="43.0655125715" lon="-0.0762640033"><ele>660.56</ele><time>2015-04-06T12:48:38Z</time></trkpt><trkpt lat="43.0655038543" lon="-0.0762697868"><ele>660.08</ele><time>2015-04-06T12:48:57Z</time></trkpt><trkpt lat="43.0654983222" lon="-0.0762657635"><ele>660.08</ele><time>2015-04-06T12:49:19Z</time></trkpt><trkpt lat="43.0654896051" lon="-0.0761689525"><ele>659.60</ele><time>2015-04-06T12:49:24Z</time></trkpt><trkpt lat="43.0655176006" lon="-0.0759950280"><ele>658.64</ele><time>2015-04-06T12:49:28Z</time></trkpt><trkpt lat="43.0655223783" lon="-0.0758620072"><ele>657.20</ele><time>2015-04-06T12:49:33Z</time></trkpt><trkpt lat="43.0655256473" lon="-0.0758128054"><ele>656.72</ele><time>2015-04-06T12:49:35Z</time></trkpt><trkpt lat="43.0655232165" lon="-0.0757574011"><ele>655.28</ele><time>2015-04-06T12:49:37Z</time></trkpt><trkpt lat="43.0655210372" lon="-0.0755284075"><ele>652.39</ele><time>2015-04-06T12:49:43Z</time></trkpt><trkpt lat="43.0655424111" lon="-0.0754848216"><ele>651.91</ele><time>2015-04-06T12:49:45Z</time></trkpt><trkpt lat="43.0655590910" lon="-0.0754597597"><ele>651.43</ele><time>2015-04-06T12:49:46Z</time></trkpt><trkpt lat="43.0655954685" lon="-0.0753421616"><ele>649.03</ele><time>2015-04-06T12:49:49Z</time></trkpt><trkpt lat="43.0655725859" lon="-0.0752279162"><ele>647.59</ele><time>2015-04-06T12:49:52Z</time></trkpt><trkpt lat="43.0655615218" lon="-0.0752089731"><ele>647.10</ele><time>2015-04-06T12:49:53Z</time></trkpt><trkpt lat="43.0654906947" lon="-0.0749763753"><ele>643.74</ele><time>2015-04-06T12:49:59Z</time></trkpt><trkpt lat="43.0654445942" lon="-0.0747190509"><ele>639.89</ele><time>2015-04-06T12:50:05Z</time></trkpt><trkpt lat="43.0653893575" lon="-0.0742997881"><ele>638.93</ele><time>2015-04-06T12:50:09Z</time></trkpt><trkpt lat="43.0653712526" lon="-0.0742267817"><ele>637.97</ele><time>2015-04-06T12:50:10Z</time></trkpt><trkpt lat="43.0653491244" lon="-0.0741629116"><ele>637.49</ele><time>2015-04-06T12:50:11Z</time></trkpt><trkpt lat="43.0653334502" lon="-0.0741250254"><ele>637.01</ele><time>2015-04-06T12:50:12Z</time></trkpt><trkpt lat="43.0653252359" lon="-0.0741054956"><ele>636.05</ele><time>2015-04-06T12:50:13Z</time></trkpt><trkpt lat="43.0653226376" lon="-0.0740377698"><ele>634.61</ele><time>2015-04-06T12:50:16Z</time></trkpt><trkpt lat="43.0653274991" lon="-0.0739932619"><ele>634.13</ele><time>2015-04-06T12:50:17Z</time></trkpt><trkpt lat="43.0653363839" lon="-0.0739323255"><ele>633.17</ele><time>2015-04-06T12:50:18Z</time></trkpt><trkpt lat="43.0653326958" lon="-0.0738783460"><ele>632.68</ele><time>2015-04-06T12:50:19Z</time></trkpt><trkpt lat="43.0653138366" lon="-0.0738241151"><ele>632.20</ele><time>2015-04-06T12:50:20Z</time></trkpt><trkpt lat="43.0652886909" lon="-0.0737628434"><ele>631.72</ele><time>2015-04-06T12:50:21Z</time></trkpt><trkpt lat="43.0652627908" lon="-0.0737066846"><ele>631.24</ele><time>2015-04-06T12:50:22Z</time></trkpt><trkpt lat="43.0651800614" lon="-0.0735066924"><ele>630.28</ele><time>2015-04-06T12:50:26Z</time></trkpt><trkpt lat="43.0651740264" lon="-0.0734619331"><ele>629.32</ele><time>2015-04-06T12:50:27Z</time></trkpt><trkpt lat="43.0651717633" lon="-0.0734200235"><ele>628.36</ele><time>2015-04-06T12:50:28Z</time></trkpt><trkpt lat="43.0651963223" lon="-0.0731818937"><ele>624.99</ele><time>2015-04-06T12:50:32Z</time></trkpt><trkpt lat="43.0652157683" lon="-0.0729868468"><ele>623.07</ele><time>2015-04-06T12:50:35Z</time></trkpt><trkpt lat="43.0652018543" lon="-0.0727549195"><ele>621.15</ele><time>2015-04-06T12:50:38Z</time></trkpt><trkpt lat="43.0652268324" lon="-0.0725545920"><ele>619.23</ele><time>2015-04-06T12:50:41Z</time></trkpt><trkpt lat="43.0652283411" lon="-0.0722608902"><ele>615.38</ele><time>2015-04-06T12:50:45Z</time></trkpt><trkpt lat="43.0652339570" lon="-0.0718476623"><ele>609.13</ele><time>2015-04-06T12:50:50Z</time></trkpt><trkpt lat="43.0652311072" lon="-0.0716161542"><ele>606.25</ele><time>2015-04-06T12:50:53Z</time></trkpt><trkpt lat="43.0652404111" lon="-0.0714991428"><ele>604.81</ele><time>2015-04-06T12:50:55Z</time></trkpt><trkpt lat="43.0652586836" lon="-0.0714813732"><ele>604.33</ele><time>2015-04-06T12:50:56Z</time></trkpt><trkpt lat="43.0655538104" lon="-0.0712090451"><ele>604.33</ele><time>2015-04-06T12:51:06Z</time></trkpt><trkpt lat="43.0655386392" lon="-0.0711038522"><ele>604.33</ele><time>2015-04-06T12:51:31Z</time></trkpt><trkpt lat="43.0655294191" lon="-0.0710562430"><ele>604.33</ele><time>2015-04-06T12:51:55Z</time></trkpt><trkpt lat="43.0655184388" lon="-0.0710295048"><ele>604.81</ele><time>2015-04-06T12:52:24Z</time></trkpt><trkpt lat="43.0655188579" lon="-0.0710164290"><ele>604.81</ele><time>2015-04-06T12:52:53Z</time></trkpt><trkpt lat="43.0655155051" lon="-0.0710083824"><ele>604.33</ele><time>2015-04-06T12:53:21Z</time></trkpt><trkpt lat="43.0655217078" lon="-0.0710236374"><ele>604.81</ele><time>2015-04-06T12:53:32Z</time></trkpt><trkpt lat="43.0655296706" lon="-0.0710365456"><ele>604.33</ele><time>2015-04-06T12:53:33Z</time></trkpt><trkpt lat="43.0655349512" lon="-0.0710536446"><ele>603.85</ele><time>2015-04-06T12:53:34Z</time></trkpt><trkpt lat="43.0655539781" lon="-0.0710994937"><ele>603.85</ele><time>2015-04-06T12:53:36Z</time></trkpt><trkpt lat="43.0656732526" lon="-0.0713840593"><ele>601.44</ele><time>2015-04-06T12:53:45Z</time></trkpt><trkpt lat="43.0657454208" lon="-0.0715896674"><ele>599.04</ele><time>2015-04-06T12:53:51Z</time></trkpt><trkpt lat="43.0657529645" lon="-0.0715993065"><ele>598.08</ele><time>2015-04-06T12:53:52Z</time></trkpt><trkpt lat="43.0657848157" lon="-0.0716117956"><ele>597.60</ele><time>2015-04-06T12:53:53Z</time></trkpt><trkpt lat="43.0658223666" lon="-0.0715983007"><ele>596.15</ele><time>2015-04-06T12:53:55Z</time></trkpt><trkpt lat="43.0659689661" lon="-0.0715535413"><ele>593.75</ele><time>2015-04-06T12:54:02Z</time></trkpt><trkpt lat="43.0660402123" lon="-0.0715768430"><ele>592.31</ele><time>2015-04-06T12:54:04Z</time></trkpt><trkpt lat="43.0662223510" lon="-0.0716896635"><ele>590.87</ele><time>2015-04-06T12:54:08Z</time></trkpt><trkpt lat="43.0662532803" lon="-0.0717537850"><ele>591.35</ele><time>2015-04-06T12:54:09Z</time></trkpt><trkpt lat="43.0662846286" lon="-0.0718222652"><ele>589.91</ele><time>2015-04-06T12:54:10Z</time></trkpt><trkpt lat="43.0663155578" lon="-0.0718993787"><ele>589.43</ele><time>2015-04-06T12:54:11Z</time></trkpt><trkpt lat="43.0663538631" lon="-0.0719801802"><ele>588.95</ele><time>2015-04-06T12:54:12Z</time></trkpt><trkpt lat="43.0664028134" lon="-0.0720479060"><ele>587.98</ele><time>2015-04-06T12:54:13Z</time></trkpt><trkpt lat="43.0664468184" lon="-0.0721060764"><ele>587.98</ele><time>2015-04-06T12:54:14Z</time></trkpt><trkpt lat="43.0665446352" lon="-0.0722127780"><ele>586.54</ele><time>2015-04-06T12:54:17Z</time></trkpt><trkpt lat="43.0667193141" lon="-0.0723748002"><ele>585.10</ele><time>2015-04-06T12:54:25Z</time></trkpt><trkpt lat="43.0668731220" lon="-0.0724222418"><ele>585.10</ele><time>2015-04-06T12:54:31Z</time></trkpt><trkpt lat="43.0668888800" lon="-0.0724398438"><ele>585.10</ele><time>2015-04-06T12:54:32Z</time></trkpt><trkpt lat="43.0669120140" lon="-0.0724532548"><ele>585.10</ele><time>2015-04-06T12:54:33Z</time></trkpt><trkpt lat="43.0669387523" lon="-0.0724747125"><ele>585.10</ele><time>2015-04-06T12:54:34Z</time></trkpt><trkpt lat="43.0669654906" lon="-0.0724902190"><ele>585.58</ele><time>2015-04-06T12:54:35Z</time></trkpt><trkpt lat="43.0672922172" lon="-0.0728161912"><ele>584.62</ele><time>2015-04-06T12:54:47Z</time></trkpt><trkpt lat="43.0673786346" lon="-0.0729066320"><ele>582.70</ele><time>2015-04-06T12:54:51Z</time></trkpt><trkpt lat="43.0673994217" lon="-0.0729386508"><ele>582.70</ele><time>2015-04-06T12:54:52Z</time></trkpt><trkpt lat="43.0674285069" lon="-0.0729746092"><ele>581.73</ele><time>2015-04-06T12:54:53Z</time></trkpt><trkpt lat="43.0674900301" lon="-0.0730394851"><ele>581.25</ele><time>2015-04-06T12:54:55Z</time></trkpt><trkpt lat="43.0675836559" lon="-0.0731658004"><ele>578.85</ele><time>2015-04-06T12:55:00Z</time></trkpt><trkpt lat="43.0676679779" lon="-0.0732419081"><ele>577.41</ele><time>2015-04-06T12:55:05Z</time></trkpt><trkpt lat="43.0676828977" lon="-0.0732499547"><ele>577.41</ele><time>2015-04-06T12:55:06Z</time></trkpt><trkpt lat="43.0678266473" lon="-0.0734445825"><ele>575.49</ele><time>2015-04-06T12:55:18Z</time></trkpt><trkpt lat="43.0678333528" lon="-0.0734639447"><ele>575.49</ele><time>2015-04-06T12:55:19Z</time></trkpt><trkpt lat="43.0678826384" lon="-0.0735374540"><ele>575.49</ele><time>2015-04-06T12:55:24Z</time></trkpt><trkpt lat="43.0679105502" lon="-0.0735765975"><ele>574.53</ele><time>2015-04-06T12:55:26Z</time></trkpt><trkpt lat="43.0679285713" lon="-0.0735914335"><ele>574.53</ele><time>2015-04-06T12:55:27Z</time></trkpt><trkpt lat="43.0679433234" lon="-0.0736004859"><ele>574.04</ele><time>2015-04-06T12:55:28Z</time></trkpt><trkpt lat="43.0679571535" lon="-0.0736018270"><ele>574.04</ele><time>2015-04-06T12:55:29Z</time></trkpt><trkpt lat="43.0679807067" lon="-0.0736014079"><ele>573.56</ele><time>2015-04-06T12:55:30Z</time></trkpt><trkpt lat="43.0680159107" lon="-0.0736049283"><ele>573.56</ele><time>2015-04-06T12:55:31Z</time></trkpt><trkpt lat="43.0680522043" lon="-0.0736176688"><ele>573.56</ele><time>2015-04-06T12:55:32Z</time></trkpt><trkpt lat="43.0682119634" lon="-0.0737414695"><ele>572.12</ele><time>2015-04-06T12:55:36Z</time></trkpt><trkpt lat="43.0686039850" lon="-0.0741789211"><ele>571.16</ele><time>2015-04-06T12:55:47Z</time></trkpt><trkpt lat="43.0687115248" lon="-0.0742945075"><ele>571.16</ele><time>2015-04-06T12:55:50Z</time></trkpt><trkpt lat="43.0688235909" lon="-0.0744069926"><ele>570.68</ele><time>2015-04-06T12:55:53Z</time></trkpt><trkpt lat="43.0688606389" lon="-0.0744289532"><ele>570.68</ele><time>2015-04-06T12:55:54Z</time></trkpt><trkpt lat="43.0688974354" lon="-0.0744269416"><ele>569.72</ele><time>2015-04-06T12:55:55Z</time></trkpt><trkpt lat="43.0689400993" lon="-0.0744083337"><ele>569.72</ele><time>2015-04-06T12:55:56Z</time></trkpt><trkpt lat="43.0689856969" lon="-0.0743864570"><ele>569.24</ele><time>2015-04-06T12:55:57Z</time></trkpt><trkpt lat="43.0690319650" lon="-0.0743642449"><ele>569.24</ele><time>2015-04-06T12:55:58Z</time></trkpt><trkpt lat="43.0690803286" lon="-0.0743569527"><ele>568.76</ele><time>2015-04-06T12:55:59Z</time></trkpt><trkpt lat="43.0691292789" lon="-0.0743736327"><ele>569.24</ele><time>2015-04-06T12:56:00Z</time></trkpt><trkpt lat="43.0691760499" lon="-0.0743940007"><ele>568.76</ele><time>2015-04-06T12:56:01Z</time></trkpt><trkpt lat="43.0692148581" lon="-0.0744087528"><ele>568.28</ele><time>2015-04-06T12:56:02Z</time></trkpt><trkpt lat="43.0692410097" lon="-0.0744224992"><ele>567.80</ele><time>2015-04-06T12:56:03Z</time></trkpt><trkpt lat="43.0692579411" lon="-0.0744382571"><ele>567.80</ele><time>2015-04-06T12:56:04Z</time></trkpt><trkpt lat="43.0693095736" lon="-0.0744848605"><ele>567.32</ele><time>2015-04-06T12:56:11Z</time></trkpt><trkpt lat="43.0693222303" lon="-0.0744813401"><ele>568.28</ele><time>2015-04-06T12:56:12Z</time></trkpt><trkpt lat="43.0693386588" lon="-0.0744763110"><ele>568.28</ele><time>2015-04-06T12:56:13Z</time></trkpt><trkpt lat="43.0693564285" lon="-0.0744825974"><ele>568.28</ele><time>2015-04-06T12:56:14Z</time></trkpt><trkpt lat="43.0693765450" lon="-0.0744956732"><ele>567.32</ele><time>2015-04-06T12:56:15Z</time></trkpt><trkpt lat="43.0693940632" lon="-0.0745121855"><ele>567.80</ele><time>2015-04-06T12:56:16Z</time></trkpt><trkpt lat="43.0694103241" lon="-0.0745307095"><ele>567.80</ele><time>2015-04-06T12:56:17Z</time></trkpt><trkpt lat="43.0694239028" lon="-0.0745515805"><ele>567.80</ele><time>2015-04-06T12:56:18Z</time></trkpt><trkpt lat="43.0694370624" lon="-0.0745702721"><ele>567.80</ele><time>2015-04-06T12:56:19Z</time></trkpt><trkpt lat="43.0694559216" lon="-0.0745898858"><ele>568.28</ele><time>2015-04-06T12:56:20Z</time></trkpt><trkpt lat="43.0697707459" lon="-0.0749375671"><ele>568.76</ele><time>2015-04-06T12:56:34Z</time></trkpt><trkpt lat="43.0698921159" lon="-0.0750943925"><ele>569.72</ele><time>2015-04-06T12:56:41Z</time></trkpt><trkpt lat="43.0698972289" lon="-0.0751186162"><ele>569.72</ele><time>2015-04-06T12:56:42Z</time></trkpt><trkpt lat="43.0699067842" lon="-0.0751398224"><ele>569.72</ele><time>2015-04-06T12:56:43Z</time></trkpt><trkpt lat="43.0699278228" lon="-0.0751569215"><ele>569.72</ele><time>2015-04-06T12:56:44Z</time></trkpt><trkpt lat="43.0699455086" lon="-0.0751775410"><ele>569.72</ele><time>2015-04-06T12:56:45Z</time></trkpt><trkpt lat="43.0702006537" lon="-0.0754734222"><ele>570.68</ele><time>2015-04-06T12:56:57Z</time></trkpt><trkpt lat="43.0704252888" lon="-0.0757024158"><ele>570.20</ele><time>2015-04-06T12:57:11Z</time></trkpt><trkpt lat="43.0704198405" lon="-0.0757317524"><ele>569.72</ele><time>2015-04-06T12:57:13Z</time></trkpt><trkpt lat="43.0704078544" lon="-0.0757295731"><ele>570.20</ele><time>2015-04-06T12:57:14Z</time></trkpt><trkpt lat="43.0703981314" lon="-0.0757154077"><ele>570.20</ele><time>2015-04-06T12:57:17Z</time></trkpt><trkpt lat="43.0703507736" lon="-0.0756728277"><ele>570.68</ele><time>2015-04-06T12:57:20Z</time></trkpt><trkpt lat="43.0703363568" lon="-0.0756573211"><ele>570.68</ele><time>2015-04-06T12:57:21Z</time></trkpt><trkpt lat="43.0703211017" lon="-0.0756405573"><ele>570.68</ele><time>2015-04-06T12:57:22Z</time></trkpt><trkpt lat="43.0699538905" lon="-0.0751489587"><ele>569.72</ele><time>2015-04-06T12:57:38Z</time></trkpt><trkpt lat="43.0695258267" lon="-0.0747044664"><ele>568.28</ele><time>2015-04-06T12:57:52Z</time></trkpt><trkpt lat="43.0692769680" lon="-0.0744433701"><ele>566.35</ele><time>2015-04-06T12:58:02Z</time></trkpt><trkpt lat="43.0692795664" lon="-0.0744026341"><ele>566.83</ele><time>2015-04-06T12:58:03Z</time></trkpt><trkpt lat="43.0692918878" lon="-0.0742862094"><ele>565.39</ele><time>2015-04-06T12:58:05Z</time></trkpt><trkpt lat="43.0692980904" lon="-0.0742292125"><ele>563.95</ele><time>2015-04-06T12:58:06Z</time></trkpt><trkpt lat="43.0693046283" lon="-0.0741797592"><ele>562.51</ele><time>2015-04-06T12:58:07Z</time></trkpt><trkpt lat="43.0693109985" lon="-0.0741398614"><ele>562.03</ele><time>2015-04-06T12:58:08Z</time></trkpt><trkpt lat="43.0693249125" lon="-0.0741078425"><ele>561.07</ele><time>2015-04-06T12:58:09Z</time></trkpt><trkpt lat="43.0693504773" lon="-0.0740737282"><ele>560.59</ele><time>2015-04-06T12:58:10Z</time></trkpt><trkpt lat="43.0693870224" lon="-0.0740320701"><ele>560.11</ele><time>2015-04-06T12:58:11Z</time></trkpt><trkpt lat="43.0694239028" lon="-0.0739801861"><ele>559.14</ele><time>2015-04-06T12:58:12Z</time></trkpt><trkpt lat="43.0694591906" lon="-0.0739087723"><ele>558.18</ele><time>2015-04-06T12:58:13Z</time></trkpt><trkpt lat="43.0694941431" lon="-0.0738217682"><ele>557.22</ele><time>2015-04-06T12:58:14Z</time></trkpt><trkpt lat="43.0695284251" lon="-0.0737230293"><ele>556.26</ele><time>2015-04-06T12:58:15Z</time></trkpt><trkpt lat="43.0695667304" lon="-0.0736126397"><ele>554.82</ele><time>2015-04-06T12:58:16Z</time></trkpt><trkpt lat="43.0696107354" lon="-0.0734955445"><ele>554.34</ele><time>2015-04-06T12:58:17Z</time></trkpt><trkpt lat="43.0697152577" lon="-0.0731841568"><ele>550.01</ele><time>2015-04-06T12:58:20Z</time></trkpt><trkpt lat="43.0697273277" lon="-0.0730990805"><ele>549.05</ele><time>2015-04-06T12:58:21Z</time></trkpt><trkpt lat="43.0697234720" lon="-0.0730138365"><ele>549.05</ele><time>2015-04-06T12:58:22Z</time></trkpt><trkpt lat="43.0696990807" lon="-0.0728335418"><ele>547.13</ele><time>2015-04-06T12:58:24Z</time></trkpt><trkpt lat="43.0696440954" lon="-0.0725545082"><ele>543.76</ele><time>2015-04-06T12:58:27Z</time></trkpt><trkpt lat="43.0696415808" lon="-0.0724597089"><ele>541.84</ele><time>2015-04-06T12:58:28Z</time></trkpt><trkpt lat="43.0696459394" lon="-0.0723676756"><ele>540.40</ele><time>2015-04-06T12:58:29Z</time></trkpt><trkpt lat="43.0696631223" lon="-0.0721883029"><ele>537.03</ele><time>2015-04-06T12:58:31Z</time></trkpt><trkpt lat="43.0696600210" lon="-0.0721058249"><ele>535.59</ele><time>2015-04-06T12:58:32Z</time></trkpt><trkpt lat="43.0696537346" lon="-0.0718742330"><ele>532.23</ele><time>2015-04-06T12:58:35Z</time></trkpt><trkpt lat="43.0697127432" lon="-0.0715879072"><ele>528.86</ele><time>2015-04-06T12:58:38Z</time></trkpt><trkpt lat="43.0697395653" lon="-0.0713744201"><ele>527.42</ele><time>2015-04-06T12:58:40Z</time></trkpt><trkpt lat="43.0697329435" lon="-0.0712590013"><ele>526.46</ele><time>2015-04-06T12:58:41Z</time></trkpt><trkpt lat="43.0697166827" lon="-0.0711410679"><ele>525.02</ele><time>2015-04-06T12:58:42Z</time></trkpt><trkpt lat="43.0696879327" lon="-0.0710263196"><ele>525.50</ele><time>2015-04-06T12:58:43Z</time></trkpt><trkpt lat="43.0696526449" lon="-0.0709156785"><ele>523.58</ele><time>2015-04-06T12:58:44Z</time></trkpt><trkpt lat="43.0696217157" lon="-0.0708031934"><ele>522.61</ele><time>2015-04-06T12:58:45Z</time></trkpt><trkpt lat="43.0695968214" lon="-0.0706828292"><ele>521.65</ele><time>2015-04-06T12:58:46Z</time></trkpt><trkpt lat="43.0695788842" lon="-0.0705534965"><ele>521.17</ele><time>2015-04-06T12:58:47Z</time></trkpt><trkpt lat="43.0694236513" lon="-0.0698034838"><ele>518.29</ele><time>2015-04-06T12:58:53Z</time></trkpt><trkpt lat="43.0693728570" lon="-0.0697044097"><ele>517.81</ele><time>2015-04-06T12:58:54Z</time></trkpt><trkpt lat="43.0693172850" lon="-0.0696179084"><ele>516.85</ele><time>2015-04-06T12:58:55Z</time></trkpt><trkpt lat="43.0692644790" lon="-0.0695357658"><ele>516.85</ele><time>2015-04-06T12:58:56Z</time></trkpt><trkpt lat="43.0691773910" lon="-0.0693736598"><ele>516.85</ele><time>2015-04-06T12:58:58Z</time></trkpt><trkpt lat="43.0691494793" lon="-0.0692916848"><ele>516.85</ele><time>2015-04-06T12:58:59Z</time></trkpt><trkpt lat="43.0691279378" lon="-0.0692052674"><ele>516.85</ele><time>2015-04-06T12:59:00Z</time></trkpt><trkpt lat="43.0691135209" lon="-0.0691179279"><ele>517.33</ele><time>2015-04-06T12:59:01Z</time></trkpt><trkpt lat="43.0691048037" lon="-0.0690361205"><ele>517.33</ele><time>2015-04-06T12:59:02Z</time></trkpt><trkpt lat="43.0691039655" lon="-0.0689613540"><ele>516.85</ele><time>2015-04-06T12:59:03Z</time></trkpt><trkpt lat="43.0691100843" lon="-0.0688952208"><ele>516.85</ele><time>2015-04-06T12:59:04Z</time></trkpt><trkpt lat="43.0691235792" lon="-0.0688291714"><ele>516.85</ele><time>2015-04-06T12:59:05Z</time></trkpt><trkpt lat="43.0691287760" lon="-0.0687651336"><ele>516.85</ele><time>2015-04-06T12:59:06Z</time></trkpt><trkpt lat="43.0691306200" lon="-0.0686386507"><ele>516.85</ele><time>2015-04-06T12:59:08Z</time></trkpt><trkpt lat="43.0691276863" lon="-0.0685751159"><ele>516.85</ele><time>2015-04-06T12:59:09Z</time></trkpt><trkpt lat="43.0691244174" lon="-0.0684508123"><ele>517.33</ele><time>2015-04-06T12:59:11Z</time></trkpt><trkpt lat="43.0691287760" lon="-0.0683930609"><ele>516.85</ele><time>2015-04-06T12:59:12Z</time></trkpt><trkpt lat="43.0691376608" lon="-0.0683341362"><ele>517.33</ele><time>2015-04-06T12:59:13Z</time></trkpt><trkpt lat="43.0692133494" lon="-0.0680442899"><ele>517.33</ele><time>2015-04-06T12:59:18Z</time></trkpt><trkpt lat="43.0693232361" lon="-0.0676578842"><ele>518.77</ele><time>2015-04-06T12:59:27Z</time></trkpt><trkpt lat="43.0693475436" lon="-0.0675513502"><ele>519.73</ele><time>2015-04-06T12:59:30Z</time></trkpt><trkpt lat="43.0693635531" lon="-0.0675216783"><ele>519.73</ele><time>2015-04-06T12:59:31Z</time></trkpt><trkpt lat="43.0694701709" lon="-0.0672600791"><ele>522.13</ele><time>2015-04-06T12:59:40Z</time></trkpt><trkpt lat="43.0695459433" lon="-0.0671226997"><ele>522.61</ele><time>2015-04-06T12:59:46Z</time></trkpt><trkpt lat="43.0695668980" lon="-0.0671118032"><ele>522.61</ele><time>2015-04-06T12:59:47Z</time></trkpt><trkpt lat="43.0698543973" lon="-0.0669920258"><ele>523.09</ele><time>2015-04-06T13:00:01Z</time></trkpt><trkpt lat="43.0699894298" lon="-0.0669013336"><ele>523.09</ele><time>2015-04-06T13:00:08Z</time></trkpt><trkpt lat="43.0700055230" lon="-0.0668902695"><ele>523.09</ele><time>2015-04-06T13:00:09Z</time></trkpt><trkpt lat="43.0700093787" lon="-0.0668754335"><ele>523.09</ele><time>2015-04-06T13:00:10Z</time></trkpt><trkpt lat="43.0700033437" lon="-0.0668600947"><ele>523.09</ele><time>2015-04-06T13:00:11Z</time></trkpt><trkpt lat="43.0699967220" lon="-0.0668412354"><ele>523.09</ele><time>2015-04-06T13:00:12Z</time></trkpt><trkpt lat="43.0699921958" lon="-0.0668202806"><ele>522.61</ele><time>2015-04-06T13:00:13Z</time></trkpt><trkpt lat="43.0699873343" lon="-0.0667967275"><ele>522.61</ele><time>2015-04-06T13:00:14Z</time></trkpt><trkpt lat="43.0699822214" lon="-0.0667702407"><ele>523.09</ele><time>2015-04-06T13:00:15Z</time></trkpt><trkpt lat="43.0699829757" lon="-0.0667402335"><ele>523.09</ele><time>2015-04-06T13:00:16Z</time></trkpt><trkpt lat="43.0700024217" lon="-0.0665257405"><ele>521.65</ele><time>2015-04-06T13:00:26Z</time></trkpt><trkpt lat="43.0700389668" lon="-0.0662114192"><ele>520.21</ele><time>2015-04-06T13:00:37Z</time></trkpt><trkpt lat="43.0700382125" lon="-0.0661656540"><ele>520.21</ele><time>2015-04-06T13:00:38Z</time></trkpt><trkpt lat="43.0700380448" lon="-0.0661073998"><ele>519.73</ele><time>2015-04-06T13:00:39Z</time></trkpt><trkpt lat="43.0700355303" lon="-0.0660398416"><ele>519.25</ele><time>2015-04-06T13:00:40Z</time></trkpt><trkpt lat="43.0700294953" lon="-0.0659741275"><ele>517.81</ele><time>2015-04-06T13:00:41Z</time></trkpt><trkpt lat="43.0700202752" lon="-0.0659135263"><ele>517.33</ele><time>2015-04-06T13:00:42Z</time></trkpt><trkpt lat="43.0700054392" lon="-0.0658121891"><ele>515.88</ele><time>2015-04-06T13:00:44Z</time></trkpt><trkpt lat="43.0700144917" lon="-0.0657652505"><ele>515.88</ele><time>2015-04-06T13:00:45Z</time></trkpt><trkpt lat="43.0700373743" lon="-0.0657194015"><ele>515.40</ele><time>2015-04-06T13:00:46Z</time></trkpt><trkpt lat="43.0700662080" lon="-0.0656747259"><ele>514.92</ele><time>2015-04-06T13:00:47Z</time></trkpt><trkpt lat="43.0700954609" lon="-0.0656317268"><ele>513.96</ele><time>2015-04-06T13:00:48Z</time></trkpt><trkpt lat="43.0701180920" lon="-0.0655888952"><ele>513.48</ele><time>2015-04-06T13:00:49Z</time></trkpt><trkpt lat="43.0701375380" lon="-0.0655447226"><ele>513.00</ele><time>2015-04-06T13:00:50Z</time></trkpt><trkpt lat="43.0701627675" lon="-0.0655044056"><ele>512.52</ele><time>2015-04-06T13:00:51Z</time></trkpt><trkpt lat="43.0701913498" lon="-0.0654621609"><ele>512.04</ele><time>2015-04-06T13:00:52Z</time></trkpt><trkpt lat="43.0702272244" lon="-0.0654262863"><ele>511.56</ele><time>2015-04-06T13:00:53Z</time></trkpt><trkpt lat="43.0703335069" lon="-0.0653463230"><ele>510.60</ele><time>2015-04-06T13:00:55Z</time></trkpt><trkpt lat="43.0703931861" lon="-0.0652918406"><ele>510.60</ele><time>2015-04-06T13:00:56Z</time></trkpt><trkpt lat="43.0705923401" lon="-0.0650896691"><ele>508.19</ele><time>2015-04-06T13:00:59Z</time></trkpt><trkpt lat="43.0707668513" lon="-0.0649046805"><ele>504.35</ele><time>2015-04-06T13:01:02Z</time></trkpt><trkpt lat="43.0709049013" lon="-0.0647068676"><ele>503.39</ele><time>2015-04-06T13:01:09Z</time></trkpt><trkpt lat="43.0709354114" lon="-0.0646427460"><ele>503.39</ele><time>2015-04-06T13:01:12Z</time></trkpt><trkpt lat="43.0709543545" lon="-0.0646306761"><ele>502.91</ele><time>2015-04-06T13:01:13Z</time></trkpt><trkpt lat="43.0709738843" lon="-0.0646199472"><ele>502.91</ele><time>2015-04-06T13:01:14Z</time></trkpt><trkpt lat="43.0710035563" lon="-0.0646054465"><ele>502.91</ele><time>2015-04-06T13:01:15Z</time></trkpt><trkpt lat="43.0710685160" lon="-0.0645824801"><ele>502.43</ele><time>2015-04-06T13:01:16Z</time></trkpt><trkpt lat="43.0711435340" lon="-0.0645639561"><ele>502.43</ele><time>2015-04-06T13:01:17Z</time></trkpt><trkpt lat="43.0712082423" lon="-0.0645540655"><ele>501.46</ele><time>2015-04-06T13:01:18Z</time></trkpt><trkpt lat="43.0712581147" lon="-0.0645561609"><ele>501.46</ele><time>2015-04-06T13:01:19Z</time></trkpt><trkpt lat="43.0713078193" lon="-0.0645629503"><ele>501.46</ele><time>2015-04-06T13:01:20Z</time></trkpt><trkpt lat="43.0713558476" lon="-0.0645729247"><ele>501.46</ele><time>2015-04-06T13:01:21Z</time></trkpt><trkpt lat="43.0714574363" lon="-0.0645846594"><ele>500.98</ele><time>2015-04-06T13:01:23Z</time></trkpt><trkpt lat="43.0718698259" lon="-0.0645932928"><ele>497.62</ele><time>2015-04-06T13:01:31Z</time></trkpt><trkpt lat="43.0719841551" lon="-0.0646093022"><ele>496.66</ele><time>2015-04-06T13:01:33Z</time></trkpt><trkpt lat="43.0720456783" lon="-0.0646212045"><ele>496.18</ele><time>2015-04-06T13:01:34Z</time></trkpt><trkpt lat="43.0721121468" lon="-0.0646412373"><ele>495.70</ele><time>2015-04-06T13:01:35Z</time></trkpt><trkpt lat="43.0723195150" lon="-0.0647424906"><ele>493.77</ele><time>2015-04-06T13:01:38Z</time></trkpt><trkpt lat="43.0725656077" lon="-0.0648686383"><ele>490.41</ele><time>2015-04-06T13:01:42Z</time></trkpt><trkpt lat="43.0726240296" lon="-0.0648801215"><ele>489.93</ele><time>2015-04-06T13:01:43Z</time></trkpt><trkpt lat="43.0728771631" lon="-0.0647692289"><ele>487.05</ele><time>2015-04-06T13:01:52Z</time></trkpt><trkpt lat="43.0729033146" lon="-0.0643449370"><ele>486.56</ele><time>2015-04-06T13:02:02Z</time></trkpt><trkpt lat="43.0729137082" lon="-0.0642959867"><ele>487.05</ele><time>2015-04-06T13:02:03Z</time></trkpt><trkpt lat="43.0729323998" lon="-0.0641819090"><ele>487.05</ele><time>2015-04-06T13:02:05Z</time></trkpt><trkpt lat="43.0729425419" lon="-0.0641168654"><ele>487.05</ele><time>2015-04-06T13:02:06Z</time></trkpt><trkpt lat="43.0729953479" lon="-0.0636983570"><ele>486.08</ele><time>2015-04-06T13:02:13Z</time></trkpt><trkpt lat="43.0729966890" lon="-0.0636404380"><ele>486.56</ele><time>2015-04-06T13:02:14Z</time></trkpt><trkpt lat="43.0729637481" lon="-0.0628978014"><ele>486.08</ele><time>2015-04-06T13:02:27Z</time></trkpt><trkpt lat="43.0729857925" lon="-0.0627290737"><ele>485.60</ele><time>2015-04-06T13:02:30Z</time></trkpt><trkpt lat="43.0730013829" lon="-0.0626750942"><ele>486.08</ele><time>2015-04-06T13:02:31Z</time></trkpt><trkpt lat="43.0730145425" lon="-0.0626218691"><ele>486.08</ele><time>2015-04-06T13:02:32Z</time></trkpt><trkpt lat="43.0731315538" lon="-0.0619499758"><ele>486.08</ele><time>2015-04-06T13:02:44Z</time></trkpt><trkpt lat="43.0731727928" lon="-0.0616029650"><ele>485.60</ele><time>2015-04-06T13:02:50Z</time></trkpt><trkpt lat="43.0733234994" lon="-0.0609597377"><ele>484.16</ele><time>2015-04-06T13:03:01Z</time></trkpt><trkpt lat="43.0733493157" lon="-0.0608916767"><ele>484.64</ele><time>2015-04-06T13:03:02Z</time></trkpt><trkpt lat="43.0733736232" lon="-0.0608314108"><ele>484.16</ele><time>2015-04-06T13:03:03Z</time></trkpt><trkpt lat="43.0733980145" lon="-0.0607730728"><ele>484.16</ele><time>2015-04-06T13:03:04Z</time></trkpt><trkpt lat="43.0734249204" lon="-0.0607144833"><ele>484.16</ele><time>2015-04-06T13:03:05Z</time></trkpt><trkpt lat="43.0735125113" lon="-0.0605465099"><ele>484.16</ele><time>2015-04-06T13:03:08Z</time></trkpt><trkpt lat="43.0736679118" lon="-0.0602703262"><ele>484.64</ele><time>2015-04-06T13:03:13Z</time></trkpt><trkpt lat="43.0738220550" lon="-0.0599086471"><ele>486.08</ele><time>2015-04-06T13:03:23Z</time></trkpt><trkpt lat="43.0739256553" lon="-0.0597421825"><ele>487.05</ele><time>2015-04-06T13:03:29Z</time></trkpt><trkpt lat="43.0739409942" lon="-0.0597143546"><ele>486.56</ele><time>2015-04-06T13:03:39Z</time></trkpt><trkpt lat="43.0739405751" lon="-0.0597054698"><ele>487.05</ele><time>2015-04-06T13:04:02Z</time></trkpt><trkpt lat="43.0739437602" lon="-0.0597051345"><ele>486.56</ele><time>2015-04-06T13:04:26Z</time></trkpt><trkpt lat="43.0739553273" lon="-0.0597031228"><ele>487.05</ele><time>2015-04-06T13:04:28Z</time></trkpt><trkpt lat="43.0739710014" lon="-0.0596960820"><ele>487.05</ele><time>2015-04-06T13:04:29Z</time></trkpt><trkpt lat="43.0739919562" lon="-0.0596747920"><ele>487.05</ele><time>2015-04-06T13:04:30Z</time></trkpt><trkpt lat="43.0740822293" lon="-0.0595511589"><ele>485.60</ele><time>2015-04-06T13:04:33Z</time></trkpt><trkpt lat="43.0741212051" lon="-0.0595006160"><ele>485.60</ele><time>2015-04-06T13:04:34Z</time></trkpt><trkpt lat="43.0742143281" lon="-0.0593765639"><ele>484.16</ele><time>2015-04-06T13:04:36Z</time></trkpt><trkpt lat="43.0743335187" lon="-0.0592582114"><ele>481.76</ele><time>2015-04-06T13:04:38Z</time></trkpt><trkpt lat="43.0744025856" lon="-0.0592071656"><ele>480.80</ele><time>2015-04-06T13:04:39Z</time></trkpt><trkpt lat="43.0744760949" lon="-0.0591611490"><ele>480.32</ele><time>2015-04-06T13:04:40Z</time></trkpt><trkpt lat="43.0747632589" lon="-0.0589696225"><ele>476.95</ele><time>2015-04-06T13:04:44Z</time></trkpt><trkpt lat="43.0748990458" lon="-0.0588454865"><ele>474.07</ele><time>2015-04-06T13:04:46Z</time></trkpt><trkpt lat="43.0749695376" lon="-0.0587941054"><ele>473.59</ele><time>2015-04-06T13:04:47Z</time></trkpt><trkpt lat="43.0751790851" lon="-0.0586335082"><ele>471.18</ele><time>2015-04-06T13:04:50Z</time></trkpt><trkpt lat="43.0752312206" lon="-0.0585646089"><ele>470.70</ele><time>2015-04-06T13:04:51Z</time></trkpt><trkpt lat="43.0752646644" lon="-0.0584844779"><ele>469.26</ele><time>2015-04-06T13:04:52Z</time></trkpt><trkpt lat="43.0752867926" lon="-0.0584045984"><ele>468.30</ele><time>2015-04-06T13:04:53Z</time></trkpt><trkpt lat="43.0753106810" lon="-0.0583313406"><ele>467.82</ele><time>2015-04-06T13:04:54Z</time></trkpt><trkpt lat="43.0753389280" lon="-0.0582685601"><ele>466.38</ele><time>2015-04-06T13:04:55Z</time></trkpt><trkpt lat="43.0753676780" lon="-0.0582186040"><ele>464.93</ele><time>2015-04-06T13:04:56Z</time></trkpt><trkpt lat="43.0753929075" lon="-0.0581829809"><ele>463.97</ele><time>2015-04-06T13:04:57Z</time></trkpt><trkpt lat="43.0754188914" lon="-0.0581520516"><ele>463.01</ele><time>2015-04-06T13:04:58Z</time></trkpt><trkpt lat="43.0754408520" lon="-0.0581217930"><ele>462.53</ele><time>2015-04-06T13:04:59Z</time></trkpt><trkpt lat="43.0754525866" lon="-0.0580955576"><ele>461.57</ele><time>2015-04-06T13:05:00Z</time></trkpt><trkpt lat="43.0754553527" lon="-0.0580667239"><ele>461.57</ele><time>2015-04-06T13:05:01Z</time></trkpt><trkpt lat="43.0754514132" lon="-0.0580301788"><ele>460.61</ele><time>2015-04-06T13:05:02Z</time></trkpt><trkpt lat="43.0754383374" lon="-0.0580000877"><ele>460.13</ele><time>2015-04-06T13:05:03Z</time></trkpt><trkpt lat="43.0754147004" lon="-0.0579754449"><ele>459.17</ele><time>2015-04-06T13:05:04Z</time></trkpt><trkpt lat="43.0753952544" lon="-0.0579546578"><ele>458.21</ele><time>2015-04-06T13:05:05Z</time></trkpt><trkpt lat="43.0753901415" lon="-0.0579343736"><ele>457.72</ele><time>2015-04-06T13:05:06Z</time></trkpt><trkpt lat="43.0753955897" lon="-0.0579093117"><ele>457.72</ele><time>2015-04-06T13:05:07Z</time></trkpt><trkpt lat="43.0754106771" lon="-0.0578845013"><ele>457.72</ele><time>2015-04-06T13:05:08Z</time></trkpt><trkpt lat="43.0754324701" lon="-0.0578664802"><ele>457.24</ele><time>2015-04-06T13:05:09Z</time></trkpt><trkpt lat="43.0754593760" lon="-0.0578542426"><ele>457.24</ele><time>2015-04-06T13:05:10Z</time></trkpt><trkpt lat="43.0754898023" lon="-0.0578453578"><ele>456.76</ele><time>2015-04-06T13:05:11Z</time></trkpt><trkpt lat="43.0759014376" lon="-0.0576767139"><ele>454.36</ele><time>2015-04-06T13:05:23Z</time></trkpt><trkpt lat="43.0763713270" lon="-0.0573212374"><ele>454.84</ele><time>2015-04-06T13:05:35Z</time></trkpt><trkpt lat="43.0764112249" lon="-0.0572777353"><ele>454.84</ele><time>2015-04-06T13:05:36Z</time></trkpt><trkpt lat="43.0767354369" lon="-0.0567624159"><ele>455.80</ele><time>2015-04-06T13:05:49Z</time></trkpt><trkpt lat="43.0769103672" lon="-0.0563959591"><ele>454.84</ele><time>2015-04-06T13:06:03Z</time></trkpt><trkpt lat="43.0770884827" lon="-0.0559703261"><ele>451.00</ele><time>2015-04-06T13:06:13Z</time></trkpt><trkpt lat="43.0770753231" lon="-0.0557728484"><ele>448.59</ele><time>2015-04-06T13:06:18Z</time></trkpt><trkpt lat="43.0770584755" lon="-0.0557251554"><ele>447.63</ele><time>2015-04-06T13:06:19Z</time></trkpt><trkpt lat="43.0770329945" lon="-0.0556751154"><ele>447.15</ele><time>2015-04-06T13:06:20Z</time></trkpt><trkpt lat="43.0768507719" lon="-0.0553250033"><ele>444.27</ele><time>2015-04-06T13:06:26Z</time></trkpt><trkpt lat="43.0766898394" lon="-0.0550402701"><ele>440.90</ele><time>2015-04-06T13:06:32Z</time></trkpt><trkpt lat="43.0765523762" lon="-0.0547453947"><ele>438.02</ele><time>2015-04-06T13:06:38Z</time></trkpt><trkpt lat="43.0765079521" lon="-0.0546402857"><ele>437.06</ele><time>2015-04-06T13:06:40Z</time></trkpt><trkpt lat="43.0763888452" lon="-0.0543589052"><ele>433.69</ele><time>2015-04-06T13:06:45Z</time></trkpt><trkpt lat="43.0763210356" lon="-0.0541822985"><ele>432.25</ele><time>2015-04-06T13:06:48Z</time></trkpt><trkpt lat="43.0762280803" lon="-0.0539467670"><ele>428.89</ele><time>2015-04-06T13:06:52Z</time></trkpt><trkpt lat="43.0761964805" lon="-0.0538930390"><ele>428.40</ele><time>2015-04-06T13:06:53Z</time></trkpt><trkpt lat="43.0761567503" lon="-0.0538434181"><ele>427.44</ele><time>2015-04-06T13:06:54Z</time></trkpt><trkpt lat="43.0761075485" lon="-0.0537921209"><ele>426.48</ele><time>2015-04-06T13:06:55Z</time></trkpt><trkpt lat="43.0759772938" lon="-0.0536419172"><ele>424.56</ele><time>2015-04-06T13:06:58Z</time></trkpt><trkpt lat="43.0759498850" lon="-0.0535907038"><ele>424.08</ele><time>2015-04-06T13:06:59Z</time></trkpt><trkpt lat="43.0759276729" lon="-0.0535299350"><ele>423.12</ele><time>2015-04-06T13:07:00Z</time></trkpt><trkpt lat="43.0759073049" lon="-0.0534691662"><ele>422.64</ele><time>2015-04-06T13:07:01Z</time></trkpt><trkpt lat="43.0758859310" lon="-0.0534091517"><ele>421.68</ele><time>2015-04-06T13:07:02Z</time></trkpt><trkpt lat="43.0758507270" lon="-0.0532476325"><ele>419.75</ele><time>2015-04-06T13:07:05Z</time></trkpt><trkpt lat="43.0757125095" lon="-0.0528504979"><ele>416.39</ele><time>2015-04-06T13:07:12Z</time></trkpt><trkpt lat="43.0756784789" lon="-0.0527982786"><ele>416.39</ele><time>2015-04-06T13:07:13Z</time></trkpt><trkpt lat="43.0755518284" lon="-0.0526199117"><ele>415.43</ele><time>2015-04-06T13:07:17Z</time></trkpt><trkpt lat="43.0755339749" lon="-0.0525661837"><ele>415.91</ele><time>2015-04-06T13:07:18Z</time></trkpt><trkpt lat="43.0754665006" lon="-0.0521508604"><ele>416.39</ele><time>2015-04-06T13:07:28Z</time></trkpt><trkpt lat="43.0755079910" lon="-0.0517199468"><ele>416.87</ele><time>2015-04-06T13:07:38Z</time></trkpt><trkpt lat="43.0755658261" lon="-0.0512574334"><ele>417.83</ele><time>2015-04-06T13:07:49Z</time></trkpt><trkpt lat="43.0756423529" lon="-0.0510255899"><ele>419.75</ele><time>2015-04-06T13:07:58Z</time></trkpt><trkpt lat="43.0757100787" lon="-0.0509364903"><ele>421.19</ele><time>2015-04-06T13:08:02Z</time></trkpt><trkpt lat="43.0757195503" lon="-0.0509126857"><ele>421.68</ele><time>2015-04-06T13:08:03Z</time></trkpt><trkpt lat="43.0758410878" lon="-0.0506023038"><ele>423.60</ele><time>2015-04-06T13:08:15Z</time></trkpt><trkpt lat="43.0758817401" lon="-0.0502303988"><ele>423.12</ele><time>2015-04-06T13:08:26Z</time></trkpt><trkpt lat="43.0758975819" lon="-0.0501811970"><ele>423.60</ele><time>2015-04-06T13:08:27Z</time></trkpt><trkpt lat="43.0759740248" lon="-0.0499289017"><ele>424.08</ele><time>2015-04-06T13:08:36Z</time></trkpt><trkpt lat="43.0761106499" lon="-0.0497431587"><ele>424.56</ele><time>2015-04-06T13:08:43Z</time></trkpt><trkpt lat="43.0762236379" lon="-0.0495306775"><ele>425.52</ele><time>2015-04-06T13:08:52Z</time></trkpt><trkpt lat="43.0762378033" lon="-0.0494963955"><ele>426.00</ele><time>2015-04-06T13:08:53Z</time></trkpt><trkpt lat="43.0762565788" lon="-0.0494689029"><ele>425.52</ele><time>2015-04-06T13:08:54Z</time></trkpt><trkpt lat="43.0762792937" lon="-0.0494422484"><ele>425.52</ele><time>2015-04-06T13:08:55Z</time></trkpt><trkpt lat="43.0763051100" lon="-0.0494163483"><ele>425.52</ele><time>2015-04-06T13:08:56Z</time></trkpt><trkpt lat="43.0763409007" lon="-0.0493937172"><ele>425.52</ele><time>2015-04-06T13:08:57Z</time></trkpt><trkpt lat="43.0763833970" lon="-0.0493719243"><ele>425.04</ele><time>2015-04-06T13:08:58Z</time></trkpt><trkpt lat="43.0764197744" lon="-0.0493383128"><ele>424.08</ele><time>2015-04-06T13:08:59Z</time></trkpt><trkpt lat="43.0764559004" lon="-0.0493012648"><ele>424.56</ele><time>2015-04-06T13:09:00Z</time></trkpt><trkpt lat="43.0767845549" lon="-0.0489859376"><ele>422.64</ele><time>2015-04-06T13:09:10Z</time></trkpt><trkpt lat="43.0770355929" lon="-0.0485399365"><ele>422.64</ele><time>2015-04-06T13:09:21Z</time></trkpt><trkpt lat="43.0770707969" lon="-0.0485453010"><ele>422.64</ele><time>2015-04-06T13:09:22Z</time></trkpt><trkpt lat="43.0770733953" lon="-0.0485768169"><ele>422.64</ele><time>2015-04-06T13:09:23Z</time></trkpt><trkpt lat="43.0770630017" lon="-0.0486224983"><ele>422.16</ele><time>2015-04-06T13:09:24Z</time></trkpt><trkpt lat="43.0770466570" lon="-0.0486754719"><ele>421.68</ele><time>2015-04-06T13:09:25Z</time></trkpt><trkpt lat="43.0770317372" lon="-0.0487334747"><ele>421.19</ele><time>2015-04-06T13:09:26Z</time></trkpt><trkpt lat="43.0769630894" lon="-0.0489937328"><ele>417.35</ele><time>2015-04-06T13:09:30Z</time></trkpt><trkpt lat="43.0769472476" lon="-0.0490860175"><ele>416.39</ele><time>2015-04-06T13:09:31Z</time></trkpt><trkpt lat="43.0769521929" lon="-0.0493141729"><ele>413.02</ele><time>2015-04-06T13:09:33Z</time></trkpt><trkpt lat="43.0769721419" lon="-0.0495174341"><ele>411.10</ele><time>2015-04-06T13:09:35Z</time></trkpt><trkpt lat="43.0770389456" lon="-0.0497918576"><ele>409.18</ele><time>2015-04-06T13:09:38Z</time></trkpt><trkpt lat="43.0770696234" lon="-0.0498742517"><ele>408.70</ele><time>2015-04-06T13:09:39Z</time></trkpt><trkpt lat="43.0771158915" lon="-0.0499465037"><ele>408.22</ele><time>2015-04-06T13:09:40Z</time></trkpt><trkpt lat="43.0771686975" lon="-0.0500106253"><ele>408.22</ele><time>2015-04-06T13:09:41Z</time></trkpt><trkpt lat="43.0772202462" lon="-0.0500659458"><ele>407.74</ele><time>2015-04-06T13:09:42Z</time></trkpt><trkpt lat="43.0772722140" lon="-0.0501103699"><ele>407.26</ele><time>2015-04-06T13:09:43Z</time></trkpt><trkpt lat="43.0773223378" lon="-0.0501448195"><ele>407.74</ele><time>2015-04-06T13:09:44Z</time></trkpt><trkpt lat="43.0773725454" lon="-0.0501661934"><ele>407.26</ele><time>2015-04-06T13:09:45Z</time></trkpt><trkpt lat="43.0774199031" lon="-0.0501754135"><ele>407.74</ele><time>2015-04-06T13:09:46Z</time></trkpt><trkpt lat="43.0774563644" lon="-0.0501723960"><ele>407.74</ele><time>2015-04-06T13:09:47Z</time></trkpt><trkpt lat="43.0778183788" lon="-0.0502883177"><ele>409.18</ele><time>2015-04-06T13:10:00Z</time></trkpt><trkpt lat="43.0779778864" lon="-0.0505531020"><ele>410.62</ele><time>2015-04-06T13:10:10Z</time></trkpt><trkpt lat="43.0780850910" lon="-0.0507581234"><ele>413.98</ele><time>2015-04-06T13:10:20Z</time></trkpt><trkpt lat="43.0781121645" lon="-0.0508154556"><ele>414.95</ele><time>2015-04-06T13:10:23Z</time></trkpt><trkpt lat="43.0781257432" lon="-0.0508328900"><ele>414.95</ele><time>2015-04-06T13:10:24Z</time></trkpt><trkpt lat="43.0782951415" lon="-0.0509779807"><ele>416.39</ele><time>2015-04-06T13:10:34Z</time></trkpt><trkpt lat="43.0784998275" lon="-0.0510856044"><ele>418.31</ele><time>2015-04-06T13:10:45Z</time></trkpt><trkpt lat="43.0785892624" lon="-0.0511214789"><ele>418.79</ele><time>2015-04-06T13:10:52Z</time></trkpt><trkpt lat="43.0786141567" lon="-0.0511334650"><ele>419.27</ele><time>2015-04-06T13:10:55Z</time></trkpt><trkpt lat="43.0786278192" lon="-0.0511384942"><ele>419.27</ele><time>2015-04-06T13:10:56Z</time></trkpt><trkpt lat="43.0786820501" lon="-0.0511709321"><ele>419.75</ele><time>2015-04-06T13:10:59Z</time></trkpt><trkpt lat="43.0787016638" lon="-0.0511780567"><ele>419.75</ele><time>2015-04-06T13:11:00Z</time></trkpt><trkpt lat="43.0787222832" lon="-0.0511948206"><ele>419.75</ele><time>2015-04-06T13:11:01Z</time></trkpt><trkpt lat="43.0787441600" lon="-0.0512070581"><ele>419.75</ele><time>2015-04-06T13:11:02Z</time></trkpt><trkpt lat="43.0787670426" lon="-0.0512140151"><ele>419.75</ele><time>2015-04-06T13:11:03Z</time></trkpt><trkpt lat="43.0789219402" lon="-0.0513374805"><ele>420.23</ele><time>2015-04-06T13:11:15Z</time></trkpt><trkpt lat="43.0790530331" lon="-0.0513646379"><ele>419.75</ele><time>2015-04-06T13:11:27Z</time></trkpt><trkpt lat="43.0790791847" lon="-0.0513715949"><ele>419.27</ele><time>2015-04-06T13:11:36Z</time></trkpt><trkpt lat="43.0791041628" lon="-0.0513720140"><ele>419.27</ele><time>2015-04-06T13:11:37Z</time></trkpt><trkpt lat="43.0791350920" lon="-0.0513736904"><ele>419.27</ele><time>2015-04-06T13:11:38Z</time></trkpt><trkpt lat="43.0791648477" lon="-0.0513749477"><ele>418.79</ele><time>2015-04-06T13:11:39Z</time></trkpt><trkpt lat="43.0791959446" lon="-0.0513722654"><ele>418.79</ele><time>2015-04-06T13:11:40Z</time></trkpt><trkpt lat="43.0792272091" lon="-0.0513596926"><ele>418.79</ele><time>2015-04-06T13:11:41Z</time></trkpt><trkpt lat="43.0792915821" lon="-0.0513094850"><ele>418.31</ele><time>2015-04-06T13:11:44Z</time></trkpt><trkpt lat="43.0795308016" lon="-0.0514299329"><ele>417.83</ele><time>2015-04-06T13:11:53Z</time></trkpt><trkpt lat="43.0796162970" lon="-0.0514774583"><ele>417.83</ele><time>2015-04-06T13:11:55Z</time></trkpt><trkpt lat="43.0797268543" lon="-0.0514652207"><ele>417.83</ele><time>2015-04-06T13:11:56Z</time></trkpt><trkpt lat="43.0798077397" lon="-0.0514696632"><ele>418.31</ele><time>2015-04-06T13:11:57Z</time></trkpt><trkpt lat="43.0798400939" lon="-0.0514984969"><ele>417.83</ele><time>2015-04-06T13:11:58Z</time></trkpt><trkpt lat="43.0798660778" lon="-0.0515248161"><ele>417.83</ele><time>2015-04-06T13:11:59Z</time></trkpt><trkpt lat="43.0799102504" lon="-0.0515359640"><ele>418.31</ele><time>2015-04-06T13:12:00Z</time></trkpt><trkpt lat="43.0799517408" lon="-0.0515482854"><ele>418.31</ele><time>2015-04-06T13:12:01Z</time></trkpt><trkpt lat="43.0802468676" lon="-0.0515940506"><ele>416.87</ele><time>2015-04-06T13:12:11Z</time></trkpt><trkpt lat="43.0803457741" lon="-0.0514875166"><ele>418.79</ele><time>2015-04-06T13:12:15Z</time></trkpt><trkpt lat="43.0806625262" lon="-0.0513450243"><ele>419.75</ele><time>2015-04-06T13:12:24Z</time></trkpt><trkpt lat="43.0810170807" lon="-0.0513308588"><ele>421.68</ele><time>2015-04-06T13:12:36Z</time></trkpt><trkpt lat="43.0811172444" lon="-0.0513591897"><ele>422.64</ele><time>2015-04-06T13:12:49Z</time></trkpt><trkpt lat="43.0811309069" lon="-0.0513927173"><ele>422.64</ele><time>2015-04-06T13:13:05Z</time></trkpt><trkpt lat="43.0811361875" lon="-0.0514146779"><ele>423.60</ele><time>2015-04-06T13:13:10Z</time></trkpt><trkpt lat="43.0811514426" lon="-0.0514278375"><ele>424.08</ele><time>2015-04-06T13:13:12Z</time></trkpt><trkpt lat="43.0811825395" lon="-0.0514881033"><ele>425.04</ele><time>2015-04-06T13:13:18Z</time></trkpt><trkpt lat="43.0812184140" lon="-0.0516007561"><ele>425.04</ele><time>2015-04-06T13:13:24Z</time></trkpt><trkpt lat="43.0812653527" lon="-0.0517808832"><ele>424.56</ele><time>2015-04-06T13:13:29Z</time></trkpt><trkpt lat="43.0813669413" lon="-0.0520020816"><ele>423.12</ele><time>2015-04-06T13:13:34Z</time></trkpt><trkpt lat="43.0813995469" lon="-0.0520465057"><ele>423.60</ele><time>2015-04-06T13:13:35Z</time></trkpt><trkpt lat="43.0814325716" lon="-0.0520975515"><ele>423.12</ele><time>2015-04-06T13:13:36Z</time></trkpt><trkpt lat="43.0814919155" lon="-0.0521916803"><ele>421.68</ele><time>2015-04-06T13:13:38Z</time></trkpt><trkpt lat="43.0815697834" lon="-0.0523100328"><ele>420.71</ele><time>2015-04-06T13:13:40Z</time></trkpt><trkpt lat="43.0816181470" lon="-0.0523618329"><ele>420.71</ele><time>2015-04-06T13:13:41Z</time></trkpt><trkpt lat="43.0816949252" lon="-0.0524259545"><ele>418.31</ele><time>2015-04-06T13:13:43Z</time></trkpt><trkpt lat="43.0817164667" lon="-0.0524286367"><ele>418.31</ele><time>2015-04-06T13:13:44Z</time></trkpt><trkpt lat="43.0817367509" lon="-0.0524573866"><ele>417.35</ele><time>2015-04-06T13:13:52Z</time></trkpt><trkpt lat="43.0817090906" lon="-0.0525486656"><ele>418.31</ele><time>2015-04-06T13:14:09Z</time></trkpt><trkpt lat="43.0816946737" lon="-0.0525921676"><ele>417.83</ele><time>2015-04-06T13:14:30Z</time></trkpt><trkpt lat="43.0817195680" lon="-0.0525875576"><ele>418.31</ele><time>2015-04-06T13:14:36Z</time></trkpt><trkpt lat="43.0817489047" lon="-0.0525762420"><ele>418.31</ele><time>2015-04-06T13:14:37Z</time></trkpt><trkpt lat="43.0817750562" lon="-0.0525702070"><ele>418.31</ele><time>2015-04-06T13:14:38Z</time></trkpt><trkpt lat="43.0817993637" lon="-0.0525681954"><ele>417.83</ele><time>2015-04-06T13:14:39Z</time></trkpt><trkpt lat="43.0818274431" lon="-0.0525521860"><ele>416.87</ele><time>2015-04-06T13:14:40Z</time></trkpt><trkpt lat="43.0818574503" lon="-0.0525233522"><ele>416.87</ele><time>2015-04-06T13:14:41Z</time></trkpt><trkpt lat="43.0818808358" lon="-0.0524924230"><ele>416.87</ele><time>2015-04-06T13:14:42Z</time></trkpt><trkpt lat="43.0818983540" lon="-0.0524702109"><ele>416.87</ele><time>2015-04-06T13:14:43Z</time></trkpt><trkpt lat="43.0819230806" lon="-0.0524619967"><ele>416.39</ele><time>2015-04-06T13:14:44Z</time></trkpt><trkpt lat="43.0819555186" lon="-0.0524650980"><ele>415.91</ele><time>2015-04-06T13:14:45Z</time></trkpt><trkpt lat="43.0819869507" lon="-0.0524597336"><ele>414.95</ele><time>2015-04-06T13:14:46Z</time></trkpt><trkpt lat="43.0820097495" lon="-0.0524447300"><ele>414.95</ele><time>2015-04-06T13:14:47Z</time></trkpt><trkpt lat="43.0820301175" lon="-0.0524293073"><ele>414.95</ele><time>2015-04-06T13:14:48Z</time></trkpt><trkpt lat="43.0820622202" lon="-0.0524133816"><ele>414.47</ele><time>2015-04-06T13:14:49Z</time></trkpt><trkpt lat="43.0821129307" lon="-0.0523994677"><ele>414.47</ele><time>2015-04-06T13:14:50Z</time></trkpt><trkpt lat="43.0821723584" lon="-0.0523987133"><ele>414.47</ele><time>2015-04-06T13:14:51Z</time></trkpt><trkpt lat="43.0822266731" lon="-0.0524091907"><ele>414.47</ele><time>2015-04-06T13:14:52Z</time></trkpt><trkpt lat="43.0822711810" lon="-0.0524253678"><ele>414.47</ele><time>2015-04-06T13:14:53Z</time></trkpt><trkpt lat="43.0824014358" lon="-0.0524709653"><ele>412.54</ele><time>2015-04-06T13:14:56Z</time></trkpt><trkpt lat="43.0824480392" lon="-0.0524724741"><ele>412.06</ele><time>2015-04-06T13:14:57Z</time></trkpt><trkpt lat="43.0825772882" lon="-0.0524769165"><ele>414.47</ele><time>2015-04-06T13:15:03Z</time></trkpt><trkpt lat="43.0826513842" lon="-0.0525126234"><ele>414.95</ele><time>2015-04-06T13:15:07Z</time></trkpt><trkpt lat="43.0827737600" lon="-0.0525438040"><ele>412.06</ele><time>2015-04-06T13:15:13Z</time></trkpt><trkpt lat="43.0828015041" lon="-0.0525422115"><ele>410.62</ele><time>2015-04-06T13:15:14Z</time></trkpt><trkpt lat="43.0828502029" lon="-0.0525151379"><ele>410.14</ele><time>2015-04-06T13:15:16Z</time></trkpt><trkpt lat="43.0829322618" lon="-0.0523811113"><ele>408.22</ele><time>2015-04-06T13:15:20Z</time></trkpt><trkpt lat="43.0829723272" lon="-0.0523526967"><ele>407.74</ele><time>2015-04-06T13:15:21Z</time></trkpt><trkpt lat="43.0830172542" lon="-0.0523306523"><ele>407.74</ele><time>2015-04-06T13:15:22Z</time></trkpt><trkpt lat="43.0832559709" lon="-0.0522670336"><ele>406.77</ele><time>2015-04-06T13:15:30Z</time></trkpt><trkpt lat="43.0834852159" lon="-0.0521806162"><ele>405.81</ele><time>2015-04-06T13:15:40Z</time></trkpt><trkpt lat="43.0834960286" lon="-0.0521610864"><ele>405.81</ele><time>2015-04-06T13:15:42Z</time></trkpt><trkpt lat="43.0835139658" lon="-0.0521436520"><ele>405.33</ele><time>2015-04-06T13:15:43Z</time></trkpt><trkpt lat="43.0835392792" lon="-0.0521227811"><ele>404.85</ele><time>2015-04-06T13:15:44Z</time></trkpt><trkpt lat="43.0836011376" lon="-0.0520382077"><ele>402.93</ele><time>2015-04-06T13:15:47Z</time></trkpt><trkpt lat="43.0836432148" lon="-0.0520128943"><ele>402.93</ele><time>2015-04-06T13:15:48Z</time></trkpt><trkpt lat="43.0836864654" lon="-0.0519926101"><ele>402.45</ele><time>2015-04-06T13:15:49Z</time></trkpt><trkpt lat="43.0837186519" lon="-0.0519834738"><ele>402.93</ele><time>2015-04-06T13:15:50Z</time></trkpt><trkpt lat="43.0837319791" lon="-0.0519672129"><ele>402.45</ele><time>2015-04-06T13:15:59Z</time></trkpt><trkpt lat="43.0837360863" lon="-0.0519500300"><ele>401.97</ele><time>2015-04-06T13:16:31Z</time></trkpt><trkpt lat="43.0837867968" lon="-0.0519233756"><ele>401.97</ele><time>2015-04-06T13:16:44Z</time></trkpt><trkpt lat="43.0837984476" lon="-0.0519108027"><ele>401.49</ele><time>2015-04-06T13:16:45Z</time></trkpt><trkpt lat="43.0838075839" lon="-0.0519001577"><ele>400.53</ele><time>2015-04-06T13:16:46Z</time></trkpt><trkpt lat="43.0838181451" lon="-0.0518953800"><ele>400.05</ele><time>2015-04-06T13:16:48Z</time></trkpt><trkpt lat="43.0838307180" lon="-0.0518961344"><ele>398.60</ele><time>2015-04-06T13:17:00Z</time></trkpt><trkpt lat="43.0838320591" lon="-0.0518952124"><ele>398.60</ele><time>2015-04-06T13:17:02Z</time></trkpt><trkpt lat="43.0838393513" lon="-0.0518236309"><ele>396.68</ele><time>2015-04-06T13:17:12Z</time></trkpt><trkpt lat="43.0838437099" lon="-0.0518086273"><ele>395.72</ele><time>2015-04-06T13:17:14Z</time></trkpt><trkpt lat="43.0838549417" lon="-0.0517854933"><ele>394.76</ele><time>2015-04-06T13:17:25Z</time></trkpt><trkpt lat="43.0838653352" lon="-0.0517748483"><ele>394.28</ele><time>2015-04-06T13:17:50Z</time></trkpt><trkpt lat="43.0838864576" lon="-0.0517408177"><ele>393.32</ele><time>2015-04-06T13:18:01Z</time></trkpt><trkpt lat="43.0838776566" lon="-0.0517310109"><ele>393.32</ele><time>2015-04-06T13:18:02Z</time></trkpt><trkpt lat="43.0838609766" lon="-0.0517115649"><ele>392.84</ele><time>2015-04-06T13:18:04Z</time></trkpt><trkpt lat="43.0838433746" lon="-0.0516983215"><ele>391.87</ele><time>2015-04-06T13:18:05Z</time></trkpt><trkpt lat="43.0838307180" lon="-0.0516875926"><ele>391.39</ele><time>2015-04-06T13:18:06Z</time></trkpt><trkpt lat="43.0838245992" lon="-0.0516689848"><ele>390.43</ele><time>2015-04-06T13:18:07Z</time></trkpt><trkpt lat="43.0838248506" lon="-0.0516496226"><ele>390.43</ele><time>2015-04-06T13:18:08Z</time></trkpt><trkpt lat="43.0838287063" lon="-0.0516321044"><ele>389.47</ele><time>2015-04-06T13:18:09Z</time></trkpt><trkpt lat="43.0838298798" lon="-0.0516114850"><ele>388.99</ele><time>2015-04-06T13:18:10Z</time></trkpt><trkpt lat="43.0838332325" lon="-0.0515896082"><ele>388.99</ele><time>2015-04-06T13:18:11Z</time></trkpt><trkpt lat="43.0838468950" lon="-0.0515551586"><ele>388.03</ele><time>2015-04-06T13:18:12Z</time></trkpt><trkpt lat="43.0838706158" lon="-0.0515222177"><ele>387.55</ele><time>2015-04-06T13:18:13Z</time></trkpt><trkpt lat="43.0838932469" lon="-0.0515097287"><ele>387.55</ele><time>2015-04-06T13:18:14Z</time></trkpt><trkpt lat="43.0839104299" lon="-0.0515026879"><ele>387.55</ele><time>2015-04-06T13:18:15Z</time></trkpt><trkpt lat="43.0839209072" lon="-0.0514690764"><ele>386.59</ele><time>2015-04-06T13:18:23Z</time></trkpt><trkpt lat="43.0839336477" lon="-0.0514524803"><ele>386.59</ele><time>2015-04-06T13:18:48Z</time></trkpt><trkpt lat="43.0839409400" lon="-0.0514444336"><ele>386.59</ele><time>2015-04-06T13:19:05Z</time></trkpt><trkpt lat="43.0839393474" lon="-0.0514430925"><ele>386.59</ele><time>2015-04-06T13:19:08Z</time></trkpt><trkpt lat="43.0839583743" lon="-0.0514360517"><ele>386.59</ele><time>2015-04-06T13:19:10Z</time></trkpt><trkpt lat="43.0839700252" lon="-0.0514361355"><ele>386.59</ele><time>2015-04-06T13:19:11Z</time></trkpt><trkpt lat="43.0840003677" lon="-0.0514377281"><ele>387.07</ele><time>2015-04-06T13:19:14Z</time></trkpt><trkpt lat="43.0840851925" lon="-0.0514059607"><ele>387.07</ele><time>2015-04-06T13:19:18Z</time></trkpt><trkpt lat="43.0841312092" lon="-0.0513594411"><ele>387.07</ele><time>2015-04-06T13:19:21Z</time></trkpt><trkpt lat="43.0842047185" lon="-0.0513363071"><ele>387.07</ele><time>2015-04-06T13:19:26Z</time></trkpt><trkpt lat="43.0842978414" lon="-0.0513255782"><ele>387.07</ele><time>2015-04-06T13:19:29Z</time></trkpt><trkpt lat="43.0846281722" lon="-0.0511843432"><ele>387.07</ele><time>2015-04-06T13:19:38Z</time></trkpt><trkpt lat="43.0850193556" lon="-0.0510648172"><ele>387.07</ele><time>2015-04-06T13:19:48Z</time></trkpt><trkpt lat="43.0853816215" lon="-0.0509000290"><ele>388.03</ele><time>2015-04-06T13:20:00Z</time></trkpt><trkpt lat="43.0856765807" lon="-0.0506985281"><ele>388.51</ele><time>2015-04-06T13:20:11Z</time></trkpt><trkpt lat="43.0860372540" lon="-0.0504443049"><ele>387.55</ele><time>2015-04-06T13:20:23Z</time></trkpt><trkpt lat="43.0861672573" lon="-0.0504926685"><ele>387.07</ele><time>2015-04-06T13:20:26Z</time></trkpt><trkpt lat="43.0862122681" lon="-0.0505252741"><ele>387.07</ele><time>2015-04-06T13:20:27Z</time></trkpt><trkpt lat="43.0863450374" lon="-0.0506011304"><ele>386.11</ele><time>2015-04-06T13:20:30Z</time></trkpt><trkpt lat="43.0863896292" lon="-0.0506214146"><ele>386.59</ele><time>2015-04-06T13:20:31Z</time></trkpt><trkpt lat="43.0864359811" lon="-0.0506381784"><ele>386.11</ele><time>2015-04-06T13:20:32Z</time></trkpt><trkpt lat="43.0864827521" lon="-0.0506479014"><ele>386.11</ele><time>2015-04-06T13:20:33Z</time></trkpt><trkpt lat="43.0865290202" lon="-0.0506536849"><ele>386.11</ele><time>2015-04-06T13:20:34Z</time></trkpt><trkpt lat="43.0867182836" lon="-0.0506581273"><ele>386.11</ele><time>2015-04-06T13:20:38Z</time></trkpt><trkpt lat="43.0867597740" lon="-0.0506740529"><ele>387.07</ele><time>2015-04-06T13:20:39Z</time></trkpt><trkpt lat="43.0867989175" lon="-0.0506877992"><ele>387.07</ele><time>2015-04-06T13:20:40Z</time></trkpt><trkpt lat="43.0872134026" lon="-0.0508209877"><ele>388.03</ele><time>2015-04-06T13:20:52Z</time></trkpt><trkpt lat="43.0875173304" lon="-0.0510972552"><ele>388.99</ele><time>2015-04-06T13:21:03Z</time></trkpt><trkpt lat="43.0875415541" lon="-0.0511070620"><ele>388.03</ele><time>2015-04-06T13:21:04Z</time></trkpt><trkpt lat="43.0879016407" lon="-0.0516005885"><ele>388.99</ele><time>2015-04-06T13:21:18Z</time></trkpt><trkpt lat="43.0880950112" lon="-0.0521633495"><ele>388.03</ele><time>2015-04-06T13:21:32Z</time></trkpt><trkpt lat="43.0883515812" lon="-0.0526935887"><ele>388.03</ele><time>2015-04-06T13:21:46Z</time></trkpt><trkpt lat="43.0887861829" lon="-0.0530579500"><ele>388.99</ele><time>2015-04-06T13:22:00Z</time></trkpt><trkpt lat="43.0890982412" lon="-0.0532912184"><ele>388.03</ele><time>2015-04-06T13:22:12Z</time></trkpt><trkpt lat="43.0890993308" lon="-0.0532863569"><ele>388.03</ele><time>2015-04-06T13:22:13Z</time></trkpt><trkpt lat="43.0891006719" lon="-0.0532760471"><ele>388.03</ele><time>2015-04-06T13:22:14Z</time></trkpt><trkpt lat="43.0891079642" lon="-0.0532542542"><ele>387.55</ele><time>2015-04-06T13:22:15Z</time></trkpt><trkpt lat="43.0891178548" lon="-0.0532218162"><ele>387.55</ele><time>2015-04-06T13:22:16Z</time></trkpt><trkpt lat="43.0891238898" lon="-0.0531899650"><ele>387.07</ele><time>2015-04-06T13:22:17Z</time></trkpt><trkpt lat="43.0891249795" lon="-0.0531550962"><ele>387.07</ele><time>2015-04-06T13:22:18Z</time></trkpt><trkpt lat="43.0891241413" lon="-0.0531149469"><ele>387.55</ele><time>2015-04-06T13:22:19Z</time></trkpt><trkpt lat="43.0891260691" lon="-0.0530022942"><ele>387.07</ele><time>2015-04-06T13:22:27Z</time></trkpt><trkpt lat="43.0891318526" lon="-0.0529874582"><ele>387.07</ele><time>2015-04-06T13:22:51Z</time></trkpt><trkpt lat="43.0891373847" lon="-0.0529943313"><ele>386.59</ele><time>2015-04-06T13:22:59Z</time></trkpt><trkpt lat="43.0891233869" lon="-0.0529003702"><ele>386.59</ele><time>2015-04-06T13:23:04Z</time></trkpt><trkpt lat="43.0891813897" lon="-0.0523406267"><ele>387.07</ele><time>2015-04-06T13:23:18Z</time></trkpt><trkpt lat="43.0892921984" lon="-0.0520349387"><ele>387.55</ele><time>2015-04-06T13:23:27Z</time></trkpt><trkpt lat="43.0893188529" lon="-0.0519754272"><ele>388.51</ele><time>2015-04-06T13:23:29Z</time></trkpt><trkpt lat="43.0892639514" lon="-0.0516779535"><ele>389.95</ele><time>2015-04-06T13:23:40Z</time></trkpt><trkpt lat="43.0891549867" lon="-0.0512367301"><ele>392.36</ele><time>2015-04-06T13:23:54Z</time></trkpt><trkpt lat="43.0891003367" lon="-0.0510022044"><ele>392.36</ele><time>2015-04-06T13:24:02Z</time></trkpt><trkpt lat="43.0890720058" lon="-0.0508774817"><ele>393.80</ele><time>2015-04-06T13:24:06Z</time></trkpt><trkpt lat="43.0889669806" lon="-0.0504914112"><ele>396.68</ele><time>2015-04-06T13:24:19Z</time></trkpt><trkpt lat="43.0888985004" lon="-0.0501125492"><ele>399.57</ele><time>2015-04-06T13:24:32Z</time></trkpt><trkpt lat="43.0888698343" lon="-0.0498428196"><ele>402.45</ele><time>2015-04-06T13:24:42Z</time></trkpt><trkpt lat="43.0888596084" lon="-0.0496550649"><ele>403.41</ele><time>2015-04-06T13:24:50Z</time></trkpt><trkpt lat="43.0888698343" lon="-0.0495082140"><ele>404.37</ele><time>2015-04-06T13:24:58Z</time></trkpt><trkpt lat="43.0885123461" lon="-0.0492494646"><ele>401.97</ele><time>2015-04-06T13:25:11Z</time></trkpt><trkpt lat="43.0884721130" lon="-0.0492290128"><ele>401.97</ele><time>2015-04-06T13:25:12Z</time></trkpt><trkpt lat="43.0884288624" lon="-0.0492104888"><ele>402.45</ele><time>2015-04-06T13:25:13Z</time></trkpt><trkpt lat="43.0877495091" lon="-0.0489098299"><ele>400.05</ele><time>2015-04-06T13:25:26Z</time></trkpt><trkpt lat="43.0869729258" lon="-0.0486842729"><ele>399.57</ele><time>2015-04-06T13:25:41Z</time></trkpt><trkpt lat="43.0868433416" lon="-0.0486468896"><ele>401.01</ele><time>2015-04-06T13:25:44Z</time></trkpt><trkpt lat="43.0867980793" lon="-0.0486333948"><ele>400.53</ele><time>2015-04-06T13:25:45Z</time></trkpt><trkpt lat="43.0867539905" lon="-0.0486195646"><ele>400.53</ele><time>2015-04-06T13:25:46Z</time></trkpt><trkpt lat="43.0867115781" lon="-0.0486037228"><ele>400.53</ele><time>2015-04-06T13:25:47Z</time></trkpt><trkpt lat="43.0866727699" lon="-0.0485868752"><ele>401.01</ele><time>2015-04-06T13:25:48Z</time></trkpt><trkpt lat="43.0865899567" lon="-0.0485498272"><ele>401.49</ele><time>2015-04-06T13:25:50Z</time></trkpt><trkpt lat="43.0861990247" lon="-0.0483614020"><ele>403.41</ele><time>2015-04-06T13:26:00Z</time></trkpt><trkpt lat="43.0861624796" lon="-0.0483426265"><ele>403.41</ele><time>2015-04-06T13:26:01Z</time></trkpt><trkpt lat="43.0861237552" lon="-0.0483269524"><ele>403.41</ele><time>2015-04-06T13:26:02Z</time></trkpt><trkpt lat="43.0857598968" lon="-0.0481845438"><ele>403.41</ele><time>2015-04-06T13:26:11Z</time></trkpt><trkpt lat="43.0857225135" lon="-0.0481713004"><ele>403.89</ele><time>2015-04-06T13:26:12Z</time></trkpt><trkpt lat="43.0856855493" lon="-0.0481546205"><ele>403.41</ele><time>2015-04-06T13:26:13Z</time></trkpt><trkpt lat="43.0850973073" lon="-0.0479413010"><ele>404.37</ele><time>2015-04-06T13:26:28Z</time></trkpt><trkpt lat="43.0849753506" lon="-0.0478532072"><ele>404.37</ele><time>2015-04-06T13:26:33Z</time></trkpt><trkpt lat="43.0849792901" lon="-0.0478171650"><ele>404.85</ele><time>2015-04-06T13:26:34Z</time></trkpt><trkpt lat="43.0849917792" lon="-0.0477801170"><ele>404.85</ele><time>2015-04-06T13:26:35Z</time></trkpt><trkpt lat="43.0850094650" lon="-0.0477448292"><ele>404.85</ele><time>2015-04-06T13:26:36Z</time></trkpt><trkpt lat="43.0850328505" lon="-0.0477127265"><ele>404.85</ele><time>2015-04-06T13:26:37Z</time></trkpt><trkpt lat="43.0850580800" lon="-0.0476853177"><ele>405.33</ele><time>2015-04-06T13:26:38Z</time></trkpt><trkpt lat="43.0850852374" lon="-0.0476626866"><ele>404.85</ele><time>2015-04-06T13:26:39Z</time></trkpt><trkpt lat="43.0851149093" lon="-0.0476433244"><ele>405.33</ele><time>2015-04-06T13:26:40Z</time></trkpt><trkpt lat="43.0855148938" lon="-0.0476294942"><ele>405.81</ele><time>2015-04-06T13:26:51Z</time></trkpt><trkpt lat="43.0861042254" lon="-0.0477581564"><ele>405.33</ele><time>2015-04-06T13:27:06Z</time></trkpt><trkpt lat="43.0861872062" lon="-0.0477739144"><ele>405.33</ele><time>2015-04-06T13:27:08Z</time></trkpt><trkpt lat="43.0862301216" lon="-0.0477678794"><ele>405.33</ele><time>2015-04-06T13:27:09Z</time></trkpt><trkpt lat="43.0867958162" lon="-0.0476951245"><ele>408.22</ele><time>2015-04-06T13:27:23Z</time></trkpt><trkpt lat="43.0868435930" lon="-0.0476765167"><ele>408.22</ele><time>2015-04-06T13:27:25Z</time></trkpt><trkpt lat="43.0868638773" lon="-0.0476499461"><ele>408.70</ele><time>2015-04-06T13:27:26Z</time></trkpt><trkpt lat="43.0868754443" lon="-0.0476299133"><ele>408.70</ele><time>2015-04-06T13:27:27Z</time></trkpt><trkpt lat="43.0868741870" lon="-0.0476193521"><ele>409.18</ele><time>2015-04-06T13:27:28Z</time></trkpt><trkpt lat="43.0868742708" lon="-0.0475971401"><ele>409.18</ele><time>2015-04-06T13:27:31Z</time></trkpt><trkpt lat="43.0868811440" lon="-0.0475871656"><ele>409.66</ele><time>2015-04-06T13:27:32Z</time></trkpt><trkpt lat="43.0868947227" lon="-0.0475858245"><ele>409.18</ele><time>2015-04-06T13:27:33Z</time></trkpt><trkpt lat="43.0869103130" lon="-0.0475890096"><ele>409.18</ele><time>2015-04-06T13:27:34Z</time></trkpt><trkpt lat="43.0869263224" lon="-0.0475910213"><ele>409.66</ele><time>2015-04-06T13:27:35Z</time></trkpt><trkpt lat="43.0872066971" lon="-0.0475230440"><ele>409.66</ele><time>2015-04-06T13:27:44Z</time></trkpt><trkpt lat="43.0875439011" lon="-0.0474182703"><ele>410.14</ele><time>2015-04-06T13:27:55Z</time></trkpt><trkpt lat="43.0876661930" lon="-0.0473809708"><ele>410.14</ele><time>2015-04-06T13:27:58Z</time></trkpt><trkpt lat="43.0880250223" lon="-0.0472155120"><ele>410.14</ele><time>2015-04-06T13:28:07Z</time></trkpt><trkpt lat="43.0880639143" lon="-0.0471919589"><ele>409.66</ele><time>2015-04-06T13:28:08Z</time></trkpt><trkpt lat="43.0881024711" lon="-0.0471671484"><ele>409.66</ele><time>2015-04-06T13:28:09Z</time></trkpt><trkpt lat="43.0887365621" lon="-0.0467402581"><ele>409.66</ele><time>2015-04-06T13:28:26Z</time></trkpt><trkpt lat="43.0891874246" lon="-0.0463090092"><ele>409.66</ele><time>2015-04-06T13:28:41Z</time></trkpt><trkpt lat="43.0892455112" lon="-0.0462375116"><ele>409.66</ele><time>2015-04-06T13:28:45Z</time></trkpt><trkpt lat="43.0892464332" lon="-0.0462220889"><ele>409.66</ele><time>2015-04-06T13:28:46Z</time></trkpt><trkpt lat="43.0892416555" lon="-0.0462097675"><ele>410.14</ele><time>2015-04-06T13:28:47Z</time></trkpt><trkpt lat="43.0890124943" lon="-0.0461642537"><ele>410.14</ele><time>2015-04-06T13:28:56Z</time></trkpt><trkpt lat="43.0886700097" lon="-0.0461448077"><ele>411.10</ele><time>2015-04-06T13:29:05Z</time></trkpt><trkpt lat="43.0883776490" lon="-0.0461470708"><ele>411.58</ele><time>2015-04-06T13:29:12Z</time></trkpt><trkpt lat="43.0883297045" lon="-0.0461515132"><ele>411.58</ele><time>2015-04-06T13:29:13Z</time></trkpt><trkpt lat="43.0880216695" lon="-0.0461149681"><ele>411.58</ele><time>2015-04-06T13:29:23Z</time></trkpt><trkpt lat="43.0879051611" lon="-0.0460775010"><ele>412.54</ele><time>2015-04-06T13:29:27Z</time></trkpt><trkpt lat="43.0878952704" lon="-0.0460469909"><ele>412.54</ele><time>2015-04-06T13:29:28Z</time></trkpt><trkpt lat="43.0878932588" lon="-0.0460117869"><ele>412.06</ele><time>2015-04-06T13:29:29Z</time></trkpt><trkpt lat="43.0878832843" lon="-0.0454978086"><ele>412.06</ele><time>2015-04-06T13:29:41Z</time></trkpt><trkpt lat="43.0878426321" lon="-0.0449409150"><ele>412.06</ele><time>2015-04-06T13:29:54Z</time></trkpt><trkpt lat="43.0878288858" lon="-0.0448866002"><ele>412.54</ele><time>2015-04-06T13:29:55Z</time></trkpt><trkpt lat="43.0878234375" lon="-0.0448322017"><ele>412.06</ele><time>2015-04-06T13:29:56Z</time></trkpt><trkpt lat="43.0878280476" lon="-0.0447767973"><ele>412.06</ele><time>2015-04-06T13:29:57Z</time></trkpt><trkpt lat="43.0878337473" lon="-0.0447288528"><ele>412.06</ele><time>2015-04-06T13:29:58Z</time></trkpt><trkpt lat="43.0878362618" lon="-0.0446871947"><ele>412.06</ele><time>2015-04-06T13:29:59Z</time></trkpt><trkpt lat="43.0878447276" lon="-0.0446395855"><ele>412.54</ele><time>2015-04-06T13:30:00Z</time></trkpt><trkpt lat="43.0878557917" lon="-0.0445922278"><ele>412.06</ele><time>2015-04-06T13:30:01Z</time></trkpt><trkpt lat="43.0878506787" lon="-0.0445634779"><ele>412.06</ele><time>2015-04-06T13:30:02Z</time></trkpt><trkpt lat="43.0878312327" lon="-0.0445503183"><ele>411.58</ele><time>2015-04-06T13:30:03Z</time></trkpt><trkpt lat="43.0878026504" lon="-0.0445463788"><ele>412.06</ele><time>2015-04-06T13:30:04Z</time></trkpt><trkpt lat="43.0877821986" lon="-0.0445425231"><ele>412.06</ele><time>2015-04-06T13:30:05Z</time></trkpt><trkpt lat="43.0877635069" lon="-0.0445360690"><ele>412.06</ele><time>2015-04-06T13:30:06Z</time></trkpt><trkpt lat="43.0876789335" lon="-0.0445256755"><ele>411.58</ele><time>2015-04-06T13:30:17Z</time></trkpt><trkpt lat="43.0876747426" lon="-0.0445363205"><ele>411.58</ele><time>2015-04-06T13:30:36Z</time></trkpt><trkpt lat="43.0876467470" lon="-0.0444957521"><ele>411.58</ele><time>2015-04-06T13:30:54Z</time></trkpt><trkpt lat="43.0876463279" lon="-0.0444707740"><ele>411.58</ele><time>2015-04-06T13:31:06Z</time></trkpt><trkpt lat="43.0876484234" lon="-0.0444892980"><ele>410.62</ele><time>2015-04-06T13:31:16Z</time></trkpt><trkpt lat="43.0876540393" lon="-0.0444935728"><ele>410.62</ele><time>2015-04-06T13:31:40Z</time></trkpt><trkpt lat="43.0876559671" lon="-0.0445067324"><ele>410.62</ele><time>2015-04-06T13:32:09Z</time></trkpt><trkpt lat="43.0876580626" lon="-0.0445153657"><ele>410.62</ele><time>2015-04-06T13:32:28Z</time></trkpt><trkpt lat="43.0876591522" lon="-0.0445182994"><ele>412.06</ele><time>2015-04-06T13:32:49Z</time></trkpt><trkpt lat="43.0876596551" lon="-0.0445183832"><ele>414.95</ele><time>2015-04-06T13:32:50Z</time></trkpt><trkpt lat="43.0876593199" lon="-0.0445178803"><ele>410.14</ele><time>2015-04-06T13:32:51Z</time></trkpt><trkpt lat="43.0876573920" lon="-0.0445153657"><ele>411.58</ele><time>2015-04-06T13:32:59Z</time></trkpt><trkpt lat="43.0876568053" lon="-0.0445127673"><ele>410.62</ele><time>2015-04-06T13:33:10Z</time></trkpt></trkseg></trk></gpx>